<?xml version="1.0" encoding="UTF-8" standalone="no" ?>
<gpx xmlns="http://www.topografix.com/GPX/1/1" xmlns:xsi="http://www.w3.org/2001/XMLSchema-instance" xsi:schemaLocation="http://www.topografix.com/GPX/1/1 http://www.topografix.com/GPX/1/1/gpx.xsd" version="1.1" creator="VisuGPX - https://www.visugpx.com">
  <metadata>
    <name>ST_RAD-LAC_BAGES 40km 1200</name>
    <desc><![CDATA[st Radegonde via Camboulas et pont de Salars]]></desc>
  </metadata>
  <trk>
    <name><![CDATA[2013-02-03T07:27:24Z]]></name>
    <trkseg>
      <trkpt lat="44.3357" lon="2.62927">
        <ele>647.5852051</ele>
        <time>2013-02-03T07:27:24Z</time>
      </trkpt>
      <trkpt lat="44.33569" lon="2.62928">
        <ele>647.5852051</ele>
        <time>2013-02-03T07:27:25Z</time>
      </trkpt>
      <trkpt lat="44.33569" lon="2.62931">
        <ele>647.1044922</ele>
        <time>2013-02-03T07:27:27Z</time>
      </trkpt>
      <trkpt lat="44.3357" lon="2.62946">
        <ele>647.5852051</ele>
        <time>2013-02-03T07:27:32Z</time>
      </trkpt>
      <trkpt lat="44.33571" lon="2.62949">
        <ele>647.5852051</ele>
        <time>2013-02-03T07:27:33Z</time>
      </trkpt>
      <trkpt lat="44.33575" lon="2.62982">
        <ele>647.5852051</ele>
        <time>2013-02-03T07:27:41Z</time>
      </trkpt>
      <trkpt lat="44.33574" lon="2.62999">
        <ele>645.6625977</ele>
        <time>2013-02-03T07:27:45Z</time>
      </trkpt>
      <trkpt lat="44.33572" lon="2.63017">
        <ele>645.1818848</ele>
        <time>2013-02-03T07:27:50Z</time>
      </trkpt>
      <trkpt lat="44.33572" lon="2.63029">
        <ele>644.2207031</ele>
        <time>2013-02-03T07:27:53Z</time>
      </trkpt>
      <trkpt lat="44.33564" lon="2.63041">
        <ele>641.8173828</ele>
        <time>2013-02-03T07:27:58Z</time>
      </trkpt>
      <trkpt lat="44.33562" lon="2.63056">
        <ele>640.3754883</ele>
        <time>2013-02-03T07:28:02Z</time>
      </trkpt>
      <trkpt lat="44.33558" lon="2.63079">
        <ele>638.4528809</ele>
        <time>2013-02-03T07:28:08Z</time>
      </trkpt>
      <trkpt lat="44.33555" lon="2.63097">
        <ele>636.5302734</ele>
        <time>2013-02-03T07:28:13Z</time>
      </trkpt>
      <trkpt lat="44.33549" lon="2.63116">
        <ele>633.6459961</ele>
        <time>2013-02-03T07:28:19Z</time>
      </trkpt>
      <trkpt lat="44.33542" lon="2.63132">
        <ele>633.6459961</ele>
        <time>2013-02-03T07:28:24Z</time>
      </trkpt>
      <trkpt lat="44.33536" lon="2.6315">
        <ele>635.0881348</ele>
        <time>2013-02-03T07:28:29Z</time>
      </trkpt>
      <trkpt lat="44.33529" lon="2.63171">
        <ele>635.0881348</ele>
        <time>2013-02-03T07:28:35Z</time>
      </trkpt>
      <trkpt lat="44.33525" lon="2.63186">
        <ele>636.5302734</ele>
        <time>2013-02-03T07:28:39Z</time>
      </trkpt>
      <trkpt lat="44.33521" lon="2.63205">
        <ele>635.5686035</ele>
        <time>2013-02-03T07:28:44Z</time>
      </trkpt>
      <trkpt lat="44.33515" lon="2.63232">
        <ele>636.5302734</ele>
        <time>2013-02-03T07:28:51Z</time>
      </trkpt>
      <trkpt lat="44.33508" lon="2.63256">
        <ele>634.6074219</ele>
        <time>2013-02-03T07:28:58Z</time>
      </trkpt>
      <trkpt lat="44.33502" lon="2.63273">
        <ele>633.1652832</ele>
        <time>2013-02-03T07:29:03Z</time>
      </trkpt>
      <trkpt lat="44.33497" lon="2.63291">
        <ele>631.7233887</ele>
        <time>2013-02-03T07:29:08Z</time>
      </trkpt>
      <trkpt lat="44.33492" lon="2.63313">
        <ele>630.2814941</ele>
        <time>2013-02-03T07:29:14Z</time>
      </trkpt>
      <trkpt lat="44.33488" lon="2.63332">
        <ele>628.8395996</ele>
        <time>2013-02-03T07:29:19Z</time>
      </trkpt>
      <trkpt lat="44.33483" lon="2.63351">
        <ele>627.8781738</ele>
        <time>2013-02-03T07:29:24Z</time>
      </trkpt>
      <trkpt lat="44.33481" lon="2.63371">
        <ele>626.4362793</ele>
        <time>2013-02-03T07:29:30Z</time>
      </trkpt>
      <trkpt lat="44.33478" lon="2.63392">
        <ele>626.4362793</ele>
        <time>2013-02-03T07:29:36Z</time>
      </trkpt>
      <trkpt lat="44.33478" lon="2.63399">
        <ele>626.9169922</ele>
        <time>2013-02-03T07:29:38Z</time>
      </trkpt>
      <trkpt lat="44.33477" lon="2.6341">
        <ele>627.3977051</ele>
        <time>2013-02-03T07:29:43Z</time>
      </trkpt>
      <trkpt lat="44.33478" lon="2.63417">
        <ele>628.3588867</ele>
        <time>2013-02-03T07:29:45Z</time>
      </trkpt>
      <trkpt lat="44.33478" lon="2.63435">
        <ele>629.3200684</ele>
        <time>2013-02-03T07:29:50Z</time>
      </trkpt>
      <trkpt lat="44.33477" lon="2.63438">
        <ele>629.3200684</ele>
        <time>2013-02-03T07:29:54Z</time>
      </trkpt>
      <trkpt lat="44.33477" lon="2.63437">
        <ele>630.762207</ele>
        <time>2013-02-03T07:30:05Z</time>
      </trkpt>
      <trkpt lat="44.33476" lon="2.63441">
        <ele>630.762207</ele>
        <time>2013-02-03T07:30:11Z</time>
      </trkpt>
      <trkpt lat="44.33472" lon="2.63454">
        <ele>630.762207</ele>
        <time>2013-02-03T07:30:16Z</time>
      </trkpt>
      <trkpt lat="44.33467" lon="2.6347">
        <ele>629.3200684</ele>
        <time>2013-02-03T07:30:22Z</time>
      </trkpt>
      <trkpt lat="44.33463" lon="2.63484">
        <ele>629.3200684</ele>
        <time>2013-02-03T07:30:27Z</time>
      </trkpt>
      <trkpt lat="44.33455" lon="2.63504">
        <ele>628.3588867</ele>
        <time>2013-02-03T07:30:33Z</time>
      </trkpt>
      <trkpt lat="44.3345" lon="2.63526">
        <ele>627.3977051</ele>
        <time>2013-02-03T07:30:39Z</time>
      </trkpt>
      <trkpt lat="44.33448" lon="2.63545">
        <ele>626.4362793</ele>
        <time>2013-02-03T07:30:44Z</time>
      </trkpt>
      <trkpt lat="44.33445" lon="2.6356">
        <ele>625.4748535</ele>
        <time>2013-02-03T07:30:48Z</time>
      </trkpt>
      <trkpt lat="44.33437" lon="2.63579">
        <ele>624.5136719</ele>
        <time>2013-02-03T07:30:53Z</time>
      </trkpt>
      <trkpt lat="44.3343" lon="2.63592">
        <ele>624.5136719</ele>
        <time>2013-02-03T07:30:57Z</time>
      </trkpt>
      <trkpt lat="44.33417" lon="2.63607">
        <ele>625.9555664</ele>
        <time>2013-02-03T07:31:03Z</time>
      </trkpt>
      <trkpt lat="44.33406" lon="2.63619">
        <ele>628.3588867</ele>
        <time>2013-02-03T07:31:09Z</time>
      </trkpt>
      <trkpt lat="44.33398" lon="2.63631">
        <ele>632.6848145</ele>
        <time>2013-02-03T07:31:15Z</time>
      </trkpt>
      <trkpt lat="44.33391" lon="2.6364">
        <ele>635.0881348</ele>
        <time>2013-02-03T07:31:20Z</time>
      </trkpt>
      <trkpt lat="44.33384" lon="2.63653">
        <ele>638.4528809</ele>
        <time>2013-02-03T07:31:26Z</time>
      </trkpt>
      <trkpt lat="44.33377" lon="2.63662">
        <ele>640.3754883</ele>
        <time>2013-02-03T07:31:31Z</time>
      </trkpt>
      <trkpt lat="44.33369" lon="2.63676">
        <ele>642.2980957</ele>
        <time>2013-02-03T07:31:37Z</time>
      </trkpt>
      <trkpt lat="44.33361" lon="2.63691">
        <ele>642.7788086</ele>
        <time>2013-02-03T07:31:43Z</time>
      </trkpt>
      <trkpt lat="44.33355" lon="2.63703">
        <ele>643.2592773</ele>
        <time>2013-02-03T07:31:48Z</time>
      </trkpt>
      <trkpt lat="44.33351" lon="2.63719">
        <ele>643.2592773</ele>
        <time>2013-02-03T07:31:54Z</time>
      </trkpt>
      <trkpt lat="44.33348" lon="2.63735">
        <ele>644.2207031</ele>
        <time>2013-02-03T07:32:00Z</time>
      </trkpt>
      <trkpt lat="44.33343" lon="2.63752">
        <ele>645.1818848</ele>
        <time>2013-02-03T07:32:06Z</time>
      </trkpt>
      <trkpt lat="44.33338" lon="2.63773">
        <ele>647.1044922</ele>
        <time>2013-02-03T07:32:13Z</time>
      </trkpt>
      <trkpt lat="44.33332" lon="2.63791">
        <ele>648.5463867</ele>
        <time>2013-02-03T07:32:19Z</time>
      </trkpt>
      <trkpt lat="44.33325" lon="2.63813">
        <ele>648.065918</ele>
        <time>2013-02-03T07:32:26Z</time>
      </trkpt>
      <trkpt lat="44.33321" lon="2.63828">
        <ele>648.065918</ele>
        <time>2013-02-03T07:32:31Z</time>
      </trkpt>
      <trkpt lat="44.33318" lon="2.63842">
        <ele>649.0270996</ele>
        <time>2013-02-03T07:32:36Z</time>
      </trkpt>
      <trkpt lat="44.33314" lon="2.6386">
        <ele>649.9885254</ele>
        <time>2013-02-03T07:32:42Z</time>
      </trkpt>
      <trkpt lat="44.3331" lon="2.63879">
        <ele>651.9111328</ele>
        <time>2013-02-03T07:32:48Z</time>
      </trkpt>
      <trkpt lat="44.33306" lon="2.63895">
        <ele>653.3532715</ele>
        <time>2013-02-03T07:32:53Z</time>
      </trkpt>
      <trkpt lat="44.33302" lon="2.63911">
        <ele>653.8339844</ele>
        <time>2013-02-03T07:32:58Z</time>
      </trkpt>
      <trkpt lat="44.33298" lon="2.63933">
        <ele>653.8339844</ele>
        <time>2013-02-03T07:33:04Z</time>
      </trkpt>
      <trkpt lat="44.33295" lon="2.63951">
        <ele>652.3918457</ele>
        <time>2013-02-03T07:33:09Z</time>
      </trkpt>
      <trkpt lat="44.33294" lon="2.63969">
        <ele>651.4304199</ele>
        <time>2013-02-03T07:33:14Z</time>
      </trkpt>
      <trkpt lat="44.33292" lon="2.63981">
        <ele>649.9885254</ele>
        <time>2013-02-03T07:33:18Z</time>
      </trkpt>
      <trkpt lat="44.33289" lon="2.64">
        <ele>649.5078125</ele>
        <time>2013-02-03T07:33:24Z</time>
      </trkpt>
      <trkpt lat="44.33283" lon="2.64022">
        <ele>650.4692383</ele>
        <time>2013-02-03T07:33:31Z</time>
      </trkpt>
      <trkpt lat="44.33279" lon="2.64046">
        <ele>651.9111328</ele>
        <time>2013-02-03T07:33:38Z</time>
      </trkpt>
      <trkpt lat="44.33277" lon="2.64065">
        <ele>653.3532715</ele>
        <time>2013-02-03T07:33:44Z</time>
      </trkpt>
      <trkpt lat="44.33274" lon="2.64087">
        <ele>653.8339844</ele>
        <time>2013-02-03T07:33:50Z</time>
      </trkpt>
      <trkpt lat="44.33271" lon="2.64105">
        <ele>655.2758789</ele>
        <time>2013-02-03T07:33:55Z</time>
      </trkpt>
      <trkpt lat="44.33267" lon="2.64121">
        <ele>656.7177734</ele>
        <time>2013-02-03T07:34:00Z</time>
      </trkpt>
      <trkpt lat="44.33262" lon="2.64145">
        <ele>659.6018066</ele>
        <time>2013-02-03T07:34:07Z</time>
      </trkpt>
      <trkpt lat="44.33258" lon="2.64165">
        <ele>660.5629883</ele>
        <time>2013-02-03T07:34:13Z</time>
      </trkpt>
      <trkpt lat="44.33254" lon="2.64185">
        <ele>662.005127</ele>
        <time>2013-02-03T07:34:19Z</time>
      </trkpt>
      <trkpt lat="44.33246" lon="2.64207">
        <ele>663.4470215</ele>
        <time>2013-02-03T07:34:26Z</time>
      </trkpt>
      <trkpt lat="44.33239" lon="2.64225">
        <ele>664.888916</ele>
        <time>2013-02-03T07:34:32Z</time>
      </trkpt>
      <trkpt lat="44.33231" lon="2.64248">
        <ele>665.8503418</ele>
        <time>2013-02-03T07:34:39Z</time>
      </trkpt>
      <trkpt lat="44.33223" lon="2.64267">
        <ele>665.8503418</ele>
        <time>2013-02-03T07:34:45Z</time>
      </trkpt>
      <trkpt lat="44.33216" lon="2.64286">
        <ele>666.8115234</ele>
        <time>2013-02-03T07:34:51Z</time>
      </trkpt>
      <trkpt lat="44.33208" lon="2.64306">
        <ele>666.8115234</ele>
        <time>2013-02-03T07:34:57Z</time>
      </trkpt>
      <trkpt lat="44.332" lon="2.64323">
        <ele>667.2922363</ele>
        <time>2013-02-03T07:35:02Z</time>
      </trkpt>
      <trkpt lat="44.33191" lon="2.64345">
        <ele>667.7727051</ele>
        <time>2013-02-03T07:35:09Z</time>
      </trkpt>
      <trkpt lat="44.33183" lon="2.64368">
        <ele>669.2150879</ele>
        <time>2013-02-03T07:35:16Z</time>
      </trkpt>
      <trkpt lat="44.33177" lon="2.64388">
        <ele>670.1762695</ele>
        <time>2013-02-03T07:35:22Z</time>
      </trkpt>
      <trkpt lat="44.3317" lon="2.64408">
        <ele>670.1762695</ele>
        <time>2013-02-03T07:35:28Z</time>
      </trkpt>
      <trkpt lat="44.33165" lon="2.64428">
        <ele>670.1762695</ele>
        <time>2013-02-03T07:35:34Z</time>
      </trkpt>
      <trkpt lat="44.33161" lon="2.64449">
        <ele>670.6569824</ele>
        <time>2013-02-03T07:35:40Z</time>
      </trkpt>
      <trkpt lat="44.33155" lon="2.6447">
        <ele>671.6181641</ele>
        <time>2013-02-03T07:35:46Z</time>
      </trkpt>
      <trkpt lat="44.33146" lon="2.64492">
        <ele>671.6181641</ele>
        <time>2013-02-03T07:35:53Z</time>
      </trkpt>
      <trkpt lat="44.33138" lon="2.64511">
        <ele>672.098877</ele>
        <time>2013-02-03T07:35:59Z</time>
      </trkpt>
      <trkpt lat="44.3313" lon="2.64531">
        <ele>672.5795898</ele>
        <time>2013-02-03T07:36:05Z</time>
      </trkpt>
      <trkpt lat="44.33123" lon="2.64551">
        <ele>672.098877</ele>
        <time>2013-02-03T07:36:11Z</time>
      </trkpt>
      <trkpt lat="44.33117" lon="2.64566">
        <ele>672.098877</ele>
        <time>2013-02-03T07:36:15Z</time>
      </trkpt>
      <trkpt lat="44.33107" lon="2.64585">
        <ele>672.098877</ele>
        <time>2013-02-03T07:36:21Z</time>
      </trkpt>
      <trkpt lat="44.33105" lon="2.64608">
        <ele>670.1762695</ele>
        <time>2013-02-03T07:36:27Z</time>
      </trkpt>
      <trkpt lat="44.33102" lon="2.64631">
        <ele>668.734375</ele>
        <time>2013-02-03T07:36:33Z</time>
      </trkpt>
      <trkpt lat="44.33097" lon="2.64654">
        <ele>667.7727051</ele>
        <time>2013-02-03T07:36:39Z</time>
      </trkpt>
      <trkpt lat="44.33093" lon="2.64681">
        <ele>667.7727051</ele>
        <time>2013-02-03T07:36:46Z</time>
      </trkpt>
      <trkpt lat="44.33089" lon="2.647">
        <ele>668.2536621</ele>
        <time>2013-02-03T07:36:51Z</time>
      </trkpt>
      <trkpt lat="44.33083" lon="2.64726">
        <ele>667.2922363</ele>
        <time>2013-02-03T07:36:58Z</time>
      </trkpt>
      <trkpt lat="44.33077" lon="2.64748">
        <ele>666.8115234</ele>
        <time>2013-02-03T07:37:04Z</time>
      </trkpt>
      <trkpt lat="44.33075" lon="2.64766">
        <ele>665.8503418</ele>
        <time>2013-02-03T07:37:09Z</time>
      </trkpt>
      <trkpt lat="44.33074" lon="2.64785">
        <ele>664.888916</ele>
        <time>2013-02-03T07:37:14Z</time>
      </trkpt>
      <trkpt lat="44.33072" lon="2.64805">
        <ele>662.9663086</ele>
        <time>2013-02-03T07:37:19Z</time>
      </trkpt>
      <trkpt lat="44.33069" lon="2.64825">
        <ele>661.0437012</ele>
        <time>2013-02-03T07:37:24Z</time>
      </trkpt>
      <trkpt lat="44.33066" lon="2.6484">
        <ele>659.1210938</ele>
        <time>2013-02-03T07:37:28Z</time>
      </trkpt>
      <trkpt lat="44.33053" lon="2.64848">
        <ele>659.1210938</ele>
        <time>2013-02-03T07:37:33Z</time>
      </trkpt>
      <trkpt lat="44.33047" lon="2.64849">
        <ele>659.1210938</ele>
        <time>2013-02-03T07:37:35Z</time>
      </trkpt>
      <trkpt lat="44.33031" lon="2.64846">
        <ele>659.1210938</ele>
        <time>2013-02-03T07:37:41Z</time>
      </trkpt>
      <trkpt lat="44.33016" lon="2.64841">
        <ele>658.1599121</ele>
        <time>2013-02-03T07:37:47Z</time>
      </trkpt>
      <trkpt lat="44.33002" lon="2.64838">
        <ele>658.6403809</ele>
        <time>2013-02-03T07:37:52Z</time>
      </trkpt>
      <trkpt lat="44.32986" lon="2.64832">
        <ele>658.1599121</ele>
        <time>2013-02-03T07:37:58Z</time>
      </trkpt>
      <trkpt lat="44.3297" lon="2.64828">
        <ele>658.1599121</ele>
        <time>2013-02-03T07:38:04Z</time>
      </trkpt>
      <trkpt lat="44.32954" lon="2.64823">
        <ele>657.6791992</ele>
        <time>2013-02-03T07:38:10Z</time>
      </trkpt>
      <trkpt lat="44.32938" lon="2.64819">
        <ele>657.1984863</ele>
        <time>2013-02-03T07:38:16Z</time>
      </trkpt>
      <trkpt lat="44.32919" lon="2.64816">
        <ele>656.2370605</ele>
        <time>2013-02-03T07:38:23Z</time>
      </trkpt>
      <trkpt lat="44.32904" lon="2.64812">
        <ele>655.2758789</ele>
        <time>2013-02-03T07:38:29Z</time>
      </trkpt>
      <trkpt lat="44.32885" lon="2.64807">
        <ele>653.3532715</ele>
        <time>2013-02-03T07:38:36Z</time>
      </trkpt>
      <trkpt lat="44.32871" lon="2.64805">
        <ele>652.8725586</ele>
        <time>2013-02-03T07:38:41Z</time>
      </trkpt>
      <trkpt lat="44.32855" lon="2.64804">
        <ele>653.3532715</ele>
        <time>2013-02-03T07:38:47Z</time>
      </trkpt>
      <trkpt lat="44.32839" lon="2.64803">
        <ele>652.8725586</ele>
        <time>2013-02-03T07:38:53Z</time>
      </trkpt>
      <trkpt lat="44.32826" lon="2.64801">
        <ele>651.9111328</ele>
        <time>2013-02-03T07:38:58Z</time>
      </trkpt>
      <trkpt lat="44.32811" lon="2.64796">
        <ele>650.4692383</ele>
        <time>2013-02-03T07:39:04Z</time>
      </trkpt>
      <trkpt lat="44.328" lon="2.64793">
        <ele>649.5078125</ele>
        <time>2013-02-03T07:39:08Z</time>
      </trkpt>
      <trkpt lat="44.32789" lon="2.64789">
        <ele>648.065918</ele>
        <time>2013-02-03T07:39:12Z</time>
      </trkpt>
      <trkpt lat="44.32767" lon="2.64788">
        <ele>646.1433105</ele>
        <time>2013-02-03T07:39:20Z</time>
      </trkpt>
      <trkpt lat="44.32754" lon="2.64788">
        <ele>645.6625977</ele>
        <time>2013-02-03T07:39:25Z</time>
      </trkpt>
      <trkpt lat="44.3274" lon="2.64788">
        <ele>644.2207031</ele>
        <time>2013-02-03T07:39:30Z</time>
      </trkpt>
      <trkpt lat="44.32724" lon="2.64787">
        <ele>642.2980957</ele>
        <time>2013-02-03T07:39:36Z</time>
      </trkpt>
      <trkpt lat="44.32718" lon="2.64787">
        <ele>641.8173828</ele>
        <time>2013-02-03T07:39:38Z</time>
      </trkpt>
      <trkpt lat="44.32701" lon="2.6478">
        <ele>640.3754883</ele>
        <time>2013-02-03T07:39:45Z</time>
      </trkpt>
      <trkpt lat="44.3269" lon="2.64782">
        <ele>640.3754883</ele>
        <time>2013-02-03T07:39:50Z</time>
      </trkpt>
      <trkpt lat="44.32678" lon="2.64782">
        <ele>640.3754883</ele>
        <time>2013-02-03T07:39:55Z</time>
      </trkpt>
      <trkpt lat="44.32662" lon="2.64779">
        <ele>640.855957</ele>
        <time>2013-02-03T07:40:02Z</time>
      </trkpt>
      <trkpt lat="44.32645" lon="2.64782">
        <ele>642.2980957</ele>
        <time>2013-02-03T07:40:09Z</time>
      </trkpt>
      <trkpt lat="44.32631" lon="2.64789">
        <ele>643.7399902</ele>
        <time>2013-02-03T07:40:15Z</time>
      </trkpt>
      <trkpt lat="44.32619" lon="2.64796">
        <ele>644.7011719</ele>
        <time>2013-02-03T07:40:20Z</time>
      </trkpt>
      <trkpt lat="44.32603" lon="2.64802">
        <ele>645.6625977</ele>
        <time>2013-02-03T07:40:27Z</time>
      </trkpt>
      <trkpt lat="44.32598" lon="2.64802">
        <ele>646.6240234</ele>
        <time>2013-02-03T07:40:31Z</time>
      </trkpt>
      <trkpt lat="44.32592" lon="2.648">
        <ele>647.5852051</ele>
        <time>2013-02-03T07:40:34Z</time>
      </trkpt>
      <trkpt lat="44.32581" lon="2.64801">
        <ele>648.5463867</ele>
        <time>2013-02-03T07:40:39Z</time>
      </trkpt>
      <trkpt lat="44.32566" lon="2.64802">
        <ele>649.9885254</ele>
        <time>2013-02-03T07:40:46Z</time>
      </trkpt>
      <trkpt lat="44.32553" lon="2.64801">
        <ele>650.949707</ele>
        <time>2013-02-03T07:40:52Z</time>
      </trkpt>
      <trkpt lat="44.3254" lon="2.64801">
        <ele>651.9111328</ele>
        <time>2013-02-03T07:40:58Z</time>
      </trkpt>
      <trkpt lat="44.32526" lon="2.64802">
        <ele>653.3532715</ele>
        <time>2013-02-03T07:41:04Z</time>
      </trkpt>
      <trkpt lat="44.32512" lon="2.64799">
        <ele>655.2758789</ele>
        <time>2013-02-03T07:41:11Z</time>
      </trkpt>
      <trkpt lat="44.32497" lon="2.64797">
        <ele>657.1984863</ele>
        <time>2013-02-03T07:41:18Z</time>
      </trkpt>
      <trkpt lat="44.32483" lon="2.64792">
        <ele>657.6791992</ele>
        <time>2013-02-03T07:41:24Z</time>
      </trkpt>
      <trkpt lat="44.32471" lon="2.64785">
        <ele>659.1210938</ele>
        <time>2013-02-03T07:41:30Z</time>
      </trkpt>
      <trkpt lat="44.3246" lon="2.6478">
        <ele>660.0822754</ele>
        <time>2013-02-03T07:41:35Z</time>
      </trkpt>
      <trkpt lat="44.32446" lon="2.64775">
        <ele>661.5244141</ele>
        <time>2013-02-03T07:41:41Z</time>
      </trkpt>
      <trkpt lat="44.32433" lon="2.64769">
        <ele>662.9663086</ele>
        <time>2013-02-03T07:41:47Z</time>
      </trkpt>
      <trkpt lat="44.32419" lon="2.64763">
        <ele>663.9274902</ele>
        <time>2013-02-03T07:41:53Z</time>
      </trkpt>
      <trkpt lat="44.32409" lon="2.64757">
        <ele>664.888916</ele>
        <time>2013-02-03T07:41:58Z</time>
      </trkpt>
      <trkpt lat="44.32396" lon="2.64748">
        <ele>664.4082031</ele>
        <time>2013-02-03T07:42:04Z</time>
      </trkpt>
      <trkpt lat="44.32384" lon="2.64746">
        <ele>664.888916</ele>
        <time>2013-02-03T07:42:09Z</time>
      </trkpt>
      <trkpt lat="44.32371" lon="2.64744">
        <ele>664.888916</ele>
        <time>2013-02-03T07:42:14Z</time>
      </trkpt>
      <trkpt lat="44.32359" lon="2.64747">
        <ele>666.8115234</ele>
        <time>2013-02-03T07:42:19Z</time>
      </trkpt>
      <trkpt lat="44.32346" lon="2.64753">
        <ele>668.734375</ele>
        <time>2013-02-03T07:42:25Z</time>
      </trkpt>
      <trkpt lat="44.32334" lon="2.64765">
        <ele>669.2150879</ele>
        <time>2013-02-03T07:42:31Z</time>
      </trkpt>
      <trkpt lat="44.32326" lon="2.64777">
        <ele>669.6958008</ele>
        <time>2013-02-03T07:42:36Z</time>
      </trkpt>
      <trkpt lat="44.32317" lon="2.64798">
        <ele>671.6181641</ele>
        <time>2013-02-03T07:42:43Z</time>
      </trkpt>
      <trkpt lat="44.32308" lon="2.64815">
        <ele>671.1376953</ele>
        <time>2013-02-03T07:42:49Z</time>
      </trkpt>
      <trkpt lat="44.32302" lon="2.64821">
        <ele>672.098877</ele>
        <time>2013-02-03T07:42:52Z</time>
      </trkpt>
      <trkpt lat="44.32294" lon="2.64815">
        <ele>671.6181641</ele>
        <time>2013-02-03T07:42:56Z</time>
      </trkpt>
      <trkpt lat="44.32285" lon="2.64797">
        <ele>671.6181641</ele>
        <time>2013-02-03T07:43:02Z</time>
      </trkpt>
      <trkpt lat="44.32277" lon="2.64779">
        <ele>671.6181641</ele>
        <time>2013-02-03T07:43:08Z</time>
      </trkpt>
      <trkpt lat="44.32272" lon="2.64762">
        <ele>672.098877</ele>
        <time>2013-02-03T07:43:13Z</time>
      </trkpt>
      <trkpt lat="44.32268" lon="2.64745">
        <ele>671.6181641</ele>
        <time>2013-02-03T07:43:18Z</time>
      </trkpt>
      <trkpt lat="44.32265" lon="2.64725">
        <ele>671.1376953</ele>
        <time>2013-02-03T07:43:24Z</time>
      </trkpt>
      <trkpt lat="44.3226" lon="2.6471">
        <ele>671.6181641</ele>
        <time>2013-02-03T07:43:29Z</time>
      </trkpt>
      <trkpt lat="44.32251" lon="2.64696">
        <ele>672.5795898</ele>
        <time>2013-02-03T07:43:35Z</time>
      </trkpt>
      <trkpt lat="44.3224" lon="2.64683">
        <ele>674.0214844</ele>
        <time>2013-02-03T07:43:41Z</time>
      </trkpt>
      <trkpt lat="44.32229" lon="2.64672">
        <ele>674.5021973</ele>
        <time>2013-02-03T07:43:47Z</time>
      </trkpt>
      <trkpt lat="44.32216" lon="2.64664">
        <ele>674.9829102</ele>
        <time>2013-02-03T07:43:53Z</time>
      </trkpt>
      <trkpt lat="44.32203" lon="2.64659">
        <ele>676.9055176</ele>
        <time>2013-02-03T07:43:59Z</time>
      </trkpt>
      <trkpt lat="44.3219" lon="2.64656">
        <ele>678.828125</ele>
        <time>2013-02-03T07:44:05Z</time>
      </trkpt>
      <trkpt lat="44.32179" lon="2.64654">
        <ele>680.2700195</ele>
        <time>2013-02-03T07:44:10Z</time>
      </trkpt>
      <trkpt lat="44.32163" lon="2.64653">
        <ele>682.192627</ele>
        <time>2013-02-03T07:44:17Z</time>
      </trkpt>
      <trkpt lat="44.32148" lon="2.64652">
        <ele>682.6733398</ele>
        <time>2013-02-03T07:44:23Z</time>
      </trkpt>
      <trkpt lat="44.32129" lon="2.64647">
        <ele>682.192627</ele>
        <time>2013-02-03T07:44:30Z</time>
      </trkpt>
      <trkpt lat="44.32114" lon="2.64641">
        <ele>682.192627</ele>
        <time>2013-02-03T07:44:36Z</time>
      </trkpt>
      <trkpt lat="44.32101" lon="2.64637">
        <ele>681.7119141</ele>
        <time>2013-02-03T07:44:41Z</time>
      </trkpt>
      <trkpt lat="44.32079" lon="2.64631">
        <ele>679.7893066</ele>
        <time>2013-02-03T07:44:49Z</time>
      </trkpt>
      <trkpt lat="44.32069" lon="2.64629">
        <ele>678.828125</ele>
        <time>2013-02-03T07:44:53Z</time>
      </trkpt>
      <trkpt lat="44.32055" lon="2.64625">
        <ele>676.9055176</ele>
        <time>2013-02-03T07:44:58Z</time>
      </trkpt>
      <trkpt lat="44.32039" lon="2.64622">
        <ele>675.9440918</ele>
        <time>2013-02-03T07:45:04Z</time>
      </trkpt>
      <trkpt lat="44.32022" lon="2.64621">
        <ele>674.5021973</ele>
        <time>2013-02-03T07:45:10Z</time>
      </trkpt>
      <trkpt lat="44.32006" lon="2.64623">
        <ele>672.5795898</ele>
        <time>2013-02-03T07:45:16Z</time>
      </trkpt>
      <trkpt lat="44.31993" lon="2.64619">
        <ele>671.1376953</ele>
        <time>2013-02-03T07:45:21Z</time>
      </trkpt>
      <trkpt lat="44.31971" lon="2.64614">
        <ele>669.2150879</ele>
        <time>2013-02-03T07:45:29Z</time>
      </trkpt>
      <trkpt lat="44.31955" lon="2.64611">
        <ele>668.2536621</ele>
        <time>2013-02-03T07:45:35Z</time>
      </trkpt>
      <trkpt lat="44.31939" lon="2.64609">
        <ele>666.8115234</ele>
        <time>2013-02-03T07:45:41Z</time>
      </trkpt>
      <trkpt lat="44.3192" lon="2.6461">
        <ele>665.3696289</ele>
        <time>2013-02-03T07:45:48Z</time>
      </trkpt>
      <trkpt lat="44.31904" lon="2.64613">
        <ele>664.888916</ele>
        <time>2013-02-03T07:45:54Z</time>
      </trkpt>
      <trkpt lat="44.31889" lon="2.64615">
        <ele>664.4082031</ele>
        <time>2013-02-03T07:46:00Z</time>
      </trkpt>
      <trkpt lat="44.31873" lon="2.64613">
        <ele>663.9274902</ele>
        <time>2013-02-03T07:46:06Z</time>
      </trkpt>
      <trkpt lat="44.3186" lon="2.64604">
        <ele>663.9274902</ele>
        <time>2013-02-03T07:46:12Z</time>
      </trkpt>
      <trkpt lat="44.31849" lon="2.64589">
        <ele>663.4470215</ele>
        <time>2013-02-03T07:46:18Z</time>
      </trkpt>
      <trkpt lat="44.31838" lon="2.64573">
        <ele>663.4470215</ele>
        <time>2013-02-03T07:46:24Z</time>
      </trkpt>
      <trkpt lat="44.31827" lon="2.64557">
        <ele>662.4855957</ele>
        <time>2013-02-03T07:46:30Z</time>
      </trkpt>
      <trkpt lat="44.31813" lon="2.64542">
        <ele>661.0437012</ele>
        <time>2013-02-03T07:46:37Z</time>
      </trkpt>
      <trkpt lat="44.31799" lon="2.64532">
        <ele>660.0822754</ele>
        <time>2013-02-03T07:46:43Z</time>
      </trkpt>
      <trkpt lat="44.31784" lon="2.64524">
        <ele>658.6403809</ele>
        <time>2013-02-03T07:46:49Z</time>
      </trkpt>
      <trkpt lat="44.31772" lon="2.6452">
        <ele>657.6791992</ele>
        <time>2013-02-03T07:46:54Z</time>
      </trkpt>
      <trkpt lat="44.31756" lon="2.64518">
        <ele>657.1984863</ele>
        <time>2013-02-03T07:47:00Z</time>
      </trkpt>
      <trkpt lat="44.31741" lon="2.64516">
        <ele>655.7565918</ele>
        <time>2013-02-03T07:47:06Z</time>
      </trkpt>
      <trkpt lat="44.31722" lon="2.64515">
        <ele>654.795166</ele>
        <time>2013-02-03T07:47:13Z</time>
      </trkpt>
      <trkpt lat="44.31707" lon="2.64513">
        <ele>652.3918457</ele>
        <time>2013-02-03T07:47:19Z</time>
      </trkpt>
      <trkpt lat="44.31688" lon="2.64513">
        <ele>650.4692383</ele>
        <time>2013-02-03T07:47:26Z</time>
      </trkpt>
      <trkpt lat="44.31672" lon="2.6451">
        <ele>648.5463867</ele>
        <time>2013-02-03T07:47:32Z</time>
      </trkpt>
      <trkpt lat="44.31658" lon="2.64499">
        <ele>646.6240234</ele>
        <time>2013-02-03T07:47:38Z</time>
      </trkpt>
      <trkpt lat="44.31645" lon="2.64485">
        <ele>644.7011719</ele>
        <time>2013-02-03T07:47:44Z</time>
      </trkpt>
      <trkpt lat="44.31632" lon="2.64485">
        <ele>642.7788086</ele>
        <time>2013-02-03T07:47:49Z</time>
      </trkpt>
      <trkpt lat="44.31624" lon="2.64498">
        <ele>641.3366699</ele>
        <time>2013-02-03T07:47:54Z</time>
      </trkpt>
      <trkpt lat="44.31614" lon="2.64521">
        <ele>639.4140625</ele>
        <time>2013-02-03T07:48:01Z</time>
      </trkpt>
      <trkpt lat="44.31602" lon="2.64542">
        <ele>637.4914551</ele>
        <time>2013-02-03T07:48:08Z</time>
      </trkpt>
      <trkpt lat="44.3159" lon="2.64556">
        <ele>635.0881348</ele>
        <time>2013-02-03T07:48:14Z</time>
      </trkpt>
      <trkpt lat="44.31573" lon="2.64573">
        <ele>635.0881348</ele>
        <time>2013-02-03T07:48:22Z</time>
      </trkpt>
      <trkpt lat="44.31568" lon="2.64587">
        <ele>635.0881348</ele>
        <time>2013-02-03T07:48:26Z</time>
      </trkpt>
      <trkpt lat="44.31568" lon="2.64603">
        <ele>634.126709</ele>
        <time>2013-02-03T07:48:31Z</time>
      </trkpt>
      <trkpt lat="44.31568" lon="2.64622">
        <ele>633.6459961</ele>
        <time>2013-02-03T07:48:37Z</time>
      </trkpt>
      <trkpt lat="44.31565" lon="2.6464">
        <ele>632.2041016</ele>
        <time>2013-02-03T07:48:43Z</time>
      </trkpt>
      <trkpt lat="44.31563" lon="2.64651">
        <ele>633.1652832</ele>
        <time>2013-02-03T07:48:47Z</time>
      </trkpt>
      <trkpt lat="44.31554" lon="2.64671">
        <ele>638.4528809</ele>
        <time>2013-02-03T07:48:55Z</time>
      </trkpt>
      <trkpt lat="44.31544" lon="2.6469">
        <ele>641.3366699</ele>
        <time>2013-02-03T07:49:03Z</time>
      </trkpt>
      <trkpt lat="44.31542" lon="2.64703">
        <ele>643.2592773</ele>
        <time>2013-02-03T07:49:08Z</time>
      </trkpt>
      <trkpt lat="44.31546" lon="2.6472">
        <ele>645.6625977</ele>
        <time>2013-02-03T07:49:14Z</time>
      </trkpt>
      <trkpt lat="44.31551" lon="2.64736">
        <ele>646.1433105</ele>
        <time>2013-02-03T07:49:20Z</time>
      </trkpt>
      <trkpt lat="44.31556" lon="2.64749">
        <ele>647.5852051</ele>
        <time>2013-02-03T07:49:26Z</time>
      </trkpt>
      <trkpt lat="44.31562" lon="2.64761">
        <ele>649.5078125</ele>
        <time>2013-02-03T07:49:31Z</time>
      </trkpt>
      <trkpt lat="44.31564" lon="2.64776">
        <ele>650.4692383</ele>
        <time>2013-02-03T07:49:37Z</time>
      </trkpt>
      <trkpt lat="44.31565" lon="2.64793">
        <ele>651.9111328</ele>
        <time>2013-02-03T07:49:43Z</time>
      </trkpt>
      <trkpt lat="44.31567" lon="2.64815">
        <ele>653.3532715</ele>
        <time>2013-02-03T07:49:51Z</time>
      </trkpt>
      <trkpt lat="44.31568" lon="2.64832">
        <ele>655.7565918</ele>
        <time>2013-02-03T07:49:57Z</time>
      </trkpt>
      <trkpt lat="44.31568" lon="2.64848">
        <ele>657.1984863</ele>
        <time>2013-02-03T07:50:03Z</time>
      </trkpt>
      <trkpt lat="44.31569" lon="2.64862">
        <ele>659.1210938</ele>
        <time>2013-02-03T07:50:09Z</time>
      </trkpt>
      <trkpt lat="44.3157" lon="2.64877">
        <ele>661.5244141</ele>
        <time>2013-02-03T07:50:15Z</time>
      </trkpt>
      <trkpt lat="44.31574" lon="2.6489">
        <ele>663.4470215</ele>
        <time>2013-02-03T07:50:21Z</time>
      </trkpt>
      <trkpt lat="44.31577" lon="2.64913">
        <ele>668.2536621</ele>
        <time>2013-02-03T07:50:31Z</time>
      </trkpt>
      <trkpt lat="44.31578" lon="2.6493">
        <ele>671.1376953</ele>
        <time>2013-02-03T07:50:37Z</time>
      </trkpt>
      <trkpt lat="44.31576" lon="2.64949">
        <ele>673.0603027</ele>
        <time>2013-02-03T07:50:44Z</time>
      </trkpt>
      <trkpt lat="44.31577" lon="2.64971">
        <ele>674.9829102</ele>
        <time>2013-02-03T07:50:52Z</time>
      </trkpt>
      <trkpt lat="44.31575" lon="2.64986">
        <ele>674.9829102</ele>
        <time>2013-02-03T07:50:57Z</time>
      </trkpt>
      <trkpt lat="44.31573" lon="2.64996">
        <ele>675.4633789</ele>
        <time>2013-02-03T07:51:01Z</time>
      </trkpt>
      <trkpt lat="44.31567" lon="2.65008">
        <ele>675.4633789</ele>
        <time>2013-02-03T07:51:06Z</time>
      </trkpt>
      <trkpt lat="44.31558" lon="2.65019">
        <ele>675.9440918</ele>
        <time>2013-02-03T07:51:11Z</time>
      </trkpt>
      <trkpt lat="44.31546" lon="2.6503">
        <ele>675.4633789</ele>
        <time>2013-02-03T07:51:17Z</time>
      </trkpt>
      <trkpt lat="44.31533" lon="2.65039">
        <ele>676.4248047</ele>
        <time>2013-02-03T07:51:23Z</time>
      </trkpt>
      <trkpt lat="44.31518" lon="2.65049">
        <ele>677.8666992</ele>
        <time>2013-02-03T07:51:30Z</time>
      </trkpt>
      <trkpt lat="44.31503" lon="2.65054">
        <ele>679.3085938</ele>
        <time>2013-02-03T07:51:37Z</time>
      </trkpt>
      <trkpt lat="44.3149" lon="2.65058">
        <ele>680.2700195</ele>
        <time>2013-02-03T07:51:43Z</time>
      </trkpt>
      <trkpt lat="44.31476" lon="2.65064">
        <ele>683.6345215</ele>
        <time>2013-02-03T07:51:50Z</time>
      </trkpt>
      <trkpt lat="44.31464" lon="2.65072">
        <ele>686.9992676</ele>
        <time>2013-02-03T07:51:56Z</time>
      </trkpt>
      <trkpt lat="44.31452" lon="2.6508">
        <ele>688.4414063</ele>
        <time>2013-02-03T07:52:02Z</time>
      </trkpt>
      <trkpt lat="44.31441" lon="2.65083">
        <ele>688.9221191</ele>
        <time>2013-02-03T07:52:07Z</time>
      </trkpt>
      <trkpt lat="44.31426" lon="2.65091">
        <ele>690.3640137</ele>
        <time>2013-02-03T07:52:14Z</time>
      </trkpt>
      <trkpt lat="44.31415" lon="2.65099">
        <ele>690.3640137</ele>
        <time>2013-02-03T07:52:20Z</time>
      </trkpt>
      <trkpt lat="44.31403" lon="2.65111">
        <ele>690.8444824</ele>
        <time>2013-02-03T07:52:27Z</time>
      </trkpt>
      <trkpt lat="44.31393" lon="2.65123">
        <ele>691.8059082</ele>
        <time>2013-02-03T07:52:33Z</time>
      </trkpt>
      <trkpt lat="44.31382" lon="2.65136">
        <ele>690.3640137</ele>
        <time>2013-02-03T07:52:39Z</time>
      </trkpt>
      <trkpt lat="44.31373" lon="2.65144">
        <ele>689.4025879</ele>
        <time>2013-02-03T07:52:43Z</time>
      </trkpt>
      <trkpt lat="44.31362" lon="2.65162">
        <ele>687.9606934</ele>
        <time>2013-02-03T07:52:50Z</time>
      </trkpt>
      <trkpt lat="44.31347" lon="2.65182">
        <ele>688.9221191</ele>
        <time>2013-02-03T07:52:58Z</time>
      </trkpt>
      <trkpt lat="44.31336" lon="2.65194">
        <ele>687.9606934</ele>
        <time>2013-02-03T07:53:03Z</time>
      </trkpt>
      <trkpt lat="44.31321" lon="2.65211">
        <ele>686.9992676</ele>
        <time>2013-02-03T07:53:10Z</time>
      </trkpt>
      <trkpt lat="44.31308" lon="2.65225">
        <ele>686.0380859</ele>
        <time>2013-02-03T07:53:16Z</time>
      </trkpt>
      <trkpt lat="44.31295" lon="2.65238">
        <ele>684.5961914</ele>
        <time>2013-02-03T07:53:22Z</time>
      </trkpt>
      <trkpt lat="44.31282" lon="2.65257">
        <ele>684.1154785</ele>
        <time>2013-02-03T07:53:29Z</time>
      </trkpt>
      <trkpt lat="44.31269" lon="2.65272">
        <ele>683.6345215</ele>
        <time>2013-02-03T07:53:35Z</time>
      </trkpt>
      <trkpt lat="44.31257" lon="2.65289">
        <ele>681.2314453</ele>
        <time>2013-02-03T07:53:41Z</time>
      </trkpt>
      <trkpt lat="44.31242" lon="2.65304">
        <ele>678.3474121</ele>
        <time>2013-02-03T07:53:47Z</time>
      </trkpt>
      <trkpt lat="44.3123" lon="2.65317">
        <ele>676.4248047</ele>
        <time>2013-02-03T07:53:52Z</time>
      </trkpt>
      <trkpt lat="44.31216" lon="2.65331">
        <ele>674.9829102</ele>
        <time>2013-02-03T07:53:57Z</time>
      </trkpt>
      <trkpt lat="44.31203" lon="2.65349">
        <ele>673.5410156</ele>
        <time>2013-02-03T07:54:03Z</time>
      </trkpt>
      <trkpt lat="44.31188" lon="2.65365">
        <ele>673.0603027</ele>
        <time>2013-02-03T07:54:09Z</time>
      </trkpt>
      <trkpt lat="44.31172" lon="2.65373">
        <ele>671.1376953</ele>
        <time>2013-02-03T07:54:14Z</time>
      </trkpt>
      <trkpt lat="44.31161" lon="2.65376">
        <ele>669.6958008</ele>
        <time>2013-02-03T07:54:18Z</time>
      </trkpt>
      <trkpt lat="44.31146" lon="2.65379">
        <ele>668.734375</ele>
        <time>2013-02-03T07:54:23Z</time>
      </trkpt>
      <trkpt lat="44.31136" lon="2.65378">
        <ele>667.7727051</ele>
        <time>2013-02-03T07:54:27Z</time>
      </trkpt>
      <trkpt lat="44.31126" lon="2.65372">
        <ele>666.3308105</ele>
        <time>2013-02-03T07:54:31Z</time>
      </trkpt>
      <trkpt lat="44.31116" lon="2.65365">
        <ele>662.9663086</ele>
        <time>2013-02-03T07:54:36Z</time>
      </trkpt>
      <trkpt lat="44.31102" lon="2.65359">
        <ele>660.0822754</ele>
        <time>2013-02-03T07:54:42Z</time>
      </trkpt>
      <trkpt lat="44.31087" lon="2.65362">
        <ele>659.1210938</ele>
        <time>2013-02-03T07:54:48Z</time>
      </trkpt>
      <trkpt lat="44.31072" lon="2.65368">
        <ele>655.2758789</ele>
        <time>2013-02-03T07:54:53Z</time>
      </trkpt>
      <trkpt lat="44.31055" lon="2.65373">
        <ele>650.4692383</ele>
        <time>2013-02-03T07:54:59Z</time>
      </trkpt>
      <trkpt lat="44.31044" lon="2.65378">
        <ele>648.5463867</ele>
        <time>2013-02-03T07:55:03Z</time>
      </trkpt>
      <trkpt lat="44.31032" lon="2.65385">
        <ele>647.5852051</ele>
        <time>2013-02-03T07:55:08Z</time>
      </trkpt>
      <trkpt lat="44.31017" lon="2.65392">
        <ele>646.1433105</ele>
        <time>2013-02-03T07:55:13Z</time>
      </trkpt>
      <trkpt lat="44.31004" lon="2.654">
        <ele>644.2207031</ele>
        <time>2013-02-03T07:55:19Z</time>
      </trkpt>
      <trkpt lat="44.30994" lon="2.65407">
        <ele>642.2980957</ele>
        <time>2013-02-03T07:55:25Z</time>
      </trkpt>
      <trkpt lat="44.30986" lon="2.65413">
        <ele>639.4140625</ele>
        <time>2013-02-03T07:55:29Z</time>
      </trkpt>
      <trkpt lat="44.30977" lon="2.65419">
        <ele>636.5302734</ele>
        <time>2013-02-03T07:55:33Z</time>
      </trkpt>
      <trkpt lat="44.30967" lon="2.65425">
        <ele>633.6459961</ele>
        <time>2013-02-03T07:55:38Z</time>
      </trkpt>
      <trkpt lat="44.30954" lon="2.65432">
        <ele>630.762207</ele>
        <time>2013-02-03T07:55:44Z</time>
      </trkpt>
      <trkpt lat="44.30939" lon="2.65438">
        <ele>627.8781738</ele>
        <time>2013-02-03T07:55:50Z</time>
      </trkpt>
      <trkpt lat="44.30925" lon="2.65443">
        <ele>625.9555664</ele>
        <time>2013-02-03T07:55:55Z</time>
      </trkpt>
      <trkpt lat="44.30917" lon="2.65457">
        <ele>624.5136719</ele>
        <time>2013-02-03T07:56:00Z</time>
      </trkpt>
      <trkpt lat="44.3091" lon="2.65479">
        <ele>626.4362793</ele>
        <time>2013-02-03T07:56:06Z</time>
      </trkpt>
      <trkpt lat="44.309" lon="2.65493">
        <ele>627.3977051</ele>
        <time>2013-02-03T07:56:11Z</time>
      </trkpt>
      <trkpt lat="44.30884" lon="2.65503">
        <ele>626.9169922</ele>
        <time>2013-02-03T07:56:18Z</time>
      </trkpt>
      <trkpt lat="44.30871" lon="2.65513">
        <ele>626.4362793</ele>
        <time>2013-02-03T07:56:23Z</time>
      </trkpt>
      <trkpt lat="44.30857" lon="2.65512">
        <ele>625.9555664</ele>
        <time>2013-02-03T07:56:28Z</time>
      </trkpt>
      <trkpt lat="44.30839" lon="2.65515">
        <ele>625.4748535</ele>
        <time>2013-02-03T07:56:35Z</time>
      </trkpt>
      <trkpt lat="44.30827" lon="2.65521">
        <ele>625.4748535</ele>
        <time>2013-02-03T07:56:40Z</time>
      </trkpt>
      <trkpt lat="44.30812" lon="2.65527">
        <ele>625.4748535</ele>
        <time>2013-02-03T07:56:46Z</time>
      </trkpt>
      <trkpt lat="44.30796" lon="2.65531">
        <ele>626.9169922</ele>
        <time>2013-02-03T07:56:52Z</time>
      </trkpt>
      <trkpt lat="44.30784" lon="2.65539">
        <ele>626.4362793</ele>
        <time>2013-02-03T07:56:57Z</time>
      </trkpt>
      <trkpt lat="44.30768" lon="2.65554">
        <ele>626.4362793</ele>
        <time>2013-02-03T07:57:04Z</time>
      </trkpt>
      <trkpt lat="44.30754" lon="2.65558">
        <ele>626.4362793</ele>
        <time>2013-02-03T07:57:09Z</time>
      </trkpt>
      <trkpt lat="44.30743" lon="2.65557">
        <ele>626.4362793</ele>
        <time>2013-02-03T07:57:13Z</time>
      </trkpt>
      <trkpt lat="44.30735" lon="2.65566">
        <ele>625.9555664</ele>
        <time>2013-02-03T07:57:17Z</time>
      </trkpt>
      <trkpt lat="44.30726" lon="2.65582">
        <ele>626.4362793</ele>
        <time>2013-02-03T07:57:23Z</time>
      </trkpt>
      <trkpt lat="44.30715" lon="2.65597">
        <ele>626.9169922</ele>
        <time>2013-02-03T07:57:29Z</time>
      </trkpt>
      <trkpt lat="44.307" lon="2.65605">
        <ele>627.3977051</ele>
        <time>2013-02-03T07:57:35Z</time>
      </trkpt>
      <trkpt lat="44.30693" lon="2.65604">
        <ele>627.8781738</ele>
        <time>2013-02-03T07:57:38Z</time>
      </trkpt>
      <trkpt lat="44.30683" lon="2.65594">
        <ele>628.3588867</ele>
        <time>2013-02-03T07:57:43Z</time>
      </trkpt>
      <trkpt lat="44.3067" lon="2.65579">
        <ele>628.3588867</ele>
        <time>2013-02-03T07:57:49Z</time>
      </trkpt>
      <trkpt lat="44.30667" lon="2.65577">
        <ele>628.3588867</ele>
        <time>2013-02-03T07:57:50Z</time>
      </trkpt>
      <trkpt lat="44.30655" lon="2.6558">
        <ele>628.3588867</ele>
        <time>2013-02-03T07:57:55Z</time>
      </trkpt>
      <trkpt lat="44.30641" lon="2.65587">
        <ele>629.3200684</ele>
        <time>2013-02-03T07:58:01Z</time>
      </trkpt>
      <trkpt lat="44.30629" lon="2.65593">
        <ele>629.3200684</ele>
        <time>2013-02-03T07:58:06Z</time>
      </trkpt>
      <trkpt lat="44.30614" lon="2.65602">
        <ele>631.2429199</ele>
        <time>2013-02-03T07:58:13Z</time>
      </trkpt>
      <trkpt lat="44.30602" lon="2.65607">
        <ele>632.6848145</ele>
        <time>2013-02-03T07:58:18Z</time>
      </trkpt>
      <trkpt lat="44.30588" lon="2.6561">
        <ele>633.6459961</ele>
        <time>2013-02-03T07:58:24Z</time>
      </trkpt>
      <trkpt lat="44.30574" lon="2.65611">
        <ele>634.126709</ele>
        <time>2013-02-03T07:58:30Z</time>
      </trkpt>
      <trkpt lat="44.30559" lon="2.65609">
        <ele>634.6074219</ele>
        <time>2013-02-03T07:58:36Z</time>
      </trkpt>
      <trkpt lat="44.3055" lon="2.65606">
        <ele>635.0881348</ele>
        <time>2013-02-03T07:58:40Z</time>
      </trkpt>
      <trkpt lat="44.30537" lon="2.656">
        <ele>637.0107422</ele>
        <time>2013-02-03T07:58:46Z</time>
      </trkpt>
      <trkpt lat="44.30527" lon="2.65595">
        <ele>637.972168</ele>
        <time>2013-02-03T07:58:51Z</time>
      </trkpt>
      <trkpt lat="44.30514" lon="2.65591">
        <ele>637.972168</ele>
        <time>2013-02-03T07:58:56Z</time>
      </trkpt>
      <trkpt lat="44.305" lon="2.65587">
        <ele>638.4528809</ele>
        <time>2013-02-03T07:59:02Z</time>
      </trkpt>
      <trkpt lat="44.30486" lon="2.65586">
        <ele>639.4140625</ele>
        <time>2013-02-03T07:59:08Z</time>
      </trkpt>
      <trkpt lat="44.30472" lon="2.65588">
        <ele>639.8947754</ele>
        <time>2013-02-03T07:59:14Z</time>
      </trkpt>
      <trkpt lat="44.30463" lon="2.65591">
        <ele>640.855957</ele>
        <time>2013-02-03T07:59:18Z</time>
      </trkpt>
      <trkpt lat="44.30449" lon="2.65595">
        <ele>641.3366699</ele>
        <time>2013-02-03T07:59:24Z</time>
      </trkpt>
      <trkpt lat="44.30439" lon="2.65598">
        <ele>641.8173828</ele>
        <time>2013-02-03T07:59:29Z</time>
      </trkpt>
      <trkpt lat="44.30425" lon="2.65598">
        <ele>642.7788086</ele>
        <time>2013-02-03T07:59:35Z</time>
      </trkpt>
      <trkpt lat="44.30412" lon="2.65595">
        <ele>644.2207031</ele>
        <time>2013-02-03T07:59:41Z</time>
      </trkpt>
      <trkpt lat="44.30399" lon="2.6559">
        <ele>645.1818848</ele>
        <time>2013-02-03T07:59:47Z</time>
      </trkpt>
      <trkpt lat="44.30387" lon="2.65581">
        <ele>646.6240234</ele>
        <time>2013-02-03T07:59:53Z</time>
      </trkpt>
      <trkpt lat="44.30375" lon="2.65569">
        <ele>648.5463867</ele>
        <time>2013-02-03T07:59:59Z</time>
      </trkpt>
      <trkpt lat="44.30362" lon="2.65557">
        <ele>650.4692383</ele>
        <time>2013-02-03T08:00:06Z</time>
      </trkpt>
      <trkpt lat="44.30351" lon="2.65547">
        <ele>651.9111328</ele>
        <time>2013-02-03T08:00:12Z</time>
      </trkpt>
      <trkpt lat="44.30339" lon="2.65539">
        <ele>653.3532715</ele>
        <time>2013-02-03T08:00:18Z</time>
      </trkpt>
      <trkpt lat="44.30327" lon="2.65532">
        <ele>654.795166</ele>
        <time>2013-02-03T08:00:24Z</time>
      </trkpt>
      <trkpt lat="44.30311" lon="2.65527">
        <ele>655.7565918</ele>
        <time>2013-02-03T08:00:31Z</time>
      </trkpt>
      <trkpt lat="44.30299" lon="2.6552">
        <ele>657.6791992</ele>
        <time>2013-02-03T08:00:37Z</time>
      </trkpt>
      <trkpt lat="44.30287" lon="2.65514">
        <ele>659.1210938</ele>
        <time>2013-02-03T08:00:43Z</time>
      </trkpt>
      <trkpt lat="44.30273" lon="2.65505">
        <ele>660.5629883</ele>
        <time>2013-02-03T08:00:50Z</time>
      </trkpt>
      <trkpt lat="44.30261" lon="2.65497">
        <ele>661.5244141</ele>
        <time>2013-02-03T08:00:56Z</time>
      </trkpt>
      <trkpt lat="44.30249" lon="2.6549">
        <ele>662.9663086</ele>
        <time>2013-02-03T08:01:02Z</time>
      </trkpt>
      <trkpt lat="44.30237" lon="2.65483">
        <ele>664.4082031</ele>
        <time>2013-02-03T08:01:08Z</time>
      </trkpt>
      <trkpt lat="44.30227" lon="2.65475">
        <ele>665.3696289</ele>
        <time>2013-02-03T08:01:14Z</time>
      </trkpt>
      <trkpt lat="44.30216" lon="2.65465">
        <ele>666.3308105</ele>
        <time>2013-02-03T08:01:20Z</time>
      </trkpt>
      <trkpt lat="44.30204" lon="2.65455">
        <ele>667.7727051</ele>
        <time>2013-02-03T08:01:26Z</time>
      </trkpt>
      <trkpt lat="44.30191" lon="2.65443">
        <ele>669.2150879</ele>
        <time>2013-02-03T08:01:33Z</time>
      </trkpt>
      <trkpt lat="44.30179" lon="2.65432">
        <ele>669.6958008</ele>
        <time>2013-02-03T08:01:39Z</time>
      </trkpt>
      <trkpt lat="44.30166" lon="2.65422">
        <ele>670.1762695</ele>
        <time>2013-02-03T08:01:45Z</time>
      </trkpt>
      <trkpt lat="44.30151" lon="2.65414">
        <ele>670.6569824</ele>
        <time>2013-02-03T08:01:51Z</time>
      </trkpt>
      <trkpt lat="44.3014" lon="2.65411">
        <ele>670.6569824</ele>
        <time>2013-02-03T08:01:56Z</time>
      </trkpt>
      <trkpt lat="44.30123" lon="2.65409">
        <ele>671.1376953</ele>
        <time>2013-02-03T08:02:03Z</time>
      </trkpt>
      <trkpt lat="44.30108" lon="2.65407">
        <ele>671.1376953</ele>
        <time>2013-02-03T08:02:09Z</time>
      </trkpt>
      <trkpt lat="44.30091" lon="2.65405">
        <ele>671.6181641</ele>
        <time>2013-02-03T08:02:16Z</time>
      </trkpt>
      <trkpt lat="44.3008" lon="2.65399">
        <ele>672.098877</ele>
        <time>2013-02-03T08:02:21Z</time>
      </trkpt>
      <trkpt lat="44.3007" lon="2.6539">
        <ele>672.098877</ele>
        <time>2013-02-03T08:02:26Z</time>
      </trkpt>
      <trkpt lat="44.30059" lon="2.65375">
        <ele>672.5795898</ele>
        <time>2013-02-03T08:02:32Z</time>
      </trkpt>
      <trkpt lat="44.30048" lon="2.65361">
        <ele>673.0603027</ele>
        <time>2013-02-03T08:02:38Z</time>
      </trkpt>
      <trkpt lat="44.3004" lon="2.65349">
        <ele>673.5410156</ele>
        <time>2013-02-03T08:02:43Z</time>
      </trkpt>
      <trkpt lat="44.30028" lon="2.65333">
        <ele>673.5410156</ele>
        <time>2013-02-03T08:02:50Z</time>
      </trkpt>
      <trkpt lat="44.30016" lon="2.65317">
        <ele>674.0214844</ele>
        <time>2013-02-03T08:02:57Z</time>
      </trkpt>
      <trkpt lat="44.3001" lon="2.65311">
        <ele>673.5410156</ele>
        <time>2013-02-03T08:03:00Z</time>
      </trkpt>
      <trkpt lat="44.3" lon="2.65317">
        <ele>673.5410156</ele>
        <time>2013-02-03T08:03:05Z</time>
      </trkpt>
      <trkpt lat="44.29999" lon="2.6532">
        <ele>674.0214844</ele>
        <time>2013-02-03T08:03:06Z</time>
      </trkpt>
      <trkpt lat="44.29992" lon="2.65345">
        <ele>674.9829102</ele>
        <time>2013-02-03T08:03:14Z</time>
      </trkpt>
      <trkpt lat="44.29987" lon="2.65365">
        <ele>674.5021973</ele>
        <time>2013-02-03T08:03:21Z</time>
      </trkpt>
      <trkpt lat="44.29982" lon="2.65385">
        <ele>673.5410156</ele>
        <time>2013-02-03T08:03:28Z</time>
      </trkpt>
      <trkpt lat="44.29976" lon="2.65401">
        <ele>673.5410156</ele>
        <time>2013-02-03T08:03:34Z</time>
      </trkpt>
      <trkpt lat="44.29971" lon="2.65418">
        <ele>674.0214844</ele>
        <time>2013-02-03T08:03:40Z</time>
      </trkpt>
      <trkpt lat="44.29965" lon="2.65437">
        <ele>675.9440918</ele>
        <time>2013-02-03T08:03:47Z</time>
      </trkpt>
      <trkpt lat="44.29958" lon="2.65457">
        <ele>676.9055176</ele>
        <time>2013-02-03T08:03:54Z</time>
      </trkpt>
      <trkpt lat="44.29951" lon="2.65477">
        <ele>678.828125</ele>
        <time>2013-02-03T08:04:01Z</time>
      </trkpt>
      <trkpt lat="44.29941" lon="2.65495">
        <ele>680.7507324</ele>
        <time>2013-02-03T08:04:08Z</time>
      </trkpt>
      <trkpt lat="44.29932" lon="2.65511">
        <ele>682.192627</ele>
        <time>2013-02-03T08:04:14Z</time>
      </trkpt>
      <trkpt lat="44.2992" lon="2.65528">
        <ele>682.6733398</ele>
        <time>2013-02-03T08:04:21Z</time>
      </trkpt>
      <trkpt lat="44.29909" lon="2.65541">
        <ele>683.6345215</ele>
        <time>2013-02-03T08:04:27Z</time>
      </trkpt>
      <trkpt lat="44.29897" lon="2.65552">
        <ele>684.5961914</ele>
        <time>2013-02-03T08:04:33Z</time>
      </trkpt>
      <trkpt lat="44.29886" lon="2.6556">
        <ele>685.557373</ele>
        <time>2013-02-03T08:04:38Z</time>
      </trkpt>
      <trkpt lat="44.29873" lon="2.6557">
        <ele>685.557373</ele>
        <time>2013-02-03T08:04:44Z</time>
      </trkpt>
      <trkpt lat="44.29861" lon="2.65578">
        <ele>685.557373</ele>
        <time>2013-02-03T08:04:50Z</time>
      </trkpt>
      <trkpt lat="44.29849" lon="2.65587">
        <ele>686.0380859</ele>
        <time>2013-02-03T08:04:56Z</time>
      </trkpt>
      <trkpt lat="44.29836" lon="2.65599">
        <ele>686.9992676</ele>
        <time>2013-02-03T08:05:03Z</time>
      </trkpt>
      <trkpt lat="44.29825" lon="2.65609">
        <ele>687.9606934</ele>
        <time>2013-02-03T08:05:09Z</time>
      </trkpt>
      <trkpt lat="44.29817" lon="2.6562">
        <ele>688.4414063</ele>
        <time>2013-02-03T08:05:14Z</time>
      </trkpt>
      <trkpt lat="44.29806" lon="2.65627">
        <ele>690.3640137</ele>
        <time>2013-02-03T08:05:20Z</time>
      </trkpt>
      <trkpt lat="44.29797" lon="2.65637">
        <ele>692.767334</ele>
        <time>2013-02-03T08:05:26Z</time>
      </trkpt>
      <trkpt lat="44.29788" lon="2.65642">
        <ele>693.7285156</ele>
        <time>2013-02-03T08:05:31Z</time>
      </trkpt>
      <trkpt lat="44.29779" lon="2.65648">
        <ele>695.1704102</ele>
        <time>2013-02-03T08:05:37Z</time>
      </trkpt>
      <trkpt lat="44.29768" lon="2.65654">
        <ele>697.0930176</ele>
        <time>2013-02-03T08:05:44Z</time>
      </trkpt>
      <trkpt lat="44.29759" lon="2.65654">
        <ele>699.015625</ele>
        <time>2013-02-03T08:05:49Z</time>
      </trkpt>
      <trkpt lat="44.29748" lon="2.65658">
        <ele>700.9384766</ele>
        <time>2013-02-03T08:05:55Z</time>
      </trkpt>
      <trkpt lat="44.29737" lon="2.6566">
        <ele>702.861084</ele>
        <time>2013-02-03T08:06:01Z</time>
      </trkpt>
      <trkpt lat="44.29728" lon="2.65664">
        <ele>704.3032227</ele>
        <time>2013-02-03T08:06:06Z</time>
      </trkpt>
      <trkpt lat="44.29718" lon="2.65672">
        <ele>706.2255859</ele>
        <time>2013-02-03T08:06:14Z</time>
      </trkpt>
      <trkpt lat="44.2971" lon="2.65682">
        <ele>708.6289063</ele>
        <time>2013-02-03T08:06:21Z</time>
      </trkpt>
      <trkpt lat="44.29704" lon="2.65691">
        <ele>711.0322266</ele>
        <time>2013-02-03T08:06:27Z</time>
      </trkpt>
      <trkpt lat="44.297" lon="2.65698">
        <ele>711.9936523</ele>
        <time>2013-02-03T08:06:31Z</time>
      </trkpt>
      <trkpt lat="44.29693" lon="2.65707">
        <ele>714.3967285</ele>
        <time>2013-02-03T08:06:38Z</time>
      </trkpt>
      <trkpt lat="44.29685" lon="2.65721">
        <ele>716.800293</ele>
        <time>2013-02-03T08:06:45Z</time>
      </trkpt>
      <trkpt lat="44.29674" lon="2.6573">
        <ele>719.2036133</ele>
        <time>2013-02-03T08:06:52Z</time>
      </trkpt>
      <trkpt lat="44.29661" lon="2.65733">
        <ele>720.6455078</ele>
        <time>2013-02-03T08:06:59Z</time>
      </trkpt>
      <trkpt lat="44.29651" lon="2.65729">
        <ele>721.1262207</ele>
        <time>2013-02-03T08:07:05Z</time>
      </trkpt>
      <trkpt lat="44.29647" lon="2.65723">
        <ele>720.6455078</ele>
        <time>2013-02-03T08:07:09Z</time>
      </trkpt>
      <trkpt lat="44.29646" lon="2.65721">
        <ele>721.6066895</ele>
        <time>2013-02-03T08:07:16Z</time>
      </trkpt>
      <trkpt lat="44.29645" lon="2.65722">
        <ele>723.0488281</ele>
        <time>2013-02-03T08:07:28Z</time>
      </trkpt>
      <trkpt lat="44.29645" lon="2.65723">
        <ele>720.6455078</ele>
        <time>2013-02-03T08:07:48Z</time>
      </trkpt>
      <trkpt lat="44.29644" lon="2.65721">
        <ele>719.2036133</ele>
        <time>2013-02-03T08:07:57Z</time>
      </trkpt>
      <trkpt lat="44.2964" lon="2.65721">
        <ele>720.1647949</ele>
        <time>2013-02-03T08:08:02Z</time>
      </trkpt>
      <trkpt lat="44.29635" lon="2.65726">
        <ele>720.1647949</ele>
        <time>2013-02-03T08:08:07Z</time>
      </trkpt>
      <trkpt lat="44.29627" lon="2.65731">
        <ele>720.6455078</ele>
        <time>2013-02-03T08:08:14Z</time>
      </trkpt>
      <trkpt lat="44.29621" lon="2.65736">
        <ele>721.6066895</ele>
        <time>2013-02-03T08:08:19Z</time>
      </trkpt>
      <trkpt lat="44.29615" lon="2.65741">
        <ele>722.0874023</ele>
        <time>2013-02-03T08:08:24Z</time>
      </trkpt>
      <trkpt lat="44.29613" lon="2.65743">
        <ele>723.0488281</ele>
        <time>2013-02-03T08:08:26Z</time>
      </trkpt>
      <trkpt lat="44.29604" lon="2.65749">
        <ele>723.0488281</ele>
        <time>2013-02-03T08:08:34Z</time>
      </trkpt>
      <trkpt lat="44.29596" lon="2.65755">
        <ele>722.5681152</ele>
        <time>2013-02-03T08:08:39Z</time>
      </trkpt>
      <trkpt lat="44.29587" lon="2.65763">
        <ele>722.0874023</ele>
        <time>2013-02-03T08:08:44Z</time>
      </trkpt>
      <trkpt lat="44.29575" lon="2.65768">
        <ele>721.6066895</ele>
        <time>2013-02-03T08:08:49Z</time>
      </trkpt>
      <trkpt lat="44.29559" lon="2.65777">
        <ele>721.6066895</ele>
        <time>2013-02-03T08:08:56Z</time>
      </trkpt>
      <trkpt lat="44.29558" lon="2.65777">
        <ele>721.6066895</ele>
        <time>2013-02-03T08:08:57Z</time>
      </trkpt>
      <trkpt lat="44.29557" lon="2.65777">
        <ele>721.1262207</ele>
        <time>2013-02-03T08:09:03Z</time>
      </trkpt>
      <trkpt lat="44.29552" lon="2.6578">
        <ele>721.1262207</ele>
        <time>2013-02-03T08:09:07Z</time>
      </trkpt>
      <trkpt lat="44.29541" lon="2.65785">
        <ele>721.6066895</ele>
        <time>2013-02-03T08:09:12Z</time>
      </trkpt>
      <trkpt lat="44.29529" lon="2.65791">
        <ele>720.6455078</ele>
        <time>2013-02-03T08:09:17Z</time>
      </trkpt>
      <trkpt lat="44.29513" lon="2.65799">
        <ele>719.6843262</ele>
        <time>2013-02-03T08:09:24Z</time>
      </trkpt>
      <trkpt lat="44.29512" lon="2.65799">
        <ele>718.7229004</ele>
        <time>2013-02-03T08:09:25Z</time>
      </trkpt>
      <trkpt lat="44.29502" lon="2.65802">
        <ele>719.6843262</ele>
        <time>2013-02-03T08:09:30Z</time>
      </trkpt>
      <trkpt lat="44.295" lon="2.65803">
        <ele>719.2036133</ele>
        <time>2013-02-03T08:09:31Z</time>
      </trkpt>
      <trkpt lat="44.29487" lon="2.65808">
        <ele>718.7229004</ele>
        <time>2013-02-03T08:09:37Z</time>
      </trkpt>
      <trkpt lat="44.29475" lon="2.65813">
        <ele>718.7229004</ele>
        <time>2013-02-03T08:09:42Z</time>
      </trkpt>
      <trkpt lat="44.29461" lon="2.65821">
        <ele>717.7614746</ele>
        <time>2013-02-03T08:09:48Z</time>
      </trkpt>
      <trkpt lat="44.29447" lon="2.65837">
        <ele>718.2421875</ele>
        <time>2013-02-03T08:09:55Z</time>
      </trkpt>
      <trkpt lat="44.29439" lon="2.65849">
        <ele>718.2421875</ele>
        <time>2013-02-03T08:10:00Z</time>
      </trkpt>
      <trkpt lat="44.29427" lon="2.65863">
        <ele>718.7229004</ele>
        <time>2013-02-03T08:10:06Z</time>
      </trkpt>
      <trkpt lat="44.29416" lon="2.65876">
        <ele>717.7614746</ele>
        <time>2013-02-03T08:10:12Z</time>
      </trkpt>
      <trkpt lat="44.29405" lon="2.65884">
        <ele>717.2810059</ele>
        <time>2013-02-03T08:10:17Z</time>
      </trkpt>
      <trkpt lat="44.29393" lon="2.6589">
        <ele>716.800293</ele>
        <time>2013-02-03T08:10:22Z</time>
      </trkpt>
      <trkpt lat="44.29379" lon="2.65894">
        <ele>717.2810059</ele>
        <time>2013-02-03T08:10:27Z</time>
      </trkpt>
      <trkpt lat="44.29367" lon="2.65898">
        <ele>718.2421875</ele>
        <time>2013-02-03T08:10:32Z</time>
      </trkpt>
      <trkpt lat="44.29362" lon="2.65899">
        <ele>719.6843262</ele>
        <time>2013-02-03T08:10:34Z</time>
      </trkpt>
      <trkpt lat="44.29353" lon="2.65902">
        <ele>721.1262207</ele>
        <time>2013-02-03T08:10:38Z</time>
      </trkpt>
      <trkpt lat="44.2934" lon="2.65903">
        <ele>719.6843262</ele>
        <time>2013-02-03T08:10:45Z</time>
      </trkpt>
      <trkpt lat="44.29339" lon="2.65903">
        <ele>719.2036133</ele>
        <time>2013-02-03T08:10:46Z</time>
      </trkpt>
      <trkpt lat="44.29331" lon="2.65902">
        <ele>719.6843262</ele>
        <time>2013-02-03T08:10:52Z</time>
      </trkpt>
      <trkpt lat="44.29319" lon="2.65902">
        <ele>720.6455078</ele>
        <time>2013-02-03T08:10:58Z</time>
      </trkpt>
      <trkpt lat="44.29307" lon="2.65908">
        <ele>721.6066895</ele>
        <time>2013-02-03T08:11:03Z</time>
      </trkpt>
      <trkpt lat="44.29295" lon="2.65916">
        <ele>721.1262207</ele>
        <time>2013-02-03T08:11:09Z</time>
      </trkpt>
      <trkpt lat="44.29289" lon="2.65922">
        <ele>720.1647949</ele>
        <time>2013-02-03T08:11:14Z</time>
      </trkpt>
      <trkpt lat="44.29284" lon="2.65929">
        <ele>719.6843262</ele>
        <time>2013-02-03T08:11:18Z</time>
      </trkpt>
      <trkpt lat="44.29276" lon="2.65938">
        <ele>717.7614746</ele>
        <time>2013-02-03T08:11:24Z</time>
      </trkpt>
      <trkpt lat="44.29265" lon="2.65956">
        <ele>716.3195801</ele>
        <time>2013-02-03T08:11:31Z</time>
      </trkpt>
      <trkpt lat="44.29256" lon="2.65967">
        <ele>713.9160156</ele>
        <time>2013-02-03T08:11:35Z</time>
      </trkpt>
      <trkpt lat="44.29248" lon="2.65982">
        <ele>711.5129395</ele>
        <time>2013-02-03T08:11:41Z</time>
      </trkpt>
      <trkpt lat="44.29246" lon="2.65984">
        <ele>711.5129395</ele>
        <time>2013-02-03T08:11:42Z</time>
      </trkpt>
      <trkpt lat="44.29239" lon="2.66005">
        <ele>713.4355469</ele>
        <time>2013-02-03T08:11:48Z</time>
      </trkpt>
      <trkpt lat="44.29236" lon="2.66021">
        <ele>714.8774414</ele>
        <time>2013-02-03T08:11:53Z</time>
      </trkpt>
      <trkpt lat="44.2923" lon="2.66043">
        <ele>715.3581543</ele>
        <time>2013-02-03T08:11:59Z</time>
      </trkpt>
      <trkpt lat="44.29227" lon="2.66058">
        <ele>716.800293</ele>
        <time>2013-02-03T08:12:03Z</time>
      </trkpt>
      <trkpt lat="44.29225" lon="2.66076">
        <ele>715.8388672</ele>
        <time>2013-02-03T08:12:08Z</time>
      </trkpt>
      <trkpt lat="44.29227" lon="2.66091">
        <ele>715.8388672</ele>
        <time>2013-02-03T08:12:13Z</time>
      </trkpt>
      <trkpt lat="44.29227" lon="2.66103">
        <ele>713.9160156</ele>
        <time>2013-02-03T08:12:17Z</time>
      </trkpt>
      <trkpt lat="44.29224" lon="2.6612">
        <ele>709.1096191</ele>
        <time>2013-02-03T08:12:22Z</time>
      </trkpt>
      <trkpt lat="44.29218" lon="2.66138">
        <ele>706.7062988</ele>
        <time>2013-02-03T08:12:27Z</time>
      </trkpt>
      <trkpt lat="44.29214" lon="2.66158">
        <ele>705.2644043</ele>
        <time>2013-02-03T08:12:32Z</time>
      </trkpt>
      <trkpt lat="44.2921" lon="2.66177">
        <ele>705.2644043</ele>
        <time>2013-02-03T08:12:37Z</time>
      </trkpt>
      <trkpt lat="44.29197" lon="2.66191">
        <ele>702.861084</ele>
        <time>2013-02-03T08:12:43Z</time>
      </trkpt>
      <trkpt lat="44.29187" lon="2.66204">
        <ele>701.4191895</ele>
        <time>2013-02-03T08:12:48Z</time>
      </trkpt>
      <trkpt lat="44.29176" lon="2.66217">
        <ele>699.9770508</ele>
        <time>2013-02-03T08:12:53Z</time>
      </trkpt>
      <trkpt lat="44.29167" lon="2.66225">
        <ele>698.5349121</ele>
        <time>2013-02-03T08:12:57Z</time>
      </trkpt>
      <trkpt lat="44.29153" lon="2.66238">
        <ele>699.015625</ele>
        <time>2013-02-03T08:13:03Z</time>
      </trkpt>
      <trkpt lat="44.29147" lon="2.66248">
        <ele>697.0930176</ele>
        <time>2013-02-03T08:13:07Z</time>
      </trkpt>
      <trkpt lat="44.29139" lon="2.66264">
        <ele>695.1704102</ele>
        <time>2013-02-03T08:13:12Z</time>
      </trkpt>
      <trkpt lat="44.29132" lon="2.66284">
        <ele>693.2478027</ele>
        <time>2013-02-03T08:13:18Z</time>
      </trkpt>
      <trkpt lat="44.29123" lon="2.66305">
        <ele>692.2866211</ele>
        <time>2013-02-03T08:13:24Z</time>
      </trkpt>
      <trkpt lat="44.29116" lon="2.66323">
        <ele>693.7285156</ele>
        <time>2013-02-03T08:13:29Z</time>
      </trkpt>
      <trkpt lat="44.29109" lon="2.66341">
        <ele>692.767334</ele>
        <time>2013-02-03T08:13:34Z</time>
      </trkpt>
      <trkpt lat="44.29104" lon="2.66355">
        <ele>692.767334</ele>
        <time>2013-02-03T08:13:38Z</time>
      </trkpt>
      <trkpt lat="44.29099" lon="2.66367">
        <ele>692.767334</ele>
        <time>2013-02-03T08:13:42Z</time>
      </trkpt>
      <trkpt lat="44.29089" lon="2.66378">
        <ele>691.3251953</ele>
        <time>2013-02-03T08:13:47Z</time>
      </trkpt>
      <trkpt lat="44.29075" lon="2.66386">
        <ele>691.8059082</ele>
        <time>2013-02-03T08:13:53Z</time>
      </trkpt>
      <trkpt lat="44.29063" lon="2.66394">
        <ele>692.767334</ele>
        <time>2013-02-03T08:13:58Z</time>
      </trkpt>
      <trkpt lat="44.29052" lon="2.664">
        <ele>692.2866211</ele>
        <time>2013-02-03T08:14:03Z</time>
      </trkpt>
      <trkpt lat="44.29042" lon="2.66408">
        <ele>694.6896973</ele>
        <time>2013-02-03T08:14:08Z</time>
      </trkpt>
      <trkpt lat="44.29033" lon="2.66412">
        <ele>696.1318359</ele>
        <time>2013-02-03T08:14:14Z</time>
      </trkpt>
      <trkpt lat="44.29025" lon="2.66415">
        <ele>698.0544434</ele>
        <time>2013-02-03T08:14:19Z</time>
      </trkpt>
      <trkpt lat="44.29013" lon="2.66415">
        <ele>702.3803711</ele>
        <time>2013-02-03T08:14:27Z</time>
      </trkpt>
      <trkpt lat="44.29006" lon="2.66412">
        <ele>704.7836914</ele>
        <time>2013-02-03T08:14:33Z</time>
      </trkpt>
      <trkpt lat="44.28995" lon="2.6641">
        <ele>707.1870117</ele>
        <time>2013-02-03T08:14:41Z</time>
      </trkpt>
      <trkpt lat="44.28983" lon="2.66406">
        <ele>709.590332</ele>
        <time>2013-02-03T08:14:49Z</time>
      </trkpt>
      <trkpt lat="44.28974" lon="2.66401">
        <ele>709.590332</ele>
        <time>2013-02-03T08:14:56Z</time>
      </trkpt>
      <trkpt lat="44.28967" lon="2.66396">
        <ele>709.590332</ele>
        <time>2013-02-03T08:15:02Z</time>
      </trkpt>
      <trkpt lat="44.28959" lon="2.66387">
        <ele>711.5129395</ele>
        <time>2013-02-03T08:15:10Z</time>
      </trkpt>
      <trkpt lat="44.28952" lon="2.66379">
        <ele>714.3967285</ele>
        <time>2013-02-03T08:15:18Z</time>
      </trkpt>
      <trkpt lat="44.28945" lon="2.66375">
        <ele>715.8388672</ele>
        <time>2013-02-03T08:15:24Z</time>
      </trkpt>
      <trkpt lat="44.28933" lon="2.66367">
        <ele>719.2036133</ele>
        <time>2013-02-03T08:15:33Z</time>
      </trkpt>
      <trkpt lat="44.28926" lon="2.66362">
        <ele>720.6455078</ele>
        <time>2013-02-03T08:15:39Z</time>
      </trkpt>
      <trkpt lat="44.28917" lon="2.66355">
        <ele>722.0874023</ele>
        <time>2013-02-03T08:15:46Z</time>
      </trkpt>
      <trkpt lat="44.2891" lon="2.66347">
        <ele>724.0100098</ele>
        <time>2013-02-03T08:15:53Z</time>
      </trkpt>
      <trkpt lat="44.28899" lon="2.66337">
        <ele>725.9326172</ele>
        <time>2013-02-03T08:16:02Z</time>
      </trkpt>
      <trkpt lat="44.28889" lon="2.66325">
        <ele>727.3747559</ele>
        <time>2013-02-03T08:16:11Z</time>
      </trkpt>
      <trkpt lat="44.2888" lon="2.6631">
        <ele>728.8166504</ele>
        <time>2013-02-03T08:16:20Z</time>
      </trkpt>
      <trkpt lat="44.28872" lon="2.66294">
        <ele>730.2585449</ele>
        <time>2013-02-03T08:16:29Z</time>
      </trkpt>
      <trkpt lat="44.2887" lon="2.66281">
        <ele>730.7392578</ele>
        <time>2013-02-03T08:16:36Z</time>
      </trkpt>
      <trkpt lat="44.28874" lon="2.66271">
        <ele>731.7004395</ele>
        <time>2013-02-03T08:16:41Z</time>
      </trkpt>
      <trkpt lat="44.28883" lon="2.66264">
        <ele>732.6621094</ele>
        <time>2013-02-03T08:16:46Z</time>
      </trkpt>
      <trkpt lat="44.28893" lon="2.66254">
        <ele>733.623291</ele>
        <time>2013-02-03T08:16:52Z</time>
      </trkpt>
      <trkpt lat="44.28901" lon="2.66241">
        <ele>733.1425781</ele>
        <time>2013-02-03T08:16:58Z</time>
      </trkpt>
      <trkpt lat="44.28906" lon="2.66227">
        <ele>733.623291</ele>
        <time>2013-02-03T08:17:04Z</time>
      </trkpt>
      <trkpt lat="44.28911" lon="2.66217">
        <ele>733.623291</ele>
        <time>2013-02-03T08:17:08Z</time>
      </trkpt>
      <trkpt lat="44.28917" lon="2.66196">
        <ele>734.1040039</ele>
        <time>2013-02-03T08:17:15Z</time>
      </trkpt>
      <trkpt lat="44.28915" lon="2.66172">
        <ele>736.5073242</ele>
        <time>2013-02-03T08:17:21Z</time>
      </trkpt>
      <trkpt lat="44.28912" lon="2.66157">
        <ele>736.987793</ele>
        <time>2013-02-03T08:17:26Z</time>
      </trkpt>
      <trkpt lat="44.28904" lon="2.66145">
        <ele>737.9492188</ele>
        <time>2013-02-03T08:17:31Z</time>
      </trkpt>
      <trkpt lat="44.28901" lon="2.66141">
        <ele>737.4685059</ele>
        <time>2013-02-03T08:17:33Z</time>
      </trkpt>
      <trkpt lat="44.289" lon="2.66133">
        <ele>737.9492188</ele>
        <time>2013-02-03T08:17:37Z</time>
      </trkpt>
      <trkpt lat="44.289" lon="2.66119">
        <ele>739.8718262</ele>
        <time>2013-02-03T08:17:43Z</time>
      </trkpt>
      <trkpt lat="44.289" lon="2.66117">
        <ele>741.3137207</ele>
        <time>2013-02-03T08:17:47Z</time>
      </trkpt>
      <trkpt lat="44.289" lon="2.66134">
        <ele>740.8330078</ele>
        <time>2013-02-03T08:17:53Z</time>
      </trkpt>
      <trkpt lat="44.28894" lon="2.6614">
        <ele>741.3137207</ele>
        <time>2013-02-03T08:17:57Z</time>
      </trkpt>
      <trkpt lat="44.28877" lon="2.6614">
        <ele>742.2751465</ele>
        <time>2013-02-03T08:18:04Z</time>
      </trkpt>
      <trkpt lat="44.28867" lon="2.66145">
        <ele>744.6782227</ele>
        <time>2013-02-03T08:18:09Z</time>
      </trkpt>
      <trkpt lat="44.28852" lon="2.66154">
        <ele>745.1589355</ele>
        <time>2013-02-03T08:18:16Z</time>
      </trkpt>
      <trkpt lat="44.2884" lon="2.66165">
        <ele>745.1589355</ele>
        <time>2013-02-03T08:18:22Z</time>
      </trkpt>
      <trkpt lat="44.2883" lon="2.66176">
        <ele>746.1203613</ele>
        <time>2013-02-03T08:18:27Z</time>
      </trkpt>
      <trkpt lat="44.28819" lon="2.66194">
        <ele>748.0432129</ele>
        <time>2013-02-03T08:18:34Z</time>
      </trkpt>
      <trkpt lat="44.28809" lon="2.66204">
        <ele>745.1589355</ele>
        <time>2013-02-03T08:18:39Z</time>
      </trkpt>
      <trkpt lat="44.28797" lon="2.66221">
        <ele>742.2751465</ele>
        <time>2013-02-03T08:18:46Z</time>
      </trkpt>
      <trkpt lat="44.28792" lon="2.66238">
        <ele>741.7944336</ele>
        <time>2013-02-03T08:18:51Z</time>
      </trkpt>
      <trkpt lat="44.28786" lon="2.66259">
        <ele>742.7558594</ele>
        <time>2013-02-03T08:18:58Z</time>
      </trkpt>
      <trkpt lat="44.28781" lon="2.66278">
        <ele>744.1977539</ele>
        <time>2013-02-03T08:19:04Z</time>
      </trkpt>
      <trkpt lat="44.28773" lon="2.66302">
        <ele>744.6782227</ele>
        <time>2013-02-03T08:19:11Z</time>
      </trkpt>
      <trkpt lat="44.28769" lon="2.66315">
        <ele>744.1977539</ele>
        <time>2013-02-03T08:19:15Z</time>
      </trkpt>
      <trkpt lat="44.28762" lon="2.66335">
        <ele>742.7558594</ele>
        <time>2013-02-03T08:19:21Z</time>
      </trkpt>
      <trkpt lat="44.28757" lon="2.66351">
        <ele>742.2751465</ele>
        <time>2013-02-03T08:19:26Z</time>
      </trkpt>
      <trkpt lat="44.28751" lon="2.66368">
        <ele>741.7944336</ele>
        <time>2013-02-03T08:19:31Z</time>
      </trkpt>
      <trkpt lat="44.28744" lon="2.66387">
        <ele>741.3137207</ele>
        <time>2013-02-03T08:19:37Z</time>
      </trkpt>
      <trkpt lat="44.28738" lon="2.66408">
        <ele>738.9106445</ele>
        <time>2013-02-03T08:19:43Z</time>
      </trkpt>
      <trkpt lat="44.2873" lon="2.66434">
        <ele>734.5847168</ele>
        <time>2013-02-03T08:19:50Z</time>
      </trkpt>
      <trkpt lat="44.28724" lon="2.66458">
        <ele>731.7004395</ele>
        <time>2013-02-03T08:19:57Z</time>
      </trkpt>
      <trkpt lat="44.2872" lon="2.66479">
        <ele>729.777832</ele>
        <time>2013-02-03T08:20:03Z</time>
      </trkpt>
      <trkpt lat="44.28713" lon="2.66499">
        <ele>728.3359375</ele>
        <time>2013-02-03T08:20:09Z</time>
      </trkpt>
      <trkpt lat="44.28709" lon="2.66508">
        <ele>728.3359375</ele>
        <time>2013-02-03T08:20:12Z</time>
      </trkpt>
      <trkpt lat="44.28694" lon="2.66523">
        <ele>727.8552246</ele>
        <time>2013-02-03T08:20:19Z</time>
      </trkpt>
      <trkpt lat="44.2868" lon="2.66531">
        <ele>726.894043</ele>
        <time>2013-02-03T08:20:25Z</time>
      </trkpt>
      <trkpt lat="44.28664" lon="2.66545">
        <ele>724.4907227</ele>
        <time>2013-02-03T08:20:32Z</time>
      </trkpt>
      <trkpt lat="44.28657" lon="2.6656">
        <ele>726.894043</ele>
        <time>2013-02-03T08:20:38Z</time>
      </trkpt>
      <trkpt lat="44.28656" lon="2.66561">
        <ele>727.3747559</ele>
        <time>2013-02-03T08:20:39Z</time>
      </trkpt>
      <trkpt lat="44.28654" lon="2.66565">
        <ele>728.3359375</ele>
        <time>2013-02-03T08:20:46Z</time>
      </trkpt>
      <trkpt lat="44.28654" lon="2.66567">
        <ele>729.777832</ele>
        <time>2013-02-03T08:20:56Z</time>
      </trkpt>
      <trkpt lat="44.28652" lon="2.6657">
        <ele>728.8166504</ele>
        <time>2013-02-03T08:21:02Z</time>
      </trkpt>
      <trkpt lat="44.28649" lon="2.66572">
        <ele>727.3747559</ele>
        <time>2013-02-03T08:21:09Z</time>
      </trkpt>
      <trkpt lat="44.28644" lon="2.66576">
        <ele>727.3747559</ele>
        <time>2013-02-03T08:21:15Z</time>
      </trkpt>
      <trkpt lat="44.28641" lon="2.66582">
        <ele>728.8166504</ele>
        <time>2013-02-03T08:21:23Z</time>
      </trkpt>
      <trkpt lat="44.28637" lon="2.6659">
        <ele>730.7392578</ele>
        <time>2013-02-03T08:21:33Z</time>
      </trkpt>
      <trkpt lat="44.28636" lon="2.6659">
        <ele>730.2585449</ele>
        <time>2013-02-03T08:21:43Z</time>
      </trkpt>
      <trkpt lat="44.28636" lon="2.66591">
        <ele>729.2971191</ele>
        <time>2013-02-03T08:21:56Z</time>
      </trkpt>
      <trkpt lat="44.28634" lon="2.66592">
        <ele>728.3359375</ele>
        <time>2013-02-03T08:22:11Z</time>
      </trkpt>
      <trkpt lat="44.28634" lon="2.66592">
        <ele>728.3359375</ele>
        <time>2013-02-03T08:22:25Z</time>
      </trkpt>
      <trkpt lat="44.28635" lon="2.66592">
        <ele>729.2971191</ele>
        <time>2013-02-03T08:22:41Z</time>
      </trkpt>
      <trkpt lat="44.28634" lon="2.66593">
        <ele>728.3359375</ele>
        <time>2013-02-03T08:22:59Z</time>
      </trkpt>
      <trkpt lat="44.28634" lon="2.66595">
        <ele>731.2199707</ele>
        <time>2013-02-03T08:23:14Z</time>
      </trkpt>
      <trkpt lat="44.28634" lon="2.66594">
        <ele>729.777832</ele>
        <time>2013-02-03T08:23:24Z</time>
      </trkpt>
      <trkpt lat="44.28635" lon="2.66593">
        <ele>730.2585449</ele>
        <time>2013-02-03T08:23:37Z</time>
      </trkpt>
      <trkpt lat="44.28635" lon="2.66593">
        <ele>729.777832</ele>
        <time>2013-02-03T08:24:07Z</time>
      </trkpt>
      <trkpt lat="44.28636" lon="2.66594">
        <ele>731.2199707</ele>
        <time>2013-02-03T08:24:14Z</time>
      </trkpt>
      <trkpt lat="44.28636" lon="2.66594">
        <ele>734.1040039</ele>
        <time>2013-02-03T08:24:39Z</time>
      </trkpt>
      <trkpt lat="44.28635" lon="2.66595">
        <ele>735.0654297</ele>
        <time>2013-02-03T08:24:52Z</time>
      </trkpt>
      <trkpt lat="44.28635" lon="2.66595">
        <ele>733.623291</ele>
        <time>2013-02-03T08:25:03Z</time>
      </trkpt>
      <trkpt lat="44.28635" lon="2.66595">
        <ele>734.5847168</ele>
        <time>2013-02-03T08:25:27Z</time>
      </trkpt>
      <trkpt lat="44.28634" lon="2.66596">
        <ele>735.0654297</ele>
        <time>2013-02-03T08:25:36Z</time>
      </trkpt>
      <trkpt lat="44.28627" lon="2.66604">
        <ele>734.5847168</ele>
        <time>2013-02-03T08:25:41Z</time>
      </trkpt>
      <trkpt lat="44.28624" lon="2.66615">
        <ele>735.5458984</ele>
        <time>2013-02-03T08:25:46Z</time>
      </trkpt>
      <trkpt lat="44.28621" lon="2.66626">
        <ele>736.987793</ele>
        <time>2013-02-03T08:25:53Z</time>
      </trkpt>
      <trkpt lat="44.28618" lon="2.66636">
        <ele>737.9492188</ele>
        <time>2013-02-03T08:25:59Z</time>
      </trkpt>
      <trkpt lat="44.28617" lon="2.6664">
        <ele>738.4299316</ele>
        <time>2013-02-03T08:26:02Z</time>
      </trkpt>
      <trkpt lat="44.28614" lon="2.66648">
        <ele>739.8718262</ele>
        <time>2013-02-03T08:26:09Z</time>
      </trkpt>
      <trkpt lat="44.28611" lon="2.66652">
        <ele>739.3911133</ele>
        <time>2013-02-03T08:26:16Z</time>
      </trkpt>
      <trkpt lat="44.28605" lon="2.66663">
        <ele>739.3911133</ele>
        <time>2013-02-03T08:26:22Z</time>
      </trkpt>
      <trkpt lat="44.28598" lon="2.66676">
        <ele>740.3525391</ele>
        <time>2013-02-03T08:26:28Z</time>
      </trkpt>
      <trkpt lat="44.28591" lon="2.66693">
        <ele>741.3137207</ele>
        <time>2013-02-03T08:26:34Z</time>
      </trkpt>
      <trkpt lat="44.28588" lon="2.66708">
        <ele>741.3137207</ele>
        <time>2013-02-03T08:26:39Z</time>
      </trkpt>
      <trkpt lat="44.28583" lon="2.66722">
        <ele>741.7944336</ele>
        <time>2013-02-03T08:26:44Z</time>
      </trkpt>
      <trkpt lat="44.28578" lon="2.66734">
        <ele>742.7558594</ele>
        <time>2013-02-03T08:26:48Z</time>
      </trkpt>
      <trkpt lat="44.28568" lon="2.66742">
        <ele>742.7558594</ele>
        <time>2013-02-03T08:26:53Z</time>
      </trkpt>
      <trkpt lat="44.2856" lon="2.66753">
        <ele>745.1589355</ele>
        <time>2013-02-03T08:26:59Z</time>
      </trkpt>
      <trkpt lat="44.28549" lon="2.66771">
        <ele>748.5236816</ele>
        <time>2013-02-03T08:27:06Z</time>
      </trkpt>
      <trkpt lat="44.28541" lon="2.6678">
        <ele>749.9658203</ele>
        <time>2013-02-03T08:27:10Z</time>
      </trkpt>
      <trkpt lat="44.28534" lon="2.66787">
        <ele>750.927002</ele>
        <time>2013-02-03T08:27:15Z</time>
      </trkpt>
      <trkpt lat="44.28525" lon="2.66794">
        <ele>752.8496094</ele>
        <time>2013-02-03T08:27:21Z</time>
      </trkpt>
      <trkpt lat="44.28516" lon="2.668">
        <ele>753.8110352</ele>
        <time>2013-02-03T08:27:27Z</time>
      </trkpt>
      <trkpt lat="44.28504" lon="2.66805">
        <ele>755.2529297</ele>
        <time>2013-02-03T08:27:34Z</time>
      </trkpt>
      <trkpt lat="44.28502" lon="2.66807">
        <ele>755.7336426</ele>
        <time>2013-02-03T08:27:36Z</time>
      </trkpt>
      <trkpt lat="44.28494" lon="2.66819">
        <ele>757.1755371</ele>
        <time>2013-02-03T08:27:42Z</time>
      </trkpt>
      <trkpt lat="44.28485" lon="2.6683">
        <ele>756.2141113</ele>
        <time>2013-02-03T08:27:47Z</time>
      </trkpt>
      <trkpt lat="44.28476" lon="2.66843">
        <ele>757.1755371</ele>
        <time>2013-02-03T08:27:53Z</time>
      </trkpt>
      <trkpt lat="44.28469" lon="2.66853">
        <ele>757.1755371</ele>
        <time>2013-02-03T08:27:58Z</time>
      </trkpt>
      <trkpt lat="44.28461" lon="2.66865">
        <ele>758.1369629</ele>
        <time>2013-02-03T08:28:04Z</time>
      </trkpt>
      <trkpt lat="44.28453" lon="2.66878">
        <ele>760.5400391</ele>
        <time>2013-02-03T08:28:10Z</time>
      </trkpt>
      <trkpt lat="44.28445" lon="2.66889">
        <ele>761.9821777</ele>
        <time>2013-02-03T08:28:16Z</time>
      </trkpt>
      <trkpt lat="44.28443" lon="2.66892">
        <ele>761.5014648</ele>
        <time>2013-02-03T08:28:18Z</time>
      </trkpt>
      <trkpt lat="44.28435" lon="2.66902">
        <ele>763.4240723</ele>
        <time>2013-02-03T08:28:23Z</time>
      </trkpt>
      <trkpt lat="44.28433" lon="2.66907">
        <ele>763.904541</ele>
        <time>2013-02-03T08:28:25Z</time>
      </trkpt>
      <trkpt lat="44.28427" lon="2.66918">
        <ele>764.8662109</ele>
        <time>2013-02-03T08:28:30Z</time>
      </trkpt>
      <trkpt lat="44.28418" lon="2.66933">
        <ele>765.8276367</ele>
        <time>2013-02-03T08:28:36Z</time>
      </trkpt>
      <trkpt lat="44.28407" lon="2.66947">
        <ele>766.7888184</ele>
        <time>2013-02-03T08:28:43Z</time>
      </trkpt>
      <trkpt lat="44.28401" lon="2.6696">
        <ele>767.2695313</ele>
        <time>2013-02-03T08:28:49Z</time>
      </trkpt>
      <trkpt lat="44.28393" lon="2.66976">
        <ele>768.7114258</ele>
        <time>2013-02-03T08:28:56Z</time>
      </trkpt>
      <trkpt lat="44.28389" lon="2.66983">
        <ele>768.7114258</ele>
        <time>2013-02-03T08:29:00Z</time>
      </trkpt>
      <trkpt lat="44.28384" lon="2.66992">
        <ele>768.2307129</ele>
        <time>2013-02-03T08:29:05Z</time>
      </trkpt>
      <trkpt lat="44.28374" lon="2.67011">
        <ele>769.6728516</ele>
        <time>2013-02-03T08:29:13Z</time>
      </trkpt>
      <trkpt lat="44.28365" lon="2.67028">
        <ele>770.6340332</ele>
        <time>2013-02-03T08:29:20Z</time>
      </trkpt>
      <trkpt lat="44.28357" lon="2.67046">
        <ele>772.0759277</ele>
        <time>2013-02-03T08:29:27Z</time>
      </trkpt>
      <trkpt lat="44.2835" lon="2.6706">
        <ele>773.0373535</ele>
        <time>2013-02-03T08:29:33Z</time>
      </trkpt>
      <trkpt lat="44.28344" lon="2.67071">
        <ele>773.9985352</ele>
        <time>2013-02-03T08:29:38Z</time>
      </trkpt>
      <trkpt lat="44.28336" lon="2.6708">
        <ele>774.9599609</ele>
        <time>2013-02-03T08:29:43Z</time>
      </trkpt>
      <trkpt lat="44.28323" lon="2.67088">
        <ele>777.3632813</ele>
        <time>2013-02-03T08:29:50Z</time>
      </trkpt>
      <trkpt lat="44.28308" lon="2.67096">
        <ele>777.84375</ele>
        <time>2013-02-03T08:29:57Z</time>
      </trkpt>
      <trkpt lat="44.28296" lon="2.67101">
        <ele>778.3244629</ele>
        <time>2013-02-03T08:30:02Z</time>
      </trkpt>
      <trkpt lat="44.28282" lon="2.67107">
        <ele>779.2856445</ele>
        <time>2013-02-03T08:30:08Z</time>
      </trkpt>
      <trkpt lat="44.28268" lon="2.67113">
        <ele>779.7663574</ele>
        <time>2013-02-03T08:30:14Z</time>
      </trkpt>
      <trkpt lat="44.28254" lon="2.6712">
        <ele>780.7280273</ele>
        <time>2013-02-03T08:30:20Z</time>
      </trkpt>
      <trkpt lat="44.28241" lon="2.67126">
        <ele>781.2087402</ele>
        <time>2013-02-03T08:30:26Z</time>
      </trkpt>
      <trkpt lat="44.28228" lon="2.67132">
        <ele>781.689209</ele>
        <time>2013-02-03T08:30:31Z</time>
      </trkpt>
      <trkpt lat="44.28214" lon="2.67139">
        <ele>781.689209</ele>
        <time>2013-02-03T08:30:37Z</time>
      </trkpt>
      <trkpt lat="44.28202" lon="2.67149">
        <ele>781.689209</ele>
        <time>2013-02-03T08:30:43Z</time>
      </trkpt>
      <trkpt lat="44.28188" lon="2.67166">
        <ele>781.2087402</ele>
        <time>2013-02-03T08:30:51Z</time>
      </trkpt>
      <trkpt lat="44.28178" lon="2.6718">
        <ele>780.2473145</ele>
        <time>2013-02-03T08:30:56Z</time>
      </trkpt>
      <trkpt lat="44.2817" lon="2.67194">
        <ele>780.2473145</ele>
        <time>2013-02-03T08:31:01Z</time>
      </trkpt>
      <trkpt lat="44.28161" lon="2.67204">
        <ele>779.2856445</ele>
        <time>2013-02-03T08:31:06Z</time>
      </trkpt>
      <trkpt lat="44.28153" lon="2.67212">
        <ele>777.84375</ele>
        <time>2013-02-03T08:31:10Z</time>
      </trkpt>
      <trkpt lat="44.28142" lon="2.67221">
        <ele>777.84375</ele>
        <time>2013-02-03T08:31:15Z</time>
      </trkpt>
      <trkpt lat="44.28132" lon="2.67231">
        <ele>775.9211426</ele>
        <time>2013-02-03T08:31:20Z</time>
      </trkpt>
      <trkpt lat="44.28119" lon="2.67244">
        <ele>774.9599609</ele>
        <time>2013-02-03T08:31:26Z</time>
      </trkpt>
      <trkpt lat="44.28109" lon="2.67259">
        <ele>774.479248</ele>
        <time>2013-02-03T08:31:32Z</time>
      </trkpt>
      <trkpt lat="44.28106" lon="2.67264">
        <ele>774.479248</ele>
        <time>2013-02-03T08:31:35Z</time>
      </trkpt>
      <trkpt lat="44.28102" lon="2.67271">
        <ele>773.9985352</ele>
        <time>2013-02-03T08:31:40Z</time>
      </trkpt>
      <trkpt lat="44.28094" lon="2.67284">
        <ele>774.479248</ele>
        <time>2013-02-03T08:31:45Z</time>
      </trkpt>
      <trkpt lat="44.28086" lon="2.67299">
        <ele>773.9985352</ele>
        <time>2013-02-03T08:31:51Z</time>
      </trkpt>
      <trkpt lat="44.28075" lon="2.67317">
        <ele>773.0373535</ele>
        <time>2013-02-03T08:31:58Z</time>
      </trkpt>
      <trkpt lat="44.28067" lon="2.67333">
        <ele>772.0759277</ele>
        <time>2013-02-03T08:32:04Z</time>
      </trkpt>
      <trkpt lat="44.28059" lon="2.67347">
        <ele>770.1533203</ele>
        <time>2013-02-03T08:32:10Z</time>
      </trkpt>
      <trkpt lat="44.28051" lon="2.67362">
        <ele>770.1533203</ele>
        <time>2013-02-03T08:32:17Z</time>
      </trkpt>
      <trkpt lat="44.28041" lon="2.6738">
        <ele>769.1921387</ele>
        <time>2013-02-03T08:32:24Z</time>
      </trkpt>
      <trkpt lat="44.28034" lon="2.67399">
        <ele>768.2307129</ele>
        <time>2013-02-03T08:32:30Z</time>
      </trkpt>
      <trkpt lat="44.28028" lon="2.67422">
        <ele>766.7888184</ele>
        <time>2013-02-03T08:32:37Z</time>
      </trkpt>
      <trkpt lat="44.28018" lon="2.67439">
        <ele>765.8276367</ele>
        <time>2013-02-03T08:32:43Z</time>
      </trkpt>
      <trkpt lat="44.28007" lon="2.6744">
        <ele>764.385498</ele>
        <time>2013-02-03T08:32:47Z</time>
      </trkpt>
      <trkpt lat="44.27993" lon="2.67429">
        <ele>762.9433594</ele>
        <time>2013-02-03T08:32:53Z</time>
      </trkpt>
      <trkpt lat="44.2798" lon="2.67418">
        <ele>761.5014648</ele>
        <time>2013-02-03T08:32:59Z</time>
      </trkpt>
      <trkpt lat="44.27972" lon="2.6741">
        <ele>760.5400391</ele>
        <time>2013-02-03T08:33:03Z</time>
      </trkpt>
      <trkpt lat="44.27959" lon="2.67398">
        <ele>759.0981445</ele>
        <time>2013-02-03T08:33:09Z</time>
      </trkpt>
      <trkpt lat="44.27945" lon="2.67384">
        <ele>757.1755371</ele>
        <time>2013-02-03T08:33:16Z</time>
      </trkpt>
      <trkpt lat="44.27939" lon="2.67381">
        <ele>756.2141113</ele>
        <time>2013-02-03T08:33:20Z</time>
      </trkpt>
      <trkpt lat="44.27934" lon="2.67379">
        <ele>755.7336426</ele>
        <time>2013-02-03T08:33:25Z</time>
      </trkpt>
      <trkpt lat="44.27932" lon="2.67378">
        <ele>755.7336426</ele>
        <time>2013-02-03T08:33:26Z</time>
      </trkpt>
      <trkpt lat="44.27925" lon="2.67373">
        <ele>755.2529297</ele>
        <time>2013-02-03T08:33:30Z</time>
      </trkpt>
      <trkpt lat="44.27911" lon="2.67362">
        <ele>753.8110352</ele>
        <time>2013-02-03T08:33:36Z</time>
      </trkpt>
      <trkpt lat="44.27898" lon="2.67355">
        <ele>752.3688965</ele>
        <time>2013-02-03T08:33:41Z</time>
      </trkpt>
      <trkpt lat="44.27882" lon="2.67342">
        <ele>751.4077148</ele>
        <time>2013-02-03T08:33:48Z</time>
      </trkpt>
      <trkpt lat="44.27879" lon="2.67338">
        <ele>751.4077148</ele>
        <time>2013-02-03T08:33:50Z</time>
      </trkpt>
      <trkpt lat="44.27877" lon="2.6733">
        <ele>749.9658203</ele>
        <time>2013-02-03T08:33:54Z</time>
      </trkpt>
      <trkpt lat="44.27868" lon="2.67307">
        <ele>747.081543</ele>
        <time>2013-02-03T08:34:02Z</time>
      </trkpt>
      <trkpt lat="44.27867" lon="2.67296">
        <ele>745.1589355</ele>
        <time>2013-02-03T08:34:06Z</time>
      </trkpt>
      <trkpt lat="44.27864" lon="2.67281">
        <ele>744.6782227</ele>
        <time>2013-02-03T08:34:11Z</time>
      </trkpt>
      <trkpt lat="44.27859" lon="2.67264">
        <ele>744.1977539</ele>
        <time>2013-02-03T08:34:16Z</time>
      </trkpt>
      <trkpt lat="44.27856" lon="2.6725">
        <ele>743.2363281</ele>
        <time>2013-02-03T08:34:20Z</time>
      </trkpt>
      <trkpt lat="44.27853" lon="2.67228">
        <ele>741.3137207</ele>
        <time>2013-02-03T08:34:26Z</time>
      </trkpt>
      <trkpt lat="44.27852" lon="2.67211">
        <ele>740.3525391</ele>
        <time>2013-02-03T08:34:31Z</time>
      </trkpt>
      <trkpt lat="44.27851" lon="2.67201">
        <ele>739.3911133</ele>
        <time>2013-02-03T08:34:34Z</time>
      </trkpt>
      <trkpt lat="44.2784" lon="2.67197">
        <ele>737.9492188</ele>
        <time>2013-02-03T08:34:39Z</time>
      </trkpt>
      <trkpt lat="44.27838" lon="2.67199">
        <ele>737.9492188</ele>
        <time>2013-02-03T08:34:40Z</time>
      </trkpt>
      <trkpt lat="44.27827" lon="2.67216">
        <ele>736.987793</ele>
        <time>2013-02-03T08:34:46Z</time>
      </trkpt>
      <trkpt lat="44.27816" lon="2.67236">
        <ele>736.0266113</ele>
        <time>2013-02-03T08:34:53Z</time>
      </trkpt>
      <trkpt lat="44.27805" lon="2.67254">
        <ele>735.0654297</ele>
        <time>2013-02-03T08:34:59Z</time>
      </trkpt>
      <trkpt lat="44.27796" lon="2.67266">
        <ele>732.6621094</ele>
        <time>2013-02-03T08:35:04Z</time>
      </trkpt>
      <trkpt lat="44.27784" lon="2.6728">
        <ele>731.2199707</ele>
        <time>2013-02-03T08:35:10Z</time>
      </trkpt>
      <trkpt lat="44.27773" lon="2.67292">
        <ele>730.7392578</ele>
        <time>2013-02-03T08:35:15Z</time>
      </trkpt>
      <trkpt lat="44.2776" lon="2.67306">
        <ele>730.7392578</ele>
        <time>2013-02-03T08:35:21Z</time>
      </trkpt>
      <trkpt lat="44.27747" lon="2.67321">
        <ele>729.2971191</ele>
        <time>2013-02-03T08:35:27Z</time>
      </trkpt>
      <trkpt lat="44.27737" lon="2.67338">
        <ele>728.3359375</ele>
        <time>2013-02-03T08:35:33Z</time>
      </trkpt>
      <trkpt lat="44.27736" lon="2.6734">
        <ele>728.3359375</ele>
        <time>2013-02-03T08:35:34Z</time>
      </trkpt>
      <trkpt lat="44.27734" lon="2.67335">
        <ele>728.8166504</ele>
        <time>2013-02-03T08:35:40Z</time>
      </trkpt>
      <trkpt lat="44.27733" lon="2.67333">
        <ele>728.3359375</ele>
        <time>2013-02-03T08:35:42Z</time>
      </trkpt>
      <trkpt lat="44.27726" lon="2.67324">
        <ele>728.3359375</ele>
        <time>2013-02-03T08:35:46Z</time>
      </trkpt>
      <trkpt lat="44.2772" lon="2.67312">
        <ele>727.3747559</ele>
        <time>2013-02-03T08:35:51Z</time>
      </trkpt>
      <trkpt lat="44.2771" lon="2.67318">
        <ele>726.4133301</ele>
        <time>2013-02-03T08:35:56Z</time>
      </trkpt>
      <trkpt lat="44.27701" lon="2.67333">
        <ele>724.9714355</ele>
        <time>2013-02-03T08:36:02Z</time>
      </trkpt>
      <trkpt lat="44.27694" lon="2.67348">
        <ele>722.0874023</ele>
        <time>2013-02-03T08:36:07Z</time>
      </trkpt>
      <trkpt lat="44.27688" lon="2.67362">
        <ele>720.1647949</ele>
        <time>2013-02-03T08:36:12Z</time>
      </trkpt>
      <trkpt lat="44.27683" lon="2.67377">
        <ele>718.7229004</ele>
        <time>2013-02-03T08:36:17Z</time>
      </trkpt>
      <trkpt lat="44.27682" lon="2.67382">
        <ele>718.2421875</ele>
        <time>2013-02-03T08:36:19Z</time>
      </trkpt>
      <trkpt lat="44.27679" lon="2.67397">
        <ele>716.800293</ele>
        <time>2013-02-03T08:36:24Z</time>
      </trkpt>
      <trkpt lat="44.27674" lon="2.67415">
        <ele>715.8388672</ele>
        <time>2013-02-03T08:36:30Z</time>
      </trkpt>
      <trkpt lat="44.2767" lon="2.67437">
        <ele>713.9160156</ele>
        <time>2013-02-03T08:36:37Z</time>
      </trkpt>
      <trkpt lat="44.27668" lon="2.67443">
        <ele>713.4355469</ele>
        <time>2013-02-03T08:36:39Z</time>
      </trkpt>
      <trkpt lat="44.27664" lon="2.67463">
        <ele>711.0322266</ele>
        <time>2013-02-03T08:36:45Z</time>
      </trkpt>
      <trkpt lat="44.27664" lon="2.67482">
        <ele>710.5515137</ele>
        <time>2013-02-03T08:36:50Z</time>
      </trkpt>
      <trkpt lat="44.27664" lon="2.67498">
        <ele>709.590332</ele>
        <time>2013-02-03T08:36:54Z</time>
      </trkpt>
      <trkpt lat="44.27659" lon="2.67518">
        <ele>708.6289063</ele>
        <time>2013-02-03T08:37:00Z</time>
      </trkpt>
      <trkpt lat="44.27651" lon="2.67532">
        <ele>708.1484375</ele>
        <time>2013-02-03T08:37:05Z</time>
      </trkpt>
      <trkpt lat="44.27641" lon="2.67543">
        <ele>707.6677246</ele>
        <time>2013-02-03T08:37:10Z</time>
      </trkpt>
      <trkpt lat="44.27632" lon="2.6755">
        <ele>706.7062988</ele>
        <time>2013-02-03T08:37:15Z</time>
      </trkpt>
      <trkpt lat="44.27631" lon="2.67552">
        <ele>706.7062988</ele>
        <time>2013-02-03T08:37:22Z</time>
      </trkpt>
      <trkpt lat="44.2764" lon="2.67555">
        <ele>704.7836914</ele>
        <time>2013-02-03T08:37:27Z</time>
      </trkpt>
      <trkpt lat="44.27652" lon="2.67552">
        <ele>703.3417969</ele>
        <time>2013-02-03T08:37:32Z</time>
      </trkpt>
      <trkpt lat="44.27666" lon="2.67549">
        <ele>699.015625</ele>
        <time>2013-02-03T08:37:38Z</time>
      </trkpt>
      <trkpt lat="44.27678" lon="2.67546">
        <ele>696.1318359</ele>
        <time>2013-02-03T08:37:43Z</time>
      </trkpt>
      <trkpt lat="44.27692" lon="2.67551">
        <ele>693.7285156</ele>
        <time>2013-02-03T08:37:48Z</time>
      </trkpt>
      <trkpt lat="44.27698" lon="2.67564">
        <ele>691.3251953</ele>
        <time>2013-02-03T08:37:53Z</time>
      </trkpt>
      <trkpt lat="44.27705" lon="2.67573">
        <ele>687.9606934</ele>
        <time>2013-02-03T08:37:57Z</time>
      </trkpt>
      <trkpt lat="44.27715" lon="2.6758">
        <ele>686.5187988</ele>
        <time>2013-02-03T08:38:02Z</time>
      </trkpt>
      <trkpt lat="44.27724" lon="2.67587">
        <ele>685.0769043</ele>
        <time>2013-02-03T08:38:06Z</time>
      </trkpt>
      <trkpt lat="44.27737" lon="2.67591">
        <ele>685.0769043</ele>
        <time>2013-02-03T08:38:11Z</time>
      </trkpt>
      <trkpt lat="44.2774" lon="2.67591">
        <ele>685.0769043</ele>
        <time>2013-02-03T08:38:12Z</time>
      </trkpt>
      <trkpt lat="44.27749" lon="2.67595">
        <ele>685.557373</ele>
        <time>2013-02-03T08:38:16Z</time>
      </trkpt>
      <trkpt lat="44.27758" lon="2.67603">
        <ele>685.0769043</ele>
        <time>2013-02-03T08:38:22Z</time>
      </trkpt>
      <trkpt lat="44.27765" lon="2.67607">
        <ele>684.5961914</ele>
        <time>2013-02-03T08:38:28Z</time>
      </trkpt>
      <trkpt lat="44.27768" lon="2.67613">
        <ele>685.0769043</ele>
        <time>2013-02-03T08:38:30Z</time>
      </trkpt>
      <trkpt lat="44.27773" lon="2.6762">
        <ele>685.557373</ele>
        <time>2013-02-03T08:38:33Z</time>
      </trkpt>
      <trkpt lat="44.27775" lon="2.67631">
        <ele>685.0769043</ele>
        <time>2013-02-03T08:38:38Z</time>
      </trkpt>
      <trkpt lat="44.27774" lon="2.67633">
        <ele>684.5961914</ele>
        <time>2013-02-03T08:38:40Z</time>
      </trkpt>
      <trkpt lat="44.27776" lon="2.67642">
        <ele>685.0769043</ele>
        <time>2013-02-03T08:38:46Z</time>
      </trkpt>
      <trkpt lat="44.27775" lon="2.67646">
        <ele>683.6345215</ele>
        <time>2013-02-03T08:38:52Z</time>
      </trkpt>
      <trkpt lat="44.27771" lon="2.67651">
        <ele>682.6733398</ele>
        <time>2013-02-03T08:38:57Z</time>
      </trkpt>
      <trkpt lat="44.27761" lon="2.67651">
        <ele>680.7507324</ele>
        <time>2013-02-03T08:39:03Z</time>
      </trkpt>
      <trkpt lat="44.27753" lon="2.67654">
        <ele>679.3085938</ele>
        <time>2013-02-03T08:39:08Z</time>
      </trkpt>
      <trkpt lat="44.27751" lon="2.67655">
        <ele>678.828125</ele>
        <time>2013-02-03T08:39:09Z</time>
      </trkpt>
      <trkpt lat="44.27747" lon="2.67657">
        <ele>677.8666992</ele>
        <time>2013-02-03T08:39:11Z</time>
      </trkpt>
      <trkpt lat="44.27736" lon="2.67667">
        <ele>674.9829102</ele>
        <time>2013-02-03T08:39:17Z</time>
      </trkpt>
      <trkpt lat="44.27727" lon="2.67672">
        <ele>673.5410156</ele>
        <time>2013-02-03T08:39:21Z</time>
      </trkpt>
      <trkpt lat="44.27723" lon="2.67672">
        <ele>672.098877</ele>
        <time>2013-02-03T08:39:23Z</time>
      </trkpt>
      <trkpt lat="44.27705" lon="2.67675">
        <ele>667.7727051</ele>
        <time>2013-02-03T08:39:31Z</time>
      </trkpt>
      <trkpt lat="44.27703" lon="2.67676">
        <ele>667.7727051</ele>
        <time>2013-02-03T08:39:32Z</time>
      </trkpt>
      <trkpt lat="44.27691" lon="2.67686">
        <ele>664.4082031</ele>
        <time>2013-02-03T08:39:38Z</time>
      </trkpt>
      <trkpt lat="44.27688" lon="2.67689">
        <ele>663.4470215</ele>
        <time>2013-02-03T08:39:40Z</time>
      </trkpt>
      <trkpt lat="44.27677" lon="2.67697">
        <ele>661.0437012</ele>
        <time>2013-02-03T08:39:46Z</time>
      </trkpt>
      <trkpt lat="44.27675" lon="2.67698">
        <ele>661.0437012</ele>
        <time>2013-02-03T08:39:47Z</time>
      </trkpt>
      <trkpt lat="44.2767" lon="2.67703">
        <ele>660.5629883</ele>
        <time>2013-02-03T08:39:52Z</time>
      </trkpt>
      <trkpt lat="44.27662" lon="2.67711">
        <ele>660.0822754</ele>
        <time>2013-02-03T08:39:58Z</time>
      </trkpt>
      <trkpt lat="44.27653" lon="2.67719">
        <ele>659.1210938</ele>
        <time>2013-02-03T08:40:03Z</time>
      </trkpt>
      <trkpt lat="44.27642" lon="2.67725">
        <ele>657.6791992</ele>
        <time>2013-02-03T08:40:08Z</time>
      </trkpt>
      <trkpt lat="44.27634" lon="2.67733">
        <ele>655.2758789</ele>
        <time>2013-02-03T08:40:13Z</time>
      </trkpt>
      <trkpt lat="44.27624" lon="2.67741">
        <ele>651.9111328</ele>
        <time>2013-02-03T08:40:19Z</time>
      </trkpt>
      <trkpt lat="44.27615" lon="2.67748">
        <ele>649.5078125</ele>
        <time>2013-02-03T08:40:24Z</time>
      </trkpt>
      <trkpt lat="44.27608" lon="2.67758">
        <ele>647.5852051</ele>
        <time>2013-02-03T08:40:29Z</time>
      </trkpt>
      <trkpt lat="44.27599" lon="2.67767">
        <ele>644.2207031</ele>
        <time>2013-02-03T08:40:34Z</time>
      </trkpt>
      <trkpt lat="44.27591" lon="2.67778">
        <ele>641.3366699</ele>
        <time>2013-02-03T08:40:39Z</time>
      </trkpt>
      <trkpt lat="44.27581" lon="2.67789">
        <ele>641.3366699</ele>
        <time>2013-02-03T08:40:44Z</time>
      </trkpt>
      <trkpt lat="44.27578" lon="2.67793">
        <ele>640.855957</ele>
        <time>2013-02-03T08:40:46Z</time>
      </trkpt>
      <trkpt lat="44.27567" lon="2.67795">
        <ele>641.8173828</ele>
        <time>2013-02-03T08:40:52Z</time>
      </trkpt>
      <trkpt lat="44.27558" lon="2.67798">
        <ele>640.3754883</ele>
        <time>2013-02-03T08:40:57Z</time>
      </trkpt>
      <trkpt lat="44.27553" lon="2.67799">
        <ele>638.9335938</ele>
        <time>2013-02-03T08:40:59Z</time>
      </trkpt>
      <trkpt lat="44.2754" lon="2.67811">
        <ele>636.5302734</ele>
        <time>2013-02-03T08:41:06Z</time>
      </trkpt>
      <trkpt lat="44.2753" lon="2.67822">
        <ele>636.5302734</ele>
        <time>2013-02-03T08:41:11Z</time>
      </trkpt>
      <trkpt lat="44.27523" lon="2.67829">
        <ele>637.972168</ele>
        <time>2013-02-03T08:41:15Z</time>
      </trkpt>
      <trkpt lat="44.2751" lon="2.6783">
        <ele>640.855957</ele>
        <time>2013-02-03T08:41:22Z</time>
      </trkpt>
      <trkpt lat="44.27506" lon="2.67827">
        <ele>640.855957</ele>
        <time>2013-02-03T08:41:24Z</time>
      </trkpt>
      <trkpt lat="44.27491" lon="2.67822">
        <ele>640.3754883</ele>
        <time>2013-02-03T08:41:30Z</time>
      </trkpt>
      <trkpt lat="44.27478" lon="2.67824">
        <ele>639.8947754</ele>
        <time>2013-02-03T08:41:35Z</time>
      </trkpt>
      <trkpt lat="44.27463" lon="2.67826">
        <ele>637.972168</ele>
        <time>2013-02-03T08:41:41Z</time>
      </trkpt>
      <trkpt lat="44.27461" lon="2.67821">
        <ele>637.0107422</ele>
        <time>2013-02-03T08:41:46Z</time>
      </trkpt>
      <trkpt lat="44.27461" lon="2.67822">
        <ele>636.5302734</ele>
        <time>2013-02-03T08:41:48Z</time>
      </trkpt>
      <trkpt lat="44.27446" lon="2.67823">
        <ele>635.5686035</ele>
        <time>2013-02-03T08:41:54Z</time>
      </trkpt>
      <trkpt lat="44.27435" lon="2.67836">
        <ele>634.6074219</ele>
        <time>2013-02-03T08:41:59Z</time>
      </trkpt>
      <trkpt lat="44.2744" lon="2.67856">
        <ele>632.6848145</ele>
        <time>2013-02-03T08:42:04Z</time>
      </trkpt>
      <trkpt lat="44.27449" lon="2.6788">
        <ele>630.762207</ele>
        <time>2013-02-03T08:42:11Z</time>
      </trkpt>
      <trkpt lat="44.27456" lon="2.67899">
        <ele>627.3977051</ele>
        <time>2013-02-03T08:42:17Z</time>
      </trkpt>
      <trkpt lat="44.27465" lon="2.67918">
        <ele>624.5136719</ele>
        <time>2013-02-03T08:42:23Z</time>
      </trkpt>
      <trkpt lat="44.27473" lon="2.67939">
        <ele>624.032959</ele>
        <time>2013-02-03T08:42:29Z</time>
      </trkpt>
      <trkpt lat="44.27476" lon="2.67959">
        <ele>624.9943848</ele>
        <time>2013-02-03T08:42:34Z</time>
      </trkpt>
      <trkpt lat="44.27477" lon="2.67978">
        <ele>624.9943848</ele>
        <time>2013-02-03T08:42:39Z</time>
      </trkpt>
      <trkpt lat="44.27473" lon="2.67995">
        <ele>626.9169922</ele>
        <time>2013-02-03T08:42:44Z</time>
      </trkpt>
      <trkpt lat="44.27471" lon="2.68011">
        <ele>626.4362793</ele>
        <time>2013-02-03T08:42:48Z</time>
      </trkpt>
      <trkpt lat="44.27467" lon="2.68033">
        <ele>624.9943848</ele>
        <time>2013-02-03T08:42:54Z</time>
      </trkpt>
      <trkpt lat="44.2746" lon="2.68053">
        <ele>624.9943848</ele>
        <time>2013-02-03T08:43:00Z</time>
      </trkpt>
      <trkpt lat="44.27455" lon="2.68074">
        <ele>624.032959</ele>
        <time>2013-02-03T08:43:06Z</time>
      </trkpt>
      <trkpt lat="44.27449" lon="2.68091">
        <ele>622.1103516</ele>
        <time>2013-02-03T08:43:11Z</time>
      </trkpt>
      <trkpt lat="44.27445" lon="2.68105">
        <ele>621.1491699</ele>
        <time>2013-02-03T08:43:15Z</time>
      </trkpt>
      <trkpt lat="44.27437" lon="2.68123">
        <ele>621.1491699</ele>
        <time>2013-02-03T08:43:21Z</time>
      </trkpt>
      <trkpt lat="44.27426" lon="2.68138">
        <ele>621.1491699</ele>
        <time>2013-02-03T08:43:27Z</time>
      </trkpt>
      <trkpt lat="44.27416" lon="2.68157">
        <ele>619.2263184</ele>
        <time>2013-02-03T08:43:33Z</time>
      </trkpt>
      <trkpt lat="44.27404" lon="2.68171">
        <ele>616.3422852</ele>
        <time>2013-02-03T08:43:39Z</time>
      </trkpt>
      <trkpt lat="44.27391" lon="2.6818">
        <ele>612.9777832</ele>
        <time>2013-02-03T08:43:45Z</time>
      </trkpt>
      <trkpt lat="44.27381" lon="2.68189">
        <ele>609.6132813</ele>
        <time>2013-02-03T08:43:50Z</time>
      </trkpt>
      <trkpt lat="44.27367" lon="2.68201">
        <ele>609.6132813</ele>
        <time>2013-02-03T08:43:56Z</time>
      </trkpt>
      <trkpt lat="44.2736" lon="2.68208">
        <ele>610.09375</ele>
        <time>2013-02-03T08:43:59Z</time>
      </trkpt>
      <trkpt lat="44.27346" lon="2.68224">
        <ele>610.09375</ele>
        <time>2013-02-03T08:44:06Z</time>
      </trkpt>
      <trkpt lat="44.27334" lon="2.68238">
        <ele>611.0551758</ele>
        <time>2013-02-03T08:44:12Z</time>
      </trkpt>
      <trkpt lat="44.27323" lon="2.68248">
        <ele>613.4584961</ele>
        <time>2013-02-03T08:44:17Z</time>
      </trkpt>
      <trkpt lat="44.27312" lon="2.6826">
        <ele>613.4584961</ele>
        <time>2013-02-03T08:44:22Z</time>
      </trkpt>
      <trkpt lat="44.27301" lon="2.68275">
        <ele>611.0551758</ele>
        <time>2013-02-03T08:44:28Z</time>
      </trkpt>
      <trkpt lat="44.27299" lon="2.68278">
        <ele>611.0551758</ele>
        <time>2013-02-03T08:44:29Z</time>
      </trkpt>
      <trkpt lat="44.27288" lon="2.68292">
        <ele>611.0551758</ele>
        <time>2013-02-03T08:44:35Z</time>
      </trkpt>
      <trkpt lat="44.27286" lon="2.68295">
        <ele>612.4970703</ele>
        <time>2013-02-03T08:44:36Z</time>
      </trkpt>
      <trkpt lat="44.27278" lon="2.68307">
        <ele>615.8618164</ele>
        <time>2013-02-03T08:44:42Z</time>
      </trkpt>
      <trkpt lat="44.27278" lon="2.68308">
        <ele>612.0166016</ele>
        <time>2013-02-03T08:44:49Z</time>
      </trkpt>
      <trkpt lat="44.27277" lon="2.68307">
        <ele>608.1713867</ele>
        <time>2013-02-03T08:44:55Z</time>
      </trkpt>
      <trkpt lat="44.27271" lon="2.68298">
        <ele>607.2099609</ele>
        <time>2013-02-03T08:45:00Z</time>
      </trkpt>
      <trkpt lat="44.27254" lon="2.68281">
        <ele>610.09375</ele>
        <time>2013-02-03T08:45:08Z</time>
      </trkpt>
      <trkpt lat="44.27243" lon="2.68269">
        <ele>611.0551758</ele>
        <time>2013-02-03T08:45:14Z</time>
      </trkpt>
      <trkpt lat="44.27241" lon="2.68269">
        <ele>611.0551758</ele>
        <time>2013-02-03T08:45:15Z</time>
      </trkpt>
      <trkpt lat="44.27236" lon="2.6828">
        <ele>615.3811035</ele>
        <time>2013-02-03T08:45:20Z</time>
      </trkpt>
      <trkpt lat="44.27231" lon="2.68293">
        <ele>621.1491699</ele>
        <time>2013-02-03T08:45:25Z</time>
      </trkpt>
      <trkpt lat="44.27226" lon="2.68305">
        <ele>630.2814941</ele>
        <time>2013-02-03T08:45:31Z</time>
      </trkpt>
      <trkpt lat="44.27222" lon="2.68314">
        <ele>635.0881348</ele>
        <time>2013-02-03T08:45:36Z</time>
      </trkpt>
      <trkpt lat="44.27217" lon="2.6832">
        <ele>636.0495605</ele>
        <time>2013-02-03T08:45:41Z</time>
      </trkpt>
      <trkpt lat="44.27212" lon="2.68331">
        <ele>636.5302734</ele>
        <time>2013-02-03T08:45:47Z</time>
      </trkpt>
      <trkpt lat="44.27212" lon="2.68334">
        <ele>636.0495605</ele>
        <time>2013-02-03T08:45:49Z</time>
      </trkpt>
      <trkpt lat="44.27209" lon="2.68339">
        <ele>634.6074219</ele>
        <time>2013-02-03T08:45:53Z</time>
      </trkpt>
      <trkpt lat="44.27208" lon="2.68342">
        <ele>633.6459961</ele>
        <time>2013-02-03T08:45:55Z</time>
      </trkpt>
      <trkpt lat="44.27206" lon="2.68348">
        <ele>633.6459961</ele>
        <time>2013-02-03T08:45:59Z</time>
      </trkpt>
      <trkpt lat="44.27201" lon="2.68357">
        <ele>634.6074219</ele>
        <time>2013-02-03T08:46:04Z</time>
      </trkpt>
      <trkpt lat="44.27198" lon="2.68361">
        <ele>633.6459961</ele>
        <time>2013-02-03T08:46:06Z</time>
      </trkpt>
      <trkpt lat="44.27193" lon="2.6838">
        <ele>636.5302734</ele>
        <time>2013-02-03T08:46:12Z</time>
      </trkpt>
      <trkpt lat="44.27188" lon="2.68393">
        <ele>635.5686035</ele>
        <time>2013-02-03T08:46:17Z</time>
      </trkpt>
      <trkpt lat="44.2718" lon="2.68416">
        <ele>632.6848145</ele>
        <time>2013-02-03T08:46:24Z</time>
      </trkpt>
      <trkpt lat="44.27173" lon="2.68431">
        <ele>631.7233887</ele>
        <time>2013-02-03T08:46:28Z</time>
      </trkpt>
      <trkpt lat="44.27167" lon="2.68462">
        <ele>635.0881348</ele>
        <time>2013-02-03T08:46:36Z</time>
      </trkpt>
      <trkpt lat="44.27161" lon="2.6848">
        <ele>631.7233887</ele>
        <time>2013-02-03T08:46:41Z</time>
      </trkpt>
      <trkpt lat="44.27163" lon="2.68492">
        <ele>629.3200684</ele>
        <time>2013-02-03T08:46:45Z</time>
      </trkpt>
      <trkpt lat="44.27166" lon="2.68503">
        <ele>628.8395996</ele>
        <time>2013-02-03T08:46:50Z</time>
      </trkpt>
      <trkpt lat="44.27166" lon="2.68507">
        <ele>626.4362793</ele>
        <time>2013-02-03T08:46:55Z</time>
      </trkpt>
      <trkpt lat="44.27171" lon="2.68519">
        <ele>623.0717773</ele>
        <time>2013-02-03T08:46:59Z</time>
      </trkpt>
      <trkpt lat="44.27175" lon="2.68536">
        <ele>619.2263184</ele>
        <time>2013-02-03T08:47:04Z</time>
      </trkpt>
      <trkpt lat="44.27179" lon="2.68544">
        <ele>617.3037109</ele>
        <time>2013-02-03T08:47:07Z</time>
      </trkpt>
      <trkpt lat="44.27189" lon="2.68561">
        <ele>615.3811035</ele>
        <time>2013-02-03T08:47:13Z</time>
      </trkpt>
      <trkpt lat="44.27198" lon="2.68574">
        <ele>612.9777832</ele>
        <time>2013-02-03T08:47:18Z</time>
      </trkpt>
      <trkpt lat="44.27204" lon="2.68577">
        <ele>613.9389648</ele>
        <time>2013-02-03T08:47:21Z</time>
      </trkpt>
      <trkpt lat="44.27228" lon="2.68572">
        <ele>627.3977051</ele>
        <time>2013-02-03T08:47:28Z</time>
      </trkpt>
      <trkpt lat="44.27236" lon="2.68576">
        <ele>632.6848145</ele>
        <time>2013-02-03T08:47:32Z</time>
      </trkpt>
      <trkpt lat="44.27243" lon="2.68586">
        <ele>634.126709</ele>
        <time>2013-02-03T08:47:37Z</time>
      </trkpt>
      <trkpt lat="44.27246" lon="2.68589">
        <ele>634.126709</ele>
        <time>2013-02-03T08:47:39Z</time>
      </trkpt>
      <trkpt lat="44.27254" lon="2.68596">
        <ele>632.6848145</ele>
        <time>2013-02-03T08:47:45Z</time>
      </trkpt>
      <trkpt lat="44.27262" lon="2.686">
        <ele>631.2429199</ele>
        <time>2013-02-03T08:47:49Z</time>
      </trkpt>
      <trkpt lat="44.27274" lon="2.68599">
        <ele>630.762207</ele>
        <time>2013-02-03T08:47:55Z</time>
      </trkpt>
      <trkpt lat="44.27283" lon="2.686">
        <ele>628.8395996</ele>
        <time>2013-02-03T08:48:00Z</time>
      </trkpt>
      <trkpt lat="44.27294" lon="2.68596">
        <ele>626.4362793</ele>
        <time>2013-02-03T08:48:06Z</time>
      </trkpt>
      <trkpt lat="44.27302" lon="2.68592">
        <ele>624.9943848</ele>
        <time>2013-02-03T08:48:11Z</time>
      </trkpt>
      <trkpt lat="44.27309" lon="2.68589">
        <ele>624.9943848</ele>
        <time>2013-02-03T08:48:15Z</time>
      </trkpt>
      <trkpt lat="44.27318" lon="2.68588">
        <ele>624.5136719</ele>
        <time>2013-02-03T08:48:20Z</time>
      </trkpt>
      <trkpt lat="44.27326" lon="2.68588">
        <ele>625.4748535</ele>
        <time>2013-02-03T08:48:24Z</time>
      </trkpt>
      <trkpt lat="44.27333" lon="2.68587">
        <ele>626.4362793</ele>
        <time>2013-02-03T08:48:28Z</time>
      </trkpt>
      <trkpt lat="44.2734" lon="2.68585">
        <ele>628.3588867</ele>
        <time>2013-02-03T08:48:33Z</time>
      </trkpt>
      <trkpt lat="44.27346" lon="2.68581">
        <ele>632.2041016</ele>
        <time>2013-02-03T08:48:38Z</time>
      </trkpt>
      <trkpt lat="44.2735" lon="2.68579">
        <ele>632.6848145</ele>
        <time>2013-02-03T08:48:42Z</time>
      </trkpt>
      <trkpt lat="44.27356" lon="2.68578">
        <ele>633.6459961</ele>
        <time>2013-02-03T08:48:46Z</time>
      </trkpt>
      <trkpt lat="44.27362" lon="2.68574">
        <ele>633.6459961</ele>
        <time>2013-02-03T08:48:50Z</time>
      </trkpt>
      <trkpt lat="44.27363" lon="2.68574">
        <ele>634.126709</ele>
        <time>2013-02-03T08:48:51Z</time>
      </trkpt>
      <trkpt lat="44.27363" lon="2.68577">
        <ele>635.5686035</ele>
        <time>2013-02-03T08:48:56Z</time>
      </trkpt>
      <trkpt lat="44.2736" lon="2.68583">
        <ele>635.0881348</ele>
        <time>2013-02-03T08:49:01Z</time>
      </trkpt>
      <trkpt lat="44.27356" lon="2.68589">
        <ele>635.0881348</ele>
        <time>2013-02-03T08:49:06Z</time>
      </trkpt>
      <trkpt lat="44.27351" lon="2.68598">
        <ele>637.0107422</ele>
        <time>2013-02-03T08:49:12Z</time>
      </trkpt>
      <trkpt lat="44.27343" lon="2.68606">
        <ele>637.972168</ele>
        <time>2013-02-03T08:49:19Z</time>
      </trkpt>
      <trkpt lat="44.27335" lon="2.68614">
        <ele>639.8947754</ele>
        <time>2013-02-03T08:49:25Z</time>
      </trkpt>
      <trkpt lat="44.27328" lon="2.68624">
        <ele>645.1818848</ele>
        <time>2013-02-03T08:49:31Z</time>
      </trkpt>
      <trkpt lat="44.27326" lon="2.68627">
        <ele>645.1818848</ele>
        <time>2013-02-03T08:49:33Z</time>
      </trkpt>
      <trkpt lat="44.2732" lon="2.68637">
        <ele>646.6240234</ele>
        <time>2013-02-03T08:49:39Z</time>
      </trkpt>
      <trkpt lat="44.27312" lon="2.68644">
        <ele>647.1044922</ele>
        <time>2013-02-03T08:49:43Z</time>
      </trkpt>
      <trkpt lat="44.27298" lon="2.68656">
        <ele>649.0270996</ele>
        <time>2013-02-03T08:49:51Z</time>
      </trkpt>
      <trkpt lat="44.27295" lon="2.68658">
        <ele>648.065918</ele>
        <time>2013-02-03T08:49:53Z</time>
      </trkpt>
      <trkpt lat="44.27299" lon="2.68667">
        <ele>649.0270996</ele>
        <time>2013-02-03T08:49:58Z</time>
      </trkpt>
      <trkpt lat="44.27311" lon="2.68665">
        <ele>650.949707</ele>
        <time>2013-02-03T08:50:06Z</time>
      </trkpt>
      <trkpt lat="44.2732" lon="2.68661">
        <ele>652.3918457</ele>
        <time>2013-02-03T08:50:12Z</time>
      </trkpt>
      <trkpt lat="44.27328" lon="2.68658">
        <ele>653.3532715</ele>
        <time>2013-02-03T08:50:17Z</time>
      </trkpt>
      <trkpt lat="44.27338" lon="2.68652">
        <ele>655.7565918</ele>
        <time>2013-02-03T08:50:23Z</time>
      </trkpt>
      <trkpt lat="44.2734" lon="2.68652">
        <ele>655.7565918</ele>
        <time>2013-02-03T08:50:24Z</time>
      </trkpt>
      <trkpt lat="44.27345" lon="2.68646">
        <ele>656.7177734</ele>
        <time>2013-02-03T08:50:28Z</time>
      </trkpt>
      <trkpt lat="44.27356" lon="2.68639">
        <ele>658.1599121</ele>
        <time>2013-02-03T08:50:34Z</time>
      </trkpt>
      <trkpt lat="44.27366" lon="2.68634">
        <ele>658.6403809</ele>
        <time>2013-02-03T08:50:40Z</time>
      </trkpt>
      <trkpt lat="44.27379" lon="2.68628">
        <ele>657.6791992</ele>
        <time>2013-02-03T08:50:47Z</time>
      </trkpt>
      <trkpt lat="44.27386" lon="2.68624">
        <ele>657.1984863</ele>
        <time>2013-02-03T08:50:51Z</time>
      </trkpt>
      <trkpt lat="44.27392" lon="2.68621">
        <ele>657.1984863</ele>
        <time>2013-02-03T08:50:54Z</time>
      </trkpt>
      <trkpt lat="44.27399" lon="2.68617">
        <ele>656.7177734</ele>
        <time>2013-02-03T08:50:58Z</time>
      </trkpt>
      <trkpt lat="44.2741" lon="2.68611">
        <ele>656.2370605</ele>
        <time>2013-02-03T08:51:04Z</time>
      </trkpt>
      <trkpt lat="44.27419" lon="2.68605">
        <ele>656.7177734</ele>
        <time>2013-02-03T08:51:09Z</time>
      </trkpt>
      <trkpt lat="44.27429" lon="2.68595">
        <ele>658.1599121</ele>
        <time>2013-02-03T08:51:15Z</time>
      </trkpt>
      <trkpt lat="44.27434" lon="2.6859">
        <ele>660.5629883</ele>
        <time>2013-02-03T08:51:18Z</time>
      </trkpt>
      <trkpt lat="44.27444" lon="2.68578">
        <ele>663.4470215</ele>
        <time>2013-02-03T08:51:25Z</time>
      </trkpt>
      <trkpt lat="44.27447" lon="2.68575">
        <ele>663.4470215</ele>
        <time>2013-02-03T08:51:27Z</time>
      </trkpt>
      <trkpt lat="44.27456" lon="2.68572">
        <ele>663.9274902</ele>
        <time>2013-02-03T08:51:32Z</time>
      </trkpt>
      <trkpt lat="44.27463" lon="2.68571">
        <ele>664.888916</ele>
        <time>2013-02-03T08:51:36Z</time>
      </trkpt>
      <trkpt lat="44.27466" lon="2.6857">
        <ele>665.3696289</ele>
        <time>2013-02-03T08:51:38Z</time>
      </trkpt>
      <trkpt lat="44.27471" lon="2.68567">
        <ele>666.8115234</ele>
        <time>2013-02-03T08:51:41Z</time>
      </trkpt>
      <trkpt lat="44.27475" lon="2.6857">
        <ele>668.2536621</ele>
        <time>2013-02-03T08:51:46Z</time>
      </trkpt>
      <trkpt lat="44.27475" lon="2.6857">
        <ele>669.2150879</ele>
        <time>2013-02-03T08:51:53Z</time>
      </trkpt>
      <trkpt lat="44.27476" lon="2.68562">
        <ele>670.1762695</ele>
        <time>2013-02-03T08:51:58Z</time>
      </trkpt>
      <trkpt lat="44.2748" lon="2.68556">
        <ele>670.6569824</ele>
        <time>2013-02-03T08:52:03Z</time>
      </trkpt>
      <trkpt lat="44.27478" lon="2.68548">
        <ele>672.098877</ele>
        <time>2013-02-03T08:52:07Z</time>
      </trkpt>
      <trkpt lat="44.27476" lon="2.68534">
        <ele>670.6569824</ele>
        <time>2013-02-03T08:52:13Z</time>
      </trkpt>
      <trkpt lat="44.27476" lon="2.68533">
        <ele>670.6569824</ele>
        <time>2013-02-03T08:52:27Z</time>
      </trkpt>
      <trkpt lat="44.27477" lon="2.68534">
        <ele>670.1762695</ele>
        <time>2013-02-03T08:52:33Z</time>
      </trkpt>
      <trkpt lat="44.2748" lon="2.68544">
        <ele>670.6569824</ele>
        <time>2013-02-03T08:52:38Z</time>
      </trkpt>
      <trkpt lat="44.27486" lon="2.68563">
        <ele>669.6958008</ele>
        <time>2013-02-03T08:52:45Z</time>
      </trkpt>
      <trkpt lat="44.27488" lon="2.68574">
        <ele>669.6958008</ele>
        <time>2013-02-03T08:52:49Z</time>
      </trkpt>
      <trkpt lat="44.27487" lon="2.68591">
        <ele>669.6958008</ele>
        <time>2013-02-03T08:52:55Z</time>
      </trkpt>
      <trkpt lat="44.27493" lon="2.6861">
        <ele>670.1762695</ele>
        <time>2013-02-03T08:53:02Z</time>
      </trkpt>
      <trkpt lat="44.27492" lon="2.68629">
        <ele>672.5795898</ele>
        <time>2013-02-03T08:53:08Z</time>
      </trkpt>
      <trkpt lat="44.2749" lon="2.68638">
        <ele>674.5021973</ele>
        <time>2013-02-03T08:53:12Z</time>
      </trkpt>
      <trkpt lat="44.2748" lon="2.6865">
        <ele>675.9440918</ele>
        <time>2013-02-03T08:53:19Z</time>
      </trkpt>
      <trkpt lat="44.27472" lon="2.68657">
        <ele>677.3862305</ele>
        <time>2013-02-03T08:53:24Z</time>
      </trkpt>
      <trkpt lat="44.27463" lon="2.68665">
        <ele>681.2314453</ele>
        <time>2013-02-03T08:53:29Z</time>
      </trkpt>
      <trkpt lat="44.27452" lon="2.68671">
        <ele>682.6733398</ele>
        <time>2013-02-03T08:53:34Z</time>
      </trkpt>
      <trkpt lat="44.2744" lon="2.68677">
        <ele>683.1538086</ele>
        <time>2013-02-03T08:53:40Z</time>
      </trkpt>
      <trkpt lat="44.27427" lon="2.68684">
        <ele>684.5961914</ele>
        <time>2013-02-03T08:53:46Z</time>
      </trkpt>
      <trkpt lat="44.27416" lon="2.68692">
        <ele>686.5187988</ele>
        <time>2013-02-03T08:53:51Z</time>
      </trkpt>
      <trkpt lat="44.27404" lon="2.68697">
        <ele>686.9992676</ele>
        <time>2013-02-03T08:53:57Z</time>
      </trkpt>
      <trkpt lat="44.27391" lon="2.68703">
        <ele>689.4025879</ele>
        <time>2013-02-03T08:54:03Z</time>
      </trkpt>
      <trkpt lat="44.27377" lon="2.68714">
        <ele>688.4414063</ele>
        <time>2013-02-03T08:54:10Z</time>
      </trkpt>
      <trkpt lat="44.27367" lon="2.68721">
        <ele>686.9992676</ele>
        <time>2013-02-03T08:54:15Z</time>
      </trkpt>
      <trkpt lat="44.27351" lon="2.68732">
        <ele>686.9992676</ele>
        <time>2013-02-03T08:54:22Z</time>
      </trkpt>
      <trkpt lat="44.27339" lon="2.6874">
        <ele>687.9606934</ele>
        <time>2013-02-03T08:54:28Z</time>
      </trkpt>
      <trkpt lat="44.27333" lon="2.68743">
        <ele>687.9606934</ele>
        <time>2013-02-03T08:54:31Z</time>
      </trkpt>
      <trkpt lat="44.27318" lon="2.6875">
        <ele>688.9221191</ele>
        <time>2013-02-03T08:54:38Z</time>
      </trkpt>
      <trkpt lat="44.27307" lon="2.68753">
        <ele>689.4025879</ele>
        <time>2013-02-03T08:54:43Z</time>
      </trkpt>
      <trkpt lat="44.2729" lon="2.68761">
        <ele>692.767334</ele>
        <time>2013-02-03T08:54:52Z</time>
      </trkpt>
      <trkpt lat="44.27284" lon="2.68768">
        <ele>694.2092285</ele>
        <time>2013-02-03T08:54:58Z</time>
      </trkpt>
      <trkpt lat="44.27284" lon="2.68771">
        <ele>695.651123</ele>
        <time>2013-02-03T08:55:03Z</time>
      </trkpt>
      <trkpt lat="44.27285" lon="2.68773">
        <ele>695.1704102</ele>
        <time>2013-02-03T08:55:09Z</time>
      </trkpt>
      <trkpt lat="44.27284" lon="2.68771">
        <ele>694.2092285</ele>
        <time>2013-02-03T08:55:19Z</time>
      </trkpt>
      <trkpt lat="44.2728" lon="2.6877">
        <ele>694.2092285</ele>
        <time>2013-02-03T08:55:24Z</time>
      </trkpt>
      <trkpt lat="44.27273" lon="2.68769">
        <ele>695.651123</ele>
        <time>2013-02-03T08:55:29Z</time>
      </trkpt>
      <trkpt lat="44.27267" lon="2.68771">
        <ele>694.6896973</ele>
        <time>2013-02-03T08:55:33Z</time>
      </trkpt>
      <trkpt lat="44.27262" lon="2.68773">
        <ele>694.6896973</ele>
        <time>2013-02-03T08:55:39Z</time>
      </trkpt>
      <trkpt lat="44.27259" lon="2.68777">
        <ele>701.8999023</ele>
        <time>2013-02-03T08:55:51Z</time>
      </trkpt>
      <trkpt lat="44.27252" lon="2.68779">
        <ele>693.2478027</ele>
        <time>2013-02-03T08:56:28Z</time>
      </trkpt>
      <trkpt lat="44.27243" lon="2.68783">
        <ele>695.1704102</ele>
        <time>2013-02-03T08:56:32Z</time>
      </trkpt>
      <trkpt lat="44.27242" lon="2.68785">
        <ele>695.651123</ele>
        <time>2013-02-03T08:56:33Z</time>
      </trkpt>
      <trkpt lat="44.27235" lon="2.68787">
        <ele>698.0544434</ele>
        <time>2013-02-03T08:56:37Z</time>
      </trkpt>
      <trkpt lat="44.27223" lon="2.68785">
        <ele>700.9384766</ele>
        <time>2013-02-03T08:56:44Z</time>
      </trkpt>
      <trkpt lat="44.27221" lon="2.68784">
        <ele>700.9384766</ele>
        <time>2013-02-03T08:56:45Z</time>
      </trkpt>
      <trkpt lat="44.27215" lon="2.68781">
        <ele>703.3417969</ele>
        <time>2013-02-03T08:56:51Z</time>
      </trkpt>
      <trkpt lat="44.27211" lon="2.68781">
        <ele>703.8225098</ele>
        <time>2013-02-03T08:56:53Z</time>
      </trkpt>
      <trkpt lat="44.27201" lon="2.68779">
        <ele>707.6677246</ele>
        <time>2013-02-03T08:56:58Z</time>
      </trkpt>
      <trkpt lat="44.27196" lon="2.68787">
        <ele>707.6677246</ele>
        <time>2013-02-03T08:57:04Z</time>
      </trkpt>
      <trkpt lat="44.27193" lon="2.68791">
        <ele>707.1870117</ele>
        <time>2013-02-03T08:57:06Z</time>
      </trkpt>
      <trkpt lat="44.27189" lon="2.68796">
        <ele>706.7062988</ele>
        <time>2013-02-03T08:57:09Z</time>
      </trkpt>
      <trkpt lat="44.27186" lon="2.68806">
        <ele>709.1096191</ele>
        <time>2013-02-03T08:57:15Z</time>
      </trkpt>
      <trkpt lat="44.27185" lon="2.68808">
        <ele>709.1096191</ele>
        <time>2013-02-03T08:57:16Z</time>
      </trkpt>
      <trkpt lat="44.27178" lon="2.68822">
        <ele>711.5129395</ele>
        <time>2013-02-03T08:57:22Z</time>
      </trkpt>
      <trkpt lat="44.27174" lon="2.68832">
        <ele>712.954834</ele>
        <time>2013-02-03T08:57:25Z</time>
      </trkpt>
      <trkpt lat="44.27171" lon="2.68842">
        <ele>714.3967285</ele>
        <time>2013-02-03T08:57:30Z</time>
      </trkpt>
      <trkpt lat="44.27169" lon="2.68846">
        <ele>714.3967285</ele>
        <time>2013-02-03T08:57:33Z</time>
      </trkpt>
      <trkpt lat="44.27166" lon="2.68853">
        <ele>716.3195801</ele>
        <time>2013-02-03T08:57:37Z</time>
      </trkpt>
      <trkpt lat="44.27165" lon="2.68855">
        <ele>716.800293</ele>
        <time>2013-02-03T08:57:39Z</time>
      </trkpt>
      <trkpt lat="44.27161" lon="2.68865">
        <ele>719.6843262</ele>
        <time>2013-02-03T08:57:45Z</time>
      </trkpt>
      <trkpt lat="44.2716" lon="2.6887">
        <ele>720.6455078</ele>
        <time>2013-02-03T08:57:48Z</time>
      </trkpt>
      <trkpt lat="44.27155" lon="2.68881">
        <ele>723.0488281</ele>
        <time>2013-02-03T08:57:55Z</time>
      </trkpt>
      <trkpt lat="44.27154" lon="2.68883">
        <ele>722.5681152</ele>
        <time>2013-02-03T08:57:56Z</time>
      </trkpt>
      <trkpt lat="44.27151" lon="2.68891">
        <ele>724.0100098</ele>
        <time>2013-02-03T08:58:01Z</time>
      </trkpt>
      <trkpt lat="44.27145" lon="2.68902">
        <ele>726.894043</ele>
        <time>2013-02-03T08:58:06Z</time>
      </trkpt>
      <trkpt lat="44.27141" lon="2.68914">
        <ele>729.777832</ele>
        <time>2013-02-03T08:58:11Z</time>
      </trkpt>
      <trkpt lat="44.27139" lon="2.68919">
        <ele>730.7392578</ele>
        <time>2013-02-03T08:58:14Z</time>
      </trkpt>
      <trkpt lat="44.27134" lon="2.68922">
        <ele>731.2199707</ele>
        <time>2013-02-03T08:58:20Z</time>
      </trkpt>
      <trkpt lat="44.27131" lon="2.68915">
        <ele>730.2585449</ele>
        <time>2013-02-03T08:58:24Z</time>
      </trkpt>
      <trkpt lat="44.27125" lon="2.68899">
        <ele>729.2971191</ele>
        <time>2013-02-03T08:58:31Z</time>
      </trkpt>
      <trkpt lat="44.27124" lon="2.68884">
        <ele>728.3359375</ele>
        <time>2013-02-03T08:58:38Z</time>
      </trkpt>
      <trkpt lat="44.27122" lon="2.68869">
        <ele>727.8552246</ele>
        <time>2013-02-03T08:58:44Z</time>
      </trkpt>
      <trkpt lat="44.2712" lon="2.68859">
        <ele>728.8166504</ele>
        <time>2013-02-03T08:58:48Z</time>
      </trkpt>
      <trkpt lat="44.27117" lon="2.68844">
        <ele>729.777832</ele>
        <time>2013-02-03T08:58:54Z</time>
      </trkpt>
      <trkpt lat="44.2711" lon="2.68829">
        <ele>732.6621094</ele>
        <time>2013-02-03T08:59:01Z</time>
      </trkpt>
      <trkpt lat="44.27103" lon="2.6882">
        <ele>734.1040039</ele>
        <time>2013-02-03T08:59:06Z</time>
      </trkpt>
      <trkpt lat="44.27096" lon="2.68814">
        <ele>736.0266113</ele>
        <time>2013-02-03T08:59:11Z</time>
      </trkpt>
      <trkpt lat="44.27091" lon="2.68809">
        <ele>737.9492188</ele>
        <time>2013-02-03T08:59:15Z</time>
      </trkpt>
      <trkpt lat="44.27085" lon="2.68799">
        <ele>739.3911133</ele>
        <time>2013-02-03T08:59:20Z</time>
      </trkpt>
      <trkpt lat="44.27078" lon="2.68786">
        <ele>741.3137207</ele>
        <time>2013-02-03T08:59:26Z</time>
      </trkpt>
      <trkpt lat="44.27072" lon="2.68772">
        <ele>742.7558594</ele>
        <time>2013-02-03T08:59:32Z</time>
      </trkpt>
      <trkpt lat="44.27064" lon="2.68757">
        <ele>742.7558594</ele>
        <time>2013-02-03T08:59:38Z</time>
      </trkpt>
      <trkpt lat="44.27057" lon="2.68745">
        <ele>742.7558594</ele>
        <time>2013-02-03T08:59:43Z</time>
      </trkpt>
      <trkpt lat="44.27048" lon="2.68738">
        <ele>744.1977539</ele>
        <time>2013-02-03T08:59:48Z</time>
      </trkpt>
      <trkpt lat="44.27036" lon="2.68734">
        <ele>746.6010742</ele>
        <time>2013-02-03T08:59:55Z</time>
      </trkpt>
      <trkpt lat="44.27025" lon="2.68736">
        <ele>748.5236816</ele>
        <time>2013-02-03T09:00:01Z</time>
      </trkpt>
      <trkpt lat="44.27015" lon="2.68737">
        <ele>749.9658203</ele>
        <time>2013-02-03T09:00:06Z</time>
      </trkpt>
      <trkpt lat="44.27004" lon="2.68738">
        <ele>751.8884277</ele>
        <time>2013-02-03T09:00:12Z</time>
      </trkpt>
      <trkpt lat="44.26994" lon="2.68738">
        <ele>753.3303223</ele>
        <time>2013-02-03T09:00:17Z</time>
      </trkpt>
      <trkpt lat="44.26982" lon="2.68738">
        <ele>755.2529297</ele>
        <time>2013-02-03T09:00:24Z</time>
      </trkpt>
      <trkpt lat="44.26972" lon="2.68737">
        <ele>757.1755371</ele>
        <time>2013-02-03T09:00:30Z</time>
      </trkpt>
      <trkpt lat="44.26962" lon="2.68736">
        <ele>758.6174316</ele>
        <time>2013-02-03T09:00:36Z</time>
      </trkpt>
      <trkpt lat="44.26957" lon="2.68737">
        <ele>759.5788574</ele>
        <time>2013-02-03T09:00:39Z</time>
      </trkpt>
      <trkpt lat="44.26945" lon="2.68739">
        <ele>762.4626465</ele>
        <time>2013-02-03T09:00:46Z</time>
      </trkpt>
      <trkpt lat="44.26937" lon="2.6874">
        <ele>763.4240723</ele>
        <time>2013-02-03T09:00:51Z</time>
      </trkpt>
      <trkpt lat="44.26927" lon="2.68741">
        <ele>764.8662109</ele>
        <time>2013-02-03T09:00:57Z</time>
      </trkpt>
      <trkpt lat="44.26919" lon="2.6874">
        <ele>765.8276367</ele>
        <time>2013-02-03T09:01:02Z</time>
      </trkpt>
      <trkpt lat="44.26916" lon="2.6874">
        <ele>766.3081055</ele>
        <time>2013-02-03T09:01:04Z</time>
      </trkpt>
      <trkpt lat="44.26905" lon="2.68734">
        <ele>767.75</ele>
        <time>2013-02-03T09:01:11Z</time>
      </trkpt>
      <trkpt lat="44.26895" lon="2.68725">
        <ele>767.75</ele>
        <time>2013-02-03T09:01:17Z</time>
      </trkpt>
      <trkpt lat="44.26887" lon="2.68716">
        <ele>766.7888184</ele>
        <time>2013-02-03T09:01:22Z</time>
      </trkpt>
      <trkpt lat="44.2688" lon="2.68707">
        <ele>766.7888184</ele>
        <time>2013-02-03T09:01:27Z</time>
      </trkpt>
      <trkpt lat="44.26872" lon="2.68697">
        <ele>767.75</ele>
        <time>2013-02-03T09:01:32Z</time>
      </trkpt>
      <trkpt lat="44.26863" lon="2.68686">
        <ele>768.7114258</ele>
        <time>2013-02-03T09:01:38Z</time>
      </trkpt>
      <trkpt lat="44.26855" lon="2.68674">
        <ele>769.6728516</ele>
        <time>2013-02-03T09:01:44Z</time>
      </trkpt>
      <trkpt lat="44.26848" lon="2.68664">
        <ele>771.1147461</ele>
        <time>2013-02-03T09:01:49Z</time>
      </trkpt>
      <trkpt lat="44.26837" lon="2.6865">
        <ele>773.0373535</ele>
        <time>2013-02-03T09:01:55Z</time>
      </trkpt>
      <trkpt lat="44.26827" lon="2.68635">
        <ele>773.9985352</ele>
        <time>2013-02-03T09:02:02Z</time>
      </trkpt>
      <trkpt lat="44.26819" lon="2.68625">
        <ele>773.5180664</ele>
        <time>2013-02-03T09:02:07Z</time>
      </trkpt>
      <trkpt lat="44.26812" lon="2.68618">
        <ele>773.5180664</ele>
        <time>2013-02-03T09:02:11Z</time>
      </trkpt>
      <trkpt lat="44.26804" lon="2.6861">
        <ele>773.9985352</ele>
        <time>2013-02-03T09:02:15Z</time>
      </trkpt>
      <trkpt lat="44.2679" lon="2.68599">
        <ele>773.9985352</ele>
        <time>2013-02-03T09:02:22Z</time>
      </trkpt>
      <trkpt lat="44.26778" lon="2.68589">
        <ele>773.9985352</ele>
        <time>2013-02-03T09:02:28Z</time>
      </trkpt>
      <trkpt lat="44.26765" lon="2.68578">
        <ele>773.5180664</ele>
        <time>2013-02-03T09:02:34Z</time>
      </trkpt>
      <trkpt lat="44.2675" lon="2.68565">
        <ele>773.0373535</ele>
        <time>2013-02-03T09:02:41Z</time>
      </trkpt>
      <trkpt lat="44.26736" lon="2.68552">
        <ele>771.5952148</ele>
        <time>2013-02-03T09:02:48Z</time>
      </trkpt>
      <trkpt lat="44.26718" lon="2.68543">
        <ele>771.1147461</ele>
        <time>2013-02-03T09:02:56Z</time>
      </trkpt>
      <trkpt lat="44.26709" lon="2.68545">
        <ele>771.1147461</ele>
        <time>2013-02-03T09:03:01Z</time>
      </trkpt>
      <trkpt lat="44.26702" lon="2.68554">
        <ele>773.0373535</ele>
        <time>2013-02-03T09:03:07Z</time>
      </trkpt>
      <trkpt lat="44.26699" lon="2.68562">
        <ele>774.479248</ele>
        <time>2013-02-03T09:03:12Z</time>
      </trkpt>
      <trkpt lat="44.26694" lon="2.68574">
        <ele>776.8825684</ele>
        <time>2013-02-03T09:03:19Z</time>
      </trkpt>
      <trkpt lat="44.26691" lon="2.68586">
        <ele>778.8051758</ele>
        <time>2013-02-03T09:03:25Z</time>
      </trkpt>
      <trkpt lat="44.2669" lon="2.68593">
        <ele>780.2473145</ele>
        <time>2013-02-03T09:03:29Z</time>
      </trkpt>
      <trkpt lat="44.26689" lon="2.68605">
        <ele>782.1699219</ele>
        <time>2013-02-03T09:03:35Z</time>
      </trkpt>
      <trkpt lat="44.26687" lon="2.68617">
        <ele>783.6118164</ele>
        <time>2013-02-03T09:03:41Z</time>
      </trkpt>
      <trkpt lat="44.26685" lon="2.68631">
        <ele>785.5344238</ele>
        <time>2013-02-03T09:03:48Z</time>
      </trkpt>
      <trkpt lat="44.26683" lon="2.68642">
        <ele>786.9763184</ele>
        <time>2013-02-03T09:03:54Z</time>
      </trkpt>
      <trkpt lat="44.2668" lon="2.68654">
        <ele>788.418457</ele>
        <time>2013-02-03T09:04:01Z</time>
      </trkpt>
      <trkpt lat="44.26674" lon="2.68668">
        <ele>789.8603516</ele>
        <time>2013-02-03T09:04:09Z</time>
      </trkpt>
      <trkpt lat="44.26672" lon="2.68674">
        <ele>790.8215332</ele>
        <time>2013-02-03T09:04:12Z</time>
      </trkpt>
      <trkpt lat="44.26669" lon="2.68682">
        <ele>791.3022461</ele>
        <time>2013-02-03T09:04:17Z</time>
      </trkpt>
      <trkpt lat="44.26661" lon="2.68693">
        <ele>792.2636719</ele>
        <time>2013-02-03T09:04:24Z</time>
      </trkpt>
      <trkpt lat="44.26652" lon="2.68705">
        <ele>793.2248535</ele>
        <time>2013-02-03T09:04:30Z</time>
      </trkpt>
      <trkpt lat="44.26641" lon="2.6872">
        <ele>794.1862793</ele>
        <time>2013-02-03T09:04:37Z</time>
      </trkpt>
      <trkpt lat="44.26635" lon="2.68734">
        <ele>795.1474609</ele>
        <time>2013-02-03T09:04:44Z</time>
      </trkpt>
      <trkpt lat="44.2663" lon="2.68747">
        <ele>795.6281738</ele>
        <time>2013-02-03T09:04:51Z</time>
      </trkpt>
      <trkpt lat="44.26628" lon="2.6876">
        <ele>797.0703125</ele>
        <time>2013-02-03T09:04:56Z</time>
      </trkpt>
      <trkpt lat="44.26627" lon="2.68774">
        <ele>796.5898438</ele>
        <time>2013-02-03T09:05:02Z</time>
      </trkpt>
      <trkpt lat="44.26627" lon="2.68791">
        <ele>798.0317383</ele>
        <time>2013-02-03T09:05:08Z</time>
      </trkpt>
      <trkpt lat="44.26626" lon="2.68807">
        <ele>800.4350586</ele>
        <time>2013-02-03T09:05:13Z</time>
      </trkpt>
      <trkpt lat="44.26621" lon="2.68825">
        <ele>803.3188477</ele>
        <time>2013-02-03T09:05:19Z</time>
      </trkpt>
      <trkpt lat="44.26613" lon="2.68841">
        <ele>805.722168</ele>
        <time>2013-02-03T09:05:25Z</time>
      </trkpt>
      <trkpt lat="44.26605" lon="2.68853">
        <ele>806.6833496</ele>
        <time>2013-02-03T09:05:30Z</time>
      </trkpt>
      <trkpt lat="44.26597" lon="2.68868">
        <ele>808.605957</ele>
        <time>2013-02-03T09:05:36Z</time>
      </trkpt>
      <trkpt lat="44.26594" lon="2.68874">
        <ele>809.5673828</ele>
        <time>2013-02-03T09:05:40Z</time>
      </trkpt>
      <trkpt lat="44.26588" lon="2.68875">
        <ele>808.1254883</ele>
        <time>2013-02-03T09:05:46Z</time>
      </trkpt>
      <trkpt lat="44.26581" lon="2.68877">
        <ele>806.6833496</ele>
        <time>2013-02-03T09:05:49Z</time>
      </trkpt>
      <trkpt lat="44.26564" lon="2.68887">
        <ele>804.2802734</ele>
        <time>2013-02-03T09:05:56Z</time>
      </trkpt>
      <trkpt lat="44.26553" lon="2.68895">
        <ele>803.3188477</ele>
        <time>2013-02-03T09:06:01Z</time>
      </trkpt>
      <trkpt lat="44.26538" lon="2.68902">
        <ele>802.3574219</ele>
        <time>2013-02-03T09:06:07Z</time>
      </trkpt>
      <trkpt lat="44.26526" lon="2.68911">
        <ele>803.3188477</ele>
        <time>2013-02-03T09:06:12Z</time>
      </trkpt>
      <trkpt lat="44.26514" lon="2.68921">
        <ele>804.7607422</ele>
        <time>2013-02-03T09:06:17Z</time>
      </trkpt>
      <trkpt lat="44.265" lon="2.68936">
        <ele>806.2026367</ele>
        <time>2013-02-03T09:06:24Z</time>
      </trkpt>
      <trkpt lat="44.26489" lon="2.68952">
        <ele>809.0866699</ele>
        <time>2013-02-03T09:06:30Z</time>
      </trkpt>
      <trkpt lat="44.2648" lon="2.68968">
        <ele>812.451416</ele>
        <time>2013-02-03T09:06:35Z</time>
      </trkpt>
      <trkpt lat="44.26464" lon="2.6899">
        <ele>812.451416</ele>
        <time>2013-02-03T09:06:44Z</time>
      </trkpt>
      <trkpt lat="44.26453" lon="2.69004">
        <ele>812.451416</ele>
        <time>2013-02-03T09:06:51Z</time>
      </trkpt>
      <trkpt lat="44.26446" lon="2.69012">
        <ele>812.451416</ele>
        <time>2013-02-03T09:06:55Z</time>
      </trkpt>
      <trkpt lat="44.26445" lon="2.69015">
        <ele>812.451416</ele>
        <time>2013-02-03T09:07:02Z</time>
      </trkpt>
      <trkpt lat="44.26445" lon="2.69014">
        <ele>811.9707031</ele>
        <time>2013-02-03T09:07:08Z</time>
      </trkpt>
      <trkpt lat="44.26445" lon="2.69016">
        <ele>812.451416</ele>
        <time>2013-02-03T09:07:16Z</time>
      </trkpt>
      <trkpt lat="44.26443" lon="2.69021">
        <ele>815.8161621</ele>
        <time>2013-02-03T09:07:22Z</time>
      </trkpt>
      <trkpt lat="44.26441" lon="2.69023">
        <ele>815.3354492</ele>
        <time>2013-02-03T09:07:29Z</time>
      </trkpt>
      <trkpt lat="44.26439" lon="2.69024">
        <ele>812.451416</ele>
        <time>2013-02-03T09:07:35Z</time>
      </trkpt>
      <trkpt lat="44.26432" lon="2.69029">
        <ele>811.4899902</ele>
        <time>2013-02-03T09:07:43Z</time>
      </trkpt>
      <trkpt lat="44.26431" lon="2.6903">
        <ele>811.4899902</ele>
        <time>2013-02-03T09:07:44Z</time>
      </trkpt>
      <trkpt lat="44.26419" lon="2.69039">
        <ele>811.4899902</ele>
        <time>2013-02-03T09:07:50Z</time>
      </trkpt>
      <trkpt lat="44.2641" lon="2.69044">
        <ele>811.9707031</ele>
        <time>2013-02-03T09:07:54Z</time>
      </trkpt>
      <trkpt lat="44.26397" lon="2.69051">
        <ele>812.451416</ele>
        <time>2013-02-03T09:08:00Z</time>
      </trkpt>
      <trkpt lat="44.26394" lon="2.69052">
        <ele>812.451416</ele>
        <time>2013-02-03T09:08:01Z</time>
      </trkpt>
      <trkpt lat="44.26381" lon="2.69054">
        <ele>813.8933105</ele>
        <time>2013-02-03T09:08:07Z</time>
      </trkpt>
      <trkpt lat="44.26368" lon="2.69057">
        <ele>814.8547363</ele>
        <time>2013-02-03T09:08:12Z</time>
      </trkpt>
      <trkpt lat="44.26358" lon="2.69063">
        <ele>816.7773438</ele>
        <time>2013-02-03T09:08:16Z</time>
      </trkpt>
      <trkpt lat="44.26346" lon="2.6907">
        <ele>819.661377</ele>
        <time>2013-02-03T09:08:21Z</time>
      </trkpt>
      <trkpt lat="44.26336" lon="2.69075">
        <ele>820.6225586</ele>
        <time>2013-02-03T09:08:26Z</time>
      </trkpt>
      <trkpt lat="44.26335" lon="2.69076">
        <ele>820.6225586</ele>
        <time>2013-02-03T09:08:28Z</time>
      </trkpt>
      <trkpt lat="44.26333" lon="2.69076">
        <ele>818.6999512</ele>
        <time>2013-02-03T09:08:36Z</time>
      </trkpt>
      <trkpt lat="44.26332" lon="2.69077">
        <ele>818.6999512</ele>
        <time>2013-02-03T09:08:38Z</time>
      </trkpt>
      <trkpt lat="44.26327" lon="2.69078">
        <ele>818.2192383</ele>
        <time>2013-02-03T09:08:42Z</time>
      </trkpt>
      <trkpt lat="44.26322" lon="2.6908">
        <ele>817.7385254</ele>
        <time>2013-02-03T09:08:44Z</time>
      </trkpt>
      <trkpt lat="44.26307" lon="2.69084">
        <ele>817.2580566</ele>
        <time>2013-02-03T09:08:50Z</time>
      </trkpt>
      <trkpt lat="44.26294" lon="2.69089">
        <ele>816.7773438</ele>
        <time>2013-02-03T09:08:55Z</time>
      </trkpt>
      <trkpt lat="44.26288" lon="2.69092">
        <ele>816.2966309</ele>
        <time>2013-02-03T09:08:57Z</time>
      </trkpt>
      <trkpt lat="44.26273" lon="2.69094">
        <ele>813.8933105</ele>
        <time>2013-02-03T09:09:03Z</time>
      </trkpt>
      <trkpt lat="44.2626" lon="2.69101">
        <ele>812.451416</ele>
        <time>2013-02-03T09:09:08Z</time>
      </trkpt>
      <trkpt lat="44.26249" lon="2.6911">
        <ele>811.4899902</ele>
        <time>2013-02-03T09:09:13Z</time>
      </trkpt>
      <trkpt lat="44.26239" lon="2.69118">
        <ele>810.5285645</ele>
        <time>2013-02-03T09:09:17Z</time>
      </trkpt>
      <trkpt lat="44.26227" lon="2.69124">
        <ele>811.0092773</ele>
        <time>2013-02-03T09:09:22Z</time>
      </trkpt>
      <trkpt lat="44.26214" lon="2.69134">
        <ele>810.5285645</ele>
        <time>2013-02-03T09:09:28Z</time>
      </trkpt>
      <trkpt lat="44.26204" lon="2.69142">
        <ele>811.4899902</ele>
        <time>2013-02-03T09:09:32Z</time>
      </trkpt>
      <trkpt lat="44.26193" lon="2.69153">
        <ele>813.8933105</ele>
        <time>2013-02-03T09:09:37Z</time>
      </trkpt>
      <trkpt lat="44.26186" lon="2.69161">
        <ele>814.3740234</ele>
        <time>2013-02-03T09:09:41Z</time>
      </trkpt>
      <trkpt lat="44.26174" lon="2.69175">
        <ele>817.2580566</ele>
        <time>2013-02-03T09:09:46Z</time>
      </trkpt>
      <trkpt lat="44.26161" lon="2.69181">
        <ele>818.6999512</ele>
        <time>2013-02-03T09:09:51Z</time>
      </trkpt>
      <trkpt lat="44.26149" lon="2.69181">
        <ele>819.661377</ele>
        <time>2013-02-03T09:09:56Z</time>
      </trkpt>
      <trkpt lat="44.26135" lon="2.69183">
        <ele>821.1032715</ele>
        <time>2013-02-03T09:10:02Z</time>
      </trkpt>
      <trkpt lat="44.2612" lon="2.69195">
        <ele>822.0644531</ele>
        <time>2013-02-03T09:10:09Z</time>
      </trkpt>
      <trkpt lat="44.26109" lon="2.69203">
        <ele>822.545166</ele>
        <time>2013-02-03T09:10:14Z</time>
      </trkpt>
      <trkpt lat="44.26096" lon="2.69213">
        <ele>823.0258789</ele>
        <time>2013-02-03T09:10:20Z</time>
      </trkpt>
      <trkpt lat="44.2609" lon="2.69229">
        <ele>823.9870605</ele>
        <time>2013-02-03T09:10:26Z</time>
      </trkpt>
      <trkpt lat="44.26089" lon="2.69231">
        <ele>823.0258789</ele>
        <time>2013-02-03T09:10:30Z</time>
      </trkpt>
      <trkpt lat="44.26089" lon="2.69232">
        <ele>823.0258789</ele>
        <time>2013-02-03T09:10:31Z</time>
      </trkpt>
      <trkpt lat="44.26079" lon="2.69245">
        <ele>823.9870605</ele>
        <time>2013-02-03T09:10:37Z</time>
      </trkpt>
      <trkpt lat="44.26072" lon="2.69258">
        <ele>825.4289551</ele>
        <time>2013-02-03T09:10:42Z</time>
      </trkpt>
      <trkpt lat="44.26061" lon="2.69273">
        <ele>825.4289551</ele>
        <time>2013-02-03T09:10:48Z</time>
      </trkpt>
      <trkpt lat="44.26051" lon="2.69291">
        <ele>826.3903809</ele>
        <time>2013-02-03T09:10:54Z</time>
      </trkpt>
      <trkpt lat="44.26043" lon="2.69302">
        <ele>826.3903809</ele>
        <time>2013-02-03T09:10:59Z</time>
      </trkpt>
      <trkpt lat="44.26031" lon="2.69314">
        <ele>825.4289551</ele>
        <time>2013-02-03T09:11:05Z</time>
      </trkpt>
      <trkpt lat="44.26019" lon="2.69328">
        <ele>825.909668</ele>
        <time>2013-02-03T09:11:11Z</time>
      </trkpt>
      <trkpt lat="44.26009" lon="2.69337">
        <ele>825.909668</ele>
        <time>2013-02-03T09:11:16Z</time>
      </trkpt>
      <trkpt lat="44.26" lon="2.69348">
        <ele>824.9484863</ele>
        <time>2013-02-03T09:11:21Z</time>
      </trkpt>
      <trkpt lat="44.25988" lon="2.6936">
        <ele>822.545166</ele>
        <time>2013-02-03T09:11:27Z</time>
      </trkpt>
      <trkpt lat="44.25981" lon="2.69367">
        <ele>821.1032715</ele>
        <time>2013-02-03T09:11:31Z</time>
      </trkpt>
      <trkpt lat="44.25965" lon="2.69388">
        <ele>819.1806641</ele>
        <time>2013-02-03T09:11:39Z</time>
      </trkpt>
      <trkpt lat="44.25951" lon="2.69404">
        <ele>820.1418457</ele>
        <time>2013-02-03T09:11:46Z</time>
      </trkpt>
      <trkpt lat="44.25939" lon="2.6942">
        <ele>818.6999512</ele>
        <time>2013-02-03T09:11:52Z</time>
      </trkpt>
      <trkpt lat="44.25928" lon="2.69434">
        <ele>818.2192383</ele>
        <time>2013-02-03T09:11:57Z</time>
      </trkpt>
      <trkpt lat="44.25917" lon="2.69449">
        <ele>819.1806641</ele>
        <time>2013-02-03T09:12:02Z</time>
      </trkpt>
      <trkpt lat="44.25907" lon="2.69463">
        <ele>820.1418457</ele>
        <time>2013-02-03T09:12:07Z</time>
      </trkpt>
      <trkpt lat="44.25895" lon="2.69478">
        <ele>819.1806641</ele>
        <time>2013-02-03T09:12:13Z</time>
      </trkpt>
      <trkpt lat="44.25884" lon="2.6949">
        <ele>817.2580566</ele>
        <time>2013-02-03T09:12:19Z</time>
      </trkpt>
      <trkpt lat="44.25873" lon="2.69503">
        <ele>816.7773438</ele>
        <time>2013-02-03T09:12:24Z</time>
      </trkpt>
      <trkpt lat="44.25862" lon="2.69515">
        <ele>814.8547363</ele>
        <time>2013-02-03T09:12:29Z</time>
      </trkpt>
      <trkpt lat="44.25852" lon="2.69526">
        <ele>811.9707031</ele>
        <time>2013-02-03T09:12:34Z</time>
      </trkpt>
      <trkpt lat="44.25841" lon="2.6954">
        <ele>811.0092773</ele>
        <time>2013-02-03T09:12:39Z</time>
      </trkpt>
      <trkpt lat="44.25825" lon="2.69562">
        <ele>810.5285645</ele>
        <time>2013-02-03T09:12:47Z</time>
      </trkpt>
      <trkpt lat="44.25817" lon="2.69571">
        <ele>811.0092773</ele>
        <time>2013-02-03T09:12:50Z</time>
      </trkpt>
      <trkpt lat="44.25811" lon="2.69579">
        <ele>811.0092773</ele>
        <time>2013-02-03T09:12:53Z</time>
      </trkpt>
      <trkpt lat="44.25804" lon="2.69589">
        <ele>811.4899902</ele>
        <time>2013-02-03T09:12:57Z</time>
      </trkpt>
      <trkpt lat="44.25792" lon="2.69607">
        <ele>812.451416</ele>
        <time>2013-02-03T09:13:03Z</time>
      </trkpt>
      <trkpt lat="44.25777" lon="2.69628">
        <ele>812.451416</ele>
        <time>2013-02-03T09:13:11Z</time>
      </trkpt>
      <trkpt lat="44.25768" lon="2.69641">
        <ele>811.9707031</ele>
        <time>2013-02-03T09:13:16Z</time>
      </trkpt>
      <trkpt lat="44.25762" lon="2.69654">
        <ele>811.4899902</ele>
        <time>2013-02-03T09:13:20Z</time>
      </trkpt>
      <trkpt lat="44.25753" lon="2.6967">
        <ele>811.4899902</ele>
        <time>2013-02-03T09:13:25Z</time>
      </trkpt>
      <trkpt lat="44.25743" lon="2.69683">
        <ele>810.0478516</ele>
        <time>2013-02-03T09:13:30Z</time>
      </trkpt>
      <trkpt lat="44.25735" lon="2.69694">
        <ele>809.5673828</ele>
        <time>2013-02-03T09:13:35Z</time>
      </trkpt>
      <trkpt lat="44.25728" lon="2.69694">
        <ele>808.605957</ele>
        <time>2013-02-03T09:13:40Z</time>
      </trkpt>
      <trkpt lat="44.25728" lon="2.69694">
        <ele>809.0866699</ele>
        <time>2013-02-03T09:13:46Z</time>
      </trkpt>
      <trkpt lat="44.25728" lon="2.69695">
        <ele>809.0866699</ele>
        <time>2013-02-03T09:13:53Z</time>
      </trkpt>
      <trkpt lat="44.25728" lon="2.69696">
        <ele>808.605957</ele>
        <time>2013-02-03T09:14:02Z</time>
      </trkpt>
      <trkpt lat="44.25728" lon="2.69697">
        <ele>809.0866699</ele>
        <time>2013-02-03T09:14:16Z</time>
      </trkpt>
      <trkpt lat="44.25721" lon="2.69715">
        <ele>809.0866699</ele>
        <time>2013-02-03T09:14:22Z</time>
      </trkpt>
      <trkpt lat="44.25713" lon="2.69729">
        <ele>809.5673828</ele>
        <time>2013-02-03T09:14:27Z</time>
      </trkpt>
      <trkpt lat="44.25705" lon="2.69744">
        <ele>810.0478516</ele>
        <time>2013-02-03T09:14:32Z</time>
      </trkpt>
      <trkpt lat="44.25695" lon="2.69762">
        <ele>809.5673828</ele>
        <time>2013-02-03T09:14:38Z</time>
      </trkpt>
      <trkpt lat="44.25687" lon="2.69781">
        <ele>809.0866699</ele>
        <time>2013-02-03T09:14:44Z</time>
      </trkpt>
      <trkpt lat="44.25681" lon="2.69805">
        <ele>809.0866699</ele>
        <time>2013-02-03T09:14:51Z</time>
      </trkpt>
      <trkpt lat="44.25677" lon="2.69827">
        <ele>809.0866699</ele>
        <time>2013-02-03T09:14:57Z</time>
      </trkpt>
      <trkpt lat="44.25673" lon="2.6985">
        <ele>809.0866699</ele>
        <time>2013-02-03T09:15:03Z</time>
      </trkpt>
      <trkpt lat="44.2567" lon="2.69873">
        <ele>809.5673828</ele>
        <time>2013-02-03T09:15:09Z</time>
      </trkpt>
      <trkpt lat="44.25667" lon="2.69891">
        <ele>810.5285645</ele>
        <time>2013-02-03T09:15:14Z</time>
      </trkpt>
      <trkpt lat="44.25664" lon="2.69913">
        <ele>810.5285645</ele>
        <time>2013-02-03T09:15:20Z</time>
      </trkpt>
      <trkpt lat="44.2566" lon="2.69933">
        <ele>811.9707031</ele>
        <time>2013-02-03T09:15:26Z</time>
      </trkpt>
      <trkpt lat="44.25655" lon="2.69952">
        <ele>811.9707031</ele>
        <time>2013-02-03T09:15:32Z</time>
      </trkpt>
      <trkpt lat="44.25651" lon="2.69965">
        <ele>811.9707031</ele>
        <time>2013-02-03T09:15:37Z</time>
      </trkpt>
      <trkpt lat="44.25647" lon="2.69981">
        <ele>811.4899902</ele>
        <time>2013-02-03T09:15:42Z</time>
      </trkpt>
      <trkpt lat="44.2564" lon="2.70006">
        <ele>811.4899902</ele>
        <time>2013-02-03T09:15:49Z</time>
      </trkpt>
      <trkpt lat="44.25633" lon="2.70027">
        <ele>811.9707031</ele>
        <time>2013-02-03T09:15:55Z</time>
      </trkpt>
      <trkpt lat="44.25626" lon="2.70046">
        <ele>812.9321289</ele>
        <time>2013-02-03T09:16:01Z</time>
      </trkpt>
      <trkpt lat="44.2562" lon="2.70063">
        <ele>812.451416</ele>
        <time>2013-02-03T09:16:07Z</time>
      </trkpt>
      <trkpt lat="44.25614" lon="2.70078">
        <ele>811.4899902</ele>
        <time>2013-02-03T09:16:12Z</time>
      </trkpt>
      <trkpt lat="44.25608" lon="2.70095">
        <ele>811.9707031</ele>
        <time>2013-02-03T09:16:17Z</time>
      </trkpt>
      <trkpt lat="44.25603" lon="2.70108">
        <ele>813.8933105</ele>
        <time>2013-02-03T09:16:21Z</time>
      </trkpt>
      <trkpt lat="44.25598" lon="2.70124">
        <ele>813.4128418</ele>
        <time>2013-02-03T09:16:26Z</time>
      </trkpt>
      <trkpt lat="44.25591" lon="2.70142">
        <ele>814.3740234</ele>
        <time>2013-02-03T09:16:32Z</time>
      </trkpt>
      <trkpt lat="44.25586" lon="2.70153">
        <ele>814.3740234</ele>
        <time>2013-02-03T09:16:36Z</time>
      </trkpt>
      <trkpt lat="44.2558" lon="2.70166">
        <ele>814.8547363</ele>
        <time>2013-02-03T09:16:42Z</time>
      </trkpt>
      <trkpt lat="44.25572" lon="2.70179">
        <ele>816.2966309</ele>
        <time>2013-02-03T09:16:47Z</time>
      </trkpt>
      <trkpt lat="44.25566" lon="2.7019">
        <ele>817.7385254</ele>
        <time>2013-02-03T09:16:51Z</time>
      </trkpt>
      <trkpt lat="44.2556" lon="2.702">
        <ele>817.2580566</ele>
        <time>2013-02-03T09:16:55Z</time>
      </trkpt>
      <trkpt lat="44.2555" lon="2.70214">
        <ele>817.2580566</ele>
        <time>2013-02-03T09:17:01Z</time>
      </trkpt>
      <trkpt lat="44.25543" lon="2.70227">
        <ele>818.2192383</ele>
        <time>2013-02-03T09:17:06Z</time>
      </trkpt>
      <trkpt lat="44.25536" lon="2.70244">
        <ele>820.1418457</ele>
        <time>2013-02-03T09:17:12Z</time>
      </trkpt>
      <trkpt lat="44.25529" lon="2.70259">
        <ele>820.1418457</ele>
        <time>2013-02-03T09:17:17Z</time>
      </trkpt>
      <trkpt lat="44.25522" lon="2.70276">
        <ele>822.0644531</ele>
        <time>2013-02-03T09:17:22Z</time>
      </trkpt>
      <trkpt lat="44.25516" lon="2.70291">
        <ele>823.0258789</ele>
        <time>2013-02-03T09:17:28Z</time>
      </trkpt>
      <trkpt lat="44.25509" lon="2.7031">
        <ele>823.5065918</ele>
        <time>2013-02-03T09:17:34Z</time>
      </trkpt>
      <trkpt lat="44.25502" lon="2.70327">
        <ele>822.0644531</ele>
        <time>2013-02-03T09:17:40Z</time>
      </trkpt>
      <trkpt lat="44.25496" lon="2.70345">
        <ele>822.545166</ele>
        <time>2013-02-03T09:17:46Z</time>
      </trkpt>
      <trkpt lat="44.2549" lon="2.70366">
        <ele>823.5065918</ele>
        <time>2013-02-03T09:17:52Z</time>
      </trkpt>
      <trkpt lat="44.25484" lon="2.70382">
        <ele>823.5065918</ele>
        <time>2013-02-03T09:17:58Z</time>
      </trkpt>
      <trkpt lat="44.25478" lon="2.70397">
        <ele>824.9484863</ele>
        <time>2013-02-03T09:18:03Z</time>
      </trkpt>
      <trkpt lat="44.25472" lon="2.70409">
        <ele>825.4289551</ele>
        <time>2013-02-03T09:18:07Z</time>
      </trkpt>
      <trkpt lat="44.25465" lon="2.70419">
        <ele>825.4289551</ele>
        <time>2013-02-03T09:18:11Z</time>
      </trkpt>
      <trkpt lat="44.25458" lon="2.70432">
        <ele>825.909668</ele>
        <time>2013-02-03T09:18:15Z</time>
      </trkpt>
      <trkpt lat="44.25447" lon="2.70446">
        <ele>826.3903809</ele>
        <time>2013-02-03T09:18:21Z</time>
      </trkpt>
      <trkpt lat="44.25437" lon="2.70458">
        <ele>826.3903809</ele>
        <time>2013-02-03T09:18:26Z</time>
      </trkpt>
      <trkpt lat="44.25426" lon="2.70469">
        <ele>825.909668</ele>
        <time>2013-02-03T09:18:31Z</time>
      </trkpt>
      <trkpt lat="44.25415" lon="2.70481">
        <ele>825.909668</ele>
        <time>2013-02-03T09:18:36Z</time>
      </trkpt>
      <trkpt lat="44.25404" lon="2.70492">
        <ele>826.3903809</ele>
        <time>2013-02-03T09:18:41Z</time>
      </trkpt>
      <trkpt lat="44.25393" lon="2.705">
        <ele>826.3903809</ele>
        <time>2013-02-03T09:18:46Z</time>
      </trkpt>
      <trkpt lat="44.2538" lon="2.70505">
        <ele>827.3518066</ele>
        <time>2013-02-03T09:18:52Z</time>
      </trkpt>
      <trkpt lat="44.2537" lon="2.7051">
        <ele>827.8322754</ele>
        <time>2013-02-03T09:18:56Z</time>
      </trkpt>
      <trkpt lat="44.25357" lon="2.70513">
        <ele>827.8322754</ele>
        <time>2013-02-03T09:19:01Z</time>
      </trkpt>
      <trkpt lat="44.25344" lon="2.70517">
        <ele>827.3518066</ele>
        <time>2013-02-03T09:19:06Z</time>
      </trkpt>
      <trkpt lat="44.25329" lon="2.7052">
        <ele>827.3518066</ele>
        <time>2013-02-03T09:19:12Z</time>
      </trkpt>
      <trkpt lat="44.25317" lon="2.70523">
        <ele>827.8322754</ele>
        <time>2013-02-03T09:19:17Z</time>
      </trkpt>
      <trkpt lat="44.25308" lon="2.70527">
        <ele>826.8710938</ele>
        <time>2013-02-03T09:19:21Z</time>
      </trkpt>
      <trkpt lat="44.25289" lon="2.70539">
        <ele>826.8710938</ele>
        <time>2013-02-03T09:19:29Z</time>
      </trkpt>
      <trkpt lat="44.25277" lon="2.70546">
        <ele>827.3518066</ele>
        <time>2013-02-03T09:19:34Z</time>
      </trkpt>
      <trkpt lat="44.25267" lon="2.70556">
        <ele>829.2744141</ele>
        <time>2013-02-03T09:19:39Z</time>
      </trkpt>
      <trkpt lat="44.25263" lon="2.70562">
        <ele>829.755127</ele>
        <time>2013-02-03T09:19:42Z</time>
      </trkpt>
      <trkpt lat="44.25263" lon="2.70569">
        <ele>830.2358398</ele>
        <time>2013-02-03T09:19:49Z</time>
      </trkpt>
      <trkpt lat="44.25263" lon="2.70571">
        <ele>830.2358398</ele>
        <time>2013-02-03T09:20:18Z</time>
      </trkpt>
      <trkpt lat="44.25264" lon="2.70572">
        <ele>830.7165527</ele>
        <time>2013-02-03T09:20:26Z</time>
      </trkpt>
      <trkpt lat="44.25264" lon="2.70576">
        <ele>831.1972656</ele>
        <time>2013-02-03T09:20:28Z</time>
      </trkpt>
      <trkpt lat="44.25268" lon="2.70583">
        <ele>830.7165527</ele>
        <time>2013-02-03T09:20:33Z</time>
      </trkpt>
      <trkpt lat="44.25274" lon="2.70601">
        <ele>831.1972656</ele>
        <time>2013-02-03T09:20:41Z</time>
      </trkpt>
      <trkpt lat="44.25282" lon="2.70619">
        <ele>828.3132324</ele>
        <time>2013-02-03T09:20:48Z</time>
      </trkpt>
      <trkpt lat="44.25288" lon="2.70634">
        <ele>825.909668</ele>
        <time>2013-02-03T09:20:54Z</time>
      </trkpt>
      <trkpt lat="44.25298" lon="2.7065">
        <ele>823.9870605</ele>
        <time>2013-02-03T09:21:01Z</time>
      </trkpt>
      <trkpt lat="44.25307" lon="2.70662">
        <ele>823.5065918</ele>
        <time>2013-02-03T09:21:07Z</time>
      </trkpt>
      <trkpt lat="44.25317" lon="2.70674">
        <ele>822.545166</ele>
        <time>2013-02-03T09:21:12Z</time>
      </trkpt>
      <trkpt lat="44.25326" lon="2.70687">
        <ele>823.0258789</ele>
        <time>2013-02-03T09:21:17Z</time>
      </trkpt>
      <trkpt lat="44.25335" lon="2.70702">
        <ele>821.5837402</ele>
        <time>2013-02-03T09:21:23Z</time>
      </trkpt>
      <trkpt lat="44.25342" lon="2.70716">
        <ele>821.1032715</ele>
        <time>2013-02-03T09:21:28Z</time>
      </trkpt>
      <trkpt lat="44.25352" lon="2.70731">
        <ele>821.1032715</ele>
        <time>2013-02-03T09:21:34Z</time>
      </trkpt>
      <trkpt lat="44.25363" lon="2.70746">
        <ele>821.1032715</ele>
        <time>2013-02-03T09:21:40Z</time>
      </trkpt>
      <trkpt lat="44.25373" lon="2.70754">
        <ele>821.1032715</ele>
        <time>2013-02-03T09:21:45Z</time>
      </trkpt>
      <trkpt lat="44.25376" lon="2.70754">
        <ele>822.0644531</ele>
        <time>2013-02-03T09:21:48Z</time>
      </trkpt>
      <trkpt lat="44.25377" lon="2.70757">
        <ele>824.4677734</ele>
        <time>2013-02-03T09:21:54Z</time>
      </trkpt>
      <trkpt lat="44.25384" lon="2.70773">
        <ele>824.4677734</ele>
        <time>2013-02-03T09:22:00Z</time>
      </trkpt>
      <trkpt lat="44.25393" lon="2.70788">
        <ele>823.0258789</ele>
        <time>2013-02-03T09:22:06Z</time>
      </trkpt>
      <trkpt lat="44.25403" lon="2.70803">
        <ele>823.9870605</ele>
        <time>2013-02-03T09:22:12Z</time>
      </trkpt>
      <trkpt lat="44.25409" lon="2.70821">
        <ele>822.545166</ele>
        <time>2013-02-03T09:22:18Z</time>
      </trkpt>
      <trkpt lat="44.25416" lon="2.70837">
        <ele>821.5837402</ele>
        <time>2013-02-03T09:22:23Z</time>
      </trkpt>
      <trkpt lat="44.25422" lon="2.70853">
        <ele>819.1806641</ele>
        <time>2013-02-03T09:22:28Z</time>
      </trkpt>
      <trkpt lat="44.2543" lon="2.70869">
        <ele>818.2192383</ele>
        <time>2013-02-03T09:22:34Z</time>
      </trkpt>
      <trkpt lat="44.25439" lon="2.70886">
        <ele>817.2580566</ele>
        <time>2013-02-03T09:22:40Z</time>
      </trkpt>
      <trkpt lat="44.25448" lon="2.70906">
        <ele>816.2966309</ele>
        <time>2013-02-03T09:22:46Z</time>
      </trkpt>
      <trkpt lat="44.25457" lon="2.70926">
        <ele>815.3354492</ele>
        <time>2013-02-03T09:22:52Z</time>
      </trkpt>
      <trkpt lat="44.25465" lon="2.70944">
        <ele>814.3740234</ele>
        <time>2013-02-03T09:22:57Z</time>
      </trkpt>
      <trkpt lat="44.25472" lon="2.70966">
        <ele>813.8933105</ele>
        <time>2013-02-03T09:23:03Z</time>
      </trkpt>
      <trkpt lat="44.25482" lon="2.70987">
        <ele>814.3740234</ele>
        <time>2013-02-03T09:23:10Z</time>
      </trkpt>
      <trkpt lat="44.25489" lon="2.71003">
        <ele>814.8547363</ele>
        <time>2013-02-03T09:23:15Z</time>
      </trkpt>
      <trkpt lat="44.25496" lon="2.71023">
        <ele>814.3740234</ele>
        <time>2013-02-03T09:23:21Z</time>
      </trkpt>
      <trkpt lat="44.255" lon="2.71038">
        <ele>813.8933105</ele>
        <time>2013-02-03T09:23:25Z</time>
      </trkpt>
      <trkpt lat="44.25506" lon="2.71056">
        <ele>813.8933105</ele>
        <time>2013-02-03T09:23:30Z</time>
      </trkpt>
      <trkpt lat="44.25511" lon="2.71073">
        <ele>812.9321289</ele>
        <time>2013-02-03T09:23:35Z</time>
      </trkpt>
      <trkpt lat="44.25518" lon="2.71094">
        <ele>812.451416</ele>
        <time>2013-02-03T09:23:41Z</time>
      </trkpt>
      <trkpt lat="44.25523" lon="2.71109">
        <ele>812.9321289</ele>
        <time>2013-02-03T09:23:45Z</time>
      </trkpt>
      <trkpt lat="44.25528" lon="2.71133">
        <ele>813.4128418</ele>
        <time>2013-02-03T09:23:52Z</time>
      </trkpt>
      <trkpt lat="44.25534" lon="2.71152">
        <ele>820.6225586</ele>
        <time>2013-02-03T09:23:58Z</time>
      </trkpt>
      <trkpt lat="44.25535" lon="2.7117">
        <ele>822.0644531</ele>
        <time>2013-02-03T09:24:03Z</time>
      </trkpt>
      <trkpt lat="44.25536" lon="2.7119">
        <ele>821.5837402</ele>
        <time>2013-02-03T09:24:09Z</time>
      </trkpt>
      <trkpt lat="44.25539" lon="2.71207">
        <ele>819.1806641</ele>
        <time>2013-02-03T09:24:14Z</time>
      </trkpt>
      <trkpt lat="44.25543" lon="2.71225">
        <ele>817.7385254</ele>
        <time>2013-02-03T09:24:19Z</time>
      </trkpt>
      <trkpt lat="44.25546" lon="2.71244">
        <ele>815.8161621</ele>
        <time>2013-02-03T09:24:24Z</time>
      </trkpt>
      <trkpt lat="44.25551" lon="2.71261">
        <ele>814.8547363</ele>
        <time>2013-02-03T09:24:29Z</time>
      </trkpt>
      <trkpt lat="44.25558" lon="2.7128">
        <ele>815.3354492</ele>
        <time>2013-02-03T09:24:35Z</time>
      </trkpt>
      <trkpt lat="44.25565" lon="2.71296">
        <ele>816.2966309</ele>
        <time>2013-02-03T09:24:40Z</time>
      </trkpt>
      <trkpt lat="44.2557" lon="2.7131">
        <ele>816.2966309</ele>
        <time>2013-02-03T09:24:44Z</time>
      </trkpt>
      <trkpt lat="44.25576" lon="2.71329">
        <ele>815.8161621</ele>
        <time>2013-02-03T09:24:50Z</time>
      </trkpt>
      <trkpt lat="44.25583" lon="2.71349">
        <ele>813.8933105</ele>
        <time>2013-02-03T09:24:56Z</time>
      </trkpt>
      <trkpt lat="44.25589" lon="2.71371">
        <ele>811.0092773</ele>
        <time>2013-02-03T09:25:02Z</time>
      </trkpt>
      <trkpt lat="44.25596" lon="2.71395">
        <ele>806.6833496</ele>
        <time>2013-02-03T09:25:09Z</time>
      </trkpt>
      <trkpt lat="44.25604" lon="2.71416">
        <ele>805.722168</ele>
        <time>2013-02-03T09:25:15Z</time>
      </trkpt>
      <trkpt lat="44.25611" lon="2.71436">
        <ele>803.7995605</ele>
        <time>2013-02-03T09:25:21Z</time>
      </trkpt>
      <trkpt lat="44.2562" lon="2.71457">
        <ele>803.7995605</ele>
        <time>2013-02-03T09:25:27Z</time>
      </trkpt>
      <trkpt lat="44.25626" lon="2.71472">
        <ele>803.3188477</ele>
        <time>2013-02-03T09:25:31Z</time>
      </trkpt>
      <trkpt lat="44.25633" lon="2.71492">
        <ele>802.8381348</ele>
        <time>2013-02-03T09:25:37Z</time>
      </trkpt>
      <trkpt lat="44.25642" lon="2.71515">
        <ele>801.8769531</ele>
        <time>2013-02-03T09:25:44Z</time>
      </trkpt>
      <trkpt lat="44.2565" lon="2.71535">
        <ele>800.9155273</ele>
        <time>2013-02-03T09:25:50Z</time>
      </trkpt>
      <trkpt lat="44.25657" lon="2.71552">
        <ele>799.9543457</ele>
        <time>2013-02-03T09:25:55Z</time>
      </trkpt>
      <trkpt lat="44.25665" lon="2.71574">
        <ele>798.0317383</ele>
        <time>2013-02-03T09:26:01Z</time>
      </trkpt>
      <trkpt lat="44.25669" lon="2.71594">
        <ele>797.5510254</ele>
        <time>2013-02-03T09:26:06Z</time>
      </trkpt>
      <trkpt lat="44.25667" lon="2.71617">
        <ele>797.5510254</ele>
        <time>2013-02-03T09:26:12Z</time>
      </trkpt>
      <trkpt lat="44.25664" lon="2.71634">
        <ele>799.9543457</ele>
        <time>2013-02-03T09:26:17Z</time>
      </trkpt>
      <trkpt lat="44.25659" lon="2.7165">
        <ele>799.9543457</ele>
        <time>2013-02-03T09:26:22Z</time>
      </trkpt>
      <trkpt lat="44.25656" lon="2.71654">
        <ele>799.9543457</ele>
        <time>2013-02-03T09:26:24Z</time>
      </trkpt>
      <trkpt lat="44.25653" lon="2.71657">
        <ele>799.9543457</ele>
        <time>2013-02-03T09:26:30Z</time>
      </trkpt>
      <trkpt lat="44.25653" lon="2.71656">
        <ele>799.9543457</ele>
        <time>2013-02-03T09:26:36Z</time>
      </trkpt>
      <trkpt lat="44.25652" lon="2.71657">
        <ele>799.4736328</ele>
        <time>2013-02-03T09:26:37Z</time>
      </trkpt>
      <trkpt lat="44.25637" lon="2.71675">
        <ele>800.4350586</ele>
        <time>2013-02-03T09:26:45Z</time>
      </trkpt>
      <trkpt lat="44.25624" lon="2.71684">
        <ele>799.9543457</ele>
        <time>2013-02-03T09:26:50Z</time>
      </trkpt>
      <trkpt lat="44.25611" lon="2.71689">
        <ele>797.5510254</ele>
        <time>2013-02-03T09:26:55Z</time>
      </trkpt>
      <trkpt lat="44.256" lon="2.71696">
        <ele>796.5898438</ele>
        <time>2013-02-03T09:26:59Z</time>
      </trkpt>
      <trkpt lat="44.25591" lon="2.71701">
        <ele>794.666748</ele>
        <time>2013-02-03T09:27:03Z</time>
      </trkpt>
      <trkpt lat="44.25584" lon="2.71713">
        <ele>793.2248535</ele>
        <time>2013-02-03T09:27:08Z</time>
      </trkpt>
      <trkpt lat="44.25577" lon="2.71734">
        <ele>792.7443848</ele>
        <time>2013-02-03T09:27:14Z</time>
      </trkpt>
      <trkpt lat="44.2557" lon="2.71745">
        <ele>792.2636719</ele>
        <time>2013-02-03T09:27:18Z</time>
      </trkpt>
      <trkpt lat="44.25566" lon="2.71751">
        <ele>792.7443848</ele>
        <time>2013-02-03T09:27:22Z</time>
      </trkpt>
      <trkpt lat="44.25566" lon="2.71752">
        <ele>793.2248535</ele>
        <time>2013-02-03T09:27:31Z</time>
      </trkpt>
      <trkpt lat="44.25565" lon="2.71751">
        <ele>792.7443848</ele>
        <time>2013-02-03T09:27:36Z</time>
      </trkpt>
      <trkpt lat="44.25565" lon="2.71752">
        <ele>793.2248535</ele>
        <time>2013-02-03T09:27:43Z</time>
      </trkpt>
      <trkpt lat="44.25565" lon="2.71752">
        <ele>793.7055664</ele>
        <time>2013-02-03T09:27:52Z</time>
      </trkpt>
      <trkpt lat="44.25564" lon="2.71752">
        <ele>791.782959</ele>
        <time>2013-02-03T09:28:07Z</time>
      </trkpt>
      <trkpt lat="44.25566" lon="2.71752">
        <ele>792.7443848</ele>
        <time>2013-02-03T09:28:21Z</time>
      </trkpt>
      <trkpt lat="44.25563" lon="2.71756">
        <ele>794.666748</ele>
        <time>2013-02-03T09:28:36Z</time>
      </trkpt>
      <trkpt lat="44.25552" lon="2.71767">
        <ele>793.2248535</ele>
        <time>2013-02-03T09:28:42Z</time>
      </trkpt>
      <trkpt lat="44.2554" lon="2.7178">
        <ele>790.8215332</ele>
        <time>2013-02-03T09:28:49Z</time>
      </trkpt>
      <trkpt lat="44.25531" lon="2.71789">
        <ele>790.8215332</ele>
        <time>2013-02-03T09:28:54Z</time>
      </trkpt>
      <trkpt lat="44.25521" lon="2.71798">
        <ele>790.8215332</ele>
        <time>2013-02-03T09:28:59Z</time>
      </trkpt>
      <trkpt lat="44.25511" lon="2.71809">
        <ele>790.8215332</ele>
        <time>2013-02-03T09:29:04Z</time>
      </trkpt>
      <trkpt lat="44.25499" lon="2.71824">
        <ele>790.8215332</ele>
        <time>2013-02-03T09:29:10Z</time>
      </trkpt>
      <trkpt lat="44.25492" lon="2.71835">
        <ele>790.3410645</ele>
        <time>2013-02-03T09:29:14Z</time>
      </trkpt>
      <trkpt lat="44.25484" lon="2.71848">
        <ele>789.8603516</ele>
        <time>2013-02-03T09:29:19Z</time>
      </trkpt>
      <trkpt lat="44.25475" lon="2.71861">
        <ele>789.8603516</ele>
        <time>2013-02-03T09:29:24Z</time>
      </trkpt>
      <trkpt lat="44.2547" lon="2.71875">
        <ele>789.8603516</ele>
        <time>2013-02-03T09:29:28Z</time>
      </trkpt>
      <trkpt lat="44.25464" lon="2.71898">
        <ele>789.8603516</ele>
        <time>2013-02-03T09:29:34Z</time>
      </trkpt>
      <trkpt lat="44.25459" lon="2.71922">
        <ele>789.3796387</ele>
        <time>2013-02-03T09:29:40Z</time>
      </trkpt>
      <trkpt lat="44.25456" lon="2.71944">
        <ele>787.9377441</ele>
        <time>2013-02-03T09:29:45Z</time>
      </trkpt>
      <trkpt lat="44.25453" lon="2.71969">
        <ele>785.0539551</ele>
        <time>2013-02-03T09:29:51Z</time>
      </trkpt>
      <trkpt lat="44.25449" lon="2.71996">
        <ele>782.1699219</ele>
        <time>2013-02-03T09:29:57Z</time>
      </trkpt>
      <trkpt lat="44.25445" lon="2.72016">
        <ele>778.8051758</ele>
        <time>2013-02-03T09:30:02Z</time>
      </trkpt>
      <trkpt lat="44.25443" lon="2.72031">
        <ele>776.8825684</ele>
        <time>2013-02-03T09:30:06Z</time>
      </trkpt>
      <trkpt lat="44.25442" lon="2.72045">
        <ele>776.4018555</ele>
        <time>2013-02-03T09:30:10Z</time>
      </trkpt>
      <trkpt lat="44.25438" lon="2.72061">
        <ele>774.9599609</ele>
        <time>2013-02-03T09:30:15Z</time>
      </trkpt>
      <trkpt lat="44.25427" lon="2.72084">
        <ele>773.0373535</ele>
        <time>2013-02-03T09:30:21Z</time>
      </trkpt>
      <trkpt lat="44.25427" lon="2.7211">
        <ele>772.5566406</ele>
        <time>2013-02-03T09:30:27Z</time>
      </trkpt>
      <trkpt lat="44.25432" lon="2.72131">
        <ele>771.5952148</ele>
        <time>2013-02-03T09:30:32Z</time>
      </trkpt>
      <trkpt lat="44.25432" lon="2.72139">
        <ele>771.5952148</ele>
        <time>2013-02-03T09:30:34Z</time>
      </trkpt>
      <trkpt lat="44.25433" lon="2.7215">
        <ele>770.6340332</ele>
        <time>2013-02-03T09:30:39Z</time>
      </trkpt>
      <trkpt lat="44.25442" lon="2.72155">
        <ele>769.6728516</ele>
        <time>2013-02-03T09:30:43Z</time>
      </trkpt>
      <trkpt lat="44.25444" lon="2.72155">
        <ele>769.1921387</ele>
        <time>2013-02-03T09:30:44Z</time>
      </trkpt>
      <trkpt lat="44.2546" lon="2.72158">
        <ele>765.8276367</ele>
        <time>2013-02-03T09:30:50Z</time>
      </trkpt>
      <trkpt lat="44.25463" lon="2.72174">
        <ele>764.385498</ele>
        <time>2013-02-03T09:30:55Z</time>
      </trkpt>
      <trkpt lat="44.25456" lon="2.722">
        <ele>762.4626465</ele>
        <time>2013-02-03T09:31:02Z</time>
      </trkpt>
      <trkpt lat="44.25452" lon="2.72219">
        <ele>761.5014648</ele>
        <time>2013-02-03T09:31:07Z</time>
      </trkpt>
      <trkpt lat="44.25446" lon="2.72241">
        <ele>760.0593262</ele>
        <time>2013-02-03T09:31:13Z</time>
      </trkpt>
      <trkpt lat="44.25443" lon="2.72257">
        <ele>759.5788574</ele>
        <time>2013-02-03T09:31:17Z</time>
      </trkpt>
      <trkpt lat="44.25446" lon="2.72276">
        <ele>758.1369629</ele>
        <time>2013-02-03T09:31:22Z</time>
      </trkpt>
      <trkpt lat="44.25452" lon="2.723">
        <ele>755.7336426</ele>
        <time>2013-02-03T09:31:28Z</time>
      </trkpt>
      <trkpt lat="44.25457" lon="2.72322">
        <ele>752.3688965</ele>
        <time>2013-02-03T09:31:33Z</time>
      </trkpt>
      <trkpt lat="44.25461" lon="2.72342">
        <ele>749.9658203</ele>
        <time>2013-02-03T09:31:38Z</time>
      </trkpt>
      <trkpt lat="44.25466" lon="2.72363">
        <ele>747.081543</ele>
        <time>2013-02-03T09:31:43Z</time>
      </trkpt>
      <trkpt lat="44.25474" lon="2.72382">
        <ele>744.6782227</ele>
        <time>2013-02-03T09:31:48Z</time>
      </trkpt>
      <trkpt lat="44.25477" lon="2.72399">
        <ele>742.2751465</ele>
        <time>2013-02-03T09:31:52Z</time>
      </trkpt>
      <trkpt lat="44.25479" lon="2.72424">
        <ele>737.9492188</ele>
        <time>2013-02-03T09:31:58Z</time>
      </trkpt>
      <trkpt lat="44.25482" lon="2.72443">
        <ele>734.5847168</ele>
        <time>2013-02-03T09:32:03Z</time>
      </trkpt>
      <trkpt lat="44.25482" lon="2.72465">
        <ele>732.1813965</ele>
        <time>2013-02-03T09:32:08Z</time>
      </trkpt>
      <trkpt lat="44.25476" lon="2.72476">
        <ele>732.6621094</ele>
        <time>2013-02-03T09:32:12Z</time>
      </trkpt>
      <trkpt lat="44.25467" lon="2.72486">
        <ele>731.7004395</ele>
        <time>2013-02-03T09:32:16Z</time>
      </trkpt>
      <trkpt lat="44.25455" lon="2.72495">
        <ele>729.777832</ele>
        <time>2013-02-03T09:32:21Z</time>
      </trkpt>
      <trkpt lat="44.25442" lon="2.72498">
        <ele>726.894043</ele>
        <time>2013-02-03T09:32:26Z</time>
      </trkpt>
      <trkpt lat="44.25439" lon="2.72502">
        <ele>726.894043</ele>
        <time>2013-02-03T09:32:27Z</time>
      </trkpt>
      <trkpt lat="44.25436" lon="2.7252">
        <ele>726.4133301</ele>
        <time>2013-02-03T09:32:32Z</time>
      </trkpt>
      <trkpt lat="44.25436" lon="2.72523">
        <ele>726.4133301</ele>
        <time>2013-02-03T09:32:33Z</time>
      </trkpt>
      <trkpt lat="44.2545" lon="2.72544">
        <ele>722.5681152</ele>
        <time>2013-02-03T09:32:40Z</time>
      </trkpt>
      <trkpt lat="44.2546" lon="2.72559">
        <ele>720.6455078</ele>
        <time>2013-02-03T09:32:45Z</time>
      </trkpt>
      <trkpt lat="44.25459" lon="2.72576">
        <ele>720.1647949</ele>
        <time>2013-02-03T09:32:49Z</time>
      </trkpt>
      <trkpt lat="44.25458" lon="2.72579">
        <ele>720.1647949</ele>
        <time>2013-02-03T09:32:50Z</time>
      </trkpt>
      <trkpt lat="44.25443" lon="2.72594">
        <ele>721.1262207</ele>
        <time>2013-02-03T09:32:56Z</time>
      </trkpt>
      <trkpt lat="44.25426" lon="2.72586">
        <ele>720.6455078</ele>
        <time>2013-02-03T09:33:03Z</time>
      </trkpt>
      <trkpt lat="44.25421" lon="2.72583">
        <ele>721.1262207</ele>
        <time>2013-02-03T09:33:06Z</time>
      </trkpt>
      <trkpt lat="44.25413" lon="2.72579">
        <ele>723.529541</ele>
        <time>2013-02-03T09:33:11Z</time>
      </trkpt>
      <trkpt lat="44.25404" lon="2.72592">
        <ele>724.0100098</ele>
        <time>2013-02-03T09:33:17Z</time>
      </trkpt>
      <trkpt lat="44.25404" lon="2.72604">
        <ele>723.529541</ele>
        <time>2013-02-03T09:33:21Z</time>
      </trkpt>
      <trkpt lat="44.25411" lon="2.7262">
        <ele>721.6066895</ele>
        <time>2013-02-03T09:33:27Z</time>
      </trkpt>
      <trkpt lat="44.25416" lon="2.72631">
        <ele>720.1647949</ele>
        <time>2013-02-03T09:33:31Z</time>
      </trkpt>
      <trkpt lat="44.25419" lon="2.72637">
        <ele>720.1647949</ele>
        <time>2013-02-03T09:33:35Z</time>
      </trkpt>
      <trkpt lat="44.25419" lon="2.72651">
        <ele>720.1647949</ele>
        <time>2013-02-03T09:33:41Z</time>
      </trkpt>
      <trkpt lat="44.25426" lon="2.72667">
        <ele>718.7229004</ele>
        <time>2013-02-03T09:33:46Z</time>
      </trkpt>
      <trkpt lat="44.25436" lon="2.7268">
        <ele>717.2810059</ele>
        <time>2013-02-03T09:33:51Z</time>
      </trkpt>
      <trkpt lat="44.25448" lon="2.72696">
        <ele>716.3195801</ele>
        <time>2013-02-03T09:33:57Z</time>
      </trkpt>
      <trkpt lat="44.25458" lon="2.72714">
        <ele>715.8388672</ele>
        <time>2013-02-03T09:34:03Z</time>
      </trkpt>
      <trkpt lat="44.25465" lon="2.72726">
        <ele>714.3967285</ele>
        <time>2013-02-03T09:34:07Z</time>
      </trkpt>
      <trkpt lat="44.25472" lon="2.7274">
        <ele>713.9160156</ele>
        <time>2013-02-03T09:34:12Z</time>
      </trkpt>
      <trkpt lat="44.25479" lon="2.72749">
        <ele>712.4741211</ele>
        <time>2013-02-03T09:34:16Z</time>
      </trkpt>
      <trkpt lat="44.25489" lon="2.72754">
        <ele>711.5129395</ele>
        <time>2013-02-03T09:34:21Z</time>
      </trkpt>
      <trkpt lat="44.255" lon="2.72754">
        <ele>712.954834</ele>
        <time>2013-02-03T09:34:26Z</time>
      </trkpt>
      <trkpt lat="44.25517" lon="2.72751">
        <ele>714.3967285</ele>
        <time>2013-02-03T09:34:33Z</time>
      </trkpt>
      <trkpt lat="44.2553" lon="2.72747">
        <ele>717.2810059</ele>
        <time>2013-02-03T09:34:38Z</time>
      </trkpt>
      <trkpt lat="44.25546" lon="2.72745">
        <ele>720.6455078</ele>
        <time>2013-02-03T09:34:44Z</time>
      </trkpt>
      <trkpt lat="44.25559" lon="2.72743">
        <ele>724.0100098</ele>
        <time>2013-02-03T09:34:49Z</time>
      </trkpt>
      <trkpt lat="44.25567" lon="2.72749">
        <ele>725.9326172</ele>
        <time>2013-02-03T09:34:53Z</time>
      </trkpt>
      <trkpt lat="44.25575" lon="2.72763">
        <ele>726.894043</ele>
        <time>2013-02-03T09:34:58Z</time>
      </trkpt>
      <trkpt lat="44.25583" lon="2.72782">
        <ele>725.9326172</ele>
        <time>2013-02-03T09:35:05Z</time>
      </trkpt>
      <trkpt lat="44.25592" lon="2.72797">
        <ele>725.4519043</ele>
        <time>2013-02-03T09:35:11Z</time>
      </trkpt>
      <trkpt lat="44.256" lon="2.72812">
        <ele>725.4519043</ele>
        <time>2013-02-03T09:35:17Z</time>
      </trkpt>
      <trkpt lat="44.25609" lon="2.72827">
        <ele>724.9714355</ele>
        <time>2013-02-03T09:35:23Z</time>
      </trkpt>
      <trkpt lat="44.25616" lon="2.72841">
        <ele>725.9326172</ele>
        <time>2013-02-03T09:35:28Z</time>
      </trkpt>
      <trkpt lat="44.25622" lon="2.72855">
        <ele>725.9326172</ele>
        <time>2013-02-03T09:35:33Z</time>
      </trkpt>
      <trkpt lat="44.25629" lon="2.72868">
        <ele>727.3747559</ele>
        <time>2013-02-03T09:35:38Z</time>
      </trkpt>
      <trkpt lat="44.25637" lon="2.72877">
        <ele>727.3747559</ele>
        <time>2013-02-03T09:35:42Z</time>
      </trkpt>
      <trkpt lat="44.25649" lon="2.72886">
        <ele>729.777832</ele>
        <time>2013-02-03T09:35:48Z</time>
      </trkpt>
      <trkpt lat="44.25662" lon="2.72896">
        <ele>730.7392578</ele>
        <time>2013-02-03T09:35:55Z</time>
      </trkpt>
      <trkpt lat="44.25672" lon="2.72901">
        <ele>733.1425781</ele>
        <time>2013-02-03T09:36:00Z</time>
      </trkpt>
      <trkpt lat="44.25685" lon="2.72908">
        <ele>736.0266113</ele>
        <time>2013-02-03T09:36:06Z</time>
      </trkpt>
      <trkpt lat="44.25695" lon="2.72916">
        <ele>737.9492188</ele>
        <time>2013-02-03T09:36:11Z</time>
      </trkpt>
      <trkpt lat="44.25711" lon="2.72931">
        <ele>736.5073242</ele>
        <time>2013-02-03T09:36:19Z</time>
      </trkpt>
      <trkpt lat="44.2572" lon="2.72944">
        <ele>735.5458984</ele>
        <time>2013-02-03T09:36:24Z</time>
      </trkpt>
      <trkpt lat="44.25727" lon="2.72955">
        <ele>734.5847168</ele>
        <time>2013-02-03T09:36:28Z</time>
      </trkpt>
      <trkpt lat="44.25736" lon="2.72971">
        <ele>733.623291</ele>
        <time>2013-02-03T09:36:33Z</time>
      </trkpt>
      <trkpt lat="44.25748" lon="2.72986">
        <ele>733.623291</ele>
        <time>2013-02-03T09:36:39Z</time>
      </trkpt>
      <trkpt lat="44.25761" lon="2.72999">
        <ele>735.5458984</ele>
        <time>2013-02-03T09:36:44Z</time>
      </trkpt>
      <trkpt lat="44.25772" lon="2.73011">
        <ele>734.5847168</ele>
        <time>2013-02-03T09:36:49Z</time>
      </trkpt>
      <trkpt lat="44.25782" lon="2.73022">
        <ele>734.1040039</ele>
        <time>2013-02-03T09:36:54Z</time>
      </trkpt>
      <trkpt lat="44.25792" lon="2.73033">
        <ele>733.1425781</ele>
        <time>2013-02-03T09:36:59Z</time>
      </trkpt>
      <trkpt lat="44.25801" lon="2.73043">
        <ele>730.7392578</ele>
        <time>2013-02-03T09:37:03Z</time>
      </trkpt>
      <trkpt lat="44.25813" lon="2.7306">
        <ele>728.8166504</ele>
        <time>2013-02-03T09:37:09Z</time>
      </trkpt>
      <trkpt lat="44.25822" lon="2.73081">
        <ele>726.894043</ele>
        <time>2013-02-03T09:37:15Z</time>
      </trkpt>
      <trkpt lat="44.25822" lon="2.73097">
        <ele>726.894043</ele>
        <time>2013-02-03T09:37:19Z</time>
      </trkpt>
      <trkpt lat="44.25817" lon="2.73108">
        <ele>728.8166504</ele>
        <time>2013-02-03T09:37:23Z</time>
      </trkpt>
      <trkpt lat="44.25811" lon="2.73119">
        <ele>730.2585449</ele>
        <time>2013-02-03T09:37:27Z</time>
      </trkpt>
      <trkpt lat="44.25801" lon="2.73141">
        <ele>730.7392578</ele>
        <time>2013-02-03T09:37:33Z</time>
      </trkpt>
      <trkpt lat="44.25793" lon="2.73156">
        <ele>731.7004395</ele>
        <time>2013-02-03T09:37:38Z</time>
      </trkpt>
      <trkpt lat="44.25783" lon="2.73171">
        <ele>732.1813965</ele>
        <time>2013-02-03T09:37:43Z</time>
      </trkpt>
      <trkpt lat="44.25774" lon="2.73188">
        <ele>730.2585449</ele>
        <time>2013-02-03T09:37:49Z</time>
      </trkpt>
      <trkpt lat="44.25766" lon="2.73212">
        <ele>727.3747559</ele>
        <time>2013-02-03T09:37:55Z</time>
      </trkpt>
      <trkpt lat="44.25759" lon="2.73222">
        <ele>726.4133301</ele>
        <time>2013-02-03T09:37:59Z</time>
      </trkpt>
      <trkpt lat="44.25753" lon="2.73233">
        <ele>725.9326172</ele>
        <time>2013-02-03T09:38:03Z</time>
      </trkpt>
      <trkpt lat="44.25749" lon="2.73241">
        <ele>726.4133301</ele>
        <time>2013-02-03T09:38:06Z</time>
      </trkpt>
      <trkpt lat="44.25755" lon="2.73249">
        <ele>728.3359375</ele>
        <time>2013-02-03T09:38:10Z</time>
      </trkpt>
      <trkpt lat="44.25777" lon="2.73249">
        <ele>730.7392578</ele>
        <time>2013-02-03T09:38:17Z</time>
      </trkpt>
      <trkpt lat="44.25795" lon="2.73241">
        <ele>730.2585449</ele>
        <time>2013-02-03T09:38:24Z</time>
      </trkpt>
      <trkpt lat="44.25807" lon="2.73234">
        <ele>730.2585449</ele>
        <time>2013-02-03T09:38:29Z</time>
      </trkpt>
      <trkpt lat="44.25818" lon="2.73228">
        <ele>726.894043</ele>
        <time>2013-02-03T09:38:35Z</time>
      </trkpt>
      <trkpt lat="44.2583" lon="2.73219">
        <ele>725.9326172</ele>
        <time>2013-02-03T09:38:41Z</time>
      </trkpt>
      <trkpt lat="44.25832" lon="2.73218">
        <ele>725.9326172</ele>
        <time>2013-02-03T09:38:42Z</time>
      </trkpt>
      <trkpt lat="44.25842" lon="2.73209">
        <ele>725.9326172</ele>
        <time>2013-02-03T09:38:47Z</time>
      </trkpt>
      <trkpt lat="44.25854" lon="2.73199">
        <ele>726.4133301</ele>
        <time>2013-02-03T09:38:53Z</time>
      </trkpt>
      <trkpt lat="44.25859" lon="2.73192">
        <ele>728.3359375</ele>
        <time>2013-02-03T09:38:56Z</time>
      </trkpt>
      <trkpt lat="44.25874" lon="2.73183">
        <ele>727.3747559</ele>
        <time>2013-02-03T09:39:02Z</time>
      </trkpt>
      <trkpt lat="44.2589" lon="2.73178">
        <ele>727.3747559</ele>
        <time>2013-02-03T09:39:08Z</time>
      </trkpt>
      <trkpt lat="44.25902" lon="2.73177">
        <ele>726.894043</ele>
        <time>2013-02-03T09:39:12Z</time>
      </trkpt>
      <trkpt lat="44.25917" lon="2.73175">
        <ele>725.9326172</ele>
        <time>2013-02-03T09:39:18Z</time>
      </trkpt>
      <trkpt lat="44.25931" lon="2.73174">
        <ele>726.4133301</ele>
        <time>2013-02-03T09:39:23Z</time>
      </trkpt>
      <trkpt lat="44.25944" lon="2.73177">
        <ele>725.4519043</ele>
        <time>2013-02-03T09:39:28Z</time>
      </trkpt>
      <trkpt lat="44.25959" lon="2.73179">
        <ele>724.9714355</ele>
        <time>2013-02-03T09:39:34Z</time>
      </trkpt>
      <trkpt lat="44.25972" lon="2.73179">
        <ele>727.8552246</ele>
        <time>2013-02-03T09:39:39Z</time>
      </trkpt>
      <trkpt lat="44.25982" lon="2.73184">
        <ele>728.3359375</ele>
        <time>2013-02-03T09:39:44Z</time>
      </trkpt>
      <trkpt lat="44.25991" lon="2.7319">
        <ele>728.3359375</ele>
        <time>2013-02-03T09:39:49Z</time>
      </trkpt>
      <trkpt lat="44.26003" lon="2.73194">
        <ele>729.777832</ele>
        <time>2013-02-03T09:39:55Z</time>
      </trkpt>
      <trkpt lat="44.26013" lon="2.73197">
        <ele>731.7004395</ele>
        <time>2013-02-03T09:40:01Z</time>
      </trkpt>
      <trkpt lat="44.26019" lon="2.73204">
        <ele>729.777832</ele>
        <time>2013-02-03T09:40:05Z</time>
      </trkpt>
      <trkpt lat="44.26031" lon="2.7322">
        <ele>728.3359375</ele>
        <time>2013-02-03T09:40:12Z</time>
      </trkpt>
      <trkpt lat="44.26037" lon="2.73229">
        <ele>728.8166504</ele>
        <time>2013-02-03T09:40:16Z</time>
      </trkpt>
      <trkpt lat="44.26039" lon="2.73233">
        <ele>729.777832</ele>
        <time>2013-02-03T09:40:18Z</time>
      </trkpt>
      <trkpt lat="44.26052" lon="2.73241">
        <ele>733.1425781</ele>
        <time>2013-02-03T09:40:24Z</time>
      </trkpt>
      <trkpt lat="44.26058" lon="2.73244">
        <ele>733.1425781</ele>
        <time>2013-02-03T09:40:27Z</time>
      </trkpt>
      <trkpt lat="44.26075" lon="2.73239">
        <ele>736.987793</ele>
        <time>2013-02-03T09:40:34Z</time>
      </trkpt>
      <trkpt lat="44.26087" lon="2.73237">
        <ele>737.4685059</ele>
        <time>2013-02-03T09:40:40Z</time>
      </trkpt>
      <trkpt lat="44.261" lon="2.73241">
        <ele>737.9492188</ele>
        <time>2013-02-03T09:40:46Z</time>
      </trkpt>
      <trkpt lat="44.26108" lon="2.73247">
        <ele>737.9492188</ele>
        <time>2013-02-03T09:40:50Z</time>
      </trkpt>
      <trkpt lat="44.26116" lon="2.73252">
        <ele>739.8718262</ele>
        <time>2013-02-03T09:40:54Z</time>
      </trkpt>
      <trkpt lat="44.26127" lon="2.73257">
        <ele>742.2751465</ele>
        <time>2013-02-03T09:40:59Z</time>
      </trkpt>
      <trkpt lat="44.26135" lon="2.7326">
        <ele>743.2363281</ele>
        <time>2013-02-03T09:41:03Z</time>
      </trkpt>
      <trkpt lat="44.26155" lon="2.7326">
        <ele>747.081543</ele>
        <time>2013-02-03T09:41:11Z</time>
      </trkpt>
      <trkpt lat="44.26167" lon="2.73257">
        <ele>749.4851074</ele>
        <time>2013-02-03T09:41:16Z</time>
      </trkpt>
      <trkpt lat="44.2618" lon="2.73262">
        <ele>748.0432129</ele>
        <time>2013-02-03T09:41:21Z</time>
      </trkpt>
      <trkpt lat="44.26193" lon="2.73275">
        <ele>747.081543</ele>
        <time>2013-02-03T09:41:27Z</time>
      </trkpt>
      <trkpt lat="44.26202" lon="2.73285">
        <ele>748.0432129</ele>
        <time>2013-02-03T09:41:31Z</time>
      </trkpt>
      <trkpt lat="44.26209" lon="2.73294">
        <ele>748.0432129</ele>
        <time>2013-02-03T09:41:35Z</time>
      </trkpt>
      <trkpt lat="44.26221" lon="2.73306">
        <ele>749.4851074</ele>
        <time>2013-02-03T09:41:41Z</time>
      </trkpt>
      <trkpt lat="44.2623" lon="2.73318">
        <ele>749.0043945</ele>
        <time>2013-02-03T09:41:46Z</time>
      </trkpt>
      <trkpt lat="44.26235" lon="2.7333">
        <ele>748.0432129</ele>
        <time>2013-02-03T09:41:51Z</time>
      </trkpt>
      <trkpt lat="44.2624" lon="2.73344">
        <ele>748.5236816</ele>
        <time>2013-02-03T09:41:56Z</time>
      </trkpt>
      <trkpt lat="44.26242" lon="2.73354">
        <ele>749.9658203</ele>
        <time>2013-02-03T09:42:01Z</time>
      </trkpt>
      <trkpt lat="44.26245" lon="2.73373">
        <ele>751.8884277</ele>
        <time>2013-02-03T09:42:07Z</time>
      </trkpt>
      <trkpt lat="44.26254" lon="2.73385">
        <ele>752.8496094</ele>
        <time>2013-02-03T09:42:13Z</time>
      </trkpt>
      <trkpt lat="44.26268" lon="2.73388">
        <ele>753.3303223</ele>
        <time>2013-02-03T09:42:19Z</time>
      </trkpt>
      <trkpt lat="44.26282" lon="2.7339">
        <ele>754.7722168</ele>
        <time>2013-02-03T09:42:25Z</time>
      </trkpt>
      <trkpt lat="44.26295" lon="2.73395">
        <ele>756.6948242</ele>
        <time>2013-02-03T09:42:31Z</time>
      </trkpt>
      <trkpt lat="44.26307" lon="2.73398">
        <ele>756.6948242</ele>
        <time>2013-02-03T09:42:37Z</time>
      </trkpt>
      <trkpt lat="44.2632" lon="2.73402">
        <ele>756.2141113</ele>
        <time>2013-02-03T09:42:44Z</time>
      </trkpt>
      <trkpt lat="44.26328" lon="2.73406">
        <ele>758.1369629</ele>
        <time>2013-02-03T09:42:48Z</time>
      </trkpt>
      <trkpt lat="44.26342" lon="2.73411">
        <ele>760.5400391</ele>
        <time>2013-02-03T09:42:54Z</time>
      </trkpt>
      <trkpt lat="44.26353" lon="2.7342">
        <ele>760.0593262</ele>
        <time>2013-02-03T09:43:00Z</time>
      </trkpt>
      <trkpt lat="44.26361" lon="2.7343">
        <ele>760.0593262</ele>
        <time>2013-02-03T09:43:05Z</time>
      </trkpt>
      <trkpt lat="44.26371" lon="2.73439">
        <ele>760.5400391</ele>
        <time>2013-02-03T09:43:10Z</time>
      </trkpt>
      <trkpt lat="44.2638" lon="2.73448">
        <ele>760.0593262</ele>
        <time>2013-02-03T09:43:14Z</time>
      </trkpt>
      <trkpt lat="44.26393" lon="2.73461">
        <ele>759.0981445</ele>
        <time>2013-02-03T09:43:20Z</time>
      </trkpt>
      <trkpt lat="44.26405" lon="2.7347">
        <ele>759.0981445</ele>
        <time>2013-02-03T09:43:25Z</time>
      </trkpt>
      <trkpt lat="44.26417" lon="2.73476">
        <ele>759.0981445</ele>
        <time>2013-02-03T09:43:30Z</time>
      </trkpt>
      <trkpt lat="44.26433" lon="2.73484">
        <ele>760.0593262</ele>
        <time>2013-02-03T09:43:36Z</time>
      </trkpt>
      <trkpt lat="44.26447" lon="2.73488">
        <ele>759.0981445</ele>
        <time>2013-02-03T09:43:41Z</time>
      </trkpt>
      <trkpt lat="44.26463" lon="2.73491">
        <ele>757.1755371</ele>
        <time>2013-02-03T09:43:46Z</time>
      </trkpt>
      <trkpt lat="44.26466" lon="2.73492">
        <ele>757.1755371</ele>
        <time>2013-02-03T09:43:47Z</time>
      </trkpt>
      <trkpt lat="44.26486" lon="2.73495">
        <ele>754.7722168</ele>
        <time>2013-02-03T09:43:54Z</time>
      </trkpt>
      <trkpt lat="44.26503" lon="2.73495">
        <ele>752.8496094</ele>
        <time>2013-02-03T09:44:00Z</time>
      </trkpt>
      <trkpt lat="44.26516" lon="2.73495">
        <ele>750.4465332</ele>
        <time>2013-02-03T09:44:05Z</time>
      </trkpt>
      <trkpt lat="44.2653" lon="2.73493">
        <ele>749.4851074</ele>
        <time>2013-02-03T09:44:10Z</time>
      </trkpt>
      <trkpt lat="44.26547" lon="2.7349">
        <ele>748.0432129</ele>
        <time>2013-02-03T09:44:16Z</time>
      </trkpt>
      <trkpt lat="44.26567" lon="2.73488">
        <ele>745.6396484</ele>
        <time>2013-02-03T09:44:23Z</time>
      </trkpt>
      <trkpt lat="44.26584" lon="2.73485">
        <ele>742.7558594</ele>
        <time>2013-02-03T09:44:29Z</time>
      </trkpt>
      <trkpt lat="44.266" lon="2.73483">
        <ele>740.3525391</ele>
        <time>2013-02-03T09:44:35Z</time>
      </trkpt>
      <trkpt lat="44.26615" lon="2.73481">
        <ele>738.4299316</ele>
        <time>2013-02-03T09:44:40Z</time>
      </trkpt>
      <trkpt lat="44.26633" lon="2.73478">
        <ele>737.4685059</ele>
        <time>2013-02-03T09:44:46Z</time>
      </trkpt>
      <trkpt lat="44.26647" lon="2.73475">
        <ele>736.0266113</ele>
        <time>2013-02-03T09:44:51Z</time>
      </trkpt>
      <trkpt lat="44.26665" lon="2.73472">
        <ele>735.5458984</ele>
        <time>2013-02-03T09:44:57Z</time>
      </trkpt>
      <trkpt lat="44.2668" lon="2.73469">
        <ele>734.5847168</ele>
        <time>2013-02-03T09:45:02Z</time>
      </trkpt>
      <trkpt lat="44.26693" lon="2.73462">
        <ele>733.623291</ele>
        <time>2013-02-03T09:45:07Z</time>
      </trkpt>
      <trkpt lat="44.26706" lon="2.7345">
        <ele>732.6621094</ele>
        <time>2013-02-03T09:45:12Z</time>
      </trkpt>
      <trkpt lat="44.26715" lon="2.73434">
        <ele>730.2585449</ele>
        <time>2013-02-03T09:45:17Z</time>
      </trkpt>
      <trkpt lat="44.26724" lon="2.73414">
        <ele>727.3747559</ele>
        <time>2013-02-03T09:45:23Z</time>
      </trkpt>
      <trkpt lat="44.26733" lon="2.73394">
        <ele>725.4519043</ele>
        <time>2013-02-03T09:45:29Z</time>
      </trkpt>
      <trkpt lat="44.26742" lon="2.73374">
        <ele>723.529541</ele>
        <time>2013-02-03T09:45:35Z</time>
      </trkpt>
      <trkpt lat="44.2675" lon="2.73353">
        <ele>722.5681152</ele>
        <time>2013-02-03T09:45:41Z</time>
      </trkpt>
      <trkpt lat="44.26758" lon="2.73333">
        <ele>721.1262207</ele>
        <time>2013-02-03T09:45:47Z</time>
      </trkpt>
      <trkpt lat="44.26765" lon="2.73314">
        <ele>720.6455078</ele>
        <time>2013-02-03T09:45:52Z</time>
      </trkpt>
      <trkpt lat="44.26771" lon="2.73297">
        <ele>720.6455078</ele>
        <time>2013-02-03T09:45:57Z</time>
      </trkpt>
      <trkpt lat="44.26775" lon="2.73283">
        <ele>720.1647949</ele>
        <time>2013-02-03T09:46:01Z</time>
      </trkpt>
      <trkpt lat="44.26783" lon="2.73264">
        <ele>718.7229004</ele>
        <time>2013-02-03T09:46:07Z</time>
      </trkpt>
      <trkpt lat="44.2679" lon="2.73245">
        <ele>717.7614746</ele>
        <time>2013-02-03T09:46:13Z</time>
      </trkpt>
      <trkpt lat="44.26794" lon="2.73226">
        <ele>717.2810059</ele>
        <time>2013-02-03T09:46:19Z</time>
      </trkpt>
      <trkpt lat="44.26796" lon="2.73213">
        <ele>718.2421875</ele>
        <time>2013-02-03T09:46:23Z</time>
      </trkpt>
      <trkpt lat="44.26797" lon="2.73192">
        <ele>719.6843262</ele>
        <time>2013-02-03T09:46:29Z</time>
      </trkpt>
      <trkpt lat="44.26798" lon="2.73174">
        <ele>721.1262207</ele>
        <time>2013-02-03T09:46:35Z</time>
      </trkpt>
      <trkpt lat="44.26799" lon="2.73158">
        <ele>722.5681152</ele>
        <time>2013-02-03T09:46:40Z</time>
      </trkpt>
      <trkpt lat="44.26803" lon="2.73141">
        <ele>723.529541</ele>
        <time>2013-02-03T09:46:46Z</time>
      </trkpt>
      <trkpt lat="44.26809" lon="2.73123">
        <ele>724.9714355</ele>
        <time>2013-02-03T09:46:53Z</time>
      </trkpt>
      <trkpt lat="44.26817" lon="2.73105">
        <ele>726.894043</ele>
        <time>2013-02-03T09:47:00Z</time>
      </trkpt>
      <trkpt lat="44.26827" lon="2.73091">
        <ele>728.3359375</ele>
        <time>2013-02-03T09:47:07Z</time>
      </trkpt>
      <trkpt lat="44.26835" lon="2.73078">
        <ele>729.777832</ele>
        <time>2013-02-03T09:47:13Z</time>
      </trkpt>
      <trkpt lat="44.26848" lon="2.73062">
        <ele>730.2585449</ele>
        <time>2013-02-03T09:47:20Z</time>
      </trkpt>
      <trkpt lat="44.26859" lon="2.73051">
        <ele>731.7004395</ele>
        <time>2013-02-03T09:47:26Z</time>
      </trkpt>
      <trkpt lat="44.26869" lon="2.73041">
        <ele>733.1425781</ele>
        <time>2013-02-03T09:47:31Z</time>
      </trkpt>
      <trkpt lat="44.26882" lon="2.73029">
        <ele>734.5847168</ele>
        <time>2013-02-03T09:47:38Z</time>
      </trkpt>
      <trkpt lat="44.26884" lon="2.73024">
        <ele>735.0654297</ele>
        <time>2013-02-03T09:47:44Z</time>
      </trkpt>
      <trkpt lat="44.26884" lon="2.73024">
        <ele>736.0266113</ele>
        <time>2013-02-03T09:47:51Z</time>
      </trkpt>
      <trkpt lat="44.26884" lon="2.73024">
        <ele>736.5073242</ele>
        <time>2013-02-03T09:47:55Z</time>
      </trkpt>
      <trkpt lat="44.26893" lon="2.73024">
        <ele>736.987793</ele>
        <time>2013-02-03T09:48:00Z</time>
      </trkpt>
      <trkpt lat="44.26907" lon="2.73019">
        <ele>737.9492188</ele>
        <time>2013-02-03T09:48:06Z</time>
      </trkpt>
      <trkpt lat="44.26918" lon="2.73012">
        <ele>738.4299316</ele>
        <time>2013-02-03T09:48:11Z</time>
      </trkpt>
      <trkpt lat="44.26932" lon="2.73001">
        <ele>740.3525391</ele>
        <time>2013-02-03T09:48:18Z</time>
      </trkpt>
      <trkpt lat="44.26942" lon="2.72992">
        <ele>741.3137207</ele>
        <time>2013-02-03T09:48:23Z</time>
      </trkpt>
      <trkpt lat="44.26953" lon="2.72981">
        <ele>741.3137207</ele>
        <time>2013-02-03T09:48:29Z</time>
      </trkpt>
      <trkpt lat="44.26964" lon="2.72974">
        <ele>742.2751465</ele>
        <time>2013-02-03T09:48:34Z</time>
      </trkpt>
      <trkpt lat="44.26977" lon="2.72965">
        <ele>743.717041</ele>
        <time>2013-02-03T09:48:40Z</time>
      </trkpt>
      <trkpt lat="44.26988" lon="2.7296">
        <ele>744.1977539</ele>
        <time>2013-02-03T09:48:45Z</time>
      </trkpt>
      <trkpt lat="44.27002" lon="2.72955">
        <ele>744.6782227</ele>
        <time>2013-02-03T09:48:51Z</time>
      </trkpt>
      <trkpt lat="44.2701" lon="2.72954">
        <ele>744.6782227</ele>
        <time>2013-02-03T09:48:55Z</time>
      </trkpt>
      <trkpt lat="44.27026" lon="2.72958">
        <ele>745.1589355</ele>
        <time>2013-02-03T09:49:02Z</time>
      </trkpt>
      <trkpt lat="44.27036" lon="2.72962">
        <ele>746.1203613</ele>
        <time>2013-02-03T09:49:07Z</time>
      </trkpt>
      <trkpt lat="44.27048" lon="2.72968">
        <ele>747.081543</ele>
        <time>2013-02-03T09:49:13Z</time>
      </trkpt>
      <trkpt lat="44.2706" lon="2.72976">
        <ele>748.5236816</ele>
        <time>2013-02-03T09:49:19Z</time>
      </trkpt>
      <trkpt lat="44.27074" lon="2.72985">
        <ele>749.4851074</ele>
        <time>2013-02-03T09:49:26Z</time>
      </trkpt>
      <trkpt lat="44.27087" lon="2.72993">
        <ele>750.4465332</ele>
        <time>2013-02-03T09:49:32Z</time>
      </trkpt>
      <trkpt lat="44.27101" lon="2.73001">
        <ele>751.8884277</ele>
        <time>2013-02-03T09:49:38Z</time>
      </trkpt>
      <trkpt lat="44.27113" lon="2.73009">
        <ele>752.8496094</ele>
        <time>2013-02-03T09:49:44Z</time>
      </trkpt>
      <trkpt lat="44.27129" lon="2.73016">
        <ele>753.3303223</ele>
        <time>2013-02-03T09:49:51Z</time>
      </trkpt>
      <trkpt lat="44.27141" lon="2.73017">
        <ele>753.8110352</ele>
        <time>2013-02-03T09:49:56Z</time>
      </trkpt>
      <trkpt lat="44.27154" lon="2.73021">
        <ele>754.291748</ele>
        <time>2013-02-03T09:50:01Z</time>
      </trkpt>
      <trkpt lat="44.27169" lon="2.73024">
        <ele>755.2529297</ele>
        <time>2013-02-03T09:50:07Z</time>
      </trkpt>
      <trkpt lat="44.27185" lon="2.73025">
        <ele>756.2141113</ele>
        <time>2013-02-03T09:50:14Z</time>
      </trkpt>
      <trkpt lat="44.27199" lon="2.73026">
        <ele>756.6948242</ele>
        <time>2013-02-03T09:50:20Z</time>
      </trkpt>
      <trkpt lat="44.27207" lon="2.73029">
        <ele>757.65625</ele>
        <time>2013-02-03T09:50:25Z</time>
      </trkpt>
      <trkpt lat="44.27221" lon="2.73032">
        <ele>758.6174316</ele>
        <time>2013-02-03T09:50:31Z</time>
      </trkpt>
      <trkpt lat="44.27231" lon="2.73038">
        <ele>760.0593262</ele>
        <time>2013-02-03T09:50:36Z</time>
      </trkpt>
      <trkpt lat="44.27246" lon="2.73047">
        <ele>761.020752</ele>
        <time>2013-02-03T09:50:43Z</time>
      </trkpt>
      <trkpt lat="44.2726" lon="2.73055">
        <ele>760.0593262</ele>
        <time>2013-02-03T09:50:49Z</time>
      </trkpt>
      <trkpt lat="44.27269" lon="2.73063">
        <ele>759.5788574</ele>
        <time>2013-02-03T09:50:53Z</time>
      </trkpt>
      <trkpt lat="44.27287" lon="2.73079">
        <ele>760.0593262</ele>
        <time>2013-02-03T09:51:01Z</time>
      </trkpt>
      <trkpt lat="44.27297" lon="2.73091">
        <ele>759.5788574</ele>
        <time>2013-02-03T09:51:06Z</time>
      </trkpt>
      <trkpt lat="44.27308" lon="2.73104">
        <ele>759.5788574</ele>
        <time>2013-02-03T09:51:11Z</time>
      </trkpt>
      <trkpt lat="44.27316" lon="2.73114">
        <ele>759.5788574</ele>
        <time>2013-02-03T09:51:15Z</time>
      </trkpt>
      <trkpt lat="44.27326" lon="2.73126">
        <ele>759.0981445</ele>
        <time>2013-02-03T09:51:20Z</time>
      </trkpt>
      <trkpt lat="44.27333" lon="2.73136">
        <ele>758.6174316</ele>
        <time>2013-02-03T09:51:24Z</time>
      </trkpt>
      <trkpt lat="44.2734" lon="2.73147">
        <ele>757.1755371</ele>
        <time>2013-02-03T09:51:28Z</time>
      </trkpt>
      <trkpt lat="44.27354" lon="2.73166">
        <ele>755.7336426</ele>
        <time>2013-02-03T09:51:35Z</time>
      </trkpt>
      <trkpt lat="44.27367" lon="2.73177">
        <ele>754.7722168</ele>
        <time>2013-02-03T09:51:40Z</time>
      </trkpt>
      <trkpt lat="44.27378" lon="2.73182">
        <ele>754.291748</ele>
        <time>2013-02-03T09:51:44Z</time>
      </trkpt>
      <trkpt lat="44.2739" lon="2.73188">
        <ele>754.291748</ele>
        <time>2013-02-03T09:51:49Z</time>
      </trkpt>
      <trkpt lat="44.27403" lon="2.73189">
        <ele>754.291748</ele>
        <time>2013-02-03T09:51:54Z</time>
      </trkpt>
      <trkpt lat="44.27421" lon="2.73192">
        <ele>754.7722168</ele>
        <time>2013-02-03T09:52:00Z</time>
      </trkpt>
      <trkpt lat="44.27437" lon="2.73194">
        <ele>754.7722168</ele>
        <time>2013-02-03T09:52:06Z</time>
      </trkpt>
      <trkpt lat="44.27451" lon="2.732">
        <ele>754.7722168</ele>
        <time>2013-02-03T09:52:11Z</time>
      </trkpt>
      <trkpt lat="44.27465" lon="2.7321">
        <ele>752.8496094</ele>
        <time>2013-02-03T09:52:17Z</time>
      </trkpt>
      <trkpt lat="44.2747" lon="2.73214">
        <ele>752.3688965</ele>
        <time>2013-02-03T09:52:19Z</time>
      </trkpt>
      <trkpt lat="44.27482" lon="2.73225">
        <ele>749.4851074</ele>
        <time>2013-02-03T09:52:25Z</time>
      </trkpt>
      <trkpt lat="44.27498" lon="2.73238">
        <ele>746.6010742</ele>
        <time>2013-02-03T09:52:32Z</time>
      </trkpt>
      <trkpt lat="44.27512" lon="2.73242">
        <ele>747.081543</ele>
        <time>2013-02-03T09:52:37Z</time>
      </trkpt>
      <trkpt lat="44.27532" lon="2.73241">
        <ele>746.1203613</ele>
        <time>2013-02-03T09:52:43Z</time>
      </trkpt>
      <trkpt lat="44.27547" lon="2.73239">
        <ele>745.6396484</ele>
        <time>2013-02-03T09:52:48Z</time>
      </trkpt>
      <trkpt lat="44.2756" lon="2.73236">
        <ele>745.6396484</ele>
        <time>2013-02-03T09:52:53Z</time>
      </trkpt>
      <trkpt lat="44.27577" lon="2.73233">
        <ele>744.1977539</ele>
        <time>2013-02-03T09:52:59Z</time>
      </trkpt>
      <trkpt lat="44.2759" lon="2.73232">
        <ele>742.2751465</ele>
        <time>2013-02-03T09:53:04Z</time>
      </trkpt>
      <trkpt lat="44.27601" lon="2.73231">
        <ele>740.3525391</ele>
        <time>2013-02-03T09:53:08Z</time>
      </trkpt>
      <trkpt lat="44.27614" lon="2.73229">
        <ele>737.9492188</ele>
        <time>2013-02-03T09:53:13Z</time>
      </trkpt>
      <trkpt lat="44.27629" lon="2.73228">
        <ele>733.623291</ele>
        <time>2013-02-03T09:53:19Z</time>
      </trkpt>
      <trkpt lat="44.27645" lon="2.73232">
        <ele>727.3747559</ele>
        <time>2013-02-03T09:53:25Z</time>
      </trkpt>
      <trkpt lat="44.2765" lon="2.73233">
        <ele>726.894043</ele>
        <time>2013-02-03T09:53:27Z</time>
      </trkpt>
      <trkpt lat="44.27654" lon="2.73236">
        <ele>724.9714355</ele>
        <time>2013-02-03T09:53:29Z</time>
      </trkpt>
      <trkpt lat="44.27657" lon="2.73238">
        <ele>724.4907227</ele>
        <time>2013-02-03T09:53:31Z</time>
      </trkpt>
      <trkpt lat="44.27659" lon="2.7324">
        <ele>722.0874023</ele>
        <time>2013-02-03T09:53:33Z</time>
      </trkpt>
      <trkpt lat="44.27663" lon="2.73244">
        <ele>718.2421875</ele>
        <time>2013-02-03T09:53:38Z</time>
      </trkpt>
      <trkpt lat="44.27673" lon="2.73248">
        <ele>718.2421875</ele>
        <time>2013-02-03T09:53:43Z</time>
      </trkpt>
      <trkpt lat="44.27676" lon="2.73249">
        <ele>718.2421875</ele>
        <time>2013-02-03T09:53:44Z</time>
      </trkpt>
      <trkpt lat="44.27691" lon="2.73256">
        <ele>713.4355469</ele>
        <time>2013-02-03T09:53:51Z</time>
      </trkpt>
      <trkpt lat="44.27693" lon="2.73257">
        <ele>712.4741211</ele>
        <time>2013-02-03T09:53:52Z</time>
      </trkpt>
      <trkpt lat="44.27701" lon="2.73257">
        <ele>711.5129395</ele>
        <time>2013-02-03T09:53:56Z</time>
      </trkpt>
      <trkpt lat="44.2771" lon="2.73249">
        <ele>711.9936523</ele>
        <time>2013-02-03T09:54:01Z</time>
      </trkpt>
      <trkpt lat="44.27719" lon="2.73229">
        <ele>709.1096191</ele>
        <time>2013-02-03T09:54:07Z</time>
      </trkpt>
      <trkpt lat="44.27725" lon="2.73206">
        <ele>705.2644043</ele>
        <time>2013-02-03T09:54:13Z</time>
      </trkpt>
      <trkpt lat="44.27729" lon="2.73181">
        <ele>702.861084</ele>
        <time>2013-02-03T09:54:19Z</time>
      </trkpt>
      <trkpt lat="44.2773" lon="2.73164">
        <ele>702.3803711</ele>
        <time>2013-02-03T09:54:23Z</time>
      </trkpt>
      <trkpt lat="44.27733" lon="2.73138">
        <ele>702.3803711</ele>
        <time>2013-02-03T09:54:29Z</time>
      </trkpt>
      <trkpt lat="44.27737" lon="2.73115">
        <ele>700.4580078</ele>
        <time>2013-02-03T09:54:35Z</time>
      </trkpt>
      <trkpt lat="44.27738" lon="2.73095">
        <ele>698.0544434</ele>
        <time>2013-02-03T09:54:40Z</time>
      </trkpt>
      <trkpt lat="44.2774" lon="2.73074">
        <ele>696.1318359</ele>
        <time>2013-02-03T09:54:45Z</time>
      </trkpt>
      <trkpt lat="44.27745" lon="2.7305">
        <ele>695.1704102</ele>
        <time>2013-02-03T09:54:51Z</time>
      </trkpt>
      <trkpt lat="44.27748" lon="2.73039">
        <ele>693.7285156</ele>
        <time>2013-02-03T09:54:54Z</time>
      </trkpt>
      <trkpt lat="44.27756" lon="2.73021">
        <ele>693.2478027</ele>
        <time>2013-02-03T09:54:59Z</time>
      </trkpt>
      <trkpt lat="44.2776" lon="2.73003">
        <ele>690.8444824</ele>
        <time>2013-02-03T09:55:04Z</time>
      </trkpt>
      <trkpt lat="44.27768" lon="2.72983">
        <ele>691.3251953</ele>
        <time>2013-02-03T09:55:10Z</time>
      </trkpt>
      <trkpt lat="44.27776" lon="2.7297">
        <ele>691.3251953</ele>
        <time>2013-02-03T09:55:14Z</time>
      </trkpt>
      <trkpt lat="44.27787" lon="2.72959">
        <ele>692.2866211</ele>
        <time>2013-02-03T09:55:19Z</time>
      </trkpt>
      <trkpt lat="44.27801" lon="2.7295">
        <ele>692.2866211</ele>
        <time>2013-02-03T09:55:25Z</time>
      </trkpt>
      <trkpt lat="44.27812" lon="2.72944">
        <ele>692.767334</ele>
        <time>2013-02-03T09:55:30Z</time>
      </trkpt>
      <trkpt lat="44.2782" lon="2.7294">
        <ele>691.8059082</ele>
        <time>2013-02-03T09:55:34Z</time>
      </trkpt>
      <trkpt lat="44.27827" lon="2.72938">
        <ele>689.4025879</ele>
        <time>2013-02-03T09:55:40Z</time>
      </trkpt>
      <trkpt lat="44.2784" lon="2.72926">
        <ele>687.9606934</ele>
        <time>2013-02-03T09:55:47Z</time>
      </trkpt>
      <trkpt lat="44.27844" lon="2.72922">
        <ele>687.4799805</ele>
        <time>2013-02-03T09:55:51Z</time>
      </trkpt>
      <trkpt lat="44.27847" lon="2.72923">
        <ele>687.4799805</ele>
        <time>2013-02-03T09:56:05Z</time>
      </trkpt>
      <trkpt lat="44.27849" lon="2.72923">
        <ele>687.9606934</ele>
        <time>2013-02-03T09:56:17Z</time>
      </trkpt>
      <trkpt lat="44.27848" lon="2.72926">
        <ele>687.4799805</ele>
        <time>2013-02-03T09:56:21Z</time>
      </trkpt>
      <trkpt lat="44.27848" lon="2.72927">
        <ele>688.4414063</ele>
        <time>2013-02-03T09:56:29Z</time>
      </trkpt>
      <trkpt lat="44.27856" lon="2.72932">
        <ele>687.4799805</ele>
        <time>2013-02-03T09:56:34Z</time>
      </trkpt>
      <trkpt lat="44.27859" lon="2.72931">
        <ele>686.9992676</ele>
        <time>2013-02-03T09:56:35Z</time>
      </trkpt>
      <trkpt lat="44.27873" lon="2.72924">
        <ele>686.0380859</ele>
        <time>2013-02-03T09:56:41Z</time>
      </trkpt>
      <trkpt lat="44.27878" lon="2.7292">
        <ele>686.0380859</ele>
        <time>2013-02-03T09:56:43Z</time>
      </trkpt>
      <trkpt lat="44.27893" lon="2.72916">
        <ele>684.1154785</ele>
        <time>2013-02-03T09:56:49Z</time>
      </trkpt>
      <trkpt lat="44.27906" lon="2.72918">
        <ele>685.0769043</ele>
        <time>2013-02-03T09:56:54Z</time>
      </trkpt>
      <trkpt lat="44.27917" lon="2.72913">
        <ele>686.9992676</ele>
        <time>2013-02-03T09:56:58Z</time>
      </trkpt>
      <trkpt lat="44.27923" lon="2.72911">
        <ele>689.8833008</ele>
        <time>2013-02-03T09:57:02Z</time>
      </trkpt>
      <trkpt lat="44.27934" lon="2.72908">
        <ele>690.8444824</ele>
        <time>2013-02-03T09:57:07Z</time>
      </trkpt>
      <trkpt lat="44.27947" lon="2.72901">
        <ele>691.8059082</ele>
        <time>2013-02-03T09:57:12Z</time>
      </trkpt>
      <trkpt lat="44.27959" lon="2.72897">
        <ele>696.1318359</ele>
        <time>2013-02-03T09:57:17Z</time>
      </trkpt>
      <trkpt lat="44.27971" lon="2.7289">
        <ele>699.9770508</ele>
        <time>2013-02-03T09:57:22Z</time>
      </trkpt>
      <trkpt lat="44.27977" lon="2.72889">
        <ele>699.015625</ele>
        <time>2013-02-03T09:57:24Z</time>
      </trkpt>
      <trkpt lat="44.27991" lon="2.72885">
        <ele>695.1704102</ele>
        <time>2013-02-03T09:57:29Z</time>
      </trkpt>
      <trkpt lat="44.28003" lon="2.72876">
        <ele>693.2478027</ele>
        <time>2013-02-03T09:57:35Z</time>
      </trkpt>
      <trkpt lat="44.28005" lon="2.72875">
        <ele>692.767334</ele>
        <time>2013-02-03T09:57:36Z</time>
      </trkpt>
      <trkpt lat="44.28019" lon="2.72865">
        <ele>694.2092285</ele>
        <time>2013-02-03T09:57:42Z</time>
      </trkpt>
      <trkpt lat="44.2803" lon="2.72858">
        <ele>694.6896973</ele>
        <time>2013-02-03T09:57:47Z</time>
      </trkpt>
      <trkpt lat="44.28044" lon="2.72853">
        <ele>696.1318359</ele>
        <time>2013-02-03T09:57:53Z</time>
      </trkpt>
      <trkpt lat="44.28056" lon="2.72843">
        <ele>700.4580078</ele>
        <time>2013-02-03T09:57:59Z</time>
      </trkpt>
      <trkpt lat="44.28066" lon="2.72834">
        <ele>711.0322266</ele>
        <time>2013-02-03T09:58:05Z</time>
      </trkpt>
      <trkpt lat="44.28072" lon="2.72831">
        <ele>713.4355469</ele>
        <time>2013-02-03T09:58:08Z</time>
      </trkpt>
      <trkpt lat="44.28082" lon="2.72828">
        <ele>711.5129395</ele>
        <time>2013-02-03T09:58:12Z</time>
      </trkpt>
      <trkpt lat="44.28094" lon="2.72818">
        <ele>708.6289063</ele>
        <time>2013-02-03T09:58:18Z</time>
      </trkpt>
      <trkpt lat="44.28105" lon="2.72809">
        <ele>707.1870117</ele>
        <time>2013-02-03T09:58:24Z</time>
      </trkpt>
      <trkpt lat="44.28115" lon="2.72801">
        <ele>706.7062988</ele>
        <time>2013-02-03T09:58:29Z</time>
      </trkpt>
      <trkpt lat="44.28127" lon="2.72789">
        <ele>709.1096191</ele>
        <time>2013-02-03T09:58:36Z</time>
      </trkpt>
      <trkpt lat="44.28138" lon="2.72779">
        <ele>711.9936523</ele>
        <time>2013-02-03T09:58:42Z</time>
      </trkpt>
      <trkpt lat="44.28148" lon="2.72774">
        <ele>713.4355469</ele>
        <time>2013-02-03T09:58:47Z</time>
      </trkpt>
      <trkpt lat="44.28162" lon="2.72764">
        <ele>714.3967285</ele>
        <time>2013-02-03T09:58:54Z</time>
      </trkpt>
      <trkpt lat="44.28173" lon="2.72756">
        <ele>714.3967285</ele>
        <time>2013-02-03T09:59:00Z</time>
      </trkpt>
      <trkpt lat="44.28182" lon="2.72749">
        <ele>713.9160156</ele>
        <time>2013-02-03T09:59:05Z</time>
      </trkpt>
      <trkpt lat="44.28194" lon="2.72738">
        <ele>715.3581543</ele>
        <time>2013-02-03T09:59:11Z</time>
      </trkpt>
      <trkpt lat="44.28203" lon="2.72732">
        <ele>718.7229004</ele>
        <time>2013-02-03T09:59:16Z</time>
      </trkpt>
      <trkpt lat="44.28214" lon="2.72719">
        <ele>721.1262207</ele>
        <time>2013-02-03T09:59:23Z</time>
      </trkpt>
      <trkpt lat="44.28223" lon="2.72714">
        <ele>721.1262207</ele>
        <time>2013-02-03T09:59:28Z</time>
      </trkpt>
      <trkpt lat="44.28236" lon="2.72706">
        <ele>724.4907227</ele>
        <time>2013-02-03T09:59:33Z</time>
      </trkpt>
      <trkpt lat="44.28245" lon="2.7269">
        <ele>724.0100098</ele>
        <time>2013-02-03T09:59:39Z</time>
      </trkpt>
      <trkpt lat="44.28254" lon="2.72681">
        <ele>723.529541</ele>
        <time>2013-02-03T09:59:44Z</time>
      </trkpt>
      <trkpt lat="44.28265" lon="2.72668">
        <ele>724.0100098</ele>
        <time>2013-02-03T09:59:50Z</time>
      </trkpt>
      <trkpt lat="44.28272" lon="2.72657">
        <ele>724.0100098</ele>
        <time>2013-02-03T09:59:56Z</time>
      </trkpt>
      <trkpt lat="44.28274" lon="2.72655">
        <ele>724.0100098</ele>
        <time>2013-02-03T09:59:59Z</time>
      </trkpt>
      <trkpt lat="44.28287" lon="2.72647">
        <ele>725.9326172</ele>
        <time>2013-02-03T10:00:05Z</time>
      </trkpt>
      <trkpt lat="44.28298" lon="2.72637">
        <ele>728.3359375</ele>
        <time>2013-02-03T10:00:10Z</time>
      </trkpt>
      <trkpt lat="44.28302" lon="2.7263">
        <ele>727.8552246</ele>
        <time>2013-02-03T10:00:13Z</time>
      </trkpt>
      <trkpt lat="44.28312" lon="2.72615">
        <ele>727.8552246</ele>
        <time>2013-02-03T10:00:21Z</time>
      </trkpt>
      <trkpt lat="44.28319" lon="2.72606">
        <ele>729.2971191</ele>
        <time>2013-02-03T10:00:26Z</time>
      </trkpt>
      <trkpt lat="44.28331" lon="2.7259">
        <ele>730.7392578</ele>
        <time>2013-02-03T10:00:34Z</time>
      </trkpt>
      <trkpt lat="44.28342" lon="2.72575">
        <ele>731.7004395</ele>
        <time>2013-02-03T10:00:41Z</time>
      </trkpt>
      <trkpt lat="44.28351" lon="2.72564">
        <ele>733.1425781</ele>
        <time>2013-02-03T10:00:47Z</time>
      </trkpt>
      <trkpt lat="44.28361" lon="2.72553">
        <ele>733.1425781</ele>
        <time>2013-02-03T10:00:53Z</time>
      </trkpt>
      <trkpt lat="44.28369" lon="2.72546">
        <ele>734.5847168</ele>
        <time>2013-02-03T10:00:58Z</time>
      </trkpt>
      <trkpt lat="44.28381" lon="2.7254">
        <ele>736.0266113</ele>
        <time>2013-02-03T10:01:05Z</time>
      </trkpt>
      <trkpt lat="44.28392" lon="2.72532">
        <ele>737.9492188</ele>
        <time>2013-02-03T10:01:11Z</time>
      </trkpt>
      <trkpt lat="44.28404" lon="2.72521">
        <ele>740.3525391</ele>
        <time>2013-02-03T10:01:18Z</time>
      </trkpt>
      <trkpt lat="44.28411" lon="2.72509">
        <ele>742.7558594</ele>
        <time>2013-02-03T10:01:24Z</time>
      </trkpt>
      <trkpt lat="44.28416" lon="2.72492">
        <ele>743.2363281</ele>
        <time>2013-02-03T10:01:30Z</time>
      </trkpt>
      <trkpt lat="44.28421" lon="2.72476">
        <ele>743.2363281</ele>
        <time>2013-02-03T10:01:36Z</time>
      </trkpt>
      <trkpt lat="44.28426" lon="2.72461">
        <ele>743.2363281</ele>
        <time>2013-02-03T10:01:41Z</time>
      </trkpt>
      <trkpt lat="44.2843" lon="2.72449">
        <ele>743.717041</ele>
        <time>2013-02-03T10:01:45Z</time>
      </trkpt>
      <trkpt lat="44.28435" lon="2.72434">
        <ele>743.2363281</ele>
        <time>2013-02-03T10:01:51Z</time>
      </trkpt>
      <trkpt lat="44.28439" lon="2.72422">
        <ele>742.7558594</ele>
        <time>2013-02-03T10:01:56Z</time>
      </trkpt>
      <trkpt lat="44.28446" lon="2.72407">
        <ele>742.7558594</ele>
        <time>2013-02-03T10:02:02Z</time>
      </trkpt>
      <trkpt lat="44.28455" lon="2.72392">
        <ele>743.2363281</ele>
        <time>2013-02-03T10:02:08Z</time>
      </trkpt>
      <trkpt lat="44.28462" lon="2.72379">
        <ele>744.1977539</ele>
        <time>2013-02-03T10:02:13Z</time>
      </trkpt>
      <trkpt lat="44.28469" lon="2.72368">
        <ele>744.6782227</ele>
        <time>2013-02-03T10:02:18Z</time>
      </trkpt>
      <trkpt lat="44.28478" lon="2.72356">
        <ele>746.6010742</ele>
        <time>2013-02-03T10:02:23Z</time>
      </trkpt>
      <trkpt lat="44.28483" lon="2.72351">
        <ele>749.9658203</ele>
        <time>2013-02-03T10:02:27Z</time>
      </trkpt>
      <trkpt lat="44.28494" lon="2.7234">
        <ele>748.0432129</ele>
        <time>2013-02-03T10:02:33Z</time>
      </trkpt>
      <trkpt lat="44.28499" lon="2.72335">
        <ele>748.0432129</ele>
        <time>2013-02-03T10:02:38Z</time>
      </trkpt>
      <trkpt lat="44.28501" lon="2.72335">
        <ele>747.5622559</ele>
        <time>2013-02-03T10:02:39Z</time>
      </trkpt>
      <trkpt lat="44.28508" lon="2.72328">
        <ele>746.6010742</ele>
        <time>2013-02-03T10:02:47Z</time>
      </trkpt>
      <trkpt lat="44.28512" lon="2.72325">
        <ele>745.6396484</ele>
        <time>2013-02-03T10:02:50Z</time>
      </trkpt>
      <trkpt lat="44.28517" lon="2.72321">
        <ele>745.6396484</ele>
        <time>2013-02-03T10:02:53Z</time>
      </trkpt>
      <trkpt lat="44.28526" lon="2.72312">
        <ele>746.1203613</ele>
        <time>2013-02-03T10:03:01Z</time>
      </trkpt>
      <trkpt lat="44.2853" lon="2.72307">
        <ele>747.081543</ele>
        <time>2013-02-03T10:03:06Z</time>
      </trkpt>
      <trkpt lat="44.28536" lon="2.72298">
        <ele>748.5236816</ele>
        <time>2013-02-03T10:03:16Z</time>
      </trkpt>
      <trkpt lat="44.2854" lon="2.72291">
        <ele>749.4851074</ele>
        <time>2013-02-03T10:03:24Z</time>
      </trkpt>
      <trkpt lat="44.28546" lon="2.72281">
        <ele>749.0043945</ele>
        <time>2013-02-03T10:03:32Z</time>
      </trkpt>
      <trkpt lat="44.28554" lon="2.72269">
        <ele>748.5236816</ele>
        <time>2013-02-03T10:03:40Z</time>
      </trkpt>
      <trkpt lat="44.28563" lon="2.72254">
        <ele>749.4851074</ele>
        <time>2013-02-03T10:03:49Z</time>
      </trkpt>
      <trkpt lat="44.28569" lon="2.72241">
        <ele>749.4851074</ele>
        <time>2013-02-03T10:03:57Z</time>
      </trkpt>
      <trkpt lat="44.2857" lon="2.7224">
        <ele>749.4851074</ele>
        <time>2013-02-03T10:03:58Z</time>
      </trkpt>
      <trkpt lat="44.28574" lon="2.7223">
        <ele>749.0043945</ele>
        <time>2013-02-03T10:04:04Z</time>
      </trkpt>
      <trkpt lat="44.28576" lon="2.72226">
        <ele>748.0432129</ele>
        <time>2013-02-03T10:04:07Z</time>
      </trkpt>
      <trkpt lat="44.2858" lon="2.72217">
        <ele>745.6396484</ele>
        <time>2013-02-03T10:04:16Z</time>
      </trkpt>
      <trkpt lat="44.28583" lon="2.7221">
        <ele>745.6396484</ele>
        <time>2013-02-03T10:04:22Z</time>
      </trkpt>
      <trkpt lat="44.28586" lon="2.722">
        <ele>748.5236816</ele>
        <time>2013-02-03T10:04:28Z</time>
      </trkpt>
      <trkpt lat="44.28587" lon="2.72188">
        <ele>749.4851074</ele>
        <time>2013-02-03T10:04:35Z</time>
      </trkpt>
      <trkpt lat="44.28588" lon="2.7218">
        <ele>748.0432129</ele>
        <time>2013-02-03T10:04:41Z</time>
      </trkpt>
      <trkpt lat="44.28586" lon="2.72175">
        <ele>751.4077148</ele>
        <time>2013-02-03T10:04:51Z</time>
      </trkpt>
      <trkpt lat="44.28583" lon="2.72168">
        <ele>751.8884277</ele>
        <time>2013-02-03T10:04:56Z</time>
      </trkpt>
      <trkpt lat="44.28582" lon="2.72165">
        <ele>751.8884277</ele>
        <time>2013-02-03T10:04:58Z</time>
      </trkpt>
      <trkpt lat="44.28583" lon="2.72153">
        <ele>751.4077148</ele>
        <time>2013-02-03T10:05:05Z</time>
      </trkpt>
      <trkpt lat="44.28583" lon="2.72148">
        <ele>751.4077148</ele>
        <time>2013-02-03T10:05:08Z</time>
      </trkpt>
      <trkpt lat="44.28584" lon="2.72133">
        <ele>750.927002</ele>
        <time>2013-02-03T10:05:17Z</time>
      </trkpt>
      <trkpt lat="44.28587" lon="2.72115">
        <ele>751.8884277</ele>
        <time>2013-02-03T10:05:23Z</time>
      </trkpt>
      <trkpt lat="44.2859" lon="2.72096">
        <ele>753.3303223</ele>
        <time>2013-02-03T10:05:30Z</time>
      </trkpt>
      <trkpt lat="44.28593" lon="2.72084">
        <ele>752.8496094</ele>
        <time>2013-02-03T10:05:35Z</time>
      </trkpt>
      <trkpt lat="44.28595" lon="2.72068">
        <ele>752.8496094</ele>
        <time>2013-02-03T10:05:40Z</time>
      </trkpt>
      <trkpt lat="44.28597" lon="2.7205">
        <ele>752.8496094</ele>
        <time>2013-02-03T10:05:46Z</time>
      </trkpt>
      <trkpt lat="44.286" lon="2.72033">
        <ele>752.8496094</ele>
        <time>2013-02-03T10:05:51Z</time>
      </trkpt>
      <trkpt lat="44.28602" lon="2.72027">
        <ele>753.3303223</ele>
        <time>2013-02-03T10:05:53Z</time>
      </trkpt>
      <trkpt lat="44.28605" lon="2.72019">
        <ele>754.291748</ele>
        <time>2013-02-03T10:05:58Z</time>
      </trkpt>
      <trkpt lat="44.28606" lon="2.72013">
        <ele>754.7722168</ele>
        <time>2013-02-03T10:06:00Z</time>
      </trkpt>
      <trkpt lat="44.28613" lon="2.71989">
        <ele>755.2529297</ele>
        <time>2013-02-03T10:06:07Z</time>
      </trkpt>
      <trkpt lat="44.28618" lon="2.71972">
        <ele>753.8110352</ele>
        <time>2013-02-03T10:06:13Z</time>
      </trkpt>
      <trkpt lat="44.2862" lon="2.71969">
        <ele>753.8110352</ele>
        <time>2013-02-03T10:06:15Z</time>
      </trkpt>
      <trkpt lat="44.28623" lon="2.71949">
        <ele>754.291748</ele>
        <time>2013-02-03T10:06:21Z</time>
      </trkpt>
      <trkpt lat="44.28626" lon="2.71928">
        <ele>754.7722168</ele>
        <time>2013-02-03T10:06:26Z</time>
      </trkpt>
      <trkpt lat="44.28629" lon="2.71909">
        <ele>754.7722168</ele>
        <time>2013-02-03T10:06:31Z</time>
      </trkpt>
      <trkpt lat="44.28631" lon="2.71896">
        <ele>754.7722168</ele>
        <time>2013-02-03T10:06:35Z</time>
      </trkpt>
      <trkpt lat="44.28635" lon="2.71878">
        <ele>753.8110352</ele>
        <time>2013-02-03T10:06:40Z</time>
      </trkpt>
      <trkpt lat="44.28639" lon="2.71859">
        <ele>753.3303223</ele>
        <time>2013-02-03T10:06:45Z</time>
      </trkpt>
      <trkpt lat="44.28645" lon="2.71844">
        <ele>751.8884277</ele>
        <time>2013-02-03T10:06:50Z</time>
      </trkpt>
      <trkpt lat="44.28648" lon="2.7183">
        <ele>750.927002</ele>
        <time>2013-02-03T10:06:54Z</time>
      </trkpt>
      <trkpt lat="44.28653" lon="2.71816">
        <ele>750.927002</ele>
        <time>2013-02-03T10:06:58Z</time>
      </trkpt>
      <trkpt lat="44.28661" lon="2.71803">
        <ele>749.4851074</ele>
        <time>2013-02-03T10:07:03Z</time>
      </trkpt>
      <trkpt lat="44.28671" lon="2.71787">
        <ele>749.9658203</ele>
        <time>2013-02-03T10:07:09Z</time>
      </trkpt>
      <trkpt lat="44.2868" lon="2.71775">
        <ele>749.4851074</ele>
        <time>2013-02-03T10:07:14Z</time>
      </trkpt>
      <trkpt lat="44.28688" lon="2.71762">
        <ele>748.5236816</ele>
        <time>2013-02-03T10:07:19Z</time>
      </trkpt>
      <trkpt lat="44.28693" lon="2.71746">
        <ele>749.0043945</ele>
        <time>2013-02-03T10:07:24Z</time>
      </trkpt>
      <trkpt lat="44.287" lon="2.7173">
        <ele>748.0432129</ele>
        <time>2013-02-03T10:07:29Z</time>
      </trkpt>
      <trkpt lat="44.28707" lon="2.71714">
        <ele>747.081543</ele>
        <time>2013-02-03T10:07:34Z</time>
      </trkpt>
      <trkpt lat="44.28712" lon="2.71696">
        <ele>748.0432129</ele>
        <time>2013-02-03T10:07:39Z</time>
      </trkpt>
      <trkpt lat="44.28719" lon="2.71676">
        <ele>748.5236816</ele>
        <time>2013-02-03T10:07:45Z</time>
      </trkpt>
      <trkpt lat="44.28725" lon="2.71665">
        <ele>749.0043945</ele>
        <time>2013-02-03T10:07:49Z</time>
      </trkpt>
      <trkpt lat="44.28728" lon="2.71665">
        <ele>751.4077148</ele>
        <time>2013-02-03T10:07:54Z</time>
      </trkpt>
      <trkpt lat="44.28746" lon="2.71671">
        <ele>751.8884277</ele>
        <time>2013-02-03T10:08:01Z</time>
      </trkpt>
      <trkpt lat="44.28753" lon="2.71672">
        <ele>751.4077148</ele>
        <time>2013-02-03T10:08:04Z</time>
      </trkpt>
      <trkpt lat="44.28764" lon="2.71656">
        <ele>750.4465332</ele>
        <time>2013-02-03T10:08:10Z</time>
      </trkpt>
      <trkpt lat="44.28771" lon="2.71642">
        <ele>749.9658203</ele>
        <time>2013-02-03T10:08:14Z</time>
      </trkpt>
      <trkpt lat="44.28775" lon="2.71629">
        <ele>749.0043945</ele>
        <time>2013-02-03T10:08:18Z</time>
      </trkpt>
      <trkpt lat="44.28772" lon="2.71613">
        <ele>747.5622559</ele>
        <time>2013-02-03T10:08:23Z</time>
      </trkpt>
      <trkpt lat="44.28771" lon="2.71611">
        <ele>747.5622559</ele>
        <time>2013-02-03T10:08:24Z</time>
      </trkpt>
      <trkpt lat="44.2876" lon="2.71596">
        <ele>749.9658203</ele>
        <time>2013-02-03T10:08:30Z</time>
      </trkpt>
      <trkpt lat="44.28763" lon="2.71581">
        <ele>750.4465332</ele>
        <time>2013-02-03T10:08:35Z</time>
      </trkpt>
      <trkpt lat="44.28768" lon="2.71576">
        <ele>750.4465332</ele>
        <time>2013-02-03T10:08:37Z</time>
      </trkpt>
      <trkpt lat="44.28772" lon="2.71556">
        <ele>751.4077148</ele>
        <time>2013-02-03T10:08:43Z</time>
      </trkpt>
      <trkpt lat="44.28778" lon="2.71541">
        <ele>750.4465332</ele>
        <time>2013-02-03T10:08:48Z</time>
      </trkpt>
      <trkpt lat="44.28776" lon="2.71526">
        <ele>751.4077148</ele>
        <time>2013-02-03T10:08:52Z</time>
      </trkpt>
      <trkpt lat="44.28775" lon="2.71515">
        <ele>750.927002</ele>
        <time>2013-02-03T10:08:55Z</time>
      </trkpt>
      <trkpt lat="44.28786" lon="2.715">
        <ele>751.4077148</ele>
        <time>2013-02-03T10:09:01Z</time>
      </trkpt>
      <trkpt lat="44.28789" lon="2.71495">
        <ele>751.8884277</ele>
        <time>2013-02-03T10:09:03Z</time>
      </trkpt>
      <trkpt lat="44.28785" lon="2.71478">
        <ele>753.3303223</ele>
        <time>2013-02-03T10:09:09Z</time>
      </trkpt>
      <trkpt lat="44.28784" lon="2.71465">
        <ele>754.291748</ele>
        <time>2013-02-03T10:09:16Z</time>
      </trkpt>
      <trkpt lat="44.28783" lon="2.71455">
        <ele>755.7336426</ele>
        <time>2013-02-03T10:09:21Z</time>
      </trkpt>
      <trkpt lat="44.28782" lon="2.7144">
        <ele>757.65625</ele>
        <time>2013-02-03T10:09:26Z</time>
      </trkpt>
      <trkpt lat="44.28781" lon="2.71421">
        <ele>759.5788574</ele>
        <time>2013-02-03T10:09:31Z</time>
      </trkpt>
      <trkpt lat="44.28781" lon="2.71402">
        <ele>761.020752</ele>
        <time>2013-02-03T10:09:36Z</time>
      </trkpt>
      <trkpt lat="44.2878" lon="2.71383">
        <ele>761.020752</ele>
        <time>2013-02-03T10:09:41Z</time>
      </trkpt>
      <trkpt lat="44.28781" lon="2.71366">
        <ele>761.020752</ele>
        <time>2013-02-03T10:09:46Z</time>
      </trkpt>
      <trkpt lat="44.28782" lon="2.71356">
        <ele>761.020752</ele>
        <time>2013-02-03T10:09:50Z</time>
      </trkpt>
      <trkpt lat="44.28783" lon="2.71354">
        <ele>761.5014648</ele>
        <time>2013-02-03T10:09:56Z</time>
      </trkpt>
      <trkpt lat="44.28782" lon="2.71355">
        <ele>763.904541</ele>
        <time>2013-02-03T10:10:07Z</time>
      </trkpt>
      <trkpt lat="44.2878" lon="2.7135">
        <ele>764.8662109</ele>
        <time>2013-02-03T10:10:49Z</time>
      </trkpt>
      <trkpt lat="44.28776" lon="2.71347">
        <ele>764.8662109</ele>
        <time>2013-02-03T10:10:53Z</time>
      </trkpt>
      <trkpt lat="44.28763" lon="2.71343">
        <ele>764.385498</ele>
        <time>2013-02-03T10:11:02Z</time>
      </trkpt>
      <trkpt lat="44.28751" lon="2.71339">
        <ele>764.385498</ele>
        <time>2013-02-03T10:11:07Z</time>
      </trkpt>
      <trkpt lat="44.28738" lon="2.71337">
        <ele>763.904541</ele>
        <time>2013-02-03T10:11:12Z</time>
      </trkpt>
      <trkpt lat="44.28723" lon="2.7133">
        <ele>762.9433594</ele>
        <time>2013-02-03T10:11:18Z</time>
      </trkpt>
      <trkpt lat="44.28709" lon="2.71326">
        <ele>761.9821777</ele>
        <time>2013-02-03T10:11:23Z</time>
      </trkpt>
      <trkpt lat="44.28695" lon="2.71326">
        <ele>761.5014648</ele>
        <time>2013-02-03T10:11:28Z</time>
      </trkpt>
      <trkpt lat="44.28684" lon="2.71329">
        <ele>760.5400391</ele>
        <time>2013-02-03T10:11:32Z</time>
      </trkpt>
      <trkpt lat="44.28674" lon="2.7133">
        <ele>759.0981445</ele>
        <time>2013-02-03T10:11:36Z</time>
      </trkpt>
      <trkpt lat="44.28658" lon="2.71341">
        <ele>760.0593262</ele>
        <time>2013-02-03T10:11:42Z</time>
      </trkpt>
      <trkpt lat="44.28647" lon="2.71353">
        <ele>761.020752</ele>
        <time>2013-02-03T10:11:47Z</time>
      </trkpt>
      <trkpt lat="44.28634" lon="2.71364">
        <ele>761.020752</ele>
        <time>2013-02-03T10:11:52Z</time>
      </trkpt>
      <trkpt lat="44.28628" lon="2.71367">
        <ele>759.5788574</ele>
        <time>2013-02-03T10:11:56Z</time>
      </trkpt>
      <trkpt lat="44.28629" lon="2.71365">
        <ele>759.5788574</ele>
        <time>2013-02-03T10:12:01Z</time>
      </trkpt>
      <trkpt lat="44.2864" lon="2.71359">
        <ele>758.1369629</ele>
        <time>2013-02-03T10:12:07Z</time>
      </trkpt>
      <trkpt lat="44.28652" lon="2.71345">
        <ele>757.65625</ele>
        <time>2013-02-03T10:12:13Z</time>
      </trkpt>
      <trkpt lat="44.28663" lon="2.71335">
        <ele>757.1755371</ele>
        <time>2013-02-03T10:12:18Z</time>
      </trkpt>
      <trkpt lat="44.28678" lon="2.71328">
        <ele>757.65625</ele>
        <time>2013-02-03T10:12:24Z</time>
      </trkpt>
      <trkpt lat="44.28692" lon="2.71326">
        <ele>757.1755371</ele>
        <time>2013-02-03T10:12:29Z</time>
      </trkpt>
      <trkpt lat="44.28703" lon="2.71323">
        <ele>758.1369629</ele>
        <time>2013-02-03T10:12:33Z</time>
      </trkpt>
      <trkpt lat="44.28719" lon="2.71323">
        <ele>760.0593262</ele>
        <time>2013-02-03T10:12:39Z</time>
      </trkpt>
      <trkpt lat="44.28721" lon="2.71322">
        <ele>760.0593262</ele>
        <time>2013-02-03T10:12:43Z</time>
      </trkpt>
      <trkpt lat="44.28718" lon="2.71318">
        <ele>760.5400391</ele>
        <time>2013-02-03T10:12:52Z</time>
      </trkpt>
      <trkpt lat="44.28714" lon="2.71311">
        <ele>760.5400391</ele>
        <time>2013-02-03T10:12:56Z</time>
      </trkpt>
      <trkpt lat="44.28707" lon="2.71287">
        <ele>758.1369629</ele>
        <time>2013-02-03T10:13:02Z</time>
      </trkpt>
      <trkpt lat="44.28704" lon="2.71263">
        <ele>756.2141113</ele>
        <time>2013-02-03T10:13:08Z</time>
      </trkpt>
      <trkpt lat="44.28699" lon="2.71248">
        <ele>754.291748</ele>
        <time>2013-02-03T10:13:13Z</time>
      </trkpt>
      <trkpt lat="44.28697" lon="2.71229">
        <ele>751.8884277</ele>
        <time>2013-02-03T10:13:18Z</time>
      </trkpt>
      <trkpt lat="44.28697" lon="2.71212">
        <ele>750.4465332</ele>
        <time>2013-02-03T10:13:23Z</time>
      </trkpt>
      <trkpt lat="44.28697" lon="2.7121">
        <ele>751.4077148</ele>
        <time>2013-02-03T10:13:28Z</time>
      </trkpt>
      <trkpt lat="44.28697" lon="2.71204">
        <ele>752.3688965</ele>
        <time>2013-02-03T10:13:34Z</time>
      </trkpt>
      <trkpt lat="44.28701" lon="2.7119">
        <ele>751.8884277</ele>
        <time>2013-02-03T10:13:38Z</time>
      </trkpt>
      <trkpt lat="44.28707" lon="2.71173">
        <ele>751.4077148</ele>
        <time>2013-02-03T10:13:43Z</time>
      </trkpt>
      <trkpt lat="44.28712" lon="2.71159">
        <ele>752.3688965</ele>
        <time>2013-02-03T10:13:48Z</time>
      </trkpt>
      <trkpt lat="44.28717" lon="2.71144">
        <ele>753.3303223</ele>
        <time>2013-02-03T10:13:53Z</time>
      </trkpt>
      <trkpt lat="44.28723" lon="2.71133">
        <ele>755.7336426</ele>
        <time>2013-02-03T10:13:58Z</time>
      </trkpt>
      <trkpt lat="44.28723" lon="2.71131">
        <ele>756.2141113</ele>
        <time>2013-02-03T10:13:59Z</time>
      </trkpt>
      <trkpt lat="44.28718" lon="2.71117">
        <ele>758.6174316</ele>
        <time>2013-02-03T10:14:05Z</time>
      </trkpt>
      <trkpt lat="44.28707" lon="2.71112">
        <ele>758.1369629</ele>
        <time>2013-02-03T10:14:09Z</time>
      </trkpt>
      <trkpt lat="44.28695" lon="2.71101">
        <ele>758.1369629</ele>
        <time>2013-02-03T10:14:14Z</time>
      </trkpt>
      <trkpt lat="44.28685" lon="2.71086">
        <ele>758.6174316</ele>
        <time>2013-02-03T10:14:20Z</time>
      </trkpt>
      <trkpt lat="44.28675" lon="2.71074">
        <ele>759.0981445</ele>
        <time>2013-02-03T10:14:25Z</time>
      </trkpt>
      <trkpt lat="44.28662" lon="2.71062">
        <ele>760.0593262</ele>
        <time>2013-02-03T10:14:31Z</time>
      </trkpt>
      <trkpt lat="44.2865" lon="2.71051">
        <ele>760.5400391</ele>
        <time>2013-02-03T10:14:36Z</time>
      </trkpt>
      <trkpt lat="44.28638" lon="2.71041">
        <ele>760.5400391</ele>
        <time>2013-02-03T10:14:41Z</time>
      </trkpt>
      <trkpt lat="44.28628" lon="2.71038">
        <ele>760.5400391</ele>
        <time>2013-02-03T10:14:45Z</time>
      </trkpt>
      <trkpt lat="44.28619" lon="2.71034">
        <ele>760.5400391</ele>
        <time>2013-02-03T10:14:49Z</time>
      </trkpt>
      <trkpt lat="44.28605" lon="2.71036">
        <ele>759.5788574</ele>
        <time>2013-02-03T10:14:54Z</time>
      </trkpt>
      <trkpt lat="44.28593" lon="2.71033">
        <ele>759.0981445</ele>
        <time>2013-02-03T10:14:59Z</time>
      </trkpt>
      <trkpt lat="44.28585" lon="2.7103">
        <ele>758.1369629</ele>
        <time>2013-02-03T10:15:02Z</time>
      </trkpt>
      <trkpt lat="44.28581" lon="2.71027">
        <ele>757.1755371</ele>
        <time>2013-02-03T10:15:04Z</time>
      </trkpt>
      <trkpt lat="44.28577" lon="2.71021">
        <ele>755.2529297</ele>
        <time>2013-02-03T10:15:09Z</time>
      </trkpt>
      <trkpt lat="44.28576" lon="2.71011">
        <ele>753.3303223</ele>
        <time>2013-02-03T10:15:13Z</time>
      </trkpt>
      <trkpt lat="44.28573" lon="2.71006">
        <ele>751.8884277</ele>
        <time>2013-02-03T10:15:18Z</time>
      </trkpt>
      <trkpt lat="44.28564" lon="2.70996">
        <ele>750.4465332</ele>
        <time>2013-02-03T10:15:22Z</time>
      </trkpt>
      <trkpt lat="44.28552" lon="2.70984">
        <ele>748.5236816</ele>
        <time>2013-02-03T10:15:27Z</time>
      </trkpt>
      <trkpt lat="44.28542" lon="2.70976">
        <ele>746.6010742</ele>
        <time>2013-02-03T10:15:31Z</time>
      </trkpt>
      <trkpt lat="44.28528" lon="2.70962">
        <ele>744.1977539</ele>
        <time>2013-02-03T10:15:37Z</time>
      </trkpt>
      <trkpt lat="44.28516" lon="2.70948">
        <ele>741.7944336</ele>
        <time>2013-02-03T10:15:42Z</time>
      </trkpt>
      <trkpt lat="44.28505" lon="2.70938">
        <ele>740.3525391</ele>
        <time>2013-02-03T10:15:47Z</time>
      </trkpt>
      <trkpt lat="44.28497" lon="2.70932">
        <ele>739.8718262</ele>
        <time>2013-02-03T10:15:50Z</time>
      </trkpt>
      <trkpt lat="44.28481" lon="2.70913">
        <ele>738.9106445</ele>
        <time>2013-02-03T10:15:58Z</time>
      </trkpt>
      <trkpt lat="44.28477" lon="2.70908">
        <ele>738.4299316</ele>
        <time>2013-02-03T10:16:03Z</time>
      </trkpt>
      <trkpt lat="44.28475" lon="2.70907">
        <ele>738.4299316</ele>
        <time>2013-02-03T10:16:08Z</time>
      </trkpt>
      <trkpt lat="44.28473" lon="2.70904">
        <ele>738.9106445</ele>
        <time>2013-02-03T10:16:10Z</time>
      </trkpt>
      <trkpt lat="44.28473" lon="2.70894">
        <ele>738.4299316</ele>
        <time>2013-02-03T10:16:15Z</time>
      </trkpt>
      <trkpt lat="44.28471" lon="2.70879">
        <ele>737.4685059</ele>
        <time>2013-02-03T10:16:20Z</time>
      </trkpt>
      <trkpt lat="44.2847" lon="2.70858">
        <ele>735.5458984</ele>
        <time>2013-02-03T10:16:27Z</time>
      </trkpt>
      <trkpt lat="44.2847" lon="2.70857">
        <ele>735.5458984</ele>
        <time>2013-02-03T10:16:28Z</time>
      </trkpt>
      <trkpt lat="44.28469" lon="2.70857">
        <ele>734.5847168</ele>
        <time>2013-02-03T10:16:35Z</time>
      </trkpt>
      <trkpt lat="44.28455" lon="2.70863">
        <ele>734.5847168</ele>
        <time>2013-02-03T10:16:41Z</time>
      </trkpt>
      <trkpt lat="44.28446" lon="2.70867">
        <ele>734.1040039</ele>
        <time>2013-02-03T10:16:45Z</time>
      </trkpt>
      <trkpt lat="44.28436" lon="2.70873">
        <ele>734.1040039</ele>
        <time>2013-02-03T10:16:49Z</time>
      </trkpt>
      <trkpt lat="44.28424" lon="2.70875">
        <ele>733.623291</ele>
        <time>2013-02-03T10:16:53Z</time>
      </trkpt>
      <trkpt lat="44.2841" lon="2.70878">
        <ele>733.1425781</ele>
        <time>2013-02-03T10:16:58Z</time>
      </trkpt>
      <trkpt lat="44.28395" lon="2.70882">
        <ele>732.6621094</ele>
        <time>2013-02-03T10:17:03Z</time>
      </trkpt>
      <trkpt lat="44.2838" lon="2.70888">
        <ele>732.1813965</ele>
        <time>2013-02-03T10:17:09Z</time>
      </trkpt>
      <trkpt lat="44.28371" lon="2.70897">
        <ele>732.1813965</ele>
        <time>2013-02-03T10:17:13Z</time>
      </trkpt>
      <trkpt lat="44.28357" lon="2.70908">
        <ele>732.1813965</ele>
        <time>2013-02-03T10:17:19Z</time>
      </trkpt>
      <trkpt lat="44.28346" lon="2.70916">
        <ele>732.1813965</ele>
        <time>2013-02-03T10:17:24Z</time>
      </trkpt>
      <trkpt lat="44.28332" lon="2.70923">
        <ele>731.7004395</ele>
        <time>2013-02-03T10:17:30Z</time>
      </trkpt>
      <trkpt lat="44.28317" lon="2.7093">
        <ele>731.2199707</ele>
        <time>2013-02-03T10:17:36Z</time>
      </trkpt>
      <trkpt lat="44.28306" lon="2.70938">
        <ele>730.7392578</ele>
        <time>2013-02-03T10:17:41Z</time>
      </trkpt>
      <trkpt lat="44.28288" lon="2.70947">
        <ele>729.777832</ele>
        <time>2013-02-03T10:17:48Z</time>
      </trkpt>
      <trkpt lat="44.28275" lon="2.70951">
        <ele>729.2971191</ele>
        <time>2013-02-03T10:17:53Z</time>
      </trkpt>
      <trkpt lat="44.28259" lon="2.70946">
        <ele>727.3747559</ele>
        <time>2013-02-03T10:17:59Z</time>
      </trkpt>
      <trkpt lat="44.28249" lon="2.70935">
        <ele>726.894043</ele>
        <time>2013-02-03T10:18:04Z</time>
      </trkpt>
      <trkpt lat="44.28245" lon="2.70929">
        <ele>726.4133301</ele>
        <time>2013-02-03T10:18:08Z</time>
      </trkpt>
      <trkpt lat="44.28246" lon="2.7093">
        <ele>726.4133301</ele>
        <time>2013-02-03T10:18:16Z</time>
      </trkpt>
      <trkpt lat="44.28247" lon="2.70932">
        <ele>725.4519043</ele>
        <time>2013-02-03T10:18:17Z</time>
      </trkpt>
      <trkpt lat="44.28252" lon="2.70939">
        <ele>724.9714355</ele>
        <time>2013-02-03T10:18:23Z</time>
      </trkpt>
      <trkpt lat="44.28259" lon="2.70946">
        <ele>724.4907227</ele>
        <time>2013-02-03T10:18:27Z</time>
      </trkpt>
      <trkpt lat="44.28271" lon="2.70951">
        <ele>724.9714355</ele>
        <time>2013-02-03T10:18:33Z</time>
      </trkpt>
      <trkpt lat="44.28273" lon="2.70951">
        <ele>724.9714355</ele>
        <time>2013-02-03T10:18:34Z</time>
      </trkpt>
      <trkpt lat="44.28276" lon="2.70951">
        <ele>724.9714355</ele>
        <time>2013-02-03T10:18:36Z</time>
      </trkpt>
      <trkpt lat="44.28287" lon="2.70947">
        <ele>724.9714355</ele>
        <time>2013-02-03T10:18:42Z</time>
      </trkpt>
      <trkpt lat="44.28298" lon="2.70942">
        <ele>726.4133301</ele>
        <time>2013-02-03T10:18:48Z</time>
      </trkpt>
      <trkpt lat="44.283" lon="2.70941">
        <ele>726.4133301</ele>
        <time>2013-02-03T10:18:53Z</time>
      </trkpt>
      <trkpt lat="44.28305" lon="2.70938">
        <ele>726.894043</ele>
        <time>2013-02-03T10:18:57Z</time>
      </trkpt>
      <trkpt lat="44.28315" lon="2.70934">
        <ele>726.4133301</ele>
        <time>2013-02-03T10:19:01Z</time>
      </trkpt>
      <trkpt lat="44.28326" lon="2.7093">
        <ele>726.894043</ele>
        <time>2013-02-03T10:19:05Z</time>
      </trkpt>
      <trkpt lat="44.28335" lon="2.70925">
        <ele>727.3747559</ele>
        <time>2013-02-03T10:19:09Z</time>
      </trkpt>
      <trkpt lat="44.28348" lon="2.70919">
        <ele>727.3747559</ele>
        <time>2013-02-03T10:19:14Z</time>
      </trkpt>
      <trkpt lat="44.28361" lon="2.7091">
        <ele>725.9326172</ele>
        <time>2013-02-03T10:19:20Z</time>
      </trkpt>
      <trkpt lat="44.28372" lon="2.70901">
        <ele>725.9326172</ele>
        <time>2013-02-03T10:19:25Z</time>
      </trkpt>
      <trkpt lat="44.28382" lon="2.70893">
        <ele>726.894043</ele>
        <time>2013-02-03T10:19:30Z</time>
      </trkpt>
      <trkpt lat="44.28394" lon="2.70888">
        <ele>728.8166504</ele>
        <time>2013-02-03T10:19:35Z</time>
      </trkpt>
      <trkpt lat="44.28405" lon="2.70883">
        <ele>730.7392578</ele>
        <time>2013-02-03T10:19:40Z</time>
      </trkpt>
      <trkpt lat="44.28409" lon="2.70882">
        <ele>731.7004395</ele>
        <time>2013-02-03T10:19:42Z</time>
      </trkpt>
      <trkpt lat="44.28423" lon="2.70877">
        <ele>734.1040039</ele>
        <time>2013-02-03T10:19:48Z</time>
      </trkpt>
      <trkpt lat="44.28437" lon="2.70873">
        <ele>736.0266113</ele>
        <time>2013-02-03T10:19:54Z</time>
      </trkpt>
      <trkpt lat="44.28446" lon="2.70868">
        <ele>737.4685059</ele>
        <time>2013-02-03T10:19:58Z</time>
      </trkpt>
      <trkpt lat="44.28461" lon="2.7086">
        <ele>737.9492188</ele>
        <time>2013-02-03T10:20:05Z</time>
      </trkpt>
      <trkpt lat="44.28469" lon="2.70854">
        <ele>737.4685059</ele>
        <time>2013-02-03T10:20:09Z</time>
      </trkpt>
      <trkpt lat="44.28481" lon="2.70847">
        <ele>737.4685059</ele>
        <time>2013-02-03T10:20:14Z</time>
      </trkpt>
      <trkpt lat="44.28491" lon="2.70842">
        <ele>736.987793</ele>
        <time>2013-02-03T10:20:19Z</time>
      </trkpt>
      <trkpt lat="44.28492" lon="2.70839">
        <ele>737.4685059</ele>
        <time>2013-02-03T10:20:26Z</time>
      </trkpt>
      <trkpt lat="44.28499" lon="2.70821">
        <ele>735.5458984</ele>
        <time>2013-02-03T10:20:32Z</time>
      </trkpt>
      <trkpt lat="44.28501" lon="2.70814">
        <ele>735.0654297</ele>
        <time>2013-02-03T10:20:34Z</time>
      </trkpt>
      <trkpt lat="44.28505" lon="2.70802">
        <ele>732.6621094</ele>
        <time>2013-02-03T10:20:38Z</time>
      </trkpt>
      <trkpt lat="44.28509" lon="2.70798">
        <ele>732.1813965</ele>
        <time>2013-02-03T10:20:40Z</time>
      </trkpt>
      <trkpt lat="44.2852" lon="2.70784">
        <ele>728.3359375</ele>
        <time>2013-02-03T10:20:46Z</time>
      </trkpt>
      <trkpt lat="44.28532" lon="2.70779">
        <ele>724.9714355</ele>
        <time>2013-02-03T10:20:51Z</time>
      </trkpt>
      <trkpt lat="44.28539" lon="2.70778">
        <ele>722.5681152</ele>
        <time>2013-02-03T10:20:54Z</time>
      </trkpt>
      <trkpt lat="44.28551" lon="2.70775">
        <ele>720.1647949</ele>
        <time>2013-02-03T10:20:59Z</time>
      </trkpt>
      <trkpt lat="44.28559" lon="2.70771">
        <ele>718.2421875</ele>
        <time>2013-02-03T10:21:02Z</time>
      </trkpt>
      <trkpt lat="44.28559" lon="2.70752">
        <ele>714.8774414</ele>
        <time>2013-02-03T10:21:07Z</time>
      </trkpt>
      <trkpt lat="44.28555" lon="2.70736">
        <ele>711.9936523</ele>
        <time>2013-02-03T10:21:12Z</time>
      </trkpt>
      <trkpt lat="44.28553" lon="2.70733">
        <ele>711.9936523</ele>
        <time>2013-02-03T10:21:16Z</time>
      </trkpt>
      <trkpt lat="44.2855" lon="2.70719">
        <ele>710.5515137</ele>
        <time>2013-02-03T10:21:21Z</time>
      </trkpt>
      <trkpt lat="44.28551" lon="2.70714">
        <ele>710.0708008</ele>
        <time>2013-02-03T10:21:28Z</time>
      </trkpt>
      <trkpt lat="44.28551" lon="2.70708">
        <ele>712.4741211</ele>
        <time>2013-02-03T10:21:32Z</time>
      </trkpt>
      <trkpt lat="44.28547" lon="2.70688">
        <ele>713.9160156</ele>
        <time>2013-02-03T10:21:38Z</time>
      </trkpt>
      <trkpt lat="44.28542" lon="2.70667">
        <ele>716.3195801</ele>
        <time>2013-02-03T10:21:44Z</time>
      </trkpt>
      <trkpt lat="44.28538" lon="2.70648">
        <ele>716.800293</ele>
        <time>2013-02-03T10:21:49Z</time>
      </trkpt>
      <trkpt lat="44.28535" lon="2.70626">
        <ele>717.2810059</ele>
        <time>2013-02-03T10:21:55Z</time>
      </trkpt>
      <trkpt lat="44.28533" lon="2.70605">
        <ele>716.800293</ele>
        <time>2013-02-03T10:22:00Z</time>
      </trkpt>
      <trkpt lat="44.28534" lon="2.70584">
        <ele>715.8388672</ele>
        <time>2013-02-03T10:22:05Z</time>
      </trkpt>
      <trkpt lat="44.28537" lon="2.70565">
        <ele>714.8774414</ele>
        <time>2013-02-03T10:22:10Z</time>
      </trkpt>
      <trkpt lat="44.28542" lon="2.70546">
        <ele>711.9936523</ele>
        <time>2013-02-03T10:22:15Z</time>
      </trkpt>
      <trkpt lat="44.28546" lon="2.70531">
        <ele>710.0708008</ele>
        <time>2013-02-03T10:22:19Z</time>
      </trkpt>
      <trkpt lat="44.28551" lon="2.70517">
        <ele>706.7062988</ele>
        <time>2013-02-03T10:22:23Z</time>
      </trkpt>
      <trkpt lat="44.28558" lon="2.70501">
        <ele>703.8225098</ele>
        <time>2013-02-03T10:22:28Z</time>
      </trkpt>
      <trkpt lat="44.28564" lon="2.70484">
        <ele>701.4191895</ele>
        <time>2013-02-03T10:22:33Z</time>
      </trkpt>
      <trkpt lat="44.28571" lon="2.70462">
        <ele>701.4191895</ele>
        <time>2013-02-03T10:22:39Z</time>
      </trkpt>
      <trkpt lat="44.28576" lon="2.70444">
        <ele>703.3417969</ele>
        <time>2013-02-03T10:22:44Z</time>
      </trkpt>
      <trkpt lat="44.28581" lon="2.70431">
        <ele>705.2644043</ele>
        <time>2013-02-03T10:22:48Z</time>
      </trkpt>
      <trkpt lat="44.28578" lon="2.70417">
        <ele>709.1096191</ele>
        <time>2013-02-03T10:22:53Z</time>
      </trkpt>
      <trkpt lat="44.28567" lon="2.70411">
        <ele>712.4741211</ele>
        <time>2013-02-03T10:22:58Z</time>
      </trkpt>
      <trkpt lat="44.28557" lon="2.70413">
        <ele>713.4355469</ele>
        <time>2013-02-03T10:23:02Z</time>
      </trkpt>
      <trkpt lat="44.28544" lon="2.70414">
        <ele>715.8388672</ele>
        <time>2013-02-03T10:23:08Z</time>
      </trkpt>
      <trkpt lat="44.28542" lon="2.70414">
        <ele>715.8388672</ele>
        <time>2013-02-03T10:23:09Z</time>
      </trkpt>
      <trkpt lat="44.28532" lon="2.70416">
        <ele>718.2421875</ele>
        <time>2013-02-03T10:23:14Z</time>
      </trkpt>
      <trkpt lat="44.28525" lon="2.70417">
        <ele>719.6843262</ele>
        <time>2013-02-03T10:23:18Z</time>
      </trkpt>
      <trkpt lat="44.28524" lon="2.70415">
        <ele>719.6843262</ele>
        <time>2013-02-03T10:23:23Z</time>
      </trkpt>
      <trkpt lat="44.28523" lon="2.7041">
        <ele>719.2036133</ele>
        <time>2013-02-03T10:23:28Z</time>
      </trkpt>
      <trkpt lat="44.28522" lon="2.70404">
        <ele>718.7229004</ele>
        <time>2013-02-03T10:23:31Z</time>
      </trkpt>
      <trkpt lat="44.28524" lon="2.70405">
        <ele>718.7229004</ele>
        <time>2013-02-03T10:23:37Z</time>
      </trkpt>
      <trkpt lat="44.28524" lon="2.70423">
        <ele>716.3195801</ele>
        <time>2013-02-03T10:23:43Z</time>
      </trkpt>
      <trkpt lat="44.28526" lon="2.70442">
        <ele>714.3967285</ele>
        <time>2013-02-03T10:23:49Z</time>
      </trkpt>
      <trkpt lat="44.28525" lon="2.70457">
        <ele>712.954834</ele>
        <time>2013-02-03T10:23:53Z</time>
      </trkpt>
      <trkpt lat="44.28523" lon="2.7047">
        <ele>711.5129395</ele>
        <time>2013-02-03T10:23:58Z</time>
      </trkpt>
      <trkpt lat="44.28516" lon="2.70492">
        <ele>711.0322266</ele>
        <time>2013-02-03T10:24:04Z</time>
      </trkpt>
      <trkpt lat="44.28513" lon="2.70511">
        <ele>711.0322266</ele>
        <time>2013-02-03T10:24:09Z</time>
      </trkpt>
      <trkpt lat="44.28505" lon="2.70537">
        <ele>712.954834</ele>
        <time>2013-02-03T10:24:16Z</time>
      </trkpt>
      <trkpt lat="44.28499" lon="2.70554">
        <ele>712.954834</ele>
        <time>2013-02-03T10:24:22Z</time>
      </trkpt>
      <trkpt lat="44.28493" lon="2.70571">
        <ele>713.4355469</ele>
        <time>2013-02-03T10:24:27Z</time>
      </trkpt>
      <trkpt lat="44.28486" lon="2.70586">
        <ele>713.9160156</ele>
        <time>2013-02-03T10:24:32Z</time>
      </trkpt>
      <trkpt lat="44.28474" lon="2.70601">
        <ele>714.3967285</ele>
        <time>2013-02-03T10:24:38Z</time>
      </trkpt>
      <trkpt lat="44.2846" lon="2.70611">
        <ele>714.8774414</ele>
        <time>2013-02-03T10:24:44Z</time>
      </trkpt>
      <trkpt lat="44.2845" lon="2.70615">
        <ele>714.3967285</ele>
        <time>2013-02-03T10:24:48Z</time>
      </trkpt>
      <trkpt lat="44.28438" lon="2.70616">
        <ele>713.9160156</ele>
        <time>2013-02-03T10:24:53Z</time>
      </trkpt>
      <trkpt lat="44.28432" lon="2.70617">
        <ele>714.3967285</ele>
        <time>2013-02-03T10:24:55Z</time>
      </trkpt>
      <trkpt lat="44.28416" lon="2.70613">
        <ele>715.8388672</ele>
        <time>2013-02-03T10:25:02Z</time>
      </trkpt>
      <trkpt lat="44.28406" lon="2.7061">
        <ele>717.2810059</ele>
        <time>2013-02-03T10:25:06Z</time>
      </trkpt>
      <trkpt lat="44.28393" lon="2.70605">
        <ele>718.2421875</ele>
        <time>2013-02-03T10:25:12Z</time>
      </trkpt>
      <trkpt lat="44.28382" lon="2.70599">
        <ele>720.1647949</ele>
        <time>2013-02-03T10:25:17Z</time>
      </trkpt>
      <trkpt lat="44.28378" lon="2.70599">
        <ele>720.6455078</ele>
        <time>2013-02-03T10:25:21Z</time>
      </trkpt>
      <trkpt lat="44.28372" lon="2.70608">
        <ele>732.6621094</ele>
        <time>2013-02-03T10:25:33Z</time>
      </trkpt>
      <trkpt lat="44.28373" lon="2.70606">
        <ele>731.2199707</ele>
        <time>2013-02-03T10:25:40Z</time>
      </trkpt>
      <trkpt lat="44.28369" lon="2.70605">
        <ele>732.6621094</ele>
        <time>2013-02-03T10:25:49Z</time>
      </trkpt>
      <trkpt lat="44.28366" lon="2.706">
        <ele>731.2199707</ele>
        <time>2013-02-03T10:25:55Z</time>
      </trkpt>
      <trkpt lat="44.28363" lon="2.70596">
        <ele>731.7004395</ele>
        <time>2013-02-03T10:26:01Z</time>
      </trkpt>
      <trkpt lat="44.28364" lon="2.70588">
        <ele>730.2585449</ele>
        <time>2013-02-03T10:26:06Z</time>
      </trkpt>
      <trkpt lat="44.28363" lon="2.70587">
        <ele>731.2199707</ele>
        <time>2013-02-03T10:26:07Z</time>
      </trkpt>
      <trkpt lat="44.2836" lon="2.70581">
        <ele>734.1040039</ele>
        <time>2013-02-03T10:26:17Z</time>
      </trkpt>
      <trkpt lat="44.28357" lon="2.70571">
        <ele>729.777832</ele>
        <time>2013-02-03T10:26:28Z</time>
      </trkpt>
      <trkpt lat="44.28356" lon="2.70565">
        <ele>729.2971191</ele>
        <time>2013-02-03T10:26:33Z</time>
      </trkpt>
      <trkpt lat="44.28356" lon="2.70556">
        <ele>729.777832</ele>
        <time>2013-02-03T10:26:40Z</time>
      </trkpt>
      <trkpt lat="44.28354" lon="2.70551">
        <ele>725.4519043</ele>
        <time>2013-02-03T10:26:44Z</time>
      </trkpt>
      <trkpt lat="44.28348" lon="2.70547">
        <ele>729.2971191</ele>
        <time>2013-02-03T10:26:48Z</time>
      </trkpt>
      <trkpt lat="44.28339" lon="2.70544">
        <ele>733.623291</ele>
        <time>2013-02-03T10:26:54Z</time>
      </trkpt>
      <trkpt lat="44.28328" lon="2.70541">
        <ele>736.0266113</ele>
        <time>2013-02-03T10:26:59Z</time>
      </trkpt>
      <trkpt lat="44.28318" lon="2.70539">
        <ele>737.4685059</ele>
        <time>2013-02-03T10:27:04Z</time>
      </trkpt>
      <trkpt lat="44.28316" lon="2.70539">
        <ele>737.4685059</ele>
        <time>2013-02-03T10:27:05Z</time>
      </trkpt>
      <trkpt lat="44.28303" lon="2.70539">
        <ele>738.9106445</ele>
        <time>2013-02-03T10:27:11Z</time>
      </trkpt>
      <trkpt lat="44.28291" lon="2.7054">
        <ele>739.3911133</ele>
        <time>2013-02-03T10:27:17Z</time>
      </trkpt>
      <trkpt lat="44.28281" lon="2.70538">
        <ele>738.9106445</ele>
        <time>2013-02-03T10:27:22Z</time>
      </trkpt>
      <trkpt lat="44.28271" lon="2.70535">
        <ele>739.3911133</ele>
        <time>2013-02-03T10:27:27Z</time>
      </trkpt>
      <trkpt lat="44.2826" lon="2.70529">
        <ele>740.3525391</ele>
        <time>2013-02-03T10:27:33Z</time>
      </trkpt>
      <trkpt lat="44.28255" lon="2.70514">
        <ele>740.8330078</ele>
        <time>2013-02-03T10:27:39Z</time>
      </trkpt>
      <trkpt lat="44.28251" lon="2.70501">
        <ele>740.3525391</ele>
        <time>2013-02-03T10:27:44Z</time>
      </trkpt>
      <trkpt lat="44.2825" lon="2.70483">
        <ele>740.3525391</ele>
        <time>2013-02-03T10:27:50Z</time>
      </trkpt>
      <trkpt lat="44.2825" lon="2.70472">
        <ele>739.3911133</ele>
        <time>2013-02-03T10:27:54Z</time>
      </trkpt>
      <trkpt lat="44.2825" lon="2.70457">
        <ele>738.4299316</ele>
        <time>2013-02-03T10:27:59Z</time>
      </trkpt>
      <trkpt lat="44.2825" lon="2.70452">
        <ele>738.4299316</ele>
        <time>2013-02-03T10:28:01Z</time>
      </trkpt>
      <trkpt lat="44.28252" lon="2.70434">
        <ele>739.8718262</ele>
        <time>2013-02-03T10:28:07Z</time>
      </trkpt>
      <trkpt lat="44.28256" lon="2.70413">
        <ele>741.3137207</ele>
        <time>2013-02-03T10:28:15Z</time>
      </trkpt>
      <trkpt lat="44.28257" lon="2.70411">
        <ele>742.7558594</ele>
        <time>2013-02-03T10:28:21Z</time>
      </trkpt>
      <trkpt lat="44.28259" lon="2.70414">
        <ele>745.6396484</ele>
        <time>2013-02-03T10:28:29Z</time>
      </trkpt>
      <trkpt lat="44.28265" lon="2.70425">
        <ele>747.081543</ele>
        <time>2013-02-03T10:28:34Z</time>
      </trkpt>
      <trkpt lat="44.28271" lon="2.70436">
        <ele>748.0432129</ele>
        <time>2013-02-03T10:28:39Z</time>
      </trkpt>
      <trkpt lat="44.28275" lon="2.70441">
        <ele>748.5236816</ele>
        <time>2013-02-03T10:28:42Z</time>
      </trkpt>
      <trkpt lat="44.28285" lon="2.70451">
        <ele>749.4851074</ele>
        <time>2013-02-03T10:28:48Z</time>
      </trkpt>
      <trkpt lat="44.28286" lon="2.70453">
        <ele>749.4851074</ele>
        <time>2013-02-03T10:28:49Z</time>
      </trkpt>
      <trkpt lat="44.28296" lon="2.70454">
        <ele>751.4077148</ele>
        <time>2013-02-03T10:28:54Z</time>
      </trkpt>
      <trkpt lat="44.28303" lon="2.70454">
        <ele>751.8884277</ele>
        <time>2013-02-03T10:28:58Z</time>
      </trkpt>
      <trkpt lat="44.28304" lon="2.70454">
        <ele>752.3688965</ele>
        <time>2013-02-03T10:29:00Z</time>
      </trkpt>
      <trkpt lat="44.28311" lon="2.70446">
        <ele>752.8496094</ele>
        <time>2013-02-03T10:29:05Z</time>
      </trkpt>
      <trkpt lat="44.28315" lon="2.70443">
        <ele>752.3688965</ele>
        <time>2013-02-03T10:29:07Z</time>
      </trkpt>
      <trkpt lat="44.28325" lon="2.70431">
        <ele>752.8496094</ele>
        <time>2013-02-03T10:29:13Z</time>
      </trkpt>
      <trkpt lat="44.28333" lon="2.70419">
        <ele>753.3303223</ele>
        <time>2013-02-03T10:29:18Z</time>
      </trkpt>
      <trkpt lat="44.28338" lon="2.70412">
        <ele>752.3688965</ele>
        <time>2013-02-03T10:29:21Z</time>
      </trkpt>
      <trkpt lat="44.28344" lon="2.70403">
        <ele>753.3303223</ele>
        <time>2013-02-03T10:29:25Z</time>
      </trkpt>
      <trkpt lat="44.2835" lon="2.70394">
        <ele>753.8110352</ele>
        <time>2013-02-03T10:29:32Z</time>
      </trkpt>
      <trkpt lat="44.28358" lon="2.70382">
        <ele>754.291748</ele>
        <time>2013-02-03T10:29:37Z</time>
      </trkpt>
      <trkpt lat="44.28364" lon="2.70372">
        <ele>754.291748</ele>
        <time>2013-02-03T10:29:41Z</time>
      </trkpt>
      <trkpt lat="44.28374" lon="2.70356">
        <ele>753.8110352</ele>
        <time>2013-02-03T10:29:47Z</time>
      </trkpt>
      <trkpt lat="44.28383" lon="2.70343">
        <ele>753.3303223</ele>
        <time>2013-02-03T10:29:52Z</time>
      </trkpt>
      <trkpt lat="44.28392" lon="2.70324">
        <ele>752.8496094</ele>
        <time>2013-02-03T10:29:58Z</time>
      </trkpt>
      <trkpt lat="44.28402" lon="2.70309">
        <ele>751.4077148</ele>
        <time>2013-02-03T10:30:04Z</time>
      </trkpt>
      <trkpt lat="44.28407" lon="2.70297">
        <ele>751.4077148</ele>
        <time>2013-02-03T10:30:10Z</time>
      </trkpt>
      <trkpt lat="44.28408" lon="2.70298">
        <ele>751.4077148</ele>
        <time>2013-02-03T10:30:16Z</time>
      </trkpt>
      <trkpt lat="44.28396" lon="2.7032">
        <ele>750.927002</ele>
        <time>2013-02-03T10:30:24Z</time>
      </trkpt>
      <trkpt lat="44.28387" lon="2.70334">
        <ele>754.291748</ele>
        <time>2013-02-03T10:30:29Z</time>
      </trkpt>
      <trkpt lat="44.28378" lon="2.70348">
        <ele>756.2141113</ele>
        <time>2013-02-03T10:30:34Z</time>
      </trkpt>
      <trkpt lat="44.28369" lon="2.70361">
        <ele>756.2141113</ele>
        <time>2013-02-03T10:30:39Z</time>
      </trkpt>
      <trkpt lat="44.28361" lon="2.70375">
        <ele>756.2141113</ele>
        <time>2013-02-03T10:30:44Z</time>
      </trkpt>
      <trkpt lat="44.28351" lon="2.70392">
        <ele>755.2529297</ele>
        <time>2013-02-03T10:30:50Z</time>
      </trkpt>
      <trkpt lat="44.28336" lon="2.70414">
        <ele>754.291748</ele>
        <time>2013-02-03T10:30:58Z</time>
      </trkpt>
      <trkpt lat="44.28328" lon="2.70424">
        <ele>753.8110352</ele>
        <time>2013-02-03T10:31:02Z</time>
      </trkpt>
      <trkpt lat="44.28323" lon="2.70433">
        <ele>753.3303223</ele>
        <time>2013-02-03T10:31:05Z</time>
      </trkpt>
      <trkpt lat="44.28321" lon="2.70436">
        <ele>752.8496094</ele>
        <time>2013-02-03T10:31:06Z</time>
      </trkpt>
      <trkpt lat="44.28308" lon="2.70453">
        <ele>749.9658203</ele>
        <time>2013-02-03T10:31:13Z</time>
      </trkpt>
      <trkpt lat="44.28304" lon="2.70457">
        <ele>749.9658203</ele>
        <time>2013-02-03T10:31:15Z</time>
      </trkpt>
      <trkpt lat="44.28291" lon="2.70456">
        <ele>749.4851074</ele>
        <time>2013-02-03T10:31:20Z</time>
      </trkpt>
      <trkpt lat="44.28288" lon="2.70456">
        <ele>749.0043945</ele>
        <time>2013-02-03T10:31:21Z</time>
      </trkpt>
      <trkpt lat="44.28275" lon="2.70443">
        <ele>747.5622559</ele>
        <time>2013-02-03T10:31:27Z</time>
      </trkpt>
      <trkpt lat="44.28266" lon="2.7043">
        <ele>746.6010742</ele>
        <time>2013-02-03T10:31:32Z</time>
      </trkpt>
      <trkpt lat="44.28259" lon="2.70415">
        <ele>745.6396484</ele>
        <time>2013-02-03T10:31:38Z</time>
      </trkpt>
      <trkpt lat="44.28257" lon="2.70412">
        <ele>744.6782227</ele>
        <time>2013-02-03T10:31:39Z</time>
      </trkpt>
      <trkpt lat="44.28254" lon="2.704">
        <ele>743.2363281</ele>
        <time>2013-02-03T10:31:43Z</time>
      </trkpt>
      <trkpt lat="44.28247" lon="2.70377">
        <ele>742.2751465</ele>
        <time>2013-02-03T10:31:50Z</time>
      </trkpt>
      <trkpt lat="44.28244" lon="2.7036">
        <ele>741.3137207</ele>
        <time>2013-02-03T10:31:55Z</time>
      </trkpt>
      <trkpt lat="44.28242" lon="2.70339">
        <ele>738.4299316</ele>
        <time>2013-02-03T10:32:01Z</time>
      </trkpt>
      <trkpt lat="44.28242" lon="2.70318">
        <ele>736.0266113</ele>
        <time>2013-02-03T10:32:07Z</time>
      </trkpt>
      <trkpt lat="44.28236" lon="2.70299">
        <ele>734.1040039</ele>
        <time>2013-02-03T10:32:14Z</time>
      </trkpt>
      <trkpt lat="44.28232" lon="2.70286">
        <ele>732.1813965</ele>
        <time>2013-02-03T10:32:19Z</time>
      </trkpt>
      <trkpt lat="44.28226" lon="2.7027">
        <ele>730.7392578</ele>
        <time>2013-02-03T10:32:25Z</time>
      </trkpt>
      <trkpt lat="44.28225" lon="2.70265">
        <ele>730.7392578</ele>
        <time>2013-02-03T10:32:27Z</time>
      </trkpt>
      <trkpt lat="44.28214" lon="2.70263">
        <ele>728.3359375</ele>
        <time>2013-02-03T10:32:32Z</time>
      </trkpt>
      <trkpt lat="44.28207" lon="2.70273">
        <ele>728.3359375</ele>
        <time>2013-02-03T10:32:36Z</time>
      </trkpt>
      <trkpt lat="44.28192" lon="2.70286">
        <ele>728.8166504</ele>
        <time>2013-02-03T10:32:42Z</time>
      </trkpt>
      <trkpt lat="44.28179" lon="2.70291">
        <ele>727.8552246</ele>
        <time>2013-02-03T10:32:47Z</time>
      </trkpt>
      <trkpt lat="44.28167" lon="2.70296">
        <ele>724.4907227</ele>
        <time>2013-02-03T10:32:52Z</time>
      </trkpt>
      <trkpt lat="44.28154" lon="2.70307">
        <ele>722.5681152</ele>
        <time>2013-02-03T10:32:57Z</time>
      </trkpt>
      <trkpt lat="44.28141" lon="2.70321">
        <ele>719.6843262</ele>
        <time>2013-02-03T10:33:03Z</time>
      </trkpt>
      <trkpt lat="44.28137" lon="2.70334">
        <ele>716.800293</ele>
        <time>2013-02-03T10:33:07Z</time>
      </trkpt>
      <trkpt lat="44.28135" lon="2.7035">
        <ele>712.954834</ele>
        <time>2013-02-03T10:33:12Z</time>
      </trkpt>
      <trkpt lat="44.2813" lon="2.70366">
        <ele>710.5515137</ele>
        <time>2013-02-03T10:33:17Z</time>
      </trkpt>
      <trkpt lat="44.28129" lon="2.70385">
        <ele>708.6289063</ele>
        <time>2013-02-03T10:33:22Z</time>
      </trkpt>
      <trkpt lat="44.28131" lon="2.70404">
        <ele>702.861084</ele>
        <time>2013-02-03T10:33:27Z</time>
      </trkpt>
      <trkpt lat="44.28136" lon="2.70427">
        <ele>698.5349121</ele>
        <time>2013-02-03T10:33:33Z</time>
      </trkpt>
      <trkpt lat="44.28141" lon="2.70441">
        <ele>695.1704102</ele>
        <time>2013-02-03T10:33:38Z</time>
      </trkpt>
      <trkpt lat="44.28143" lon="2.70446">
        <ele>693.7285156</ele>
        <time>2013-02-03T10:33:40Z</time>
      </trkpt>
      <trkpt lat="44.28149" lon="2.70462">
        <ele>689.4025879</ele>
        <time>2013-02-03T10:33:46Z</time>
      </trkpt>
      <trkpt lat="44.28153" lon="2.70474">
        <ele>686.5187988</ele>
        <time>2013-02-03T10:33:50Z</time>
      </trkpt>
      <trkpt lat="44.28155" lon="2.70487">
        <ele>683.6345215</ele>
        <time>2013-02-03T10:33:54Z</time>
      </trkpt>
      <trkpt lat="44.28161" lon="2.70509">
        <ele>680.2700195</ele>
        <time>2013-02-03T10:34:00Z</time>
      </trkpt>
      <trkpt lat="44.28164" lon="2.70523">
        <ele>679.7893066</ele>
        <time>2013-02-03T10:34:04Z</time>
      </trkpt>
      <trkpt lat="44.28164" lon="2.70545">
        <ele>681.2314453</ele>
        <time>2013-02-03T10:34:09Z</time>
      </trkpt>
      <trkpt lat="44.28163" lon="2.70571">
        <ele>687.9606934</ele>
        <time>2013-02-03T10:34:14Z</time>
      </trkpt>
      <trkpt lat="44.28162" lon="2.70583">
        <ele>689.8833008</ele>
        <time>2013-02-03T10:34:17Z</time>
      </trkpt>
      <trkpt lat="44.28162" lon="2.70604">
        <ele>686.9992676</ele>
        <time>2013-02-03T10:34:23Z</time>
      </trkpt>
      <trkpt lat="44.28164" lon="2.70616">
        <ele>683.1538086</ele>
        <time>2013-02-03T10:34:27Z</time>
      </trkpt>
      <trkpt lat="44.28159" lon="2.70619">
        <ele>679.7893066</ele>
        <time>2013-02-03T10:34:31Z</time>
      </trkpt>
      <trkpt lat="44.28154" lon="2.70609">
        <ele>676.4248047</ele>
        <time>2013-02-03T10:34:36Z</time>
      </trkpt>
      <trkpt lat="44.2815" lon="2.70602">
        <ele>674.5021973</ele>
        <time>2013-02-03T10:34:39Z</time>
      </trkpt>
      <trkpt lat="44.2814" lon="2.70588">
        <ele>670.6569824</ele>
        <time>2013-02-03T10:34:46Z</time>
      </trkpt>
      <trkpt lat="44.28137" lon="2.70586">
        <ele>671.1376953</ele>
        <time>2013-02-03T10:34:47Z</time>
      </trkpt>
      <trkpt lat="44.28131" lon="2.70579">
        <ele>673.0603027</ele>
        <time>2013-02-03T10:34:50Z</time>
      </trkpt>
      <trkpt lat="44.28122" lon="2.70573">
        <ele>673.0603027</ele>
        <time>2013-02-03T10:34:55Z</time>
      </trkpt>
      <trkpt lat="44.28114" lon="2.70566">
        <ele>671.1376953</ele>
        <time>2013-02-03T10:35:01Z</time>
      </trkpt>
      <trkpt lat="44.28109" lon="2.70562">
        <ele>669.6958008</ele>
        <time>2013-02-03T10:35:05Z</time>
      </trkpt>
      <trkpt lat="44.28106" lon="2.70557">
        <ele>669.6958008</ele>
        <time>2013-02-03T10:35:12Z</time>
      </trkpt>
      <trkpt lat="44.28106" lon="2.70553">
        <ele>670.6569824</ele>
        <time>2013-02-03T10:35:14Z</time>
      </trkpt>
      <trkpt lat="44.28105" lon="2.70538">
        <ele>667.7727051</ele>
        <time>2013-02-03T10:35:19Z</time>
      </trkpt>
      <trkpt lat="44.28102" lon="2.70528">
        <ele>674.0214844</ele>
        <time>2013-02-03T10:35:23Z</time>
      </trkpt>
      <trkpt lat="44.28098" lon="2.70517">
        <ele>680.7507324</ele>
        <time>2013-02-03T10:35:28Z</time>
      </trkpt>
      <trkpt lat="44.28097" lon="2.70514">
        <ele>684.5961914</ele>
        <time>2013-02-03T10:35:30Z</time>
      </trkpt>
      <trkpt lat="44.28093" lon="2.70508">
        <ele>685.557373</ele>
        <time>2013-02-03T10:35:36Z</time>
      </trkpt>
      <trkpt lat="44.28091" lon="2.70505">
        <ele>684.1154785</ele>
        <time>2013-02-03T10:35:38Z</time>
      </trkpt>
      <trkpt lat="44.28086" lon="2.70492">
        <ele>678.828125</ele>
        <time>2013-02-03T10:35:44Z</time>
      </trkpt>
      <trkpt lat="44.28081" lon="2.70487">
        <ele>676.9055176</ele>
        <time>2013-02-03T10:35:47Z</time>
      </trkpt>
      <trkpt lat="44.28072" lon="2.70475">
        <ele>675.9440918</ele>
        <time>2013-02-03T10:35:53Z</time>
      </trkpt>
      <trkpt lat="44.28069" lon="2.70471">
        <ele>675.9440918</ele>
        <time>2013-02-03T10:35:55Z</time>
      </trkpt>
      <trkpt lat="44.28063" lon="2.70463">
        <ele>678.3474121</ele>
        <time>2013-02-03T10:35:59Z</time>
      </trkpt>
      <trkpt lat="44.28053" lon="2.70448">
        <ele>683.1538086</ele>
        <time>2013-02-03T10:36:06Z</time>
      </trkpt>
      <trkpt lat="44.28046" lon="2.7044">
        <ele>683.6345215</ele>
        <time>2013-02-03T10:36:10Z</time>
      </trkpt>
      <trkpt lat="44.28044" lon="2.70424">
        <ele>683.1538086</ele>
        <time>2013-02-03T10:36:14Z</time>
      </trkpt>
      <trkpt lat="44.28041" lon="2.70411">
        <ele>682.192627</ele>
        <time>2013-02-03T10:36:18Z</time>
      </trkpt>
      <trkpt lat="44.2804" lon="2.70396">
        <ele>681.2314453</ele>
        <time>2013-02-03T10:36:24Z</time>
      </trkpt>
      <trkpt lat="44.28038" lon="2.70384">
        <ele>678.3474121</ele>
        <time>2013-02-03T10:36:28Z</time>
      </trkpt>
      <trkpt lat="44.28032" lon="2.70371">
        <ele>673.5410156</ele>
        <time>2013-02-03T10:36:33Z</time>
      </trkpt>
      <trkpt lat="44.28026" lon="2.70364">
        <ele>671.1376953</ele>
        <time>2013-02-03T10:36:38Z</time>
      </trkpt>
      <trkpt lat="44.2802" lon="2.70354">
        <ele>672.5795898</ele>
        <time>2013-02-03T10:36:42Z</time>
      </trkpt>
      <trkpt lat="44.28015" lon="2.7035">
        <ele>669.6958008</ele>
        <time>2013-02-03T10:36:46Z</time>
      </trkpt>
      <trkpt lat="44.28007" lon="2.70341">
        <ele>665.8503418</ele>
        <time>2013-02-03T10:36:52Z</time>
      </trkpt>
      <trkpt lat="44.28002" lon="2.70332">
        <ele>662.005127</ele>
        <time>2013-02-03T10:36:56Z</time>
      </trkpt>
      <trkpt lat="44.28" lon="2.70329">
        <ele>661.0437012</ele>
        <time>2013-02-03T10:36:58Z</time>
      </trkpt>
      <trkpt lat="44.27996" lon="2.7032">
        <ele>659.6018066</ele>
        <time>2013-02-03T10:37:03Z</time>
      </trkpt>
      <trkpt lat="44.27995" lon="2.70311">
        <ele>661.0437012</ele>
        <time>2013-02-03T10:37:06Z</time>
      </trkpt>
      <trkpt lat="44.27993" lon="2.70306">
        <ele>664.4082031</ele>
        <time>2013-02-03T10:37:09Z</time>
      </trkpt>
      <trkpt lat="44.2798" lon="2.703">
        <ele>673.5410156</ele>
        <time>2013-02-03T10:37:15Z</time>
      </trkpt>
      <trkpt lat="44.27978" lon="2.703">
        <ele>674.9829102</ele>
        <time>2013-02-03T10:37:16Z</time>
      </trkpt>
      <trkpt lat="44.27965" lon="2.70301">
        <ele>676.4248047</ele>
        <time>2013-02-03T10:37:22Z</time>
      </trkpt>
      <trkpt lat="44.27962" lon="2.703">
        <ele>675.4633789</ele>
        <time>2013-02-03T10:37:25Z</time>
      </trkpt>
      <trkpt lat="44.27953" lon="2.70304">
        <ele>684.1154785</ele>
        <time>2013-02-03T10:37:30Z</time>
      </trkpt>
      <trkpt lat="44.27949" lon="2.70308">
        <ele>685.0769043</ele>
        <time>2013-02-03T10:37:32Z</time>
      </trkpt>
      <trkpt lat="44.27936" lon="2.70309">
        <ele>680.7507324</ele>
        <time>2013-02-03T10:37:38Z</time>
      </trkpt>
      <trkpt lat="44.27924" lon="2.70309">
        <ele>677.3862305</ele>
        <time>2013-02-03T10:37:44Z</time>
      </trkpt>
      <trkpt lat="44.27914" lon="2.70303">
        <ele>672.5795898</ele>
        <time>2013-02-03T10:37:51Z</time>
      </trkpt>
      <trkpt lat="44.27907" lon="2.70303">
        <ele>671.1376953</ele>
        <time>2013-02-03T10:37:55Z</time>
      </trkpt>
      <trkpt lat="44.27895" lon="2.70298">
        <ele>667.2922363</ele>
        <time>2013-02-03T10:38:01Z</time>
      </trkpt>
      <trkpt lat="44.27893" lon="2.70297">
        <ele>666.8115234</ele>
        <time>2013-02-03T10:38:02Z</time>
      </trkpt>
      <trkpt lat="44.27882" lon="2.70294">
        <ele>664.888916</ele>
        <time>2013-02-03T10:38:07Z</time>
      </trkpt>
      <trkpt lat="44.27873" lon="2.70293">
        <ele>664.4082031</ele>
        <time>2013-02-03T10:38:11Z</time>
      </trkpt>
      <trkpt lat="44.2786" lon="2.7029">
        <ele>664.4082031</ele>
        <time>2013-02-03T10:38:16Z</time>
      </trkpt>
      <trkpt lat="44.27846" lon="2.70288">
        <ele>667.2922363</ele>
        <time>2013-02-03T10:38:22Z</time>
      </trkpt>
      <trkpt lat="44.27838" lon="2.70283">
        <ele>669.6958008</ele>
        <time>2013-02-03T10:38:28Z</time>
      </trkpt>
      <trkpt lat="44.27837" lon="2.70281">
        <ele>669.6958008</ele>
        <time>2013-02-03T10:38:29Z</time>
      </trkpt>
      <trkpt lat="44.27832" lon="2.70277">
        <ele>668.734375</ele>
        <time>2013-02-03T10:38:34Z</time>
      </trkpt>
      <trkpt lat="44.27824" lon="2.70274">
        <ele>671.1376953</ele>
        <time>2013-02-03T10:38:40Z</time>
      </trkpt>
      <trkpt lat="44.27819" lon="2.70271">
        <ele>672.5795898</ele>
        <time>2013-02-03T10:38:44Z</time>
      </trkpt>
      <trkpt lat="44.27809" lon="2.70264">
        <ele>675.4633789</ele>
        <time>2013-02-03T10:38:51Z</time>
      </trkpt>
      <trkpt lat="44.27796" lon="2.70259">
        <ele>679.3085938</ele>
        <time>2013-02-03T10:38:57Z</time>
      </trkpt>
      <trkpt lat="44.27787" lon="2.70255">
        <ele>679.3085938</ele>
        <time>2013-02-03T10:39:02Z</time>
      </trkpt>
      <trkpt lat="44.27777" lon="2.70252">
        <ele>682.192627</ele>
        <time>2013-02-03T10:39:07Z</time>
      </trkpt>
      <trkpt lat="44.27766" lon="2.70254">
        <ele>689.4025879</ele>
        <time>2013-02-03T10:39:12Z</time>
      </trkpt>
      <trkpt lat="44.27764" lon="2.70256">
        <ele>689.8833008</ele>
        <time>2013-02-03T10:39:13Z</time>
      </trkpt>
      <trkpt lat="44.27754" lon="2.70253">
        <ele>692.2866211</ele>
        <time>2013-02-03T10:39:19Z</time>
      </trkpt>
      <trkpt lat="44.27748" lon="2.70252">
        <ele>694.6896973</ele>
        <time>2013-02-03T10:39:23Z</time>
      </trkpt>
      <trkpt lat="44.2774" lon="2.70245">
        <ele>692.767334</ele>
        <time>2013-02-03T10:39:30Z</time>
      </trkpt>
      <trkpt lat="44.27738" lon="2.70245">
        <ele>692.767334</ele>
        <time>2013-02-03T10:39:31Z</time>
      </trkpt>
      <trkpt lat="44.27728" lon="2.70245">
        <ele>694.6896973</ele>
        <time>2013-02-03T10:39:36Z</time>
      </trkpt>
      <trkpt lat="44.27725" lon="2.70243">
        <ele>692.767334</ele>
        <time>2013-02-03T10:39:38Z</time>
      </trkpt>
      <trkpt lat="44.27712" lon="2.70242">
        <ele>687.9606934</ele>
        <time>2013-02-03T10:39:45Z</time>
      </trkpt>
      <trkpt lat="44.27701" lon="2.70244">
        <ele>692.2866211</ele>
        <time>2013-02-03T10:39:51Z</time>
      </trkpt>
      <trkpt lat="44.27696" lon="2.70242">
        <ele>693.7285156</ele>
        <time>2013-02-03T10:39:54Z</time>
      </trkpt>
      <trkpt lat="44.27695" lon="2.70221">
        <ele>691.8059082</ele>
        <time>2013-02-03T10:40:00Z</time>
      </trkpt>
      <trkpt lat="44.27695" lon="2.70218">
        <ele>691.3251953</ele>
        <time>2013-02-03T10:40:01Z</time>
      </trkpt>
      <trkpt lat="44.27693" lon="2.70212">
        <ele>690.3640137</ele>
        <time>2013-02-03T10:40:03Z</time>
      </trkpt>
      <trkpt lat="44.27693" lon="2.70191">
        <ele>687.9606934</ele>
        <time>2013-02-03T10:40:10Z</time>
      </trkpt>
      <trkpt lat="44.27692" lon="2.70188">
        <ele>687.9606934</ele>
        <time>2013-02-03T10:40:11Z</time>
      </trkpt>
      <trkpt lat="44.2769" lon="2.70169">
        <ele>688.4414063</ele>
        <time>2013-02-03T10:40:17Z</time>
      </trkpt>
      <trkpt lat="44.27688" lon="2.70158">
        <ele>689.4025879</ele>
        <time>2013-02-03T10:40:21Z</time>
      </trkpt>
      <trkpt lat="44.27687" lon="2.70152">
        <ele>689.4025879</ele>
        <time>2013-02-03T10:40:23Z</time>
      </trkpt>
      <trkpt lat="44.27683" lon="2.70138">
        <ele>690.8444824</ele>
        <time>2013-02-03T10:40:28Z</time>
      </trkpt>
      <trkpt lat="44.27679" lon="2.70124">
        <ele>691.3251953</ele>
        <time>2013-02-03T10:40:33Z</time>
      </trkpt>
      <trkpt lat="44.27676" lon="2.70113">
        <ele>691.3251953</ele>
        <time>2013-02-03T10:40:39Z</time>
      </trkpt>
      <trkpt lat="44.27674" lon="2.70102">
        <ele>692.2866211</ele>
        <time>2013-02-03T10:40:44Z</time>
      </trkpt>
      <trkpt lat="44.27672" lon="2.70082">
        <ele>693.7285156</ele>
        <time>2013-02-03T10:40:51Z</time>
      </trkpt>
      <trkpt lat="44.2767" lon="2.70067">
        <ele>694.2092285</ele>
        <time>2013-02-03T10:40:57Z</time>
      </trkpt>
      <trkpt lat="44.27667" lon="2.70054">
        <ele>696.1318359</ele>
        <time>2013-02-03T10:41:02Z</time>
      </trkpt>
      <trkpt lat="44.27663" lon="2.70038">
        <ele>697.5737305</ele>
        <time>2013-02-03T10:41:08Z</time>
      </trkpt>
      <trkpt lat="44.2766" lon="2.70026">
        <ele>699.015625</ele>
        <time>2013-02-03T10:41:13Z</time>
      </trkpt>
      <trkpt lat="44.27657" lon="2.70015">
        <ele>699.4963379</ele>
        <time>2013-02-03T10:41:17Z</time>
      </trkpt>
      <trkpt lat="44.27656" lon="2.70005">
        <ele>700.4580078</ele>
        <time>2013-02-03T10:41:21Z</time>
      </trkpt>
      <trkpt lat="44.27655" lon="2.69991">
        <ele>700.9384766</ele>
        <time>2013-02-03T10:41:26Z</time>
      </trkpt>
      <trkpt lat="44.27657" lon="2.69979">
        <ele>700.9384766</ele>
        <time>2013-02-03T10:41:31Z</time>
      </trkpt>
      <trkpt lat="44.27657" lon="2.69969">
        <ele>701.8999023</ele>
        <time>2013-02-03T10:41:35Z</time>
      </trkpt>
      <trkpt lat="44.27659" lon="2.69953">
        <ele>702.861084</ele>
        <time>2013-02-03T10:41:41Z</time>
      </trkpt>
      <trkpt lat="44.27662" lon="2.69941">
        <ele>703.3417969</ele>
        <time>2013-02-03T10:41:46Z</time>
      </trkpt>
      <trkpt lat="44.27665" lon="2.69934">
        <ele>703.8225098</ele>
        <time>2013-02-03T10:41:49Z</time>
      </trkpt>
      <trkpt lat="44.27668" lon="2.69923">
        <ele>705.2644043</ele>
        <time>2013-02-03T10:41:54Z</time>
      </trkpt>
      <trkpt lat="44.27672" lon="2.6991">
        <ele>705.7451172</ele>
        <time>2013-02-03T10:42:00Z</time>
      </trkpt>
      <trkpt lat="44.2767" lon="2.69896">
        <ele>707.1870117</ele>
        <time>2013-02-03T10:42:06Z</time>
      </trkpt>
      <trkpt lat="44.27664" lon="2.69886">
        <ele>709.1096191</ele>
        <time>2013-02-03T10:42:11Z</time>
      </trkpt>
      <trkpt lat="44.2765" lon="2.69876">
        <ele>711.9936523</ele>
        <time>2013-02-03T10:42:19Z</time>
      </trkpt>
      <trkpt lat="44.27641" lon="2.69866">
        <ele>713.4355469</ele>
        <time>2013-02-03T10:42:25Z</time>
      </trkpt>
      <trkpt lat="44.2763" lon="2.69851">
        <ele>714.8774414</ele>
        <time>2013-02-03T10:42:33Z</time>
      </trkpt>
      <trkpt lat="44.27621" lon="2.69839">
        <ele>714.8774414</ele>
        <time>2013-02-03T10:42:39Z</time>
      </trkpt>
      <trkpt lat="44.27612" lon="2.6983">
        <ele>714.8774414</ele>
        <time>2013-02-03T10:42:44Z</time>
      </trkpt>
      <trkpt lat="44.27604" lon="2.6982">
        <ele>715.8388672</ele>
        <time>2013-02-03T10:42:49Z</time>
      </trkpt>
      <trkpt lat="44.27596" lon="2.69808">
        <ele>716.800293</ele>
        <time>2013-02-03T10:42:55Z</time>
      </trkpt>
      <trkpt lat="44.27589" lon="2.69794">
        <ele>717.7614746</ele>
        <time>2013-02-03T10:43:01Z</time>
      </trkpt>
      <trkpt lat="44.27583" lon="2.69784">
        <ele>717.7614746</ele>
        <time>2013-02-03T10:43:05Z</time>
      </trkpt>
      <trkpt lat="44.27574" lon="2.69772">
        <ele>717.7614746</ele>
        <time>2013-02-03T10:43:10Z</time>
      </trkpt>
      <trkpt lat="44.27565" lon="2.6976">
        <ele>715.8388672</ele>
        <time>2013-02-03T10:43:15Z</time>
      </trkpt>
      <trkpt lat="44.27558" lon="2.6975">
        <ele>715.3581543</ele>
        <time>2013-02-03T10:43:19Z</time>
      </trkpt>
      <trkpt lat="44.2755" lon="2.69743">
        <ele>714.8774414</ele>
        <time>2013-02-03T10:43:23Z</time>
      </trkpt>
      <trkpt lat="44.27539" lon="2.69733">
        <ele>714.8774414</ele>
        <time>2013-02-03T10:43:29Z</time>
      </trkpt>
      <trkpt lat="44.2753" lon="2.69727">
        <ele>712.4741211</ele>
        <time>2013-02-03T10:43:34Z</time>
      </trkpt>
      <trkpt lat="44.2752" lon="2.69725">
        <ele>713.9160156</ele>
        <time>2013-02-03T10:43:38Z</time>
      </trkpt>
      <trkpt lat="44.27508" lon="2.69722">
        <ele>714.8774414</ele>
        <time>2013-02-03T10:43:43Z</time>
      </trkpt>
      <trkpt lat="44.27498" lon="2.69718">
        <ele>717.2810059</ele>
        <time>2013-02-03T10:43:48Z</time>
      </trkpt>
      <trkpt lat="44.27488" lon="2.69715">
        <ele>720.1647949</ele>
        <time>2013-02-03T10:43:55Z</time>
      </trkpt>
      <trkpt lat="44.27482" lon="2.69712">
        <ele>720.6455078</ele>
        <time>2013-02-03T10:43:58Z</time>
      </trkpt>
      <trkpt lat="44.27474" lon="2.69713">
        <ele>721.1262207</ele>
        <time>2013-02-03T10:44:02Z</time>
      </trkpt>
      <trkpt lat="44.27463" lon="2.69714">
        <ele>719.6843262</ele>
        <time>2013-02-03T10:44:07Z</time>
      </trkpt>
      <trkpt lat="44.27452" lon="2.69712">
        <ele>717.2810059</ele>
        <time>2013-02-03T10:44:12Z</time>
      </trkpt>
      <trkpt lat="44.2744" lon="2.6971">
        <ele>716.800293</ele>
        <time>2013-02-03T10:44:17Z</time>
      </trkpt>
      <trkpt lat="44.27426" lon="2.69706">
        <ele>713.9160156</ele>
        <time>2013-02-03T10:44:23Z</time>
      </trkpt>
      <trkpt lat="44.2742" lon="2.69701">
        <ele>711.5129395</ele>
        <time>2013-02-03T10:44:26Z</time>
      </trkpt>
      <trkpt lat="44.2742" lon="2.69691">
        <ele>710.0708008</ele>
        <time>2013-02-03T10:44:30Z</time>
      </trkpt>
      <trkpt lat="44.27425" lon="2.69676">
        <ele>706.7062988</ele>
        <time>2013-02-03T10:44:36Z</time>
      </trkpt>
      <trkpt lat="44.2743" lon="2.69663">
        <ele>706.2255859</ele>
        <time>2013-02-03T10:44:41Z</time>
      </trkpt>
      <trkpt lat="44.27439" lon="2.69651">
        <ele>706.2255859</ele>
        <time>2013-02-03T10:44:46Z</time>
      </trkpt>
      <trkpt lat="44.27443" lon="2.69645">
        <ele>706.7062988</ele>
        <time>2013-02-03T10:44:49Z</time>
      </trkpt>
      <trkpt lat="44.27452" lon="2.69631">
        <ele>706.7062988</ele>
        <time>2013-02-03T10:44:55Z</time>
      </trkpt>
      <trkpt lat="44.27458" lon="2.69621">
        <ele>705.7451172</ele>
        <time>2013-02-03T10:44:59Z</time>
      </trkpt>
      <trkpt lat="44.2746" lon="2.69609">
        <ele>704.3032227</ele>
        <time>2013-02-03T10:45:04Z</time>
      </trkpt>
      <trkpt lat="44.27463" lon="2.69605">
        <ele>704.3032227</ele>
        <time>2013-02-03T10:45:06Z</time>
      </trkpt>
      <trkpt lat="44.27469" lon="2.69592">
        <ele>702.861084</ele>
        <time>2013-02-03T10:45:11Z</time>
      </trkpt>
      <trkpt lat="44.27474" lon="2.69583">
        <ele>701.8999023</ele>
        <time>2013-02-03T10:45:17Z</time>
      </trkpt>
      <trkpt lat="44.27475" lon="2.69581">
        <ele>701.8999023</ele>
        <time>2013-02-03T10:45:18Z</time>
      </trkpt>
      <trkpt lat="44.27479" lon="2.69573">
        <ele>702.3803711</ele>
        <time>2013-02-03T10:45:24Z</time>
      </trkpt>
      <trkpt lat="44.27482" lon="2.69567">
        <ele>703.3417969</ele>
        <time>2013-02-03T10:45:28Z</time>
      </trkpt>
      <trkpt lat="44.27483" lon="2.69563">
        <ele>705.7451172</ele>
        <time>2013-02-03T10:45:37Z</time>
      </trkpt>
      <trkpt lat="44.27484" lon="2.69556">
        <ele>709.1096191</ele>
        <time>2013-02-03T10:45:58Z</time>
      </trkpt>
      <trkpt lat="44.27483" lon="2.69557">
        <ele>710.5515137</ele>
        <time>2013-02-03T10:46:10Z</time>
      </trkpt>
      <trkpt lat="44.27482" lon="2.69556">
        <ele>710.5515137</ele>
        <time>2013-02-03T10:46:27Z</time>
      </trkpt>
      <trkpt lat="44.27484" lon="2.69556">
        <ele>710.5515137</ele>
        <time>2013-02-03T10:46:43Z</time>
      </trkpt>
      <trkpt lat="44.27484" lon="2.69559">
        <ele>708.1484375</ele>
        <time>2013-02-03T10:46:50Z</time>
      </trkpt>
      <trkpt lat="44.27486" lon="2.69558">
        <ele>706.2255859</ele>
        <time>2013-02-03T10:47:06Z</time>
      </trkpt>
      <trkpt lat="44.2749" lon="2.6955">
        <ele>705.2644043</ele>
        <time>2013-02-03T10:47:10Z</time>
      </trkpt>
      <trkpt lat="44.27491" lon="2.69549">
        <ele>705.2644043</ele>
        <time>2013-02-03T10:47:14Z</time>
      </trkpt>
      <trkpt lat="44.27493" lon="2.69541">
        <ele>707.1870117</ele>
        <time>2013-02-03T10:47:23Z</time>
      </trkpt>
      <trkpt lat="44.27499" lon="2.69529">
        <ele>705.7451172</ele>
        <time>2013-02-03T10:47:28Z</time>
      </trkpt>
      <trkpt lat="44.2751" lon="2.69513">
        <ele>702.861084</ele>
        <time>2013-02-03T10:47:34Z</time>
      </trkpt>
      <trkpt lat="44.27512" lon="2.69507">
        <ele>701.8999023</ele>
        <time>2013-02-03T10:47:36Z</time>
      </trkpt>
      <trkpt lat="44.2752" lon="2.69487">
        <ele>702.3803711</ele>
        <time>2013-02-03T10:47:43Z</time>
      </trkpt>
      <trkpt lat="44.27526" lon="2.69473">
        <ele>699.015625</ele>
        <time>2013-02-03T10:47:48Z</time>
      </trkpt>
      <trkpt lat="44.27532" lon="2.69457">
        <ele>698.0544434</ele>
        <time>2013-02-03T10:47:53Z</time>
      </trkpt>
      <trkpt lat="44.27544" lon="2.6944">
        <ele>694.6896973</ele>
        <time>2013-02-03T10:48:00Z</time>
      </trkpt>
      <trkpt lat="44.27552" lon="2.69429">
        <ele>694.2092285</ele>
        <time>2013-02-03T10:48:04Z</time>
      </trkpt>
      <trkpt lat="44.27562" lon="2.69417">
        <ele>692.767334</ele>
        <time>2013-02-03T10:48:09Z</time>
      </trkpt>
      <trkpt lat="44.27573" lon="2.69412">
        <ele>691.8059082</ele>
        <time>2013-02-03T10:48:14Z</time>
      </trkpt>
      <trkpt lat="44.27588" lon="2.69407">
        <ele>688.9221191</ele>
        <time>2013-02-03T10:48:20Z</time>
      </trkpt>
      <trkpt lat="44.27594" lon="2.69405">
        <ele>688.9221191</ele>
        <time>2013-02-03T10:48:22Z</time>
      </trkpt>
      <trkpt lat="44.27602" lon="2.69391">
        <ele>690.8444824</ele>
        <time>2013-02-03T10:48:27Z</time>
      </trkpt>
      <trkpt lat="44.27615" lon="2.69378">
        <ele>690.8444824</ele>
        <time>2013-02-03T10:48:33Z</time>
      </trkpt>
      <trkpt lat="44.27626" lon="2.69369">
        <ele>690.3640137</ele>
        <time>2013-02-03T10:48:38Z</time>
      </trkpt>
      <trkpt lat="44.27637" lon="2.69357">
        <ele>689.4025879</ele>
        <time>2013-02-03T10:48:43Z</time>
      </trkpt>
      <trkpt lat="44.27647" lon="2.69341">
        <ele>691.3251953</ele>
        <time>2013-02-03T10:48:48Z</time>
      </trkpt>
      <trkpt lat="44.27652" lon="2.69333">
        <ele>691.3251953</ele>
        <time>2013-02-03T10:48:51Z</time>
      </trkpt>
      <trkpt lat="44.2766" lon="2.6932">
        <ele>689.8833008</ele>
        <time>2013-02-03T10:48:56Z</time>
      </trkpt>
      <trkpt lat="44.27663" lon="2.69309">
        <ele>689.8833008</ele>
        <time>2013-02-03T10:49:01Z</time>
      </trkpt>
      <trkpt lat="44.27664" lon="2.69299">
        <ele>690.8444824</ele>
        <time>2013-02-03T10:49:05Z</time>
      </trkpt>
      <trkpt lat="44.27666" lon="2.69289">
        <ele>686.0380859</ele>
        <time>2013-02-03T10:49:09Z</time>
      </trkpt>
      <trkpt lat="44.27664" lon="2.69269">
        <ele>678.3474121</ele>
        <time>2013-02-03T10:49:15Z</time>
      </trkpt>
      <trkpt lat="44.27661" lon="2.69255">
        <ele>672.098877</ele>
        <time>2013-02-03T10:49:19Z</time>
      </trkpt>
      <trkpt lat="44.27658" lon="2.6923">
        <ele>668.734375</ele>
        <time>2013-02-03T10:49:25Z</time>
      </trkpt>
      <trkpt lat="44.27654" lon="2.69206">
        <ele>667.2922363</ele>
        <time>2013-02-03T10:49:31Z</time>
      </trkpt>
      <trkpt lat="44.27649" lon="2.69188">
        <ele>667.2922363</ele>
        <time>2013-02-03T10:49:36Z</time>
      </trkpt>
      <trkpt lat="44.27646" lon="2.69176">
        <ele>667.2922363</ele>
        <time>2013-02-03T10:49:40Z</time>
      </trkpt>
      <trkpt lat="44.27641" lon="2.69161">
        <ele>665.8503418</ele>
        <time>2013-02-03T10:49:45Z</time>
      </trkpt>
      <trkpt lat="44.27637" lon="2.69148">
        <ele>664.4082031</ele>
        <time>2013-02-03T10:49:49Z</time>
      </trkpt>
      <trkpt lat="44.27633" lon="2.69135">
        <ele>662.005127</ele>
        <time>2013-02-03T10:49:54Z</time>
      </trkpt>
      <trkpt lat="44.27627" lon="2.69123">
        <ele>662.005127</ele>
        <time>2013-02-03T10:49:59Z</time>
      </trkpt>
      <trkpt lat="44.27622" lon="2.69125">
        <ele>660.0822754</ele>
        <time>2013-02-03T10:50:02Z</time>
      </trkpt>
      <trkpt lat="44.27615" lon="2.69136">
        <ele>659.1210938</ele>
        <time>2013-02-03T10:50:07Z</time>
      </trkpt>
      <trkpt lat="44.27614" lon="2.69155">
        <ele>659.6018066</ele>
        <time>2013-02-03T10:50:12Z</time>
      </trkpt>
      <trkpt lat="44.27606" lon="2.69155">
        <ele>657.1984863</ele>
        <time>2013-02-03T10:50:15Z</time>
      </trkpt>
      <trkpt lat="44.27603" lon="2.69145">
        <ele>654.795166</ele>
        <time>2013-02-03T10:50:18Z</time>
      </trkpt>
      <trkpt lat="44.27602" lon="2.69141">
        <ele>653.8339844</ele>
        <time>2013-02-03T10:50:19Z</time>
      </trkpt>
      <trkpt lat="44.27602" lon="2.69123">
        <ele>650.949707</ele>
        <time>2013-02-03T10:50:24Z</time>
      </trkpt>
      <trkpt lat="44.27605" lon="2.69105">
        <ele>647.1044922</ele>
        <time>2013-02-03T10:50:29Z</time>
      </trkpt>
      <trkpt lat="44.27602" lon="2.69088">
        <ele>645.6625977</ele>
        <time>2013-02-03T10:50:33Z</time>
      </trkpt>
      <trkpt lat="44.27596" lon="2.69074">
        <ele>647.1044922</ele>
        <time>2013-02-03T10:50:37Z</time>
      </trkpt>
      <trkpt lat="44.2758" lon="2.69054">
        <ele>646.6240234</ele>
        <time>2013-02-03T10:50:43Z</time>
      </trkpt>
      <trkpt lat="44.27571" lon="2.6904">
        <ele>647.5852051</ele>
        <time>2013-02-03T10:50:48Z</time>
      </trkpt>
      <trkpt lat="44.27564" lon="2.69025">
        <ele>649.0270996</ele>
        <time>2013-02-03T10:50:53Z</time>
      </trkpt>
      <trkpt lat="44.27562" lon="2.6901">
        <ele>647.5852051</ele>
        <time>2013-02-03T10:50:58Z</time>
      </trkpt>
      <trkpt lat="44.27557" lon="2.68995">
        <ele>644.2207031</ele>
        <time>2013-02-03T10:51:03Z</time>
      </trkpt>
      <trkpt lat="44.27553" lon="2.68978">
        <ele>641.3366699</ele>
        <time>2013-02-03T10:51:07Z</time>
      </trkpt>
      <trkpt lat="44.27553" lon="2.68971">
        <ele>641.3366699</ele>
        <time>2013-02-03T10:51:09Z</time>
      </trkpt>
      <trkpt lat="44.27563" lon="2.68958">
        <ele>641.3366699</ele>
        <time>2013-02-03T10:51:14Z</time>
      </trkpt>
      <trkpt lat="44.27572" lon="2.68949">
        <ele>640.855957</ele>
        <time>2013-02-03T10:51:18Z</time>
      </trkpt>
      <trkpt lat="44.27578" lon="2.68932">
        <ele>641.8173828</ele>
        <time>2013-02-03T10:51:23Z</time>
      </trkpt>
      <trkpt lat="44.27585" lon="2.68918">
        <ele>640.3754883</ele>
        <time>2013-02-03T10:51:28Z</time>
      </trkpt>
      <trkpt lat="44.27589" lon="2.68902">
        <ele>639.4140625</ele>
        <time>2013-02-03T10:51:33Z</time>
      </trkpt>
      <trkpt lat="44.27595" lon="2.68892">
        <ele>637.0107422</ele>
        <time>2013-02-03T10:51:37Z</time>
      </trkpt>
      <trkpt lat="44.27603" lon="2.68878">
        <ele>637.972168</ele>
        <time>2013-02-03T10:51:43Z</time>
      </trkpt>
      <trkpt lat="44.27605" lon="2.68875">
        <ele>638.4528809</ele>
        <time>2013-02-03T10:51:44Z</time>
      </trkpt>
      <trkpt lat="44.27612" lon="2.68865">
        <ele>638.4528809</ele>
        <time>2013-02-03T10:51:49Z</time>
      </trkpt>
      <trkpt lat="44.27616" lon="2.68863">
        <ele>637.972168</ele>
        <time>2013-02-03T10:51:51Z</time>
      </trkpt>
      <trkpt lat="44.27628" lon="2.68849">
        <ele>635.5686035</ele>
        <time>2013-02-03T10:51:58Z</time>
      </trkpt>
      <trkpt lat="44.27635" lon="2.68841">
        <ele>634.6074219</ele>
        <time>2013-02-03T10:52:02Z</time>
      </trkpt>
      <trkpt lat="44.27645" lon="2.6883">
        <ele>632.6848145</ele>
        <time>2013-02-03T10:52:07Z</time>
      </trkpt>
      <trkpt lat="44.27652" lon="2.68819">
        <ele>631.7233887</ele>
        <time>2013-02-03T10:52:11Z</time>
      </trkpt>
      <trkpt lat="44.27661" lon="2.68805">
        <ele>630.762207</ele>
        <time>2013-02-03T10:52:16Z</time>
      </trkpt>
      <trkpt lat="44.2767" lon="2.6879">
        <ele>629.3200684</ele>
        <time>2013-02-03T10:52:21Z</time>
      </trkpt>
      <trkpt lat="44.27677" lon="2.68773">
        <ele>625.4748535</ele>
        <time>2013-02-03T10:52:26Z</time>
      </trkpt>
      <trkpt lat="44.27684" lon="2.68755">
        <ele>621.6296387</ele>
        <time>2013-02-03T10:52:32Z</time>
      </trkpt>
      <trkpt lat="44.27689" lon="2.68739">
        <ele>618.2648926</ele>
        <time>2013-02-03T10:52:37Z</time>
      </trkpt>
      <trkpt lat="44.27692" lon="2.6872">
        <ele>616.822998</ele>
        <time>2013-02-03T10:52:43Z</time>
      </trkpt>
      <trkpt lat="44.27693" lon="2.68703">
        <ele>612.9777832</ele>
        <time>2013-02-03T10:52:48Z</time>
      </trkpt>
      <trkpt lat="44.27694" lon="2.68696">
        <ele>612.0166016</ele>
        <time>2013-02-03T10:52:50Z</time>
      </trkpt>
      <trkpt lat="44.27686" lon="2.68681">
        <ele>610.5744629</ele>
        <time>2013-02-03T10:52:56Z</time>
      </trkpt>
      <trkpt lat="44.27684" lon="2.6868">
        <ele>611.0551758</ele>
        <time>2013-02-03T10:52:57Z</time>
      </trkpt>
      <trkpt lat="44.27679" lon="2.68675">
        <ele>610.5744629</ele>
        <time>2013-02-03T10:53:00Z</time>
      </trkpt>
      <trkpt lat="44.27672" lon="2.68669">
        <ele>609.6132813</ele>
        <time>2013-02-03T10:53:04Z</time>
      </trkpt>
      <trkpt lat="44.27663" lon="2.68659">
        <ele>606.2485352</ele>
        <time>2013-02-03T10:53:10Z</time>
      </trkpt>
      <trkpt lat="44.27661" lon="2.68657">
        <ele>605.7680664</ele>
        <time>2013-02-03T10:53:11Z</time>
      </trkpt>
      <trkpt lat="44.27655" lon="2.68645">
        <ele>605.7680664</ele>
        <time>2013-02-03T10:53:16Z</time>
      </trkpt>
      <trkpt lat="44.27644" lon="2.68623">
        <ele>608.1713867</ele>
        <time>2013-02-03T10:53:23Z</time>
      </trkpt>
      <trkpt lat="44.27637" lon="2.68604">
        <ele>609.6132813</ele>
        <time>2013-02-03T10:53:29Z</time>
      </trkpt>
      <trkpt lat="44.27633" lon="2.68595">
        <ele>610.09375</ele>
        <time>2013-02-03T10:53:32Z</time>
      </trkpt>
      <trkpt lat="44.27627" lon="2.68581">
        <ele>609.6132813</ele>
        <time>2013-02-03T10:53:37Z</time>
      </trkpt>
      <trkpt lat="44.27619" lon="2.68567">
        <ele>610.09375</ele>
        <time>2013-02-03T10:53:42Z</time>
      </trkpt>
      <trkpt lat="44.27616" lon="2.6856">
        <ele>609.1325684</ele>
        <time>2013-02-03T10:53:44Z</time>
      </trkpt>
      <trkpt lat="44.2761" lon="2.68544">
        <ele>607.6906738</ele>
        <time>2013-02-03T10:53:49Z</time>
      </trkpt>
      <trkpt lat="44.27605" lon="2.68537">
        <ele>608.1713867</ele>
        <time>2013-02-03T10:53:52Z</time>
      </trkpt>
      <trkpt lat="44.27599" lon="2.68521">
        <ele>608.1713867</ele>
        <time>2013-02-03T10:53:57Z</time>
      </trkpt>
      <trkpt lat="44.27597" lon="2.68518">
        <ele>607.6906738</ele>
        <time>2013-02-03T10:53:58Z</time>
      </trkpt>
      <trkpt lat="44.2759" lon="2.68501">
        <ele>607.2099609</ele>
        <time>2013-02-03T10:54:04Z</time>
      </trkpt>
      <trkpt lat="44.27588" lon="2.68495">
        <ele>606.2485352</ele>
        <time>2013-02-03T10:54:06Z</time>
      </trkpt>
      <trkpt lat="44.27581" lon="2.68476">
        <ele>606.2485352</ele>
        <time>2013-02-03T10:54:12Z</time>
      </trkpt>
      <trkpt lat="44.27577" lon="2.68459">
        <ele>606.729248</ele>
        <time>2013-02-03T10:54:17Z</time>
      </trkpt>
      <trkpt lat="44.27573" lon="2.68436">
        <ele>608.1713867</ele>
        <time>2013-02-03T10:54:23Z</time>
      </trkpt>
      <trkpt lat="44.27568" lon="2.68421">
        <ele>605.7680664</ele>
        <time>2013-02-03T10:54:28Z</time>
      </trkpt>
      <trkpt lat="44.27562" lon="2.68401">
        <ele>604.8066406</ele>
        <time>2013-02-03T10:54:33Z</time>
      </trkpt>
      <trkpt lat="44.27556" lon="2.68381">
        <ele>606.2485352</ele>
        <time>2013-02-03T10:54:39Z</time>
      </trkpt>
      <trkpt lat="44.27551" lon="2.68366">
        <ele>607.6906738</ele>
        <time>2013-02-03T10:54:44Z</time>
      </trkpt>
      <trkpt lat="44.27546" lon="2.68353">
        <ele>606.729248</ele>
        <time>2013-02-03T10:54:48Z</time>
      </trkpt>
      <trkpt lat="44.27538" lon="2.68335">
        <ele>606.729248</ele>
        <time>2013-02-03T10:54:54Z</time>
      </trkpt>
      <trkpt lat="44.2753" lon="2.68322">
        <ele>608.1713867</ele>
        <time>2013-02-03T10:54:59Z</time>
      </trkpt>
      <trkpt lat="44.2752" lon="2.68308">
        <ele>609.1325684</ele>
        <time>2013-02-03T10:55:04Z</time>
      </trkpt>
      <trkpt lat="44.27519" lon="2.68305">
        <ele>609.1325684</ele>
        <time>2013-02-03T10:55:05Z</time>
      </trkpt>
      <trkpt lat="44.27506" lon="2.683">
        <ele>606.729248</ele>
        <time>2013-02-03T10:55:11Z</time>
      </trkpt>
      <trkpt lat="44.27492" lon="2.683">
        <ele>607.2099609</ele>
        <time>2013-02-03T10:55:17Z</time>
      </trkpt>
      <trkpt lat="44.2748" lon="2.68302">
        <ele>607.2099609</ele>
        <time>2013-02-03T10:55:22Z</time>
      </trkpt>
      <trkpt lat="44.27477" lon="2.68302">
        <ele>607.2099609</ele>
        <time>2013-02-03T10:55:23Z</time>
      </trkpt>
      <trkpt lat="44.27467" lon="2.68304">
        <ele>604.8066406</ele>
        <time>2013-02-03T10:55:28Z</time>
      </trkpt>
      <trkpt lat="44.27457" lon="2.68311">
        <ele>606.2485352</ele>
        <time>2013-02-03T10:55:32Z</time>
      </trkpt>
      <trkpt lat="44.27446" lon="2.68318">
        <ele>607.2099609</ele>
        <time>2013-02-03T10:55:37Z</time>
      </trkpt>
      <trkpt lat="44.27441" lon="2.6832">
        <ele>607.2099609</ele>
        <time>2013-02-03T10:55:41Z</time>
      </trkpt>
      <trkpt lat="44.27438" lon="2.68322">
        <ele>611.0551758</ele>
        <time>2013-02-03T10:55:50Z</time>
      </trkpt>
      <trkpt lat="44.27434" lon="2.68325">
        <ele>610.5744629</ele>
        <time>2013-02-03T10:55:55Z</time>
      </trkpt>
      <trkpt lat="44.27428" lon="2.68327">
        <ele>608.6518555</ele>
        <time>2013-02-03T10:55:59Z</time>
      </trkpt>
      <trkpt lat="44.27416" lon="2.68336">
        <ele>606.729248</ele>
        <time>2013-02-03T10:56:04Z</time>
      </trkpt>
      <trkpt lat="44.27405" lon="2.68344">
        <ele>607.2099609</ele>
        <time>2013-02-03T10:56:09Z</time>
      </trkpt>
      <trkpt lat="44.27394" lon="2.68349">
        <ele>607.2099609</ele>
        <time>2013-02-03T10:56:14Z</time>
      </trkpt>
      <trkpt lat="44.27384" lon="2.68358">
        <ele>606.729248</ele>
        <time>2013-02-03T10:56:19Z</time>
      </trkpt>
      <trkpt lat="44.27378" lon="2.68368">
        <ele>606.729248</ele>
        <time>2013-02-03T10:56:23Z</time>
      </trkpt>
      <trkpt lat="44.2737" lon="2.68379">
        <ele>607.2099609</ele>
        <time>2013-02-03T10:56:28Z</time>
      </trkpt>
      <trkpt lat="44.27364" lon="2.6839">
        <ele>606.2485352</ele>
        <time>2013-02-03T10:56:33Z</time>
      </trkpt>
      <trkpt lat="44.2736" lon="2.68397">
        <ele>606.729248</ele>
        <time>2013-02-03T10:56:36Z</time>
      </trkpt>
      <trkpt lat="44.27356" lon="2.68415">
        <ele>607.2099609</ele>
        <time>2013-02-03T10:56:42Z</time>
      </trkpt>
      <trkpt lat="44.27356" lon="2.68433">
        <ele>606.2485352</ele>
        <time>2013-02-03T10:56:48Z</time>
      </trkpt>
      <trkpt lat="44.27354" lon="2.6844">
        <ele>607.2099609</ele>
        <time>2013-02-03T10:56:50Z</time>
      </trkpt>
      <trkpt lat="44.27348" lon="2.68459">
        <ele>608.1713867</ele>
        <time>2013-02-03T10:56:56Z</time>
      </trkpt>
      <trkpt lat="44.27345" lon="2.68468">
        <ele>608.6518555</ele>
        <time>2013-02-03T10:56:59Z</time>
      </trkpt>
      <trkpt lat="44.27339" lon="2.68482">
        <ele>612.4970703</ele>
        <time>2013-02-03T10:57:04Z</time>
      </trkpt>
      <trkpt lat="44.27331" lon="2.68501">
        <ele>616.3422852</ele>
        <time>2013-02-03T10:57:09Z</time>
      </trkpt>
      <trkpt lat="44.27329" lon="2.68504">
        <ele>617.7841797</ele>
        <time>2013-02-03T10:57:10Z</time>
      </trkpt>
      <trkpt lat="44.27323" lon="2.68507">
        <ele>618.7456055</ele>
        <time>2013-02-03T10:57:14Z</time>
      </trkpt>
      <trkpt lat="44.27314" lon="2.68513">
        <ele>621.6296387</ele>
        <time>2013-02-03T10:57:19Z</time>
      </trkpt>
      <trkpt lat="44.27302" lon="2.68522">
        <ele>621.1491699</ele>
        <time>2013-02-03T10:57:25Z</time>
      </trkpt>
      <trkpt lat="44.27289" lon="2.68533">
        <ele>617.3037109</ele>
        <time>2013-02-03T10:57:30Z</time>
      </trkpt>
      <trkpt lat="44.27278" lon="2.68541">
        <ele>613.9389648</ele>
        <time>2013-02-03T10:57:35Z</time>
      </trkpt>
      <trkpt lat="44.27275" lon="2.68541">
        <ele>613.4584961</ele>
        <time>2013-02-03T10:57:36Z</time>
      </trkpt>
      <trkpt lat="44.2726" lon="2.68546">
        <ele>611.0551758</ele>
        <time>2013-02-03T10:57:41Z</time>
      </trkpt>
      <trkpt lat="44.27244" lon="2.6855">
        <ele>608.6518555</ele>
        <time>2013-02-03T10:57:46Z</time>
      </trkpt>
      <trkpt lat="44.27234" lon="2.6855">
        <ele>608.6518555</ele>
        <time>2013-02-03T10:57:50Z</time>
      </trkpt>
      <trkpt lat="44.27223" lon="2.68536">
        <ele>604.3261719</ele>
        <time>2013-02-03T10:57:55Z</time>
      </trkpt>
      <trkpt lat="44.27214" lon="2.68521">
        <ele>604.8066406</ele>
        <time>2013-02-03T10:58:00Z</time>
      </trkpt>
      <trkpt lat="44.27209" lon="2.68511">
        <ele>604.8066406</ele>
        <time>2013-02-03T10:58:03Z</time>
      </trkpt>
      <trkpt lat="44.27206" lon="2.68489">
        <ele>604.8066406</ele>
        <time>2013-02-03T10:58:09Z</time>
      </trkpt>
      <trkpt lat="44.27209" lon="2.68471">
        <ele>608.1713867</ele>
        <time>2013-02-03T10:58:14Z</time>
      </trkpt>
      <trkpt lat="44.27213" lon="2.68458">
        <ele>605.7680664</ele>
        <time>2013-02-03T10:58:18Z</time>
      </trkpt>
      <trkpt lat="44.27215" lon="2.68454">
        <ele>607.2099609</ele>
        <time>2013-02-03T10:58:19Z</time>
      </trkpt>
      <trkpt lat="44.27223" lon="2.68449">
        <ele>605.2873535</ele>
        <time>2013-02-03T10:58:24Z</time>
      </trkpt>
      <trkpt lat="44.2723" lon="2.68436">
        <ele>607.6906738</ele>
        <time>2013-02-03T10:58:29Z</time>
      </trkpt>
      <trkpt lat="44.27235" lon="2.6843">
        <ele>606.729248</ele>
        <time>2013-02-03T10:58:32Z</time>
      </trkpt>
      <trkpt lat="44.27238" lon="2.68414">
        <ele>612.0166016</ele>
        <time>2013-02-03T10:58:37Z</time>
      </trkpt>
      <trkpt lat="44.2724" lon="2.68411">
        <ele>612.0166016</ele>
        <time>2013-02-03T10:58:38Z</time>
      </trkpt>
      <trkpt lat="44.27253" lon="2.68393">
        <ele>610.09375</ele>
        <time>2013-02-03T10:58:45Z</time>
      </trkpt>
      <trkpt lat="44.27259" lon="2.68384">
        <ele>608.1713867</ele>
        <time>2013-02-03T10:58:49Z</time>
      </trkpt>
      <trkpt lat="44.27264" lon="2.6837">
        <ele>605.2873535</ele>
        <time>2013-02-03T10:58:55Z</time>
      </trkpt>
      <trkpt lat="44.27264" lon="2.68357">
        <ele>605.2873535</ele>
        <time>2013-02-03T10:59:00Z</time>
      </trkpt>
      <trkpt lat="44.27265" lon="2.68351">
        <ele>605.2873535</ele>
        <time>2013-02-03T10:59:02Z</time>
      </trkpt>
      <trkpt lat="44.27268" lon="2.68347">
        <ele>606.2485352</ele>
        <time>2013-02-03T10:59:04Z</time>
      </trkpt>
      <trkpt lat="44.27275" lon="2.68331">
        <ele>604.3261719</ele>
        <time>2013-02-03T10:59:10Z</time>
      </trkpt>
      <trkpt lat="44.27278" lon="2.68325">
        <ele>604.3261719</ele>
        <time>2013-02-03T10:59:14Z</time>
      </trkpt>
      <trkpt lat="44.27271" lon="2.6832">
        <ele>620.668457</ele>
        <time>2013-02-03T10:59:26Z</time>
      </trkpt>
      <trkpt lat="44.27271" lon="2.68322">
        <ele>620.668457</ele>
        <time>2013-02-03T10:59:27Z</time>
      </trkpt>
      <trkpt lat="44.27268" lon="2.6833">
        <ele>621.1491699</ele>
        <time>2013-02-03T10:59:31Z</time>
      </trkpt>
      <trkpt lat="44.27268" lon="2.68336">
        <ele>620.1877441</ele>
        <time>2013-02-03T10:59:35Z</time>
      </trkpt>
      <trkpt lat="44.27272" lon="2.68335">
        <ele>619.2263184</ele>
        <time>2013-02-03T10:59:39Z</time>
      </trkpt>
      <trkpt lat="44.27275" lon="2.68332">
        <ele>618.7456055</ele>
        <time>2013-02-03T10:59:44Z</time>
      </trkpt>
      <trkpt lat="44.2728" lon="2.68329">
        <ele>618.2648926</ele>
        <time>2013-02-03T10:59:48Z</time>
      </trkpt>
      <trkpt lat="44.27283" lon="2.68328">
        <ele>617.7841797</ele>
        <time>2013-02-03T10:59:52Z</time>
      </trkpt>
      <trkpt lat="44.27288" lon="2.68322">
        <ele>617.3037109</ele>
        <time>2013-02-03T10:59:57Z</time>
      </trkpt>
      <trkpt lat="44.27295" lon="2.68314">
        <ele>618.2648926</ele>
        <time>2013-02-03T11:00:04Z</time>
      </trkpt>
      <trkpt lat="44.27299" lon="2.6831">
        <ele>620.668457</ele>
        <time>2013-02-03T11:00:08Z</time>
      </trkpt>
      <trkpt lat="44.27304" lon="2.68304">
        <ele>621.6296387</ele>
        <time>2013-02-03T11:00:14Z</time>
      </trkpt>
      <trkpt lat="44.2731" lon="2.68299">
        <ele>622.5910645</ele>
        <time>2013-02-03T11:00:19Z</time>
      </trkpt>
      <trkpt lat="44.27311" lon="2.68299">
        <ele>623.0717773</ele>
        <time>2013-02-03T11:00:20Z</time>
      </trkpt>
      <trkpt lat="44.27321" lon="2.68287">
        <ele>625.4748535</ele>
        <time>2013-02-03T11:00:29Z</time>
      </trkpt>
      <trkpt lat="44.27326" lon="2.68282">
        <ele>625.9555664</ele>
        <time>2013-02-03T11:00:33Z</time>
      </trkpt>
      <trkpt lat="44.27332" lon="2.68278">
        <ele>626.4362793</ele>
        <time>2013-02-03T11:00:38Z</time>
      </trkpt>
      <trkpt lat="44.27338" lon="2.68272">
        <ele>626.4362793</ele>
        <time>2013-02-03T11:00:43Z</time>
      </trkpt>
      <trkpt lat="44.27346" lon="2.68266">
        <ele>627.8781738</ele>
        <time>2013-02-03T11:00:48Z</time>
      </trkpt>
      <trkpt lat="44.27354" lon="2.68259">
        <ele>629.8007813</ele>
        <time>2013-02-03T11:00:53Z</time>
      </trkpt>
      <trkpt lat="44.27363" lon="2.68253">
        <ele>632.2041016</ele>
        <time>2013-02-03T11:00:58Z</time>
      </trkpt>
      <trkpt lat="44.27368" lon="2.68249">
        <ele>633.1652832</ele>
        <time>2013-02-03T11:01:01Z</time>
      </trkpt>
      <trkpt lat="44.27375" lon="2.68244">
        <ele>633.1652832</ele>
        <time>2013-02-03T11:01:06Z</time>
      </trkpt>
      <trkpt lat="44.2738" lon="2.68243">
        <ele>634.126709</ele>
        <time>2013-02-03T11:01:09Z</time>
      </trkpt>
      <trkpt lat="44.27387" lon="2.68239">
        <ele>635.5686035</ele>
        <time>2013-02-03T11:01:14Z</time>
      </trkpt>
      <trkpt lat="44.27393" lon="2.68236">
        <ele>637.0107422</ele>
        <time>2013-02-03T11:01:18Z</time>
      </trkpt>
      <trkpt lat="44.27402" lon="2.68238">
        <ele>638.4528809</ele>
        <time>2013-02-03T11:01:24Z</time>
      </trkpt>
      <trkpt lat="44.27404" lon="2.68238">
        <ele>638.9335938</ele>
        <time>2013-02-03T11:01:26Z</time>
      </trkpt>
      <trkpt lat="44.27411" lon="2.68236">
        <ele>639.8947754</ele>
        <time>2013-02-03T11:01:32Z</time>
      </trkpt>
      <trkpt lat="44.27416" lon="2.68231">
        <ele>641.8173828</ele>
        <time>2013-02-03T11:01:37Z</time>
      </trkpt>
      <trkpt lat="44.27421" lon="2.68228">
        <ele>642.7788086</ele>
        <time>2013-02-03T11:01:42Z</time>
      </trkpt>
      <trkpt lat="44.27422" lon="2.68227">
        <ele>643.2592773</ele>
        <time>2013-02-03T11:01:43Z</time>
      </trkpt>
      <trkpt lat="44.27425" lon="2.68226">
        <ele>643.7399902</ele>
        <time>2013-02-03T11:01:48Z</time>
      </trkpt>
      <trkpt lat="44.27426" lon="2.68225">
        <ele>644.2207031</ele>
        <time>2013-02-03T11:01:49Z</time>
      </trkpt>
      <trkpt lat="44.27432" lon="2.68223">
        <ele>644.7011719</ele>
        <time>2013-02-03T11:01:53Z</time>
      </trkpt>
      <trkpt lat="44.27442" lon="2.68216">
        <ele>647.1044922</ele>
        <time>2013-02-03T11:02:02Z</time>
      </trkpt>
      <trkpt lat="44.27447" lon="2.68213">
        <ele>648.065918</ele>
        <time>2013-02-03T11:02:07Z</time>
      </trkpt>
      <trkpt lat="44.27451" lon="2.68211">
        <ele>649.0270996</ele>
        <time>2013-02-03T11:02:11Z</time>
      </trkpt>
      <trkpt lat="44.27457" lon="2.68206">
        <ele>649.5078125</ele>
        <time>2013-02-03T11:02:17Z</time>
      </trkpt>
      <trkpt lat="44.27463" lon="2.68202">
        <ele>650.4692383</ele>
        <time>2013-02-03T11:02:22Z</time>
      </trkpt>
      <trkpt lat="44.27468" lon="2.68201">
        <ele>651.9111328</ele>
        <time>2013-02-03T11:02:27Z</time>
      </trkpt>
      <trkpt lat="44.27474" lon="2.68204">
        <ele>652.3918457</ele>
        <time>2013-02-03T11:02:34Z</time>
      </trkpt>
      <trkpt lat="44.27481" lon="2.68206">
        <ele>655.7565918</ele>
        <time>2013-02-03T11:02:42Z</time>
      </trkpt>
      <trkpt lat="44.27487" lon="2.68204">
        <ele>659.1210938</ele>
        <time>2013-02-03T11:02:49Z</time>
      </trkpt>
      <trkpt lat="44.27493" lon="2.68193">
        <ele>661.0437012</ele>
        <time>2013-02-03T11:02:58Z</time>
      </trkpt>
      <trkpt lat="44.27494" lon="2.68186">
        <ele>663.9274902</ele>
        <time>2013-02-03T11:03:02Z</time>
      </trkpt>
      <trkpt lat="44.27498" lon="2.68172">
        <ele>665.8503418</ele>
        <time>2013-02-03T11:03:11Z</time>
      </trkpt>
      <trkpt lat="44.27503" lon="2.68166">
        <ele>666.8115234</ele>
        <time>2013-02-03T11:03:16Z</time>
      </trkpt>
      <trkpt lat="44.27509" lon="2.68163">
        <ele>667.7727051</ele>
        <time>2013-02-03T11:03:21Z</time>
      </trkpt>
      <trkpt lat="44.27512" lon="2.68159">
        <ele>667.7727051</ele>
        <time>2013-02-03T11:03:26Z</time>
      </trkpt>
      <trkpt lat="44.27516" lon="2.6815">
        <ele>667.7727051</ele>
        <time>2013-02-03T11:03:31Z</time>
      </trkpt>
      <trkpt lat="44.27521" lon="2.68128">
        <ele>668.734375</ele>
        <time>2013-02-03T11:03:39Z</time>
      </trkpt>
      <trkpt lat="44.27524" lon="2.68115">
        <ele>668.2536621</ele>
        <time>2013-02-03T11:03:44Z</time>
      </trkpt>
      <trkpt lat="44.27527" lon="2.68101">
        <ele>667.2922363</ele>
        <time>2013-02-03T11:03:49Z</time>
      </trkpt>
      <trkpt lat="44.27532" lon="2.68088">
        <ele>666.8115234</ele>
        <time>2013-02-03T11:03:54Z</time>
      </trkpt>
      <trkpt lat="44.27536" lon="2.68072">
        <ele>667.2922363</ele>
        <time>2013-02-03T11:04:00Z</time>
      </trkpt>
      <trkpt lat="44.27539" lon="2.68058">
        <ele>667.2922363</ele>
        <time>2013-02-03T11:04:05Z</time>
      </trkpt>
      <trkpt lat="44.27544" lon="2.68042">
        <ele>667.2922363</ele>
        <time>2013-02-03T11:04:11Z</time>
      </trkpt>
      <trkpt lat="44.2755" lon="2.68028">
        <ele>670.1762695</ele>
        <time>2013-02-03T11:04:17Z</time>
      </trkpt>
      <trkpt lat="44.27557" lon="2.68023">
        <ele>670.1762695</ele>
        <time>2013-02-03T11:04:21Z</time>
      </trkpt>
      <trkpt lat="44.2757" lon="2.68021">
        <ele>674.9829102</ele>
        <time>2013-02-03T11:04:28Z</time>
      </trkpt>
      <trkpt lat="44.27578" lon="2.68018">
        <ele>681.2314453</ele>
        <time>2013-02-03T11:04:33Z</time>
      </trkpt>
      <trkpt lat="44.27587" lon="2.68016">
        <ele>684.1154785</ele>
        <time>2013-02-03T11:04:37Z</time>
      </trkpt>
      <trkpt lat="44.27595" lon="2.68014">
        <ele>686.5187988</ele>
        <time>2013-02-03T11:04:42Z</time>
      </trkpt>
      <trkpt lat="44.27608" lon="2.68014">
        <ele>684.1154785</ele>
        <time>2013-02-03T11:04:48Z</time>
      </trkpt>
      <trkpt lat="44.27621" lon="2.68012">
        <ele>686.5187988</ele>
        <time>2013-02-03T11:04:54Z</time>
      </trkpt>
      <trkpt lat="44.27633" lon="2.6801">
        <ele>687.4799805</ele>
        <time>2013-02-03T11:05:00Z</time>
      </trkpt>
      <trkpt lat="44.27645" lon="2.68005">
        <ele>687.4799805</ele>
        <time>2013-02-03T11:05:06Z</time>
      </trkpt>
      <trkpt lat="44.27656" lon="2.68">
        <ele>688.4414063</ele>
        <time>2013-02-03T11:05:12Z</time>
      </trkpt>
      <trkpt lat="44.27666" lon="2.67992">
        <ele>690.3640137</ele>
        <time>2013-02-03T11:05:18Z</time>
      </trkpt>
      <trkpt lat="44.27674" lon="2.67981">
        <ele>688.4414063</ele>
        <time>2013-02-03T11:05:24Z</time>
      </trkpt>
      <trkpt lat="44.27678" lon="2.67972">
        <ele>687.9606934</ele>
        <time>2013-02-03T11:05:28Z</time>
      </trkpt>
      <trkpt lat="44.27682" lon="2.67959">
        <ele>688.4414063</ele>
        <time>2013-02-03T11:05:33Z</time>
      </trkpt>
      <trkpt lat="44.27687" lon="2.67948">
        <ele>688.4414063</ele>
        <time>2013-02-03T11:05:38Z</time>
      </trkpt>
      <trkpt lat="44.27692" lon="2.67934">
        <ele>688.9221191</ele>
        <time>2013-02-03T11:05:44Z</time>
      </trkpt>
      <trkpt lat="44.27695" lon="2.67924">
        <ele>687.9606934</ele>
        <time>2013-02-03T11:05:48Z</time>
      </trkpt>
      <trkpt lat="44.27696" lon="2.67916">
        <ele>687.9606934</ele>
        <time>2013-02-03T11:05:51Z</time>
      </trkpt>
      <trkpt lat="44.277" lon="2.67903">
        <ele>688.9221191</ele>
        <time>2013-02-03T11:05:56Z</time>
      </trkpt>
      <trkpt lat="44.27704" lon="2.67887">
        <ele>690.3640137</ele>
        <time>2013-02-03T11:06:02Z</time>
      </trkpt>
      <trkpt lat="44.27709" lon="2.67872">
        <ele>692.2866211</ele>
        <time>2013-02-03T11:06:08Z</time>
      </trkpt>
      <trkpt lat="44.27713" lon="2.67859">
        <ele>694.2092285</ele>
        <time>2013-02-03T11:06:13Z</time>
      </trkpt>
      <trkpt lat="44.27717" lon="2.67846">
        <ele>694.2092285</ele>
        <time>2013-02-03T11:06:18Z</time>
      </trkpt>
      <trkpt lat="44.27722" lon="2.6783">
        <ele>695.1704102</ele>
        <time>2013-02-03T11:06:24Z</time>
      </trkpt>
      <trkpt lat="44.27728" lon="2.67818">
        <ele>695.651123</ele>
        <time>2013-02-03T11:06:29Z</time>
      </trkpt>
      <trkpt lat="44.27733" lon="2.67806">
        <ele>696.6125488</ele>
        <time>2013-02-03T11:06:34Z</time>
      </trkpt>
      <trkpt lat="44.2774" lon="2.67793">
        <ele>698.5349121</ele>
        <time>2013-02-03T11:06:40Z</time>
      </trkpt>
      <trkpt lat="44.27747" lon="2.67783">
        <ele>699.9770508</ele>
        <time>2013-02-03T11:06:45Z</time>
      </trkpt>
      <trkpt lat="44.27754" lon="2.67768">
        <ele>699.4963379</ele>
        <time>2013-02-03T11:06:51Z</time>
      </trkpt>
      <trkpt lat="44.27765" lon="2.67753">
        <ele>700.9384766</ele>
        <time>2013-02-03T11:06:59Z</time>
      </trkpt>
      <trkpt lat="44.27775" lon="2.67742">
        <ele>704.3032227</ele>
        <time>2013-02-03T11:07:05Z</time>
      </trkpt>
      <trkpt lat="44.27785" lon="2.67728">
        <ele>706.2255859</ele>
        <time>2013-02-03T11:07:12Z</time>
      </trkpt>
      <trkpt lat="44.27794" lon="2.67715">
        <ele>707.6677246</ele>
        <time>2013-02-03T11:07:18Z</time>
      </trkpt>
      <trkpt lat="44.27807" lon="2.67705">
        <ele>707.1870117</ele>
        <time>2013-02-03T11:07:25Z</time>
      </trkpt>
      <trkpt lat="44.27811" lon="2.67703">
        <ele>707.6677246</ele>
        <time>2013-02-03T11:07:27Z</time>
      </trkpt>
      <trkpt lat="44.27818" lon="2.67701">
        <ele>708.1484375</ele>
        <time>2013-02-03T11:07:31Z</time>
      </trkpt>
      <trkpt lat="44.27829" lon="2.67701">
        <ele>709.1096191</ele>
        <time>2013-02-03T11:07:36Z</time>
      </trkpt>
      <trkpt lat="44.27841" lon="2.677">
        <ele>708.6289063</ele>
        <time>2013-02-03T11:07:41Z</time>
      </trkpt>
      <trkpt lat="44.27849" lon="2.677">
        <ele>708.6289063</ele>
        <time>2013-02-03T11:07:45Z</time>
      </trkpt>
      <trkpt lat="44.27857" lon="2.67686">
        <ele>709.590332</ele>
        <time>2013-02-03T11:07:51Z</time>
      </trkpt>
      <trkpt lat="44.27857" lon="2.67667">
        <ele>711.9936523</ele>
        <time>2013-02-03T11:07:57Z</time>
      </trkpt>
      <trkpt lat="44.27855" lon="2.67653">
        <ele>712.4741211</ele>
        <time>2013-02-03T11:08:02Z</time>
      </trkpt>
      <trkpt lat="44.27854" lon="2.67642">
        <ele>712.4741211</ele>
        <time>2013-02-03T11:08:06Z</time>
      </trkpt>
      <trkpt lat="44.27859" lon="2.67636">
        <ele>713.4355469</ele>
        <time>2013-02-03T11:08:12Z</time>
      </trkpt>
      <trkpt lat="44.27862" lon="2.67635">
        <ele>713.4355469</ele>
        <time>2013-02-03T11:08:14Z</time>
      </trkpt>
      <trkpt lat="44.27867" lon="2.67635">
        <ele>714.3967285</ele>
        <time>2013-02-03T11:08:19Z</time>
      </trkpt>
      <trkpt lat="44.27872" lon="2.67635">
        <ele>715.8388672</ele>
        <time>2013-02-03T11:08:23Z</time>
      </trkpt>
      <trkpt lat="44.27878" lon="2.67635">
        <ele>717.2810059</ele>
        <time>2013-02-03T11:08:29Z</time>
      </trkpt>
      <trkpt lat="44.27881" lon="2.67636">
        <ele>717.2810059</ele>
        <time>2013-02-03T11:08:32Z</time>
      </trkpt>
      <trkpt lat="44.27889" lon="2.67636">
        <ele>718.7229004</ele>
        <time>2013-02-03T11:08:39Z</time>
      </trkpt>
      <trkpt lat="44.27894" lon="2.67637">
        <ele>720.6455078</ele>
        <time>2013-02-03T11:08:44Z</time>
      </trkpt>
      <trkpt lat="44.27901" lon="2.67639">
        <ele>722.5681152</ele>
        <time>2013-02-03T11:08:51Z</time>
      </trkpt>
      <trkpt lat="44.27906" lon="2.6764">
        <ele>723.529541</ele>
        <time>2013-02-03T11:08:55Z</time>
      </trkpt>
      <trkpt lat="44.27911" lon="2.67642">
        <ele>724.0100098</ele>
        <time>2013-02-03T11:09:00Z</time>
      </trkpt>
      <trkpt lat="44.27913" lon="2.67643">
        <ele>724.4907227</ele>
        <time>2013-02-03T11:09:01Z</time>
      </trkpt>
      <trkpt lat="44.2792" lon="2.67646">
        <ele>724.9714355</ele>
        <time>2013-02-03T11:09:07Z</time>
      </trkpt>
      <trkpt lat="44.27926" lon="2.67647">
        <ele>725.9326172</ele>
        <time>2013-02-03T11:09:11Z</time>
      </trkpt>
      <trkpt lat="44.27936" lon="2.6765">
        <ele>726.894043</ele>
        <time>2013-02-03T11:09:18Z</time>
      </trkpt>
      <trkpt lat="44.27944" lon="2.67652">
        <ele>728.8166504</ele>
        <time>2013-02-03T11:09:23Z</time>
      </trkpt>
      <trkpt lat="44.27953" lon="2.67656">
        <ele>729.2971191</ele>
        <time>2013-02-03T11:09:28Z</time>
      </trkpt>
      <trkpt lat="44.27966" lon="2.67657">
        <ele>730.2585449</ele>
        <time>2013-02-03T11:09:34Z</time>
      </trkpt>
      <trkpt lat="44.27978" lon="2.67653">
        <ele>730.2585449</ele>
        <time>2013-02-03T11:09:40Z</time>
      </trkpt>
      <trkpt lat="44.2798" lon="2.67652">
        <ele>730.2585449</ele>
        <time>2013-02-03T11:09:41Z</time>
      </trkpt>
      <trkpt lat="44.27985" lon="2.67649">
        <ele>729.777832</ele>
        <time>2013-02-03T11:09:44Z</time>
      </trkpt>
      <trkpt lat="44.27997" lon="2.67641">
        <ele>730.7392578</ele>
        <time>2013-02-03T11:09:51Z</time>
      </trkpt>
      <trkpt lat="44.28007" lon="2.67639">
        <ele>731.7004395</ele>
        <time>2013-02-03T11:09:56Z</time>
      </trkpt>
      <trkpt lat="44.28015" lon="2.67636">
        <ele>733.623291</ele>
        <time>2013-02-03T11:10:01Z</time>
      </trkpt>
      <trkpt lat="44.28018" lon="2.67636">
        <ele>733.623291</ele>
        <time>2013-02-03T11:10:03Z</time>
      </trkpt>
      <trkpt lat="44.28023" lon="2.67632">
        <ele>736.0266113</ele>
        <time>2013-02-03T11:10:07Z</time>
      </trkpt>
      <trkpt lat="44.28035" lon="2.67624">
        <ele>736.987793</ele>
        <time>2013-02-03T11:10:14Z</time>
      </trkpt>
      <trkpt lat="44.28039" lon="2.67617">
        <ele>736.5073242</ele>
        <time>2013-02-03T11:10:18Z</time>
      </trkpt>
      <trkpt lat="44.2804" lon="2.67612">
        <ele>736.5073242</ele>
        <time>2013-02-03T11:10:20Z</time>
      </trkpt>
      <trkpt lat="44.28042" lon="2.67604">
        <ele>737.9492188</ele>
        <time>2013-02-03T11:10:25Z</time>
      </trkpt>
      <trkpt lat="44.28046" lon="2.67593">
        <ele>738.4299316</ele>
        <time>2013-02-03T11:10:32Z</time>
      </trkpt>
      <trkpt lat="44.28047" lon="2.67588">
        <ele>738.9106445</ele>
        <time>2013-02-03T11:10:35Z</time>
      </trkpt>
      <trkpt lat="44.2805" lon="2.67582">
        <ele>738.9106445</ele>
        <time>2013-02-03T11:10:40Z</time>
      </trkpt>
      <trkpt lat="44.28052" lon="2.67574">
        <ele>739.8718262</ele>
        <time>2013-02-03T11:10:45Z</time>
      </trkpt>
      <trkpt lat="44.28054" lon="2.67567">
        <ele>741.3137207</ele>
        <time>2013-02-03T11:10:50Z</time>
      </trkpt>
      <trkpt lat="44.28057" lon="2.67557">
        <ele>744.6782227</ele>
        <time>2013-02-03T11:10:57Z</time>
      </trkpt>
      <trkpt lat="44.28059" lon="2.67548">
        <ele>744.6782227</ele>
        <time>2013-02-03T11:11:02Z</time>
      </trkpt>
      <trkpt lat="44.2806" lon="2.67539">
        <ele>744.6782227</ele>
        <time>2013-02-03T11:11:08Z</time>
      </trkpt>
      <trkpt lat="44.28058" lon="2.67535">
        <ele>745.1589355</ele>
        <time>2013-02-03T11:11:11Z</time>
      </trkpt>
      <trkpt lat="44.28049" lon="2.67536">
        <ele>746.1203613</ele>
        <time>2013-02-03T11:11:19Z</time>
      </trkpt>
      <trkpt lat="44.28045" lon="2.67536">
        <ele>745.6396484</ele>
        <time>2013-02-03T11:11:21Z</time>
      </trkpt>
      <trkpt lat="44.28037" lon="2.67532">
        <ele>746.1203613</ele>
        <time>2013-02-03T11:11:27Z</time>
      </trkpt>
      <trkpt lat="44.2803" lon="2.67522">
        <ele>747.5622559</ele>
        <time>2013-02-03T11:11:34Z</time>
      </trkpt>
      <trkpt lat="44.2803" lon="2.6752">
        <ele>747.5622559</ele>
        <time>2013-02-03T11:11:35Z</time>
      </trkpt>
      <trkpt lat="44.28029" lon="2.67505">
        <ele>749.9658203</ele>
        <time>2013-02-03T11:11:44Z</time>
      </trkpt>
      <trkpt lat="44.28028" lon="2.67492">
        <ele>752.8496094</ele>
        <time>2013-02-03T11:11:51Z</time>
      </trkpt>
      <trkpt lat="44.28024" lon="2.67482">
        <ele>755.2529297</ele>
        <time>2013-02-03T11:11:58Z</time>
      </trkpt>
      <trkpt lat="44.28019" lon="2.67469">
        <ele>757.1755371</ele>
        <time>2013-02-03T11:12:06Z</time>
      </trkpt>
      <trkpt lat="44.28017" lon="2.67463">
        <ele>758.6174316</ele>
        <time>2013-02-03T11:12:10Z</time>
      </trkpt>
      <trkpt lat="44.28016" lon="2.67451">
        <ele>759.5788574</ele>
        <time>2013-02-03T11:12:17Z</time>
      </trkpt>
      <trkpt lat="44.28019" lon="2.67446">
        <ele>760.0593262</ele>
        <time>2013-02-03T11:12:21Z</time>
      </trkpt>
      <trkpt lat="44.28023" lon="2.67441">
        <ele>760.5400391</ele>
        <time>2013-02-03T11:12:25Z</time>
      </trkpt>
      <trkpt lat="44.28028" lon="2.67432">
        <ele>761.020752</ele>
        <time>2013-02-03T11:12:31Z</time>
      </trkpt>
      <trkpt lat="44.28031" lon="2.67422">
        <ele>761.9821777</ele>
        <time>2013-02-03T11:12:36Z</time>
      </trkpt>
      <trkpt lat="44.28033" lon="2.67413">
        <ele>762.9433594</ele>
        <time>2013-02-03T11:12:41Z</time>
      </trkpt>
      <trkpt lat="44.28036" lon="2.67404">
        <ele>762.9433594</ele>
        <time>2013-02-03T11:12:46Z</time>
      </trkpt>
      <trkpt lat="44.2804" lon="2.67392">
        <ele>763.4240723</ele>
        <time>2013-02-03T11:12:52Z</time>
      </trkpt>
      <trkpt lat="44.2804" lon="2.67391">
        <ele>763.4240723</ele>
        <time>2013-02-03T11:12:53Z</time>
      </trkpt>
      <trkpt lat="44.28043" lon="2.6738">
        <ele>763.904541</ele>
        <time>2013-02-03T11:12:59Z</time>
      </trkpt>
      <trkpt lat="44.28047" lon="2.67371">
        <ele>764.8662109</ele>
        <time>2013-02-03T11:13:05Z</time>
      </trkpt>
      <trkpt lat="44.28053" lon="2.67359">
        <ele>763.4240723</ele>
        <time>2013-02-03T11:13:13Z</time>
      </trkpt>
      <trkpt lat="44.28058" lon="2.67349">
        <ele>761.020752</ele>
        <time>2013-02-03T11:13:20Z</time>
      </trkpt>
      <trkpt lat="44.28066" lon="2.67337">
        <ele>761.020752</ele>
        <time>2013-02-03T11:13:26Z</time>
      </trkpt>
      <trkpt lat="44.28073" lon="2.67322">
        <ele>760.5400391</ele>
        <time>2013-02-03T11:13:32Z</time>
      </trkpt>
      <trkpt lat="44.2808" lon="2.67308">
        <ele>764.385498</ele>
        <time>2013-02-03T11:13:37Z</time>
      </trkpt>
      <trkpt lat="44.28089" lon="2.67295">
        <ele>763.904541</ele>
        <time>2013-02-03T11:13:43Z</time>
      </trkpt>
      <trkpt lat="44.28091" lon="2.6729">
        <ele>763.904541</ele>
        <time>2013-02-03T11:13:45Z</time>
      </trkpt>
      <trkpt lat="44.28098" lon="2.67273">
        <ele>764.385498</ele>
        <time>2013-02-03T11:13:52Z</time>
      </trkpt>
      <trkpt lat="44.28101" lon="2.67272">
        <ele>771.1147461</ele>
        <time>2013-02-03T11:14:00Z</time>
      </trkpt>
      <trkpt lat="44.28101" lon="2.6727">
        <ele>771.5952148</ele>
        <time>2013-02-03T11:14:22Z</time>
      </trkpt>
      <trkpt lat="44.281" lon="2.67269">
        <ele>772.0759277</ele>
        <time>2013-02-03T11:14:37Z</time>
      </trkpt>
      <trkpt lat="44.28102" lon="2.67269">
        <ele>773.9985352</ele>
        <time>2013-02-03T11:14:50Z</time>
      </trkpt>
      <trkpt lat="44.28102" lon="2.67269">
        <ele>772.5566406</ele>
        <time>2013-02-03T11:15:06Z</time>
      </trkpt>
      <trkpt lat="44.28102" lon="2.67266">
        <ele>769.6728516</ele>
        <time>2013-02-03T11:15:14Z</time>
      </trkpt>
      <trkpt lat="44.28106" lon="2.67259">
        <ele>768.2307129</ele>
        <time>2013-02-03T11:15:18Z</time>
      </trkpt>
      <trkpt lat="44.28107" lon="2.67257">
        <ele>768.7114258</ele>
        <time>2013-02-03T11:15:19Z</time>
      </trkpt>
      <trkpt lat="44.28107" lon="2.67255">
        <ele>768.7114258</ele>
        <time>2013-02-03T11:15:28Z</time>
      </trkpt>
      <trkpt lat="44.28108" lon="2.67255">
        <ele>768.2307129</ele>
        <time>2013-02-03T11:15:34Z</time>
      </trkpt>
      <trkpt lat="44.28108" lon="2.67254">
        <ele>768.7114258</ele>
        <time>2013-02-03T11:15:45Z</time>
      </trkpt>
      <trkpt lat="44.28112" lon="2.67248">
        <ele>768.2307129</ele>
        <time>2013-02-03T11:15:52Z</time>
      </trkpt>
      <trkpt lat="44.28115" lon="2.67242">
        <ele>768.2307129</ele>
        <time>2013-02-03T11:15:56Z</time>
      </trkpt>
      <trkpt lat="44.28118" lon="2.67239">
        <ele>768.7114258</ele>
        <time>2013-02-03T11:16:01Z</time>
      </trkpt>
      <trkpt lat="44.28123" lon="2.67233">
        <ele>769.6728516</ele>
        <time>2013-02-03T11:16:08Z</time>
      </trkpt>
      <trkpt lat="44.2813" lon="2.67227">
        <ele>769.6728516</ele>
        <time>2013-02-03T11:16:15Z</time>
      </trkpt>
      <trkpt lat="44.28136" lon="2.6722">
        <ele>770.1533203</ele>
        <time>2013-02-03T11:16:19Z</time>
      </trkpt>
      <trkpt lat="44.28148" lon="2.6721">
        <ele>768.2307129</ele>
        <time>2013-02-03T11:16:24Z</time>
      </trkpt>
      <trkpt lat="44.28156" lon="2.67202">
        <ele>767.2695313</ele>
        <time>2013-02-03T11:16:28Z</time>
      </trkpt>
      <trkpt lat="44.28164" lon="2.67192">
        <ele>767.2695313</ele>
        <time>2013-02-03T11:16:33Z</time>
      </trkpt>
      <trkpt lat="44.28172" lon="2.67183">
        <ele>767.75</ele>
        <time>2013-02-03T11:16:37Z</time>
      </trkpt>
      <trkpt lat="44.2818" lon="2.67171">
        <ele>765.8276367</ele>
        <time>2013-02-03T11:16:42Z</time>
      </trkpt>
      <trkpt lat="44.28189" lon="2.67156">
        <ele>767.75</ele>
        <time>2013-02-03T11:16:48Z</time>
      </trkpt>
      <trkpt lat="44.2819" lon="2.67154">
        <ele>767.75</ele>
        <time>2013-02-03T11:16:49Z</time>
      </trkpt>
      <trkpt lat="44.28205" lon="2.67141">
        <ele>769.1921387</ele>
        <time>2013-02-03T11:16:56Z</time>
      </trkpt>
      <trkpt lat="44.2821" lon="2.67138">
        <ele>770.6340332</ele>
        <time>2013-02-03T11:16:58Z</time>
      </trkpt>
      <trkpt lat="44.28223" lon="2.67131">
        <ele>773.0373535</ele>
        <time>2013-02-03T11:17:04Z</time>
      </trkpt>
      <trkpt lat="44.28232" lon="2.67128">
        <ele>773.9985352</ele>
        <time>2013-02-03T11:17:08Z</time>
      </trkpt>
      <trkpt lat="44.28246" lon="2.6712">
        <ele>775.4404297</ele>
        <time>2013-02-03T11:17:14Z</time>
      </trkpt>
      <trkpt lat="44.28259" lon="2.67114">
        <ele>775.4404297</ele>
        <time>2013-02-03T11:17:19Z</time>
      </trkpt>
      <trkpt lat="44.28271" lon="2.67107">
        <ele>775.4404297</ele>
        <time>2013-02-03T11:17:24Z</time>
      </trkpt>
      <trkpt lat="44.28283" lon="2.67101">
        <ele>774.9599609</ele>
        <time>2013-02-03T11:17:29Z</time>
      </trkpt>
      <trkpt lat="44.28298" lon="2.67096">
        <ele>774.479248</ele>
        <time>2013-02-03T11:17:35Z</time>
      </trkpt>
      <trkpt lat="44.28313" lon="2.67088">
        <ele>773.5180664</ele>
        <time>2013-02-03T11:17:41Z</time>
      </trkpt>
      <trkpt lat="44.28328" lon="2.6708">
        <ele>773.0373535</ele>
        <time>2013-02-03T11:17:47Z</time>
      </trkpt>
      <trkpt lat="44.2834" lon="2.67074">
        <ele>771.1147461</ele>
        <time>2013-02-03T11:17:51Z</time>
      </trkpt>
      <trkpt lat="44.28348" lon="2.67062">
        <ele>769.6728516</ele>
        <time>2013-02-03T11:17:55Z</time>
      </trkpt>
      <trkpt lat="44.2836" lon="2.67041">
        <ele>766.7888184</ele>
        <time>2013-02-03T11:18:01Z</time>
      </trkpt>
      <trkpt lat="44.28369" lon="2.67025">
        <ele>766.3081055</ele>
        <time>2013-02-03T11:18:06Z</time>
      </trkpt>
      <trkpt lat="44.28382" lon="2.67002">
        <ele>766.3081055</ele>
        <time>2013-02-03T11:18:13Z</time>
      </trkpt>
      <trkpt lat="44.28392" lon="2.66985">
        <ele>765.3469238</ele>
        <time>2013-02-03T11:18:18Z</time>
      </trkpt>
      <trkpt lat="44.28402" lon="2.66964">
        <ele>764.385498</ele>
        <time>2013-02-03T11:18:24Z</time>
      </trkpt>
      <trkpt lat="44.28412" lon="2.66947">
        <ele>764.385498</ele>
        <time>2013-02-03T11:18:29Z</time>
      </trkpt>
      <trkpt lat="44.28423" lon="2.66929">
        <ele>760.5400391</ele>
        <time>2013-02-03T11:18:35Z</time>
      </trkpt>
      <trkpt lat="44.28433" lon="2.66912">
        <ele>759.0981445</ele>
        <time>2013-02-03T11:18:40Z</time>
      </trkpt>
      <trkpt lat="44.28444" lon="2.66897">
        <ele>757.65625</ele>
        <time>2013-02-03T11:18:45Z</time>
      </trkpt>
      <trkpt lat="44.28452" lon="2.66884">
        <ele>753.8110352</ele>
        <time>2013-02-03T11:18:49Z</time>
      </trkpt>
      <trkpt lat="44.28464" lon="2.66868">
        <ele>751.4077148</ele>
        <time>2013-02-03T11:18:54Z</time>
      </trkpt>
      <trkpt lat="44.28472" lon="2.66856">
        <ele>748.5236816</ele>
        <time>2013-02-03T11:18:58Z</time>
      </trkpt>
      <trkpt lat="44.28488" lon="2.66835">
        <ele>746.1203613</ele>
        <time>2013-02-03T11:19:05Z</time>
      </trkpt>
      <trkpt lat="44.28496" lon="2.66824">
        <ele>744.1977539</ele>
        <time>2013-02-03T11:19:09Z</time>
      </trkpt>
      <trkpt lat="44.28504" lon="2.66811">
        <ele>743.2363281</ele>
        <time>2013-02-03T11:19:14Z</time>
      </trkpt>
      <trkpt lat="44.28517" lon="2.66802">
        <ele>742.7558594</ele>
        <time>2013-02-03T11:19:19Z</time>
      </trkpt>
      <trkpt lat="44.28529" lon="2.66792">
        <ele>741.7944336</ele>
        <time>2013-02-03T11:19:24Z</time>
      </trkpt>
      <trkpt lat="44.2854" lon="2.66783">
        <ele>739.8718262</ele>
        <time>2013-02-03T11:19:29Z</time>
      </trkpt>
      <trkpt lat="44.28551" lon="2.66768">
        <ele>738.9106445</ele>
        <time>2013-02-03T11:19:34Z</time>
      </trkpt>
      <trkpt lat="44.28559" lon="2.66756">
        <ele>737.4685059</ele>
        <time>2013-02-03T11:19:38Z</time>
      </trkpt>
      <trkpt lat="44.28561" lon="2.66752">
        <ele>736.0266113</ele>
        <time>2013-02-03T11:19:39Z</time>
      </trkpt>
      <trkpt lat="44.28578" lon="2.66736">
        <ele>729.777832</ele>
        <time>2013-02-03T11:19:46Z</time>
      </trkpt>
      <trkpt lat="44.28585" lon="2.66723">
        <ele>726.894043</ele>
        <time>2013-02-03T11:19:50Z</time>
      </trkpt>
      <trkpt lat="44.28591" lon="2.66703">
        <ele>727.8552246</ele>
        <time>2013-02-03T11:19:55Z</time>
      </trkpt>
      <trkpt lat="44.286" lon="2.66685">
        <ele>727.3747559</ele>
        <time>2013-02-03T11:20:00Z</time>
      </trkpt>
      <trkpt lat="44.28607" lon="2.66671">
        <ele>725.9326172</ele>
        <time>2013-02-03T11:20:04Z</time>
      </trkpt>
      <trkpt lat="44.28614" lon="2.66654">
        <ele>723.529541</ele>
        <time>2013-02-03T11:20:09Z</time>
      </trkpt>
      <trkpt lat="44.28621" lon="2.66637">
        <ele>721.1262207</ele>
        <time>2013-02-03T11:20:14Z</time>
      </trkpt>
      <trkpt lat="44.28626" lon="2.66617">
        <ele>719.6843262</ele>
        <time>2013-02-03T11:20:19Z</time>
      </trkpt>
      <trkpt lat="44.28632" lon="2.66603">
        <ele>719.6843262</ele>
        <time>2013-02-03T11:20:23Z</time>
      </trkpt>
      <trkpt lat="44.28636" lon="2.66597">
        <ele>721.1262207</ele>
        <time>2013-02-03T11:20:25Z</time>
      </trkpt>
      <trkpt lat="44.28645" lon="2.66577">
        <ele>722.0874023</ele>
        <time>2013-02-03T11:20:31Z</time>
      </trkpt>
      <trkpt lat="44.28653" lon="2.66565">
        <ele>720.1647949</ele>
        <time>2013-02-03T11:20:35Z</time>
      </trkpt>
      <trkpt lat="44.28659" lon="2.66554">
        <ele>717.7614746</ele>
        <time>2013-02-03T11:20:39Z</time>
      </trkpt>
      <trkpt lat="44.28669" lon="2.66543">
        <ele>716.800293</ele>
        <time>2013-02-03T11:20:44Z</time>
      </trkpt>
      <trkpt lat="44.28682" lon="2.66532">
        <ele>713.4355469</ele>
        <time>2013-02-03T11:20:50Z</time>
      </trkpt>
      <trkpt lat="44.28689" lon="2.66528">
        <ele>710.0708008</ele>
        <time>2013-02-03T11:20:53Z</time>
      </trkpt>
      <trkpt lat="44.28706" lon="2.66512">
        <ele>712.4741211</ele>
        <time>2013-02-03T11:21:00Z</time>
      </trkpt>
      <trkpt lat="44.28712" lon="2.66503">
        <ele>711.9936523</ele>
        <time>2013-02-03T11:21:04Z</time>
      </trkpt>
      <trkpt lat="44.28715" lon="2.66499">
        <ele>711.9936523</ele>
        <time>2013-02-03T11:21:06Z</time>
      </trkpt>
      <trkpt lat="44.28717" lon="2.66492">
        <ele>709.590332</ele>
        <time>2013-02-03T11:21:09Z</time>
      </trkpt>
      <trkpt lat="44.28721" lon="2.66476">
        <ele>708.6289063</ele>
        <time>2013-02-03T11:21:15Z</time>
      </trkpt>
      <trkpt lat="44.28723" lon="2.66466">
        <ele>711.5129395</ele>
        <time>2013-02-03T11:21:18Z</time>
      </trkpt>
      <trkpt lat="44.28726" lon="2.66446">
        <ele>713.9160156</ele>
        <time>2013-02-03T11:21:24Z</time>
      </trkpt>
      <trkpt lat="44.28728" lon="2.66436">
        <ele>715.8388672</ele>
        <time>2013-02-03T11:21:28Z</time>
      </trkpt>
      <trkpt lat="44.28732" lon="2.66418">
        <ele>716.800293</ele>
        <time>2013-02-03T11:21:34Z</time>
      </trkpt>
      <trkpt lat="44.28737" lon="2.66404">
        <ele>718.2421875</ele>
        <time>2013-02-03T11:21:40Z</time>
      </trkpt>
      <trkpt lat="44.28743" lon="2.66386">
        <ele>723.529541</ele>
        <time>2013-02-03T11:21:46Z</time>
      </trkpt>
      <trkpt lat="44.28748" lon="2.66372">
        <ele>725.4519043</ele>
        <time>2013-02-03T11:21:51Z</time>
      </trkpt>
      <trkpt lat="44.2875" lon="2.66367">
        <ele>727.3747559</ele>
        <time>2013-02-03T11:21:53Z</time>
      </trkpt>
      <trkpt lat="44.28755" lon="2.66351">
        <ele>727.3747559</ele>
        <time>2013-02-03T11:21:59Z</time>
      </trkpt>
      <trkpt lat="44.28761" lon="2.66334">
        <ele>728.8166504</ele>
        <time>2013-02-03T11:22:05Z</time>
      </trkpt>
      <trkpt lat="44.28765" lon="2.66323">
        <ele>727.8552246</ele>
        <time>2013-02-03T11:22:09Z</time>
      </trkpt>
      <trkpt lat="44.28772" lon="2.66302">
        <ele>732.6621094</ele>
        <time>2013-02-03T11:22:16Z</time>
      </trkpt>
      <trkpt lat="44.28779" lon="2.66287">
        <ele>732.6621094</ele>
        <time>2013-02-03T11:22:22Z</time>
      </trkpt>
      <trkpt lat="44.28782" lon="2.66274">
        <ele>732.6621094</ele>
        <time>2013-02-03T11:22:26Z</time>
      </trkpt>
      <trkpt lat="44.28787" lon="2.66261">
        <ele>733.1425781</ele>
        <time>2013-02-03T11:22:30Z</time>
      </trkpt>
      <trkpt lat="44.28791" lon="2.66244">
        <ele>734.5847168</ele>
        <time>2013-02-03T11:22:35Z</time>
      </trkpt>
      <trkpt lat="44.28798" lon="2.66225">
        <ele>736.0266113</ele>
        <time>2013-02-03T11:22:41Z</time>
      </trkpt>
      <trkpt lat="44.28804" lon="2.66213">
        <ele>737.9492188</ele>
        <time>2013-02-03T11:22:45Z</time>
      </trkpt>
      <trkpt lat="44.28812" lon="2.66203">
        <ele>738.4299316</ele>
        <time>2013-02-03T11:22:51Z</time>
      </trkpt>
      <trkpt lat="44.28819" lon="2.66193">
        <ele>735.0654297</ele>
        <time>2013-02-03T11:22:55Z</time>
      </trkpt>
      <trkpt lat="44.28826" lon="2.66183">
        <ele>733.623291</ele>
        <time>2013-02-03T11:23:00Z</time>
      </trkpt>
      <trkpt lat="44.2883" lon="2.66176">
        <ele>733.1425781</ele>
        <time>2013-02-03T11:23:04Z</time>
      </trkpt>
      <trkpt lat="44.28839" lon="2.66163">
        <ele>734.1040039</ele>
        <time>2013-02-03T11:23:10Z</time>
      </trkpt>
      <trkpt lat="44.28843" lon="2.66159">
        <ele>735.5458984</ele>
        <time>2013-02-03T11:23:12Z</time>
      </trkpt>
      <trkpt lat="44.28861" lon="2.66145">
        <ele>733.1425781</ele>
        <time>2013-02-03T11:23:19Z</time>
      </trkpt>
      <trkpt lat="44.28874" lon="2.6614">
        <ele>732.1813965</ele>
        <time>2013-02-03T11:23:24Z</time>
      </trkpt>
      <trkpt lat="44.28889" lon="2.66141">
        <ele>733.623291</ele>
        <time>2013-02-03T11:23:29Z</time>
      </trkpt>
      <trkpt lat="44.28902" lon="2.66149">
        <ele>734.5847168</ele>
        <time>2013-02-03T11:23:34Z</time>
      </trkpt>
      <trkpt lat="44.28911" lon="2.66162">
        <ele>734.1040039</ele>
        <time>2013-02-03T11:23:39Z</time>
      </trkpt>
      <trkpt lat="44.28915" lon="2.66177">
        <ele>735.0654297</ele>
        <time>2013-02-03T11:23:43Z</time>
      </trkpt>
      <trkpt lat="44.28914" lon="2.66196">
        <ele>736.0266113</ele>
        <time>2013-02-03T11:23:48Z</time>
      </trkpt>
      <trkpt lat="44.28906" lon="2.66217">
        <ele>735.5458984</ele>
        <time>2013-02-03T11:23:54Z</time>
      </trkpt>
      <trkpt lat="44.289" lon="2.66234">
        <ele>735.5458984</ele>
        <time>2013-02-03T11:23:59Z</time>
      </trkpt>
      <trkpt lat="44.28892" lon="2.66251">
        <ele>734.1040039</ele>
        <time>2013-02-03T11:24:04Z</time>
      </trkpt>
      <trkpt lat="44.2888" lon="2.66265">
        <ele>730.7392578</ele>
        <time>2013-02-03T11:24:10Z</time>
      </trkpt>
      <trkpt lat="44.2887" lon="2.66274">
        <ele>725.9326172</ele>
        <time>2013-02-03T11:24:15Z</time>
      </trkpt>
      <trkpt lat="44.28868" lon="2.66277">
        <ele>725.4519043</ele>
        <time>2013-02-03T11:24:16Z</time>
      </trkpt>
      <trkpt lat="44.28872" lon="2.66291">
        <ele>720.6455078</ele>
        <time>2013-02-03T11:24:21Z</time>
      </trkpt>
      <trkpt lat="44.28883" lon="2.66314">
        <ele>718.2421875</ele>
        <time>2013-02-03T11:24:28Z</time>
      </trkpt>
      <trkpt lat="44.28893" lon="2.6633">
        <ele>715.8388672</ele>
        <time>2013-02-03T11:24:33Z</time>
      </trkpt>
      <trkpt lat="44.28903" lon="2.66341">
        <ele>714.3967285</ele>
        <time>2013-02-03T11:24:38Z</time>
      </trkpt>
      <trkpt lat="44.28914" lon="2.66352">
        <ele>713.4355469</ele>
        <time>2013-02-03T11:24:43Z</time>
      </trkpt>
      <trkpt lat="44.28926" lon="2.66363">
        <ele>711.9936523</ele>
        <time>2013-02-03T11:24:48Z</time>
      </trkpt>
      <trkpt lat="44.28938" lon="2.6637">
        <ele>710.5515137</ele>
        <time>2013-02-03T11:24:52Z</time>
      </trkpt>
      <trkpt lat="44.28955" lon="2.66384">
        <ele>707.1870117</ele>
        <time>2013-02-03T11:24:58Z</time>
      </trkpt>
      <trkpt lat="44.28967" lon="2.66397">
        <ele>704.3032227</ele>
        <time>2013-02-03T11:25:03Z</time>
      </trkpt>
      <trkpt lat="44.28981" lon="2.66404">
        <ele>701.4191895</ele>
        <time>2013-02-03T11:25:08Z</time>
      </trkpt>
      <trkpt lat="44.28996" lon="2.66409">
        <ele>698.5349121</ele>
        <time>2013-02-03T11:25:13Z</time>
      </trkpt>
      <trkpt lat="44.29011" lon="2.66413">
        <ele>698.0544434</ele>
        <time>2013-02-03T11:25:18Z</time>
      </trkpt>
      <trkpt lat="44.29028" lon="2.66412">
        <ele>698.5349121</ele>
        <time>2013-02-03T11:25:24Z</time>
      </trkpt>
      <trkpt lat="44.29041" lon="2.66406">
        <ele>696.1318359</ele>
        <time>2013-02-03T11:25:29Z</time>
      </trkpt>
      <trkpt lat="44.29053" lon="2.66398">
        <ele>693.2478027</ele>
        <time>2013-02-03T11:25:34Z</time>
      </trkpt>
      <trkpt lat="44.29068" lon="2.66388">
        <ele>692.2866211</ele>
        <time>2013-02-03T11:25:40Z</time>
      </trkpt>
      <trkpt lat="44.2908" lon="2.66381">
        <ele>692.2866211</ele>
        <time>2013-02-03T11:25:45Z</time>
      </trkpt>
      <trkpt lat="44.29088" lon="2.66378">
        <ele>693.7285156</ele>
        <time>2013-02-03T11:25:48Z</time>
      </trkpt>
      <trkpt lat="44.29096" lon="2.66365">
        <ele>691.8059082</ele>
        <time>2013-02-03T11:25:53Z</time>
      </trkpt>
      <trkpt lat="44.29106" lon="2.66352">
        <ele>691.3251953</ele>
        <time>2013-02-03T11:25:58Z</time>
      </trkpt>
      <trkpt lat="44.29107" lon="2.66349">
        <ele>691.8059082</ele>
        <time>2013-02-03T11:25:59Z</time>
      </trkpt>
      <trkpt lat="44.29115" lon="2.66331">
        <ele>691.3251953</ele>
        <time>2013-02-03T11:26:05Z</time>
      </trkpt>
      <trkpt lat="44.29122" lon="2.66314">
        <ele>692.2866211</ele>
        <time>2013-02-03T11:26:11Z</time>
      </trkpt>
      <trkpt lat="44.29128" lon="2.66299">
        <ele>694.2092285</ele>
        <time>2013-02-03T11:26:17Z</time>
      </trkpt>
      <trkpt lat="44.29132" lon="2.66289">
        <ele>693.7285156</ele>
        <time>2013-02-03T11:26:21Z</time>
      </trkpt>
      <trkpt lat="44.29136" lon="2.66279">
        <ele>693.7285156</ele>
        <time>2013-02-03T11:26:25Z</time>
      </trkpt>
      <trkpt lat="44.29142" lon="2.66264">
        <ele>694.6896973</ele>
        <time>2013-02-03T11:26:31Z</time>
      </trkpt>
      <trkpt lat="44.29143" lon="2.66262">
        <ele>694.6896973</ele>
        <time>2013-02-03T11:26:32Z</time>
      </trkpt>
      <trkpt lat="44.29149" lon="2.66251">
        <ele>697.0930176</ele>
        <time>2013-02-03T11:26:37Z</time>
      </trkpt>
      <trkpt lat="44.29159" lon="2.6624">
        <ele>698.5349121</ele>
        <time>2013-02-03T11:26:43Z</time>
      </trkpt>
      <trkpt lat="44.29165" lon="2.66231">
        <ele>699.9770508</ele>
        <time>2013-02-03T11:26:48Z</time>
      </trkpt>
      <trkpt lat="44.29174" lon="2.6622">
        <ele>702.3803711</ele>
        <time>2013-02-03T11:26:53Z</time>
      </trkpt>
      <trkpt lat="44.29186" lon="2.6621">
        <ele>703.8225098</ele>
        <time>2013-02-03T11:26:59Z</time>
      </trkpt>
      <trkpt lat="44.29194" lon="2.66202">
        <ele>704.3032227</ele>
        <time>2013-02-03T11:27:04Z</time>
      </trkpt>
      <trkpt lat="44.29201" lon="2.66195">
        <ele>705.2644043</ele>
        <time>2013-02-03T11:27:08Z</time>
      </trkpt>
      <trkpt lat="44.29206" lon="2.66187">
        <ele>705.7451172</ele>
        <time>2013-02-03T11:27:12Z</time>
      </trkpt>
      <trkpt lat="44.29212" lon="2.66174">
        <ele>705.7451172</ele>
        <time>2013-02-03T11:27:17Z</time>
      </trkpt>
      <trkpt lat="44.29214" lon="2.66159">
        <ele>706.7062988</ele>
        <time>2013-02-03T11:27:22Z</time>
      </trkpt>
      <trkpt lat="44.29221" lon="2.66147">
        <ele>708.1484375</ele>
        <time>2013-02-03T11:27:27Z</time>
      </trkpt>
      <trkpt lat="44.29224" lon="2.66135">
        <ele>708.1484375</ele>
        <time>2013-02-03T11:27:31Z</time>
      </trkpt>
      <trkpt lat="44.29228" lon="2.66121">
        <ele>707.1870117</ele>
        <time>2013-02-03T11:27:36Z</time>
      </trkpt>
      <trkpt lat="44.2923" lon="2.66112">
        <ele>708.6289063</ele>
        <time>2013-02-03T11:27:40Z</time>
      </trkpt>
      <trkpt lat="44.29232" lon="2.661">
        <ele>709.1096191</ele>
        <time>2013-02-03T11:27:45Z</time>
      </trkpt>
      <trkpt lat="44.29231" lon="2.66087">
        <ele>709.1096191</ele>
        <time>2013-02-03T11:27:50Z</time>
      </trkpt>
      <trkpt lat="44.29229" lon="2.66077">
        <ele>709.590332</ele>
        <time>2013-02-03T11:27:53Z</time>
      </trkpt>
      <trkpt lat="44.29233" lon="2.66066">
        <ele>710.5515137</ele>
        <time>2013-02-03T11:27:58Z</time>
      </trkpt>
      <trkpt lat="44.29234" lon="2.66056">
        <ele>711.9936523</ele>
        <time>2013-02-03T11:28:02Z</time>
      </trkpt>
      <trkpt lat="44.29238" lon="2.66039">
        <ele>712.4741211</ele>
        <time>2013-02-03T11:28:08Z</time>
      </trkpt>
      <trkpt lat="44.29237" lon="2.66036">
        <ele>711.9936523</ele>
        <time>2013-02-03T11:28:09Z</time>
      </trkpt>
      <trkpt lat="44.29238" lon="2.66022">
        <ele>715.3581543</ele>
        <time>2013-02-03T11:28:13Z</time>
      </trkpt>
      <trkpt lat="44.29245" lon="2.66003">
        <ele>716.3195801</ele>
        <time>2013-02-03T11:28:20Z</time>
      </trkpt>
      <trkpt lat="44.29253" lon="2.65988">
        <ele>715.8388672</ele>
        <time>2013-02-03T11:28:25Z</time>
      </trkpt>
      <trkpt lat="44.2926" lon="2.65974">
        <ele>717.7614746</ele>
        <time>2013-02-03T11:28:30Z</time>
      </trkpt>
      <trkpt lat="44.29269" lon="2.65958">
        <ele>716.800293</ele>
        <time>2013-02-03T11:28:36Z</time>
      </trkpt>
      <trkpt lat="44.29277" lon="2.65948">
        <ele>713.9160156</ele>
        <time>2013-02-03T11:28:41Z</time>
      </trkpt>
      <trkpt lat="44.29285" lon="2.65937">
        <ele>709.590332</ele>
        <time>2013-02-03T11:28:46Z</time>
      </trkpt>
      <trkpt lat="44.29291" lon="2.65925">
        <ele>713.9160156</ele>
        <time>2013-02-03T11:28:51Z</time>
      </trkpt>
      <trkpt lat="44.29299" lon="2.65917">
        <ele>712.954834</ele>
        <time>2013-02-03T11:28:55Z</time>
      </trkpt>
      <trkpt lat="44.29305" lon="2.65911">
        <ele>712.4741211</ele>
        <time>2013-02-03T11:28:58Z</time>
      </trkpt>
      <trkpt lat="44.29319" lon="2.65906">
        <ele>713.4355469</ele>
        <time>2013-02-03T11:29:04Z</time>
      </trkpt>
      <trkpt lat="44.2933" lon="2.65906">
        <ele>711.9936523</ele>
        <time>2013-02-03T11:29:11Z</time>
      </trkpt>
      <trkpt lat="44.29331" lon="2.65905">
        <ele>711.9936523</ele>
        <time>2013-02-03T11:29:12Z</time>
      </trkpt>
      <trkpt lat="44.29339" lon="2.65906">
        <ele>711.5129395</ele>
        <time>2013-02-03T11:29:18Z</time>
      </trkpt>
      <trkpt lat="44.29342" lon="2.65906">
        <ele>711.5129395</ele>
        <time>2013-02-03T11:29:19Z</time>
      </trkpt>
      <trkpt lat="44.29358" lon="2.65903">
        <ele>711.9936523</ele>
        <time>2013-02-03T11:29:25Z</time>
      </trkpt>
      <trkpt lat="44.2937" lon="2.65899">
        <ele>712.4741211</ele>
        <time>2013-02-03T11:29:29Z</time>
      </trkpt>
      <trkpt lat="44.29383" lon="2.65896">
        <ele>713.4355469</ele>
        <time>2013-02-03T11:29:34Z</time>
      </trkpt>
      <trkpt lat="44.29394" lon="2.6589">
        <ele>713.9160156</ele>
        <time>2013-02-03T11:29:39Z</time>
      </trkpt>
      <trkpt lat="44.29408" lon="2.65883">
        <ele>713.4355469</ele>
        <time>2013-02-03T11:29:45Z</time>
      </trkpt>
      <trkpt lat="44.29422" lon="2.6587">
        <ele>713.9160156</ele>
        <time>2013-02-03T11:29:51Z</time>
      </trkpt>
      <trkpt lat="44.29432" lon="2.65859">
        <ele>715.3581543</ele>
        <time>2013-02-03T11:29:55Z</time>
      </trkpt>
      <trkpt lat="44.29441" lon="2.65847">
        <ele>713.9160156</ele>
        <time>2013-02-03T11:30:00Z</time>
      </trkpt>
      <trkpt lat="44.2945" lon="2.65837">
        <ele>709.590332</ele>
        <time>2013-02-03T11:30:05Z</time>
      </trkpt>
      <trkpt lat="44.29461" lon="2.65827">
        <ele>711.0322266</ele>
        <time>2013-02-03T11:30:10Z</time>
      </trkpt>
      <trkpt lat="44.29463" lon="2.65825">
        <ele>711.0322266</ele>
        <time>2013-02-03T11:30:11Z</time>
      </trkpt>
      <trkpt lat="44.29471" lon="2.6582">
        <ele>711.5129395</ele>
        <time>2013-02-03T11:30:15Z</time>
      </trkpt>
      <trkpt lat="44.29484" lon="2.65813">
        <ele>713.4355469</ele>
        <time>2013-02-03T11:30:21Z</time>
      </trkpt>
      <trkpt lat="44.29498" lon="2.65807">
        <ele>714.8774414</ele>
        <time>2013-02-03T11:30:27Z</time>
      </trkpt>
      <trkpt lat="44.29509" lon="2.65803">
        <ele>714.8774414</ele>
        <time>2013-02-03T11:30:32Z</time>
      </trkpt>
      <trkpt lat="44.29518" lon="2.65799">
        <ele>715.3581543</ele>
        <time>2013-02-03T11:30:36Z</time>
      </trkpt>
      <trkpt lat="44.2953" lon="2.65793">
        <ele>715.3581543</ele>
        <time>2013-02-03T11:30:42Z</time>
      </trkpt>
      <trkpt lat="44.29542" lon="2.65786">
        <ele>716.800293</ele>
        <time>2013-02-03T11:30:48Z</time>
      </trkpt>
      <trkpt lat="44.29551" lon="2.65783">
        <ele>716.800293</ele>
        <time>2013-02-03T11:30:52Z</time>
      </trkpt>
      <trkpt lat="44.29553" lon="2.65781">
        <ele>716.800293</ele>
        <time>2013-02-03T11:30:54Z</time>
      </trkpt>
      <trkpt lat="44.2956" lon="2.65778">
        <ele>717.2810059</ele>
        <time>2013-02-03T11:30:59Z</time>
      </trkpt>
      <trkpt lat="44.2957" lon="2.65772">
        <ele>717.2810059</ele>
        <time>2013-02-03T11:31:04Z</time>
      </trkpt>
      <trkpt lat="44.29572" lon="2.65771">
        <ele>717.2810059</ele>
        <time>2013-02-03T11:31:05Z</time>
      </trkpt>
      <trkpt lat="44.29583" lon="2.65765">
        <ele>718.2421875</ele>
        <time>2013-02-03T11:31:11Z</time>
      </trkpt>
      <trkpt lat="44.29596" lon="2.65754">
        <ele>717.2810059</ele>
        <time>2013-02-03T11:31:17Z</time>
      </trkpt>
      <trkpt lat="44.29605" lon="2.65746">
        <ele>717.7614746</ele>
        <time>2013-02-03T11:31:21Z</time>
      </trkpt>
      <trkpt lat="44.2962" lon="2.65736">
        <ele>718.7229004</ele>
        <time>2013-02-03T11:31:27Z</time>
      </trkpt>
      <trkpt lat="44.29629" lon="2.65727">
        <ele>720.6455078</ele>
        <time>2013-02-03T11:31:31Z</time>
      </trkpt>
      <trkpt lat="44.29637" lon="2.65721">
        <ele>721.6066895</ele>
        <time>2013-02-03T11:31:35Z</time>
      </trkpt>
      <trkpt lat="44.29638" lon="2.65719">
        <ele>723.0488281</ele>
        <time>2013-02-03T11:31:38Z</time>
      </trkpt>
      <trkpt lat="44.2964" lon="2.65718">
        <ele>724.0100098</ele>
        <time>2013-02-03T11:31:42Z</time>
      </trkpt>
      <trkpt lat="44.29652" lon="2.65723">
        <ele>722.5681152</ele>
        <time>2013-02-03T11:31:48Z</time>
      </trkpt>
      <trkpt lat="44.29654" lon="2.65725">
        <ele>721.6066895</ele>
        <time>2013-02-03T11:31:49Z</time>
      </trkpt>
      <trkpt lat="44.29668" lon="2.65727">
        <ele>718.7229004</ele>
        <time>2013-02-03T11:31:55Z</time>
      </trkpt>
      <trkpt lat="44.29681" lon="2.65724">
        <ele>718.2421875</ele>
        <time>2013-02-03T11:32:00Z</time>
      </trkpt>
      <trkpt lat="44.29689" lon="2.65711">
        <ele>716.800293</ele>
        <time>2013-02-03T11:32:05Z</time>
      </trkpt>
      <trkpt lat="44.29697" lon="2.65698">
        <ele>713.9160156</ele>
        <time>2013-02-03T11:32:10Z</time>
      </trkpt>
      <trkpt lat="44.29702" lon="2.6569">
        <ele>711.0322266</ele>
        <time>2013-02-03T11:32:14Z</time>
      </trkpt>
      <trkpt lat="44.29712" lon="2.65677">
        <ele>707.6677246</ele>
        <time>2013-02-03T11:32:20Z</time>
      </trkpt>
      <trkpt lat="44.29721" lon="2.6567">
        <ele>704.3032227</ele>
        <time>2013-02-03T11:32:24Z</time>
      </trkpt>
      <trkpt lat="44.2973" lon="2.65664">
        <ele>700.9384766</ele>
        <time>2013-02-03T11:32:28Z</time>
      </trkpt>
      <trkpt lat="44.29745" lon="2.65658">
        <ele>699.015625</ele>
        <time>2013-02-03T11:32:34Z</time>
      </trkpt>
      <trkpt lat="44.29759" lon="2.65653">
        <ele>695.651123</ele>
        <time>2013-02-03T11:32:40Z</time>
      </trkpt>
      <trkpt lat="44.29769" lon="2.65653">
        <ele>693.2478027</ele>
        <time>2013-02-03T11:32:44Z</time>
      </trkpt>
      <trkpt lat="44.29781" lon="2.65646">
        <ele>690.8444824</ele>
        <time>2013-02-03T11:32:49Z</time>
      </trkpt>
      <trkpt lat="44.29794" lon="2.65637">
        <ele>688.9221191</ele>
        <time>2013-02-03T11:32:54Z</time>
      </trkpt>
      <trkpt lat="44.29803" lon="2.65629">
        <ele>687.4799805</ele>
        <time>2013-02-03T11:32:58Z</time>
      </trkpt>
      <trkpt lat="44.29814" lon="2.65623">
        <ele>686.5187988</ele>
        <time>2013-02-03T11:33:02Z</time>
      </trkpt>
      <trkpt lat="44.29817" lon="2.65621">
        <ele>686.5187988</ele>
        <time>2013-02-03T11:33:03Z</time>
      </trkpt>
      <trkpt lat="44.29827" lon="2.6561">
        <ele>685.557373</ele>
        <time>2013-02-03T11:33:08Z</time>
      </trkpt>
      <trkpt lat="44.29841" lon="2.65596">
        <ele>685.0769043</ele>
        <time>2013-02-03T11:33:14Z</time>
      </trkpt>
      <trkpt lat="44.29856" lon="2.65584">
        <ele>685.557373</ele>
        <time>2013-02-03T11:33:20Z</time>
      </trkpt>
      <trkpt lat="44.2987" lon="2.65573">
        <ele>686.0380859</ele>
        <time>2013-02-03T11:33:26Z</time>
      </trkpt>
      <trkpt lat="44.29879" lon="2.65564">
        <ele>686.0380859</ele>
        <time>2013-02-03T11:33:30Z</time>
      </trkpt>
      <trkpt lat="44.29892" lon="2.65555">
        <ele>685.557373</ele>
        <time>2013-02-03T11:33:35Z</time>
      </trkpt>
      <trkpt lat="44.29905" lon="2.65546">
        <ele>686.0380859</ele>
        <time>2013-02-03T11:33:40Z</time>
      </trkpt>
      <trkpt lat="44.29913" lon="2.65538">
        <ele>686.5187988</ele>
        <time>2013-02-03T11:33:44Z</time>
      </trkpt>
      <trkpt lat="44.29922" lon="2.65529">
        <ele>686.9992676</ele>
        <time>2013-02-03T11:33:48Z</time>
      </trkpt>
      <trkpt lat="44.29929" lon="2.65517">
        <ele>686.9992676</ele>
        <time>2013-02-03T11:33:52Z</time>
      </trkpt>
      <trkpt lat="44.29934" lon="2.65508">
        <ele>686.5187988</ele>
        <time>2013-02-03T11:33:55Z</time>
      </trkpt>
      <trkpt lat="44.29943" lon="2.65491">
        <ele>684.5961914</ele>
        <time>2013-02-03T11:34:01Z</time>
      </trkpt>
      <trkpt lat="44.29945" lon="2.65488">
        <ele>684.1154785</ele>
        <time>2013-02-03T11:34:02Z</time>
      </trkpt>
      <trkpt lat="44.29958" lon="2.65466">
        <ele>681.2314453</ele>
        <time>2013-02-03T11:34:10Z</time>
      </trkpt>
      <trkpt lat="44.29964" lon="2.65451">
        <ele>679.3085938</ele>
        <time>2013-02-03T11:34:15Z</time>
      </trkpt>
      <trkpt lat="44.29969" lon="2.65435">
        <ele>676.4248047</ele>
        <time>2013-02-03T11:34:20Z</time>
      </trkpt>
      <trkpt lat="44.29976" lon="2.65417">
        <ele>673.5410156</ele>
        <time>2013-02-03T11:34:25Z</time>
      </trkpt>
      <trkpt lat="44.2998" lon="2.65403">
        <ele>671.6181641</ele>
        <time>2013-02-03T11:34:29Z</time>
      </trkpt>
      <trkpt lat="44.29985" lon="2.65386">
        <ele>669.6958008</ele>
        <time>2013-02-03T11:34:34Z</time>
      </trkpt>
      <trkpt lat="44.29991" lon="2.65364">
        <ele>668.2536621</ele>
        <time>2013-02-03T11:34:40Z</time>
      </trkpt>
      <trkpt lat="44.29995" lon="2.65343">
        <ele>668.2536621</ele>
        <time>2013-02-03T11:34:45Z</time>
      </trkpt>
      <trkpt lat="44.29998" lon="2.65325">
        <ele>668.2536621</ele>
        <time>2013-02-03T11:34:50Z</time>
      </trkpt>
      <trkpt lat="44.30002" lon="2.65315">
        <ele>667.7727051</ele>
        <time>2013-02-03T11:34:53Z</time>
      </trkpt>
      <trkpt lat="44.30012" lon="2.65311">
        <ele>667.7727051</ele>
        <time>2013-02-03T11:34:57Z</time>
      </trkpt>
      <trkpt lat="44.30016" lon="2.65314">
        <ele>666.8115234</ele>
        <time>2013-02-03T11:34:59Z</time>
      </trkpt>
      <trkpt lat="44.30027" lon="2.65329">
        <ele>665.3696289</ele>
        <time>2013-02-03T11:35:05Z</time>
      </trkpt>
      <trkpt lat="44.30033" lon="2.65339">
        <ele>663.9274902</ele>
        <time>2013-02-03T11:35:09Z</time>
      </trkpt>
      <trkpt lat="44.30042" lon="2.65351">
        <ele>663.4470215</ele>
        <time>2013-02-03T11:35:14Z</time>
      </trkpt>
      <trkpt lat="44.30055" lon="2.65366">
        <ele>664.4082031</ele>
        <time>2013-02-03T11:35:20Z</time>
      </trkpt>
      <trkpt lat="44.30067" lon="2.65383">
        <ele>663.4470215</ele>
        <time>2013-02-03T11:35:26Z</time>
      </trkpt>
      <trkpt lat="44.30079" lon="2.65397">
        <ele>662.4855957</ele>
        <time>2013-02-03T11:35:32Z</time>
      </trkpt>
      <trkpt lat="44.30093" lon="2.65406">
        <ele>663.4470215</ele>
        <time>2013-02-03T11:35:38Z</time>
      </trkpt>
      <trkpt lat="44.30109" lon="2.65408">
        <ele>662.4855957</ele>
        <time>2013-02-03T11:35:44Z</time>
      </trkpt>
      <trkpt lat="44.30125" lon="2.6541">
        <ele>662.4855957</ele>
        <time>2013-02-03T11:35:50Z</time>
      </trkpt>
      <trkpt lat="44.30143" lon="2.65412">
        <ele>662.005127</ele>
        <time>2013-02-03T11:35:57Z</time>
      </trkpt>
      <trkpt lat="44.30156" lon="2.65416">
        <ele>660.5629883</ele>
        <time>2013-02-03T11:36:02Z</time>
      </trkpt>
      <trkpt lat="44.30171" lon="2.65425">
        <ele>661.0437012</ele>
        <time>2013-02-03T11:36:08Z</time>
      </trkpt>
      <trkpt lat="44.30184" lon="2.65434">
        <ele>661.0437012</ele>
        <time>2013-02-03T11:36:13Z</time>
      </trkpt>
      <trkpt lat="44.30196" lon="2.65443">
        <ele>661.5244141</ele>
        <time>2013-02-03T11:36:18Z</time>
      </trkpt>
      <trkpt lat="44.30207" lon="2.65455">
        <ele>661.0437012</ele>
        <time>2013-02-03T11:36:23Z</time>
      </trkpt>
      <trkpt lat="44.30218" lon="2.65465">
        <ele>660.5629883</ele>
        <time>2013-02-03T11:36:28Z</time>
      </trkpt>
      <trkpt lat="44.3023" lon="2.65474">
        <ele>660.0822754</ele>
        <time>2013-02-03T11:36:33Z</time>
      </trkpt>
      <trkpt lat="44.30248" lon="2.65487">
        <ele>658.6403809</ele>
        <time>2013-02-03T11:36:40Z</time>
      </trkpt>
      <trkpt lat="44.30263" lon="2.65496">
        <ele>657.6791992</ele>
        <time>2013-02-03T11:36:46Z</time>
      </trkpt>
      <trkpt lat="44.30273" lon="2.65502">
        <ele>656.7177734</ele>
        <time>2013-02-03T11:36:50Z</time>
      </trkpt>
      <trkpt lat="44.30284" lon="2.65508">
        <ele>655.7565918</ele>
        <time>2013-02-03T11:36:54Z</time>
      </trkpt>
      <trkpt lat="44.30301" lon="2.65518">
        <ele>653.8339844</ele>
        <time>2013-02-03T11:37:01Z</time>
      </trkpt>
      <trkpt lat="44.30314" lon="2.65524">
        <ele>651.4304199</ele>
        <time>2013-02-03T11:37:06Z</time>
      </trkpt>
      <trkpt lat="44.3033" lon="2.65533">
        <ele>649.9885254</ele>
        <time>2013-02-03T11:37:13Z</time>
      </trkpt>
      <trkpt lat="44.30348" lon="2.65543">
        <ele>648.065918</ele>
        <time>2013-02-03T11:37:20Z</time>
      </trkpt>
      <trkpt lat="44.30361" lon="2.65555">
        <ele>647.1044922</ele>
        <time>2013-02-03T11:37:26Z</time>
      </trkpt>
      <trkpt lat="44.30372" lon="2.65565">
        <ele>646.6240234</ele>
        <time>2013-02-03T11:37:31Z</time>
      </trkpt>
      <trkpt lat="44.30386" lon="2.65577">
        <ele>646.1433105</ele>
        <time>2013-02-03T11:37:37Z</time>
      </trkpt>
      <trkpt lat="44.304" lon="2.65586">
        <ele>644.7011719</ele>
        <time>2013-02-03T11:37:42Z</time>
      </trkpt>
      <trkpt lat="44.30416" lon="2.65593">
        <ele>642.7788086</ele>
        <time>2013-02-03T11:37:48Z</time>
      </trkpt>
      <trkpt lat="44.3043" lon="2.65596">
        <ele>640.855957</ele>
        <time>2013-02-03T11:37:53Z</time>
      </trkpt>
      <trkpt lat="44.30445" lon="2.65594">
        <ele>639.8947754</ele>
        <time>2013-02-03T11:37:58Z</time>
      </trkpt>
      <trkpt lat="44.30462" lon="2.65589">
        <ele>638.4528809</ele>
        <time>2013-02-03T11:38:04Z</time>
      </trkpt>
      <trkpt lat="44.30483" lon="2.65584">
        <ele>637.972168</ele>
        <time>2013-02-03T11:38:11Z</time>
      </trkpt>
      <trkpt lat="44.30504" lon="2.65586">
        <ele>636.5302734</ele>
        <time>2013-02-03T11:38:18Z</time>
      </trkpt>
      <trkpt lat="44.30524" lon="2.65592">
        <ele>635.5686035</ele>
        <time>2013-02-03T11:38:25Z</time>
      </trkpt>
      <trkpt lat="44.30537" lon="2.65598">
        <ele>635.0881348</ele>
        <time>2013-02-03T11:38:29Z</time>
      </trkpt>
      <trkpt lat="44.3055" lon="2.65604">
        <ele>634.6074219</ele>
        <time>2013-02-03T11:38:34Z</time>
      </trkpt>
      <trkpt lat="44.30565" lon="2.65606">
        <ele>634.6074219</ele>
        <time>2013-02-03T11:38:40Z</time>
      </trkpt>
      <trkpt lat="44.30584" lon="2.65607">
        <ele>632.2041016</ele>
        <time>2013-02-03T11:38:47Z</time>
      </trkpt>
      <trkpt lat="44.30599" lon="2.65604">
        <ele>630.2814941</ele>
        <time>2013-02-03T11:38:53Z</time>
      </trkpt>
      <trkpt lat="44.30608" lon="2.656">
        <ele>629.3200684</ele>
        <time>2013-02-03T11:38:57Z</time>
      </trkpt>
      <trkpt lat="44.3062" lon="2.65593">
        <ele>628.3588867</ele>
        <time>2013-02-03T11:39:02Z</time>
      </trkpt>
      <trkpt lat="44.30635" lon="2.65585">
        <ele>628.3588867</ele>
        <time>2013-02-03T11:39:08Z</time>
      </trkpt>
      <trkpt lat="44.30648" lon="2.65576">
        <ele>628.3588867</ele>
        <time>2013-02-03T11:39:13Z</time>
      </trkpt>
      <trkpt lat="44.30663" lon="2.65572">
        <ele>627.8781738</ele>
        <time>2013-02-03T11:39:19Z</time>
      </trkpt>
      <trkpt lat="44.30673" lon="2.65576">
        <ele>626.9169922</ele>
        <time>2013-02-03T11:39:23Z</time>
      </trkpt>
      <trkpt lat="44.30685" lon="2.65589">
        <ele>625.4748535</ele>
        <time>2013-02-03T11:39:29Z</time>
      </trkpt>
      <trkpt lat="44.30693" lon="2.656">
        <ele>625.9555664</ele>
        <time>2013-02-03T11:39:34Z</time>
      </trkpt>
      <trkpt lat="44.30703" lon="2.656">
        <ele>626.9169922</ele>
        <time>2013-02-03T11:39:38Z</time>
      </trkpt>
      <trkpt lat="44.30719" lon="2.65586">
        <ele>626.9169922</ele>
        <time>2013-02-03T11:39:45Z</time>
      </trkpt>
      <trkpt lat="44.30729" lon="2.65568">
        <ele>628.8395996</ele>
        <time>2013-02-03T11:39:51Z</time>
      </trkpt>
      <trkpt lat="44.30734" lon="2.6556">
        <ele>628.8395996</ele>
        <time>2013-02-03T11:39:54Z</time>
      </trkpt>
      <trkpt lat="44.30744" lon="2.65553">
        <ele>628.3588867</ele>
        <time>2013-02-03T11:39:58Z</time>
      </trkpt>
      <trkpt lat="44.30758" lon="2.65556">
        <ele>628.8395996</ele>
        <time>2013-02-03T11:40:03Z</time>
      </trkpt>
      <trkpt lat="44.3077" lon="2.65548">
        <ele>628.8395996</ele>
        <time>2013-02-03T11:40:08Z</time>
      </trkpt>
      <trkpt lat="44.30772" lon="2.65546">
        <ele>628.3588867</ele>
        <time>2013-02-03T11:40:09Z</time>
      </trkpt>
      <trkpt lat="44.30788" lon="2.65533">
        <ele>625.4748535</ele>
        <time>2013-02-03T11:40:16Z</time>
      </trkpt>
      <trkpt lat="44.308" lon="2.65526">
        <ele>624.9943848</ele>
        <time>2013-02-03T11:40:21Z</time>
      </trkpt>
      <trkpt lat="44.30818" lon="2.65524">
        <ele>624.032959</ele>
        <time>2013-02-03T11:40:28Z</time>
      </trkpt>
      <trkpt lat="44.30834" lon="2.65518">
        <ele>623.5524902</ele>
        <time>2013-02-03T11:40:35Z</time>
      </trkpt>
      <trkpt lat="44.30844" lon="2.65514">
        <ele>623.5524902</ele>
        <time>2013-02-03T11:40:39Z</time>
      </trkpt>
      <trkpt lat="44.30854" lon="2.65513">
        <ele>624.032959</ele>
        <time>2013-02-03T11:40:44Z</time>
      </trkpt>
      <trkpt lat="44.30868" lon="2.65512">
        <ele>624.9943848</ele>
        <time>2013-02-03T11:40:50Z</time>
      </trkpt>
      <trkpt lat="44.30873" lon="2.65509">
        <ele>625.4748535</ele>
        <time>2013-02-03T11:40:53Z</time>
      </trkpt>
      <trkpt lat="44.30882" lon="2.65504">
        <ele>626.9169922</ele>
        <time>2013-02-03T11:40:57Z</time>
      </trkpt>
      <trkpt lat="44.30895" lon="2.65498">
        <ele>626.9169922</ele>
        <time>2013-02-03T11:41:03Z</time>
      </trkpt>
      <trkpt lat="44.30906" lon="2.65486">
        <ele>628.3588867</ele>
        <time>2013-02-03T11:41:08Z</time>
      </trkpt>
      <trkpt lat="44.30913" lon="2.65475">
        <ele>628.3588867</ele>
        <time>2013-02-03T11:41:13Z</time>
      </trkpt>
      <trkpt lat="44.30918" lon="2.65461">
        <ele>626.9169922</ele>
        <time>2013-02-03T11:41:18Z</time>
      </trkpt>
      <trkpt lat="44.30924" lon="2.65452">
        <ele>625.9555664</ele>
        <time>2013-02-03T11:41:23Z</time>
      </trkpt>
      <trkpt lat="44.30933" lon="2.65449">
        <ele>626.4362793</ele>
        <time>2013-02-03T11:41:28Z</time>
      </trkpt>
      <trkpt lat="44.30939" lon="2.65446">
        <ele>626.9169922</ele>
        <time>2013-02-03T11:41:33Z</time>
      </trkpt>
      <trkpt lat="44.30945" lon="2.65441">
        <ele>627.3977051</ele>
        <time>2013-02-03T11:41:38Z</time>
      </trkpt>
      <trkpt lat="44.30955" lon="2.65433">
        <ele>628.8395996</ele>
        <time>2013-02-03T11:41:44Z</time>
      </trkpt>
      <trkpt lat="44.30962" lon="2.65428">
        <ele>629.3200684</ele>
        <time>2013-02-03T11:41:50Z</time>
      </trkpt>
      <trkpt lat="44.30971" lon="2.65424">
        <ele>629.8007813</ele>
        <time>2013-02-03T11:41:58Z</time>
      </trkpt>
      <trkpt lat="44.30981" lon="2.65419">
        <ele>633.1652832</ele>
        <time>2013-02-03T11:42:05Z</time>
      </trkpt>
      <trkpt lat="44.30985" lon="2.65416">
        <ele>633.6459961</ele>
        <time>2013-02-03T11:42:09Z</time>
      </trkpt>
      <trkpt lat="44.30994" lon="2.6541">
        <ele>638.9335938</ele>
        <time>2013-02-03T11:42:16Z</time>
      </trkpt>
      <trkpt lat="44.31002" lon="2.65404">
        <ele>642.7788086</ele>
        <time>2013-02-03T11:42:22Z</time>
      </trkpt>
      <trkpt lat="44.31006" lon="2.65401">
        <ele>642.7788086</ele>
        <time>2013-02-03T11:42:26Z</time>
      </trkpt>
      <trkpt lat="44.31013" lon="2.65398">
        <ele>645.1818848</ele>
        <time>2013-02-03T11:42:33Z</time>
      </trkpt>
      <trkpt lat="44.31018" lon="2.65395">
        <ele>644.7011719</ele>
        <time>2013-02-03T11:42:38Z</time>
      </trkpt>
      <trkpt lat="44.31024" lon="2.65392">
        <ele>643.7399902</ele>
        <time>2013-02-03T11:42:43Z</time>
      </trkpt>
      <trkpt lat="44.31032" lon="2.65386">
        <ele>642.7788086</ele>
        <time>2013-02-03T11:42:48Z</time>
      </trkpt>
      <trkpt lat="44.31043" lon="2.65378">
        <ele>643.7399902</ele>
        <time>2013-02-03T11:42:55Z</time>
      </trkpt>
      <trkpt lat="44.3105" lon="2.65374">
        <ele>643.7399902</ele>
        <time>2013-02-03T11:42:59Z</time>
      </trkpt>
      <trkpt lat="44.3106" lon="2.6537">
        <ele>646.6240234</ele>
        <time>2013-02-03T11:43:05Z</time>
      </trkpt>
      <trkpt lat="44.3107" lon="2.65366">
        <ele>653.3532715</ele>
        <time>2013-02-03T11:43:11Z</time>
      </trkpt>
      <trkpt lat="44.31073" lon="2.65365">
        <ele>653.3532715</ele>
        <time>2013-02-03T11:43:13Z</time>
      </trkpt>
      <trkpt lat="44.31085" lon="2.65361">
        <ele>652.8725586</ele>
        <time>2013-02-03T11:43:19Z</time>
      </trkpt>
      <trkpt lat="44.31087" lon="2.6536">
        <ele>653.3532715</ele>
        <time>2013-02-03T11:43:20Z</time>
      </trkpt>
      <trkpt lat="44.31099" lon="2.65358">
        <ele>652.8725586</ele>
        <time>2013-02-03T11:43:26Z</time>
      </trkpt>
      <trkpt lat="44.31108" lon="2.6536">
        <ele>655.2758789</ele>
        <time>2013-02-03T11:43:31Z</time>
      </trkpt>
      <trkpt lat="44.3111" lon="2.65361">
        <ele>655.2758789</ele>
        <time>2013-02-03T11:43:33Z</time>
      </trkpt>
      <trkpt lat="44.31115" lon="2.65365">
        <ele>654.795166</ele>
        <time>2013-02-03T11:43:38Z</time>
      </trkpt>
      <trkpt lat="44.31122" lon="2.65369">
        <ele>653.8339844</ele>
        <time>2013-02-03T11:43:43Z</time>
      </trkpt>
      <trkpt lat="44.31131" lon="2.65375">
        <ele>654.3146973</ele>
        <time>2013-02-03T11:43:50Z</time>
      </trkpt>
      <trkpt lat="44.31139" lon="2.65376">
        <ele>656.2370605</ele>
        <time>2013-02-03T11:43:56Z</time>
      </trkpt>
      <trkpt lat="44.31145" lon="2.65377">
        <ele>659.1210938</ele>
        <time>2013-02-03T11:44:00Z</time>
      </trkpt>
      <trkpt lat="44.31157" lon="2.65373">
        <ele>664.4082031</ele>
        <time>2013-02-03T11:44:08Z</time>
      </trkpt>
      <trkpt lat="44.31168" lon="2.65371">
        <ele>666.3308105</ele>
        <time>2013-02-03T11:44:16Z</time>
      </trkpt>
      <trkpt lat="44.31182" lon="2.65368">
        <ele>669.2150879</ele>
        <time>2013-02-03T11:44:26Z</time>
      </trkpt>
      <trkpt lat="44.31192" lon="2.65362">
        <ele>672.5795898</ele>
        <time>2013-02-03T11:44:34Z</time>
      </trkpt>
      <trkpt lat="44.31201" lon="2.65352">
        <ele>675.4633789</ele>
        <time>2013-02-03T11:44:43Z</time>
      </trkpt>
      <trkpt lat="44.31208" lon="2.65344">
        <ele>675.9440918</ele>
        <time>2013-02-03T11:44:49Z</time>
      </trkpt>
      <trkpt lat="44.31214" lon="2.65337">
        <ele>676.9055176</ele>
        <time>2013-02-03T11:44:54Z</time>
      </trkpt>
      <trkpt lat="44.3122" lon="2.65329">
        <ele>678.3474121</ele>
        <time>2013-02-03T11:44:59Z</time>
      </trkpt>
      <trkpt lat="44.31231" lon="2.65317">
        <ele>681.7119141</ele>
        <time>2013-02-03T11:45:06Z</time>
      </trkpt>
      <trkpt lat="44.31241" lon="2.65308">
        <ele>683.6345215</ele>
        <time>2013-02-03T11:45:13Z</time>
      </trkpt>
      <trkpt lat="44.31242" lon="2.65307">
        <ele>683.6345215</ele>
        <time>2013-02-03T11:45:14Z</time>
      </trkpt>
      <trkpt lat="44.31249" lon="2.65298">
        <ele>684.5961914</ele>
        <time>2013-02-03T11:45:19Z</time>
      </trkpt>
      <trkpt lat="44.31252" lon="2.65295">
        <ele>685.0769043</ele>
        <time>2013-02-03T11:45:21Z</time>
      </trkpt>
      <trkpt lat="44.31261" lon="2.65286">
        <ele>686.5187988</ele>
        <time>2013-02-03T11:45:28Z</time>
      </trkpt>
      <trkpt lat="44.3127" lon="2.65274">
        <ele>687.9606934</ele>
        <time>2013-02-03T11:45:35Z</time>
      </trkpt>
      <trkpt lat="44.31275" lon="2.65269">
        <ele>689.4025879</ele>
        <time>2013-02-03T11:45:38Z</time>
      </trkpt>
      <trkpt lat="44.31281" lon="2.65259">
        <ele>690.8444824</ele>
        <time>2013-02-03T11:45:43Z</time>
      </trkpt>
      <trkpt lat="44.3129" lon="2.65247">
        <ele>691.3251953</ele>
        <time>2013-02-03T11:45:49Z</time>
      </trkpt>
      <trkpt lat="44.31303" lon="2.65235">
        <ele>692.2866211</ele>
        <time>2013-02-03T11:45:56Z</time>
      </trkpt>
      <trkpt lat="44.31312" lon="2.65226">
        <ele>691.8059082</ele>
        <time>2013-02-03T11:46:01Z</time>
      </trkpt>
      <trkpt lat="44.31322" lon="2.65216">
        <ele>691.8059082</ele>
        <time>2013-02-03T11:46:07Z</time>
      </trkpt>
      <trkpt lat="44.31331" lon="2.65207">
        <ele>690.3640137</ele>
        <time>2013-02-03T11:46:12Z</time>
      </trkpt>
      <trkpt lat="44.31342" lon="2.65195">
        <ele>689.8833008</ele>
        <time>2013-02-03T11:46:18Z</time>
      </trkpt>
      <trkpt lat="44.3135" lon="2.65186">
        <ele>690.3640137</ele>
        <time>2013-02-03T11:46:23Z</time>
      </trkpt>
      <trkpt lat="44.31358" lon="2.65175">
        <ele>689.4025879</ele>
        <time>2013-02-03T11:46:28Z</time>
      </trkpt>
      <trkpt lat="44.31366" lon="2.65164">
        <ele>687.9606934</ele>
        <time>2013-02-03T11:46:33Z</time>
      </trkpt>
      <trkpt lat="44.31373" lon="2.65153">
        <ele>686.0380859</ele>
        <time>2013-02-03T11:46:38Z</time>
      </trkpt>
      <trkpt lat="44.31383" lon="2.65141">
        <ele>686.5187988</ele>
        <time>2013-02-03T11:46:44Z</time>
      </trkpt>
      <trkpt lat="44.31394" lon="2.65124">
        <ele>683.1538086</ele>
        <time>2013-02-03T11:46:52Z</time>
      </trkpt>
      <trkpt lat="44.31401" lon="2.65116">
        <ele>683.1538086</ele>
        <time>2013-02-03T11:46:56Z</time>
      </trkpt>
      <trkpt lat="44.31414" lon="2.65103">
        <ele>681.2314453</ele>
        <time>2013-02-03T11:47:02Z</time>
      </trkpt>
      <trkpt lat="44.31426" lon="2.65094">
        <ele>680.2700195</ele>
        <time>2013-02-03T11:47:07Z</time>
      </trkpt>
      <trkpt lat="44.31435" lon="2.65089">
        <ele>680.2700195</ele>
        <time>2013-02-03T11:47:11Z</time>
      </trkpt>
      <trkpt lat="44.31449" lon="2.65085">
        <ele>679.3085938</ele>
        <time>2013-02-03T11:47:17Z</time>
      </trkpt>
      <trkpt lat="44.31459" lon="2.65078">
        <ele>679.7893066</ele>
        <time>2013-02-03T11:47:21Z</time>
      </trkpt>
      <trkpt lat="44.31473" lon="2.65069">
        <ele>678.3474121</ele>
        <time>2013-02-03T11:47:26Z</time>
      </trkpt>
      <trkpt lat="44.31489" lon="2.65062">
        <ele>676.9055176</ele>
        <time>2013-02-03T11:47:32Z</time>
      </trkpt>
      <trkpt lat="44.31502" lon="2.65056">
        <ele>675.4633789</ele>
        <time>2013-02-03T11:47:37Z</time>
      </trkpt>
      <trkpt lat="44.31515" lon="2.6505">
        <ele>674.9829102</ele>
        <time>2013-02-03T11:47:42Z</time>
      </trkpt>
      <trkpt lat="44.3153" lon="2.6504">
        <ele>675.4633789</ele>
        <time>2013-02-03T11:47:48Z</time>
      </trkpt>
      <trkpt lat="44.31542" lon="2.6503">
        <ele>676.4248047</ele>
        <time>2013-02-03T11:47:53Z</time>
      </trkpt>
      <trkpt lat="44.31551" lon="2.65021">
        <ele>676.9055176</ele>
        <time>2013-02-03T11:47:57Z</time>
      </trkpt>
      <trkpt lat="44.31561" lon="2.65006">
        <ele>678.828125</ele>
        <time>2013-02-03T11:48:02Z</time>
      </trkpt>
      <trkpt lat="44.31567" lon="2.64993">
        <ele>679.7893066</ele>
        <time>2013-02-03T11:48:06Z</time>
      </trkpt>
      <trkpt lat="44.31571" lon="2.6497">
        <ele>679.3085938</ele>
        <time>2013-02-03T11:48:12Z</time>
      </trkpt>
      <trkpt lat="44.3157" lon="2.64954">
        <ele>678.3474121</ele>
        <time>2013-02-03T11:48:16Z</time>
      </trkpt>
      <trkpt lat="44.31572" lon="2.64935">
        <ele>676.9055176</ele>
        <time>2013-02-03T11:48:21Z</time>
      </trkpt>
      <trkpt lat="44.31574" lon="2.64919">
        <ele>674.9829102</ele>
        <time>2013-02-03T11:48:25Z</time>
      </trkpt>
      <trkpt lat="44.31575" lon="2.64914">
        <ele>674.5021973</ele>
        <time>2013-02-03T11:48:26Z</time>
      </trkpt>
      <trkpt lat="44.31574" lon="2.64894">
        <ele>672.098877</ele>
        <time>2013-02-03T11:48:31Z</time>
      </trkpt>
      <trkpt lat="44.31572" lon="2.64878">
        <ele>668.2536621</ele>
        <time>2013-02-03T11:48:35Z</time>
      </trkpt>
      <trkpt lat="44.31573" lon="2.64861">
        <ele>664.888916</ele>
        <time>2013-02-03T11:48:39Z</time>
      </trkpt>
      <trkpt lat="44.31571" lon="2.64851">
        <ele>662.4855957</ele>
        <time>2013-02-03T11:48:42Z</time>
      </trkpt>
      <trkpt lat="44.3157" lon="2.64827">
        <ele>659.1210938</ele>
        <time>2013-02-03T11:48:48Z</time>
      </trkpt>
      <trkpt lat="44.31568" lon="2.64819">
        <ele>659.1210938</ele>
        <time>2013-02-03T11:48:50Z</time>
      </trkpt>
      <trkpt lat="44.31566" lon="2.64794">
        <ele>658.1599121</ele>
        <time>2013-02-03T11:48:56Z</time>
      </trkpt>
      <trkpt lat="44.31562" lon="2.64775">
        <ele>655.7565918</ele>
        <time>2013-02-03T11:49:01Z</time>
      </trkpt>
      <trkpt lat="44.3156" lon="2.6476">
        <ele>653.8339844</ele>
        <time>2013-02-03T11:49:05Z</time>
      </trkpt>
      <trkpt lat="44.31554" lon="2.64738">
        <ele>649.9885254</ele>
        <time>2013-02-03T11:49:11Z</time>
      </trkpt>
      <trkpt lat="44.31552" lon="2.64731">
        <ele>649.0270996</ele>
        <time>2013-02-03T11:49:13Z</time>
      </trkpt>
      <trkpt lat="44.31546" lon="2.64716">
        <ele>647.1044922</ele>
        <time>2013-02-03T11:49:17Z</time>
      </trkpt>
      <trkpt lat="44.31545" lon="2.64712">
        <ele>646.1433105</ele>
        <time>2013-02-03T11:49:18Z</time>
      </trkpt>
      <trkpt lat="44.31546" lon="2.64694">
        <ele>643.7399902</ele>
        <time>2013-02-03T11:49:23Z</time>
      </trkpt>
      <trkpt lat="44.31551" lon="2.6468">
        <ele>641.8173828</ele>
        <time>2013-02-03T11:49:27Z</time>
      </trkpt>
      <trkpt lat="44.3156" lon="2.64665">
        <ele>640.855957</ele>
        <time>2013-02-03T11:49:32Z</time>
      </trkpt>
      <trkpt lat="44.31566" lon="2.64655">
        <ele>639.4140625</ele>
        <time>2013-02-03T11:49:36Z</time>
      </trkpt>
      <trkpt lat="44.31571" lon="2.64633">
        <ele>639.8947754</ele>
        <time>2013-02-03T11:49:42Z</time>
      </trkpt>
      <trkpt lat="44.3157" lon="2.64612">
        <ele>639.8947754</ele>
        <time>2013-02-03T11:49:47Z</time>
      </trkpt>
      <trkpt lat="44.3157" lon="2.64599">
        <ele>638.4528809</ele>
        <time>2013-02-03T11:49:50Z</time>
      </trkpt>
      <trkpt lat="44.31572" lon="2.6458">
        <ele>637.0107422</ele>
        <time>2013-02-03T11:49:55Z</time>
      </trkpt>
      <trkpt lat="44.31573" lon="2.64577">
        <ele>637.0107422</ele>
        <time>2013-02-03T11:49:56Z</time>
      </trkpt>
      <trkpt lat="44.31579" lon="2.64569">
        <ele>636.5302734</ele>
        <time>2013-02-03T11:49:59Z</time>
      </trkpt>
      <trkpt lat="44.31586" lon="2.6456">
        <ele>635.5686035</ele>
        <time>2013-02-03T11:50:03Z</time>
      </trkpt>
      <trkpt lat="44.31591" lon="2.64554">
        <ele>636.0495605</ele>
        <time>2013-02-03T11:50:06Z</time>
      </trkpt>
      <trkpt lat="44.31601" lon="2.6454">
        <ele>636.0495605</ele>
        <time>2013-02-03T11:50:12Z</time>
      </trkpt>
      <trkpt lat="44.31609" lon="2.64529">
        <ele>635.5686035</ele>
        <time>2013-02-03T11:50:17Z</time>
      </trkpt>
      <trkpt lat="44.31616" lon="2.64518">
        <ele>636.5302734</ele>
        <time>2013-02-03T11:50:22Z</time>
      </trkpt>
      <trkpt lat="44.31623" lon="2.64505">
        <ele>638.4528809</ele>
        <time>2013-02-03T11:50:27Z</time>
      </trkpt>
      <trkpt lat="44.3163" lon="2.64494">
        <ele>641.3366699</ele>
        <time>2013-02-03T11:50:32Z</time>
      </trkpt>
      <trkpt lat="44.31639" lon="2.64484">
        <ele>644.2207031</ele>
        <time>2013-02-03T11:50:38Z</time>
      </trkpt>
      <trkpt lat="44.3164" lon="2.64483">
        <ele>644.7011719</ele>
        <time>2013-02-03T11:50:39Z</time>
      </trkpt>
      <trkpt lat="44.3165" lon="2.64487">
        <ele>645.6625977</ele>
        <time>2013-02-03T11:50:45Z</time>
      </trkpt>
      <trkpt lat="44.31659" lon="2.64495">
        <ele>645.6625977</ele>
        <time>2013-02-03T11:50:51Z</time>
      </trkpt>
      <trkpt lat="44.31668" lon="2.64505">
        <ele>646.1433105</ele>
        <time>2013-02-03T11:50:57Z</time>
      </trkpt>
      <trkpt lat="44.31669" lon="2.64506">
        <ele>646.6240234</ele>
        <time>2013-02-03T11:50:58Z</time>
      </trkpt>
      <trkpt lat="44.31678" lon="2.6451">
        <ele>648.065918</ele>
        <time>2013-02-03T11:51:04Z</time>
      </trkpt>
      <trkpt lat="44.31688" lon="2.64512">
        <ele>647.5852051</ele>
        <time>2013-02-03T11:51:10Z</time>
      </trkpt>
      <trkpt lat="44.317" lon="2.64513">
        <ele>649.0270996</ele>
        <time>2013-02-03T11:51:17Z</time>
      </trkpt>
      <trkpt lat="44.31709" lon="2.64514">
        <ele>649.9885254</ele>
        <time>2013-02-03T11:51:22Z</time>
      </trkpt>
      <trkpt lat="44.31716" lon="2.64514">
        <ele>651.4304199</ele>
        <time>2013-02-03T11:51:26Z</time>
      </trkpt>
      <trkpt lat="44.3173" lon="2.64515">
        <ele>651.9111328</ele>
        <time>2013-02-03T11:51:33Z</time>
      </trkpt>
      <trkpt lat="44.31743" lon="2.64516">
        <ele>652.8725586</ele>
        <time>2013-02-03T11:51:39Z</time>
      </trkpt>
      <trkpt lat="44.31753" lon="2.64516">
        <ele>654.3146973</ele>
        <time>2013-02-03T11:51:44Z</time>
      </trkpt>
      <trkpt lat="44.31764" lon="2.64516">
        <ele>655.7565918</ele>
        <time>2013-02-03T11:51:49Z</time>
      </trkpt>
      <trkpt lat="44.31775" lon="2.64517">
        <ele>657.1984863</ele>
        <time>2013-02-03T11:51:55Z</time>
      </trkpt>
      <trkpt lat="44.31787" lon="2.64524">
        <ele>658.1599121</ele>
        <time>2013-02-03T11:52:01Z</time>
      </trkpt>
      <trkpt lat="44.31796" lon="2.64527">
        <ele>659.1210938</ele>
        <time>2013-02-03T11:52:05Z</time>
      </trkpt>
      <trkpt lat="44.31806" lon="2.64535">
        <ele>659.6018066</ele>
        <time>2013-02-03T11:52:10Z</time>
      </trkpt>
      <trkpt lat="44.31817" lon="2.64544">
        <ele>661.0437012</ele>
        <time>2013-02-03T11:52:16Z</time>
      </trkpt>
      <trkpt lat="44.31828" lon="2.64555">
        <ele>660.5629883</ele>
        <time>2013-02-03T11:52:22Z</time>
      </trkpt>
      <trkpt lat="44.31838" lon="2.64567">
        <ele>661.0437012</ele>
        <time>2013-02-03T11:52:28Z</time>
      </trkpt>
      <trkpt lat="44.31847" lon="2.64581">
        <ele>660.5629883</ele>
        <time>2013-02-03T11:52:34Z</time>
      </trkpt>
      <trkpt lat="44.31855" lon="2.64593">
        <ele>661.0437012</ele>
        <time>2013-02-03T11:52:39Z</time>
      </trkpt>
      <trkpt lat="44.31866" lon="2.64606">
        <ele>659.1210938</ele>
        <time>2013-02-03T11:52:45Z</time>
      </trkpt>
      <trkpt lat="44.31877" lon="2.64612">
        <ele>658.6403809</ele>
        <time>2013-02-03T11:52:50Z</time>
      </trkpt>
      <trkpt lat="44.31888" lon="2.64613">
        <ele>658.1599121</ele>
        <time>2013-02-03T11:52:55Z</time>
      </trkpt>
      <trkpt lat="44.31903" lon="2.64609">
        <ele>657.6791992</ele>
        <time>2013-02-03T11:53:02Z</time>
      </trkpt>
      <trkpt lat="44.31914" lon="2.64608">
        <ele>659.1210938</ele>
        <time>2013-02-03T11:53:07Z</time>
      </trkpt>
      <trkpt lat="44.31925" lon="2.64607">
        <ele>660.0822754</ele>
        <time>2013-02-03T11:53:12Z</time>
      </trkpt>
      <trkpt lat="44.31935" lon="2.64606">
        <ele>660.5629883</ele>
        <time>2013-02-03T11:53:18Z</time>
      </trkpt>
      <trkpt lat="44.31946" lon="2.64607">
        <ele>662.005127</ele>
        <time>2013-02-03T11:53:25Z</time>
      </trkpt>
      <trkpt lat="44.31957" lon="2.64609">
        <ele>663.9274902</ele>
        <time>2013-02-03T11:53:32Z</time>
      </trkpt>
      <trkpt lat="44.31966" lon="2.64611">
        <ele>665.3696289</ele>
        <time>2013-02-03T11:53:38Z</time>
      </trkpt>
      <trkpt lat="44.31977" lon="2.64614">
        <ele>666.8115234</ele>
        <time>2013-02-03T11:53:46Z</time>
      </trkpt>
      <trkpt lat="44.31986" lon="2.64617">
        <ele>667.7727051</ele>
        <time>2013-02-03T11:53:52Z</time>
      </trkpt>
      <trkpt lat="44.31995" lon="2.64619">
        <ele>669.6958008</ele>
        <time>2013-02-03T11:53:58Z</time>
      </trkpt>
      <trkpt lat="44.32008" lon="2.64622">
        <ele>672.5795898</ele>
        <time>2013-02-03T11:54:07Z</time>
      </trkpt>
      <trkpt lat="44.32022" lon="2.64621">
        <ele>674.9829102</ele>
        <time>2013-02-03T11:54:16Z</time>
      </trkpt>
      <trkpt lat="44.32035" lon="2.64622">
        <ele>677.3862305</ele>
        <time>2013-02-03T11:54:25Z</time>
      </trkpt>
      <trkpt lat="44.32046" lon="2.64624">
        <ele>678.3474121</ele>
        <time>2013-02-03T11:54:31Z</time>
      </trkpt>
      <trkpt lat="44.32059" lon="2.64627">
        <ele>679.3085938</ele>
        <time>2013-02-03T11:54:38Z</time>
      </trkpt>
      <trkpt lat="44.32065" lon="2.64628">
        <ele>679.7893066</ele>
        <time>2013-02-03T11:54:41Z</time>
      </trkpt>
      <trkpt lat="44.32076" lon="2.64631">
        <ele>680.2700195</ele>
        <time>2013-02-03T11:54:47Z</time>
      </trkpt>
      <trkpt lat="44.32087" lon="2.64633">
        <ele>679.7893066</ele>
        <time>2013-02-03T11:54:53Z</time>
      </trkpt>
      <trkpt lat="44.32097" lon="2.64635">
        <ele>679.7893066</ele>
        <time>2013-02-03T11:54:58Z</time>
      </trkpt>
      <trkpt lat="44.32107" lon="2.64638">
        <ele>680.2700195</ele>
        <time>2013-02-03T11:55:03Z</time>
      </trkpt>
      <trkpt lat="44.32117" lon="2.64639">
        <ele>681.2314453</ele>
        <time>2013-02-03T11:55:08Z</time>
      </trkpt>
      <trkpt lat="44.32129" lon="2.64641">
        <ele>681.7119141</ele>
        <time>2013-02-03T11:55:14Z</time>
      </trkpt>
      <trkpt lat="44.32139" lon="2.6464">
        <ele>681.7119141</ele>
        <time>2013-02-03T11:55:19Z</time>
      </trkpt>
      <trkpt lat="44.3215" lon="2.64642">
        <ele>681.2314453</ele>
        <time>2013-02-03T11:55:24Z</time>
      </trkpt>
      <trkpt lat="44.32162" lon="2.64647">
        <ele>680.7507324</ele>
        <time>2013-02-03T11:55:29Z</time>
      </trkpt>
      <trkpt lat="44.32174" lon="2.64649">
        <ele>680.2700195</ele>
        <time>2013-02-03T11:55:34Z</time>
      </trkpt>
      <trkpt lat="44.3219" lon="2.64652">
        <ele>678.828125</ele>
        <time>2013-02-03T11:55:40Z</time>
      </trkpt>
      <trkpt lat="44.32206" lon="2.64656">
        <ele>675.9440918</ele>
        <time>2013-02-03T11:55:46Z</time>
      </trkpt>
      <trkpt lat="44.32217" lon="2.64661">
        <ele>673.5410156</ele>
        <time>2013-02-03T11:55:51Z</time>
      </trkpt>
      <trkpt lat="44.3223" lon="2.64669">
        <ele>673.5410156</ele>
        <time>2013-02-03T11:55:56Z</time>
      </trkpt>
      <trkpt lat="44.32239" lon="2.64677">
        <ele>672.098877</ele>
        <time>2013-02-03T11:56:00Z</time>
      </trkpt>
      <trkpt lat="44.32249" lon="2.64686">
        <ele>671.1376953</ele>
        <time>2013-02-03T11:56:04Z</time>
      </trkpt>
      <trkpt lat="44.32257" lon="2.64696">
        <ele>670.1762695</ele>
        <time>2013-02-03T11:56:08Z</time>
      </trkpt>
      <trkpt lat="44.32265" lon="2.64712">
        <ele>669.2150879</ele>
        <time>2013-02-03T11:56:13Z</time>
      </trkpt>
      <trkpt lat="44.32272" lon="2.64732">
        <ele>668.734375</ele>
        <time>2013-02-03T11:56:19Z</time>
      </trkpt>
      <trkpt lat="44.32278" lon="2.64757">
        <ele>667.7727051</ele>
        <time>2013-02-03T11:56:26Z</time>
      </trkpt>
      <trkpt lat="44.32283" lon="2.64777">
        <ele>667.7727051</ele>
        <time>2013-02-03T11:56:32Z</time>
      </trkpt>
      <trkpt lat="44.32292" lon="2.64798">
        <ele>668.734375</ele>
        <time>2013-02-03T11:56:39Z</time>
      </trkpt>
      <trkpt lat="44.323" lon="2.64815">
        <ele>669.2150879</ele>
        <time>2013-02-03T11:56:45Z</time>
      </trkpt>
      <trkpt lat="44.32301" lon="2.64818">
        <ele>669.2150879</ele>
        <time>2013-02-03T11:56:46Z</time>
      </trkpt>
      <trkpt lat="44.32307" lon="2.64817">
        <ele>669.2150879</ele>
        <time>2013-02-03T11:56:50Z</time>
      </trkpt>
      <trkpt lat="44.32309" lon="2.64814">
        <ele>669.2150879</ele>
        <time>2013-02-03T11:56:51Z</time>
      </trkpt>
      <trkpt lat="44.32316" lon="2.648">
        <ele>668.2536621</ele>
        <time>2013-02-03T11:56:56Z</time>
      </trkpt>
      <trkpt lat="44.32324" lon="2.64783">
        <ele>667.7727051</ele>
        <time>2013-02-03T11:57:02Z</time>
      </trkpt>
      <trkpt lat="44.32332" lon="2.64769">
        <ele>666.3308105</ele>
        <time>2013-02-03T11:57:07Z</time>
      </trkpt>
      <trkpt lat="44.32342" lon="2.64758">
        <ele>666.3308105</ele>
        <time>2013-02-03T11:57:12Z</time>
      </trkpt>
      <trkpt lat="44.32352" lon="2.64749">
        <ele>667.2922363</ele>
        <time>2013-02-03T11:57:17Z</time>
      </trkpt>
      <trkpt lat="44.32366" lon="2.64744">
        <ele>666.8115234</ele>
        <time>2013-02-03T11:57:23Z</time>
      </trkpt>
      <trkpt lat="44.32375" lon="2.64737">
        <ele>666.8115234</ele>
        <time>2013-02-03T11:57:28Z</time>
      </trkpt>
      <trkpt lat="44.32383" lon="2.64727">
        <ele>665.8503418</ele>
        <time>2013-02-03T11:57:33Z</time>
      </trkpt>
      <trkpt lat="44.3239" lon="2.64714">
        <ele>664.888916</ele>
        <time>2013-02-03T11:57:38Z</time>
      </trkpt>
      <trkpt lat="44.32397" lon="2.64702">
        <ele>662.9663086</ele>
        <time>2013-02-03T11:57:43Z</time>
      </trkpt>
      <trkpt lat="44.32397" lon="2.64703">
        <ele>662.9663086</ele>
        <time>2013-02-03T11:57:44Z</time>
      </trkpt>
      <trkpt lat="44.32396" lon="2.64704">
        <ele>662.9663086</ele>
        <time>2013-02-03T11:57:50Z</time>
      </trkpt>
      <trkpt lat="44.32395" lon="2.64703">
        <ele>663.4470215</ele>
        <time>2013-02-03T11:57:53Z</time>
      </trkpt>
      <trkpt lat="44.32398" lon="2.64694">
        <ele>661.0437012</ele>
        <time>2013-02-03T11:57:58Z</time>
      </trkpt>
      <trkpt lat="44.32401" lon="2.6469">
        <ele>660.0822754</ele>
        <time>2013-02-03T11:58:00Z</time>
      </trkpt>
      <trkpt lat="44.32408" lon="2.64672">
        <ele>658.6403809</ele>
        <time>2013-02-03T11:58:07Z</time>
      </trkpt>
      <trkpt lat="44.32417" lon="2.64654">
        <ele>657.6791992</ele>
        <time>2013-02-03T11:58:13Z</time>
      </trkpt>
      <trkpt lat="44.32421" lon="2.64642">
        <ele>657.1984863</ele>
        <time>2013-02-03T11:58:17Z</time>
      </trkpt>
      <trkpt lat="44.32424" lon="2.64628">
        <ele>656.7177734</ele>
        <time>2013-02-03T11:58:21Z</time>
      </trkpt>
      <trkpt lat="44.32427" lon="2.64611">
        <ele>657.1984863</ele>
        <time>2013-02-03T11:58:26Z</time>
      </trkpt>
      <trkpt lat="44.32433" lon="2.64592">
        <ele>657.1984863</ele>
        <time>2013-02-03T11:58:32Z</time>
      </trkpt>
      <trkpt lat="44.3244" lon="2.6457">
        <ele>659.1210938</ele>
        <time>2013-02-03T11:58:38Z</time>
      </trkpt>
      <trkpt lat="44.32443" lon="2.64556">
        <ele>659.1210938</ele>
        <time>2013-02-03T11:58:42Z</time>
      </trkpt>
      <trkpt lat="44.32451" lon="2.64537">
        <ele>660.0822754</ele>
        <time>2013-02-03T11:58:48Z</time>
      </trkpt>
      <trkpt lat="44.32459" lon="2.64523">
        <ele>661.0437012</ele>
        <time>2013-02-03T11:58:53Z</time>
      </trkpt>
      <trkpt lat="44.32467" lon="2.64506">
        <ele>661.0437012</ele>
        <time>2013-02-03T11:58:58Z</time>
      </trkpt>
      <trkpt lat="44.32474" lon="2.64492">
        <ele>661.0437012</ele>
        <time>2013-02-03T11:59:03Z</time>
      </trkpt>
      <trkpt lat="44.32476" lon="2.64487">
        <ele>661.5244141</ele>
        <time>2013-02-03T11:59:05Z</time>
      </trkpt>
      <trkpt lat="44.32483" lon="2.64468">
        <ele>660.5629883</ele>
        <time>2013-02-03T11:59:12Z</time>
      </trkpt>
      <trkpt lat="44.32485" lon="2.64458">
        <ele>660.5629883</ele>
        <time>2013-02-03T11:59:15Z</time>
      </trkpt>
      <trkpt lat="44.32491" lon="2.6444">
        <ele>657.6791992</ele>
        <time>2013-02-03T11:59:21Z</time>
      </trkpt>
      <trkpt lat="44.32492" lon="2.6443">
        <ele>656.7177734</ele>
        <time>2013-02-03T11:59:24Z</time>
      </trkpt>
      <trkpt lat="44.32495" lon="2.64406">
        <ele>654.795166</ele>
        <time>2013-02-03T11:59:31Z</time>
      </trkpt>
      <trkpt lat="44.32497" lon="2.64391">
        <ele>652.8725586</ele>
        <time>2013-02-03T11:59:36Z</time>
      </trkpt>
      <trkpt lat="44.32499" lon="2.64377">
        <ele>651.9111328</ele>
        <time>2013-02-03T11:59:40Z</time>
      </trkpt>
      <trkpt lat="44.32498" lon="2.64358">
        <ele>650.4692383</ele>
        <time>2013-02-03T11:59:46Z</time>
      </trkpt>
      <trkpt lat="44.32498" lon="2.64355">
        <ele>650.4692383</ele>
        <time>2013-02-03T11:59:47Z</time>
      </trkpt>
      <trkpt lat="44.32497" lon="2.6434">
        <ele>650.949707</ele>
        <time>2013-02-03T11:59:52Z</time>
      </trkpt>
      <trkpt lat="44.32493" lon="2.64315">
        <ele>653.3532715</ele>
        <time>2013-02-03T11:59:59Z</time>
      </trkpt>
      <trkpt lat="44.32491" lon="2.64298">
        <ele>654.795166</ele>
        <time>2013-02-03T12:00:04Z</time>
      </trkpt>
      <trkpt lat="44.32489" lon="2.64293">
        <ele>654.795166</ele>
        <time>2013-02-03T12:00:06Z</time>
      </trkpt>
      <trkpt lat="44.32487" lon="2.64272">
        <ele>654.3146973</ele>
        <time>2013-02-03T12:00:12Z</time>
      </trkpt>
      <trkpt lat="44.32482" lon="2.64257">
        <ele>655.2758789</ele>
        <time>2013-02-03T12:00:17Z</time>
      </trkpt>
      <trkpt lat="44.32481" lon="2.6425">
        <ele>655.2758789</ele>
        <time>2013-02-03T12:00:19Z</time>
      </trkpt>
      <trkpt lat="44.32479" lon="2.64231">
        <ele>655.2758789</ele>
        <time>2013-02-03T12:00:25Z</time>
      </trkpt>
      <trkpt lat="44.32478" lon="2.64225">
        <ele>655.2758789</ele>
        <time>2013-02-03T12:00:27Z</time>
      </trkpt>
      <trkpt lat="44.32475" lon="2.64209">
        <ele>654.795166</ele>
        <time>2013-02-03T12:00:32Z</time>
      </trkpt>
      <trkpt lat="44.32475" lon="2.64196">
        <ele>654.3146973</ele>
        <time>2013-02-03T12:00:36Z</time>
      </trkpt>
      <trkpt lat="44.32474" lon="2.64186">
        <ele>654.3146973</ele>
        <time>2013-02-03T12:00:39Z</time>
      </trkpt>
      <trkpt lat="44.32476" lon="2.64172">
        <ele>652.3918457</ele>
        <time>2013-02-03T12:00:44Z</time>
      </trkpt>
      <trkpt lat="44.32479" lon="2.64162">
        <ele>649.9885254</ele>
        <time>2013-02-03T12:00:47Z</time>
      </trkpt>
      <trkpt lat="44.32479" lon="2.64138">
        <ele>648.5463867</ele>
        <time>2013-02-03T12:00:53Z</time>
      </trkpt>
      <trkpt lat="44.32478" lon="2.64117">
        <ele>647.5852051</ele>
        <time>2013-02-03T12:00:59Z</time>
      </trkpt>
      <trkpt lat="44.32471" lon="2.641">
        <ele>650.949707</ele>
        <time>2013-02-03T12:01:05Z</time>
      </trkpt>
      <trkpt lat="44.32463" lon="2.64085">
        <ele>652.8725586</ele>
        <time>2013-02-03T12:01:11Z</time>
      </trkpt>
      <trkpt lat="44.32457" lon="2.64075">
        <ele>652.8725586</ele>
        <time>2013-02-03T12:01:14Z</time>
      </trkpt>
      <trkpt lat="44.32458" lon="2.6406">
        <ele>652.3918457</ele>
        <time>2013-02-03T12:01:18Z</time>
      </trkpt>
      <trkpt lat="44.32467" lon="2.64045">
        <ele>652.3918457</ele>
        <time>2013-02-03T12:01:24Z</time>
      </trkpt>
      <trkpt lat="44.32476" lon="2.64037">
        <ele>651.4304199</ele>
        <time>2013-02-03T12:01:29Z</time>
      </trkpt>
      <trkpt lat="44.3249" lon="2.64024">
        <ele>647.5852051</ele>
        <time>2013-02-03T12:01:36Z</time>
      </trkpt>
      <trkpt lat="44.32496" lon="2.64007">
        <ele>647.5852051</ele>
        <time>2013-02-03T12:01:42Z</time>
      </trkpt>
      <trkpt lat="44.32501" lon="2.63992">
        <ele>647.1044922</ele>
        <time>2013-02-03T12:01:47Z</time>
      </trkpt>
      <trkpt lat="44.32503" lon="2.63987">
        <ele>647.1044922</ele>
        <time>2013-02-03T12:01:49Z</time>
      </trkpt>
      <trkpt lat="44.32513" lon="2.6396">
        <ele>646.6240234</ele>
        <time>2013-02-03T12:01:58Z</time>
      </trkpt>
      <trkpt lat="44.32517" lon="2.63945">
        <ele>647.1044922</ele>
        <time>2013-02-03T12:02:03Z</time>
      </trkpt>
      <trkpt lat="44.32514" lon="2.63926">
        <ele>649.0270996</ele>
        <time>2013-02-03T12:02:08Z</time>
      </trkpt>
      <trkpt lat="44.32509" lon="2.6391">
        <ele>649.9885254</ele>
        <time>2013-02-03T12:02:13Z</time>
      </trkpt>
      <trkpt lat="44.32504" lon="2.63896">
        <ele>650.949707</ele>
        <time>2013-02-03T12:02:18Z</time>
      </trkpt>
      <trkpt lat="44.32499" lon="2.63884">
        <ele>651.9111328</ele>
        <time>2013-02-03T12:02:23Z</time>
      </trkpt>
      <trkpt lat="44.32496" lon="2.6387">
        <ele>653.8339844</ele>
        <time>2013-02-03T12:02:29Z</time>
      </trkpt>
      <trkpt lat="44.32495" lon="2.63859">
        <ele>655.2758789</ele>
        <time>2013-02-03T12:02:33Z</time>
      </trkpt>
      <trkpt lat="44.32503" lon="2.63849">
        <ele>656.7177734</ele>
        <time>2013-02-03T12:02:38Z</time>
      </trkpt>
      <trkpt lat="44.32513" lon="2.63841">
        <ele>658.1599121</ele>
        <time>2013-02-03T12:02:43Z</time>
      </trkpt>
      <trkpt lat="44.32526" lon="2.63828">
        <ele>659.1210938</ele>
        <time>2013-02-03T12:02:50Z</time>
      </trkpt>
      <trkpt lat="44.32533" lon="2.63817">
        <ele>660.5629883</ele>
        <time>2013-02-03T12:02:55Z</time>
      </trkpt>
      <trkpt lat="44.3254" lon="2.63807">
        <ele>661.5244141</ele>
        <time>2013-02-03T12:03:00Z</time>
      </trkpt>
      <trkpt lat="44.32551" lon="2.63798">
        <ele>662.9663086</ele>
        <time>2013-02-03T12:03:06Z</time>
      </trkpt>
      <trkpt lat="44.32561" lon="2.63793">
        <ele>662.9663086</ele>
        <time>2013-02-03T12:03:11Z</time>
      </trkpt>
      <trkpt lat="44.32572" lon="2.63788">
        <ele>661.5244141</ele>
        <time>2013-02-03T12:03:16Z</time>
      </trkpt>
      <trkpt lat="44.32583" lon="2.63781">
        <ele>660.5629883</ele>
        <time>2013-02-03T12:03:21Z</time>
      </trkpt>
      <trkpt lat="44.32596" lon="2.63776">
        <ele>658.1599121</ele>
        <time>2013-02-03T12:03:27Z</time>
      </trkpt>
      <trkpt lat="44.32612" lon="2.6377">
        <ele>656.7177734</ele>
        <time>2013-02-03T12:03:34Z</time>
      </trkpt>
      <trkpt lat="44.32624" lon="2.63766">
        <ele>653.8339844</ele>
        <time>2013-02-03T12:03:39Z</time>
      </trkpt>
      <trkpt lat="44.32638" lon="2.6376">
        <ele>652.8725586</ele>
        <time>2013-02-03T12:03:44Z</time>
      </trkpt>
      <trkpt lat="44.32653" lon="2.63752">
        <ele>651.9111328</ele>
        <time>2013-02-03T12:03:50Z</time>
      </trkpt>
      <trkpt lat="44.32656" lon="2.6375">
        <ele>651.9111328</ele>
        <time>2013-02-03T12:03:51Z</time>
      </trkpt>
      <trkpt lat="44.32667" lon="2.63739">
        <ele>650.949707</ele>
        <time>2013-02-03T12:03:56Z</time>
      </trkpt>
      <trkpt lat="44.32671" lon="2.63735">
        <ele>650.4692383</ele>
        <time>2013-02-03T12:03:58Z</time>
      </trkpt>
      <trkpt lat="44.32686" lon="2.63716">
        <ele>649.5078125</ele>
        <time>2013-02-03T12:04:05Z</time>
      </trkpt>
      <trkpt lat="44.32696" lon="2.63702">
        <ele>649.0270996</ele>
        <time>2013-02-03T12:04:10Z</time>
      </trkpt>
      <trkpt lat="44.32705" lon="2.63687">
        <ele>648.5463867</ele>
        <time>2013-02-03T12:04:15Z</time>
      </trkpt>
      <trkpt lat="44.32715" lon="2.63673">
        <ele>647.5852051</ele>
        <time>2013-02-03T12:04:20Z</time>
      </trkpt>
      <trkpt lat="44.32723" lon="2.63658">
        <ele>647.5852051</ele>
        <time>2013-02-03T12:04:25Z</time>
      </trkpt>
      <trkpt lat="44.3273" lon="2.63639">
        <ele>648.5463867</ele>
        <time>2013-02-03T12:04:30Z</time>
      </trkpt>
      <trkpt lat="44.32739" lon="2.6362">
        <ele>646.6240234</ele>
        <time>2013-02-03T12:04:36Z</time>
      </trkpt>
      <trkpt lat="44.32747" lon="2.63605">
        <ele>645.6625977</ele>
        <time>2013-02-03T12:04:41Z</time>
      </trkpt>
      <trkpt lat="44.32755" lon="2.63589">
        <ele>644.2207031</ele>
        <time>2013-02-03T12:04:46Z</time>
      </trkpt>
      <trkpt lat="44.3276" lon="2.63573">
        <ele>640.855957</ele>
        <time>2013-02-03T12:04:51Z</time>
      </trkpt>
      <trkpt lat="44.32766" lon="2.63551">
        <ele>637.972168</ele>
        <time>2013-02-03T12:04:57Z</time>
      </trkpt>
      <trkpt lat="44.32771" lon="2.63535">
        <ele>635.5686035</ele>
        <time>2013-02-03T12:05:02Z</time>
      </trkpt>
      <trkpt lat="44.32777" lon="2.63511">
        <ele>634.126709</ele>
        <time>2013-02-03T12:05:09Z</time>
      </trkpt>
      <trkpt lat="44.3278" lon="2.63494">
        <ele>633.1652832</ele>
        <time>2013-02-03T12:05:14Z</time>
      </trkpt>
      <trkpt lat="44.32779" lon="2.63475">
        <ele>632.6848145</ele>
        <time>2013-02-03T12:05:19Z</time>
      </trkpt>
      <trkpt lat="44.3278" lon="2.63456">
        <ele>630.762207</ele>
        <time>2013-02-03T12:05:24Z</time>
      </trkpt>
      <trkpt lat="44.3278" lon="2.63441">
        <ele>629.3200684</ele>
        <time>2013-02-03T12:05:28Z</time>
      </trkpt>
      <trkpt lat="44.3278" lon="2.63434">
        <ele>628.8395996</ele>
        <time>2013-02-03T12:05:30Z</time>
      </trkpt>
      <trkpt lat="44.32787" lon="2.63415">
        <ele>627.8781738</ele>
        <time>2013-02-03T12:05:36Z</time>
      </trkpt>
      <trkpt lat="44.32797" lon="2.63407">
        <ele>628.3588867</ele>
        <time>2013-02-03T12:05:40Z</time>
      </trkpt>
      <trkpt lat="44.32814" lon="2.63406">
        <ele>627.8781738</ele>
        <time>2013-02-03T12:05:47Z</time>
      </trkpt>
      <trkpt lat="44.32826" lon="2.63402">
        <ele>627.3977051</ele>
        <time>2013-02-03T12:05:52Z</time>
      </trkpt>
      <trkpt lat="44.32838" lon="2.63394">
        <ele>626.4362793</ele>
        <time>2013-02-03T12:05:57Z</time>
      </trkpt>
      <trkpt lat="44.32854" lon="2.63374">
        <ele>625.4748535</ele>
        <time>2013-02-03T12:06:05Z</time>
      </trkpt>
      <trkpt lat="44.32868" lon="2.63358">
        <ele>624.032959</ele>
        <time>2013-02-03T12:06:12Z</time>
      </trkpt>
      <trkpt lat="44.32881" lon="2.63345">
        <ele>622.5910645</ele>
        <time>2013-02-03T12:06:18Z</time>
      </trkpt>
      <trkpt lat="44.32894" lon="2.63334">
        <ele>621.1491699</ele>
        <time>2013-02-03T12:06:24Z</time>
      </trkpt>
      <trkpt lat="44.3291" lon="2.63323">
        <ele>619.2263184</ele>
        <time>2013-02-03T12:06:31Z</time>
      </trkpt>
      <trkpt lat="44.32925" lon="2.63316">
        <ele>616.3422852</ele>
        <time>2013-02-03T12:06:37Z</time>
      </trkpt>
      <trkpt lat="44.32937" lon="2.63316">
        <ele>614.9003906</ele>
        <time>2013-02-03T12:06:42Z</time>
      </trkpt>
      <trkpt lat="44.32948" lon="2.63321">
        <ele>613.9389648</ele>
        <time>2013-02-03T12:06:47Z</time>
      </trkpt>
      <trkpt lat="44.32962" lon="2.63327">
        <ele>616.3422852</ele>
        <time>2013-02-03T12:06:52Z</time>
      </trkpt>
      <trkpt lat="44.32974" lon="2.63324">
        <ele>619.2263184</ele>
        <time>2013-02-03T12:06:57Z</time>
      </trkpt>
      <trkpt lat="44.32982" lon="2.63313">
        <ele>620.1877441</ele>
        <time>2013-02-03T12:07:02Z</time>
      </trkpt>
      <trkpt lat="44.3299" lon="2.63298">
        <ele>620.668457</ele>
        <time>2013-02-03T12:07:08Z</time>
      </trkpt>
      <trkpt lat="44.32997" lon="2.63284">
        <ele>620.668457</ele>
        <time>2013-02-03T12:07:13Z</time>
      </trkpt>
      <trkpt lat="44.33004" lon="2.63269">
        <ele>620.668457</ele>
        <time>2013-02-03T12:07:19Z</time>
      </trkpt>
      <trkpt lat="44.33012" lon="2.63256">
        <ele>621.1491699</ele>
        <time>2013-02-03T12:07:24Z</time>
      </trkpt>
      <trkpt lat="44.33017" lon="2.63243">
        <ele>621.6296387</ele>
        <time>2013-02-03T12:07:28Z</time>
      </trkpt>
      <trkpt lat="44.33025" lon="2.6323">
        <ele>622.5910645</ele>
        <time>2013-02-03T12:07:33Z</time>
      </trkpt>
      <trkpt lat="44.33034" lon="2.63217">
        <ele>623.0717773</ele>
        <time>2013-02-03T12:07:38Z</time>
      </trkpt>
      <trkpt lat="44.33042" lon="2.63204">
        <ele>623.5524902</ele>
        <time>2013-02-03T12:07:43Z</time>
      </trkpt>
      <trkpt lat="44.33052" lon="2.6319">
        <ele>624.032959</ele>
        <time>2013-02-03T12:07:49Z</time>
      </trkpt>
      <trkpt lat="44.33061" lon="2.63176">
        <ele>623.5524902</ele>
        <time>2013-02-03T12:07:55Z</time>
      </trkpt>
      <trkpt lat="44.33069" lon="2.63162">
        <ele>624.032959</ele>
        <time>2013-02-03T12:08:00Z</time>
      </trkpt>
      <trkpt lat="44.33075" lon="2.63151">
        <ele>624.5136719</ele>
        <time>2013-02-03T12:08:05Z</time>
      </trkpt>
      <trkpt lat="44.33083" lon="2.63137">
        <ele>624.9943848</ele>
        <time>2013-02-03T12:08:10Z</time>
      </trkpt>
      <trkpt lat="44.33093" lon="2.63121">
        <ele>624.9943848</ele>
        <time>2013-02-03T12:08:16Z</time>
      </trkpt>
      <trkpt lat="44.331" lon="2.63108">
        <ele>623.5524902</ele>
        <time>2013-02-03T12:08:21Z</time>
      </trkpt>
      <trkpt lat="44.33108" lon="2.63096">
        <ele>621.6296387</ele>
        <time>2013-02-03T12:08:26Z</time>
      </trkpt>
      <trkpt lat="44.33118" lon="2.63082">
        <ele>620.668457</ele>
        <time>2013-02-03T12:08:32Z</time>
      </trkpt>
      <trkpt lat="44.33128" lon="2.63067">
        <ele>621.1491699</ele>
        <time>2013-02-03T12:08:38Z</time>
      </trkpt>
      <trkpt lat="44.33137" lon="2.63055">
        <ele>621.1491699</ele>
        <time>2013-02-03T12:08:43Z</time>
      </trkpt>
      <trkpt lat="44.33144" lon="2.63041">
        <ele>621.1491699</ele>
        <time>2013-02-03T12:08:48Z</time>
      </trkpt>
      <trkpt lat="44.33152" lon="2.63027">
        <ele>620.1877441</ele>
        <time>2013-02-03T12:08:53Z</time>
      </trkpt>
      <trkpt lat="44.33161" lon="2.63014">
        <ele>618.2648926</ele>
        <time>2013-02-03T12:08:58Z</time>
      </trkpt>
      <trkpt lat="44.33169" lon="2.63">
        <ele>617.7841797</ele>
        <time>2013-02-03T12:09:03Z</time>
      </trkpt>
      <trkpt lat="44.33178" lon="2.62987">
        <ele>617.3037109</ele>
        <time>2013-02-03T12:09:08Z</time>
      </trkpt>
      <trkpt lat="44.33189" lon="2.62972">
        <ele>616.3422852</ele>
        <time>2013-02-03T12:09:14Z</time>
      </trkpt>
      <trkpt lat="44.33198" lon="2.62961">
        <ele>616.822998</ele>
        <time>2013-02-03T12:09:19Z</time>
      </trkpt>
      <trkpt lat="44.33207" lon="2.6295">
        <ele>616.822998</ele>
        <time>2013-02-03T12:09:24Z</time>
      </trkpt>
      <trkpt lat="44.33218" lon="2.6294">
        <ele>617.3037109</ele>
        <time>2013-02-03T12:09:29Z</time>
      </trkpt>
      <trkpt lat="44.33227" lon="2.62932">
        <ele>617.3037109</ele>
        <time>2013-02-03T12:09:33Z</time>
      </trkpt>
      <trkpt lat="44.33239" lon="2.62925">
        <ele>617.3037109</ele>
        <time>2013-02-03T12:09:38Z</time>
      </trkpt>
      <trkpt lat="44.33252" lon="2.62922">
        <ele>616.822998</ele>
        <time>2013-02-03T12:09:43Z</time>
      </trkpt>
      <trkpt lat="44.33264" lon="2.6292">
        <ele>615.3811035</ele>
        <time>2013-02-03T12:09:48Z</time>
      </trkpt>
      <trkpt lat="44.33279" lon="2.62913">
        <ele>613.4584961</ele>
        <time>2013-02-03T12:09:54Z</time>
      </trkpt>
      <trkpt lat="44.33294" lon="2.62906">
        <ele>611.5358887</ele>
        <time>2013-02-03T12:10:00Z</time>
      </trkpt>
      <trkpt lat="44.33307" lon="2.62904">
        <ele>611.0551758</ele>
        <time>2013-02-03T12:10:05Z</time>
      </trkpt>
      <trkpt lat="44.33322" lon="2.62902">
        <ele>611.0551758</ele>
        <time>2013-02-03T12:10:10Z</time>
      </trkpt>
      <trkpt lat="44.33333" lon="2.62901">
        <ele>611.0551758</ele>
        <time>2013-02-03T12:10:15Z</time>
      </trkpt>
      <trkpt lat="44.33345" lon="2.62901">
        <ele>612.0166016</ele>
        <time>2013-02-03T12:10:20Z</time>
      </trkpt>
      <trkpt lat="44.33359" lon="2.62906">
        <ele>611.5358887</ele>
        <time>2013-02-03T12:10:26Z</time>
      </trkpt>
      <trkpt lat="44.3336" lon="2.62907">
        <ele>612.0166016</ele>
        <time>2013-02-03T12:10:27Z</time>
      </trkpt>
      <trkpt lat="44.33375" lon="2.62911">
        <ele>613.9389648</ele>
        <time>2013-02-03T12:10:35Z</time>
      </trkpt>
      <trkpt lat="44.33384" lon="2.62916">
        <ele>617.3037109</ele>
        <time>2013-02-03T12:10:41Z</time>
      </trkpt>
      <trkpt lat="44.33393" lon="2.62922">
        <ele>619.2263184</ele>
        <time>2013-02-03T12:10:47Z</time>
      </trkpt>
      <trkpt lat="44.33398" lon="2.62927">
        <ele>618.7456055</ele>
        <time>2013-02-03T12:10:52Z</time>
      </trkpt>
      <trkpt lat="44.33405" lon="2.62934">
        <ele>620.1877441</ele>
        <time>2013-02-03T12:10:58Z</time>
      </trkpt>
      <trkpt lat="44.33414" lon="2.62943">
        <ele>619.2263184</ele>
        <time>2013-02-03T12:11:04Z</time>
      </trkpt>
      <trkpt lat="44.3342" lon="2.62949">
        <ele>619.2263184</ele>
        <time>2013-02-03T12:11:08Z</time>
      </trkpt>
      <trkpt lat="44.33428" lon="2.62951">
        <ele>619.7070313</ele>
        <time>2013-02-03T12:11:13Z</time>
      </trkpt>
      <trkpt lat="44.33437" lon="2.6295">
        <ele>623.5524902</ele>
        <time>2013-02-03T12:11:19Z</time>
      </trkpt>
      <trkpt lat="44.33441" lon="2.62947">
        <ele>625.4748535</ele>
        <time>2013-02-03T12:11:23Z</time>
      </trkpt>
      <trkpt lat="44.33445" lon="2.62944">
        <ele>627.8781738</ele>
        <time>2013-02-03T12:11:28Z</time>
      </trkpt>
      <trkpt lat="44.3345" lon="2.62941">
        <ele>628.8395996</ele>
        <time>2013-02-03T12:11:32Z</time>
      </trkpt>
      <trkpt lat="44.33455" lon="2.62938">
        <ele>630.762207</ele>
        <time>2013-02-03T12:11:38Z</time>
      </trkpt>
      <trkpt lat="44.33461" lon="2.62933">
        <ele>631.7233887</ele>
        <time>2013-02-03T12:11:44Z</time>
      </trkpt>
      <trkpt lat="44.33469" lon="2.62925">
        <ele>634.126709</ele>
        <time>2013-02-03T12:11:50Z</time>
      </trkpt>
      <trkpt lat="44.33476" lon="2.62918">
        <ele>635.5686035</ele>
        <time>2013-02-03T12:11:55Z</time>
      </trkpt>
      <trkpt lat="44.33486" lon="2.62911">
        <ele>637.0107422</ele>
        <time>2013-02-03T12:12:02Z</time>
      </trkpt>
      <trkpt lat="44.33494" lon="2.62905">
        <ele>638.4528809</ele>
        <time>2013-02-03T12:12:08Z</time>
      </trkpt>
      <trkpt lat="44.33502" lon="2.62898">
        <ele>639.4140625</ele>
        <time>2013-02-03T12:12:14Z</time>
      </trkpt>
      <trkpt lat="44.33508" lon="2.62895">
        <ele>640.3754883</ele>
        <time>2013-02-03T12:12:19Z</time>
      </trkpt>
      <trkpt lat="44.33516" lon="2.6289">
        <ele>640.855957</ele>
        <time>2013-02-03T12:12:26Z</time>
      </trkpt>
      <trkpt lat="44.33526" lon="2.62885">
        <ele>642.7788086</ele>
        <time>2013-02-03T12:12:32Z</time>
      </trkpt>
      <trkpt lat="44.3353" lon="2.62886">
        <ele>642.7788086</ele>
        <time>2013-02-03T12:12:34Z</time>
      </trkpt>
      <trkpt lat="44.33537" lon="2.62877">
        <ele>644.2207031</ele>
        <time>2013-02-03T12:12:39Z</time>
      </trkpt>
      <trkpt lat="44.33542" lon="2.62874">
        <ele>646.1433105</ele>
        <time>2013-02-03T12:12:43Z</time>
      </trkpt>
      <trkpt lat="44.33542" lon="2.62883">
        <ele>647.1044922</ele>
        <time>2013-02-03T12:12:47Z</time>
      </trkpt>
      <trkpt lat="44.33543" lon="2.62885">
        <ele>646.6240234</ele>
        <time>2013-02-03T12:12:48Z</time>
      </trkpt>
      <trkpt lat="44.33553" lon="2.629">
        <ele>644.2207031</ele>
        <time>2013-02-03T12:12:53Z</time>
      </trkpt>
      <trkpt lat="44.33561" lon="2.62911">
        <ele>645.1818848</ele>
        <time>2013-02-03T12:12:59Z</time>
      </trkpt>
      <trkpt lat="44.33569" lon="2.62924">
        <ele>646.1433105</ele>
        <time>2013-02-03T12:13:04Z</time>
      </trkpt>
      <trkpt lat="44.3358" lon="2.62924">
        <ele>646.6240234</ele>
        <time>2013-02-03T12:13:11Z</time>
      </trkpt>
      <trkpt lat="44.3358" lon="2.62924">
        <ele>646.6240234</ele>
        <time>2013-02-03T12:13:12Z</time>
      </trkpt>
    </trkseg>
  </trk>
</gpx>